<?xml version="1.0" encoding="UTF-8" standalone="no" ?>
<gpx xmlns="http://www.topografix.com/GPX/1/1" xmlns:xsi="http://www.w3.org/2001/XMLSchema-instance" xsi:schemaLocation="http://www.topografix.com/GPX/1/1 http://www.topografix.com/GPX/1/1/gpx.xsd" version="1.1" creator="VisuGPX - https://www.visugpx.com">
  <metadata>
    <name>CCFM 323</name>
    <desc><![CDATA[⛳️CS.Mons, Cowâ, Engis, Outrelouxhe, Terwagne, Clavier, Pont De Bonne, [b]HUY[/b], Mont Falise, Villers, Fize-Fontaine, Bodegnée, Verlaine, Lexhy, Mons.]]></desc>
  </metadata>
  <trk>
    <name><![CDATA[CCFM 323]]></name>
    <extensions>
      <line xmlns="http://www.topografix.com/GPX/gpx_style/0/2">
        <color>0000FF</color>
        <width>4</width>
          <extensions>
            <sens>1</sens>
          </extensions>
      </line>
    </extensions>
    <trkseg>
      <trkpt lat="50.62265" lon="5.44822">
        <ele>190</ele>
        <time>2021-07-11T07:00:54.000Z</time>
        <extensions>
          <visugpx:TrkExtension xmlns:visugpx="https://www.visugpx.com/editgpx/">
            <visugpx:node>20</visugpx:node>
            </visugpx:TrkExtension>
        </extensions>
      </trkpt>
      <trkpt lat="50.62331" lon="5.44818">
        <ele>191</ele>
      </trkpt>
      <trkpt lat="50.62337" lon="5.4475">
        <ele>191</ele>
        <time>2021-07-11T07:00:55.000Z</time>
      </trkpt>
      <trkpt lat="50.62341" lon="5.44733">
        <ele>189</ele>
        <time>2021-07-11T07:00:57.000Z</time>
      </trkpt>
      <trkpt lat="50.62345" lon="5.44695">
        <ele>189</ele>
        <time>2021-07-11T07:01:02.000Z</time>
      </trkpt>
      <trkpt lat="50.6235" lon="5.44657">
        <ele>189.39999389648</ele>
        <time>2021-07-11T07:01:07.000Z</time>
      </trkpt>
      <trkpt lat="50.62355" lon="5.44576">
        <ele>189.80000305176</ele>
        <time>2021-07-11T07:01:17.000Z</time>
      </trkpt>
      <trkpt lat="50.62356" lon="5.44534">
        <ele>189.80000305176</ele>
        <time>2021-07-11T07:01:22.000Z</time>
      </trkpt>
      <trkpt lat="50.62354" lon="5.44482">
        <ele>189.60000610352</ele>
        <time>2021-07-11T07:01:28.000Z</time>
      </trkpt>
      <trkpt lat="50.62351" lon="5.44439">
        <ele>189.39999389648</ele>
        <time>2021-07-11T07:01:33.000Z</time>
      </trkpt>
      <trkpt lat="50.62348" lon="5.44403">
        <ele>188.80000305176</ele>
        <time>2021-07-11T07:01:37.000Z</time>
      </trkpt>
      <trkpt lat="50.62341" lon="5.44348">
        <ele>188.19999694824</ele>
        <time>2021-07-11T07:01:43.000Z</time>
      </trkpt>
      <trkpt lat="50.62333" lon="5.44301">
        <ele>187.60000610352</ele>
        <time>2021-07-11T07:01:48.000Z</time>
      </trkpt>
      <trkpt lat="50.62331" lon="5.44292">
        <ele>187.39999389648</ele>
        <time>2021-07-11T07:01:49.000Z</time>
      </trkpt>
      <trkpt lat="50.6232" lon="5.44245">
        <ele>187</ele>
        <time>2021-07-11T07:01:54.000Z</time>
      </trkpt>
      <trkpt lat="50.62313" lon="5.44216">
        <ele>186.60000610352</ele>
        <time>2021-07-11T07:01:57.000Z</time>
      </trkpt>
      <trkpt lat="50.62307" lon="5.44187">
        <ele>186</ele>
        <time>2021-07-11T07:02:00.000Z</time>
      </trkpt>
      <trkpt lat="50.62306" lon="5.44166">
        <ele>186</ele>
        <time>2021-07-11T07:02:02.000Z</time>
      </trkpt>
      <trkpt lat="50.62306" lon="5.44156">
        <ele>185.60000610352</ele>
        <time>2021-07-11T07:02:03.000Z</time>
      </trkpt>
      <trkpt lat="50.62307" lon="5.44145">
        <ele>185.60000610352</ele>
        <time>2021-07-11T07:02:04.000Z</time>
      </trkpt>
      <trkpt lat="50.62311" lon="5.44125">
        <ele>185.39999389648</ele>
        <time>2021-07-11T07:02:06.000Z</time>
      </trkpt>
      <trkpt lat="50.62315" lon="5.44116">
        <ele>185.39999389648</ele>
        <time>2021-07-11T07:02:07.000Z</time>
      </trkpt>
      <trkpt lat="50.62319" lon="5.44107">
        <ele>185.19999694824</ele>
        <time>2021-07-11T07:02:08.000Z</time>
      </trkpt>
      <trkpt lat="50.62341" lon="5.44066">
        <ele>184.60000610352</ele>
        <time>2021-07-11T07:02:13.000Z</time>
      </trkpt>
      <trkpt lat="50.62369" lon="5.44011">
        <ele>183.60000610352</ele>
        <time>2021-07-11T07:02:20.000Z</time>
      </trkpt>
      <trkpt lat="50.62372" lon="5.44002">
        <ele>183.80000305176</ele>
        <time>2021-07-11T07:02:21.000Z</time>
      </trkpt>
      <trkpt lat="50.62373" lon="5.43993">
        <ele>183.80000305176</ele>
        <time>2021-07-11T07:02:22.000Z</time>
      </trkpt>
      <trkpt lat="50.62373" lon="5.43974">
        <ele>183.60000610352</ele>
        <time>2021-07-11T07:02:24.000Z</time>
      </trkpt>
      <trkpt lat="50.62362" lon="5.43914">
        <ele>183.60000610352</ele>
        <time>2021-07-11T07:02:30.000Z</time>
      </trkpt>
      <trkpt lat="50.62355" lon="5.43884">
        <ele>183.60000610352</ele>
        <time>2021-07-11T07:02:33.000Z</time>
      </trkpt>
      <trkpt lat="50.62348" lon="5.43854">
        <ele>183.39999389648</ele>
        <time>2021-07-11T07:02:36.000Z</time>
      </trkpt>
      <trkpt lat="50.62342" lon="5.43822">
        <ele>183.19999694824</ele>
        <time>2021-07-11T07:02:39.000Z</time>
      </trkpt>
      <trkpt lat="50.62325" lon="5.43759">
        <ele>182.39999389648</ele>
        <time>2021-07-11T07:02:45.000Z</time>
      </trkpt>
      <trkpt lat="50.62303" lon="5.437">
        <ele>181.60000610352</ele>
        <time>2021-07-11T07:02:52.000Z</time>
      </trkpt>
      <trkpt lat="50.62297" lon="5.43685">
        <ele>181.60000610352</ele>
        <time>2021-07-11T07:02:54.000Z</time>
      </trkpt>
      <trkpt lat="50.62277" lon="5.43631">
        <ele>182.60000610352</ele>
        <time>2021-07-11T07:03:01.000Z</time>
      </trkpt>
      <trkpt lat="50.62274" lon="5.43623">
        <ele>182.60000610352</ele>
        <time>2021-07-11T07:03:02.000Z</time>
      </trkpt>
      <trkpt lat="50.6226" lon="5.43588">
        <ele>183.60000610352</ele>
        <time>2021-07-11T07:03:07.000Z</time>
      </trkpt>
      <trkpt lat="50.62252" lon="5.43567">
        <ele>184.19999694824</ele>
        <time>2021-07-11T07:03:10.000Z</time>
      </trkpt>
      <trkpt lat="50.62247" lon="5.43553">
        <ele>184.39999389648</ele>
        <time>2021-07-11T07:03:12.000Z</time>
      </trkpt>
      <trkpt lat="50.62245" lon="5.43546">
        <ele>184.80000305176</ele>
        <time>2021-07-11T07:03:13.000Z</time>
      </trkpt>
      <trkpt lat="50.62233" lon="5.43503">
        <ele>186.19999694824</ele>
        <time>2021-07-11T07:03:19.000Z</time>
      </trkpt>
      <trkpt lat="50.62232" lon="5.43496">
        <ele>186.19999694824</ele>
        <time>2021-07-11T07:03:20.000Z</time>
      </trkpt>
      <trkpt lat="50.6223" lon="5.43481">
        <ele>186.80000305176</ele>
        <time>2021-07-11T07:03:22.000Z</time>
      </trkpt>
      <trkpt lat="50.62225" lon="5.4347">
        <ele>187.19999694824</ele>
        <time>2021-07-11T07:03:24.000Z</time>
      </trkpt>
      <trkpt lat="50.62212" lon="5.43459">
        <ele>187.60000610352</ele>
        <time>2021-07-11T07:03:27.000Z</time>
      </trkpt>
      <trkpt lat="50.62208" lon="5.43453">
        <ele>187.60000610352</ele>
        <time>2021-07-11T07:03:28.000Z</time>
      </trkpt>
      <trkpt lat="50.62205" lon="5.43445">
        <ele>187.80000305176</ele>
        <time>2021-07-11T07:03:29.000Z</time>
      </trkpt>
      <trkpt lat="50.62191" lon="5.43408">
        <ele>188.39999389648</ele>
        <time>2021-07-11T07:03:34.000Z</time>
      </trkpt>
      <trkpt lat="50.62175" lon="5.43364">
        <ele>189</ele>
        <time>2021-07-11T07:03:40.000Z</time>
      </trkpt>
      <trkpt lat="50.62165" lon="5.43335">
        <ele>189.19999694824</ele>
        <time>2021-07-11T07:03:44.000Z</time>
      </trkpt>
      <trkpt lat="50.6216" lon="5.43321">
        <ele>189.39999389648</ele>
        <time>2021-07-11T07:03:46.000Z</time>
      </trkpt>
      <trkpt lat="50.62148" lon="5.43296">
        <ele>190</ele>
        <time>2021-07-11T07:03:50.000Z</time>
      </trkpt>
      <trkpt lat="50.62144" lon="5.43291">
        <ele>190.19999694824</ele>
        <time>2021-07-11T07:03:51.000Z</time>
      </trkpt>
      <trkpt lat="50.62099" lon="5.43246">
        <ele>192</ele>
        <time>2021-07-11T07:04:01.000Z</time>
      </trkpt>
      <trkpt lat="50.62083" lon="5.43229">
        <ele>192</ele>
        <time>2021-07-11T07:04:04.000Z</time>
      </trkpt>
      <trkpt lat="50.62062" lon="5.43203">
        <ele>191.60000610352</ele>
        <time>2021-07-11T07:04:08.000Z</time>
      </trkpt>
      <trkpt lat="50.6204" lon="5.4318">
        <ele>191.39999389648</ele>
        <time>2021-07-11T07:04:12.000Z</time>
      </trkpt>
      <trkpt lat="50.62029" lon="5.43171">
        <ele>190.80000305176</ele>
        <time>2021-07-11T07:04:14.000Z</time>
      </trkpt>
      <trkpt lat="50.6199" lon="5.4315">
        <ele>190.60000610352</ele>
        <time>2021-07-11T07:04:21.000Z</time>
      </trkpt>
      <trkpt lat="50.61965" lon="5.43128">
        <ele>190.80000305176</ele>
        <time>2021-07-11T07:04:26.000Z</time>
      </trkpt>
      <trkpt lat="50.61931" lon="5.43082">
        <ele>191</ele>
        <time>2021-07-11T07:04:33.000Z</time>
      </trkpt>
      <trkpt lat="50.61927" lon="5.43075">
        <ele>191</ele>
        <time>2021-07-11T07:04:34.000Z</time>
      </trkpt>
      <trkpt lat="50.61893" lon="5.43027">
        <ele>190.39999389648</ele>
        <time>2021-07-11T07:04:41.000Z</time>
      </trkpt>
      <trkpt lat="50.61865" lon="5.42988">
        <ele>189.80000305176</ele>
        <time>2021-07-11T07:04:47.000Z</time>
      </trkpt>
      <trkpt lat="50.61851" lon="5.4297">
        <ele>190</ele>
        <time>2021-07-11T07:04:50.000Z</time>
      </trkpt>
      <trkpt lat="50.61815" lon="5.42929">
        <ele>190.19999694824</ele>
        <time>2021-07-11T07:04:57.000Z</time>
      </trkpt>
      <trkpt lat="50.61786" lon="5.42898">
        <ele>190</ele>
        <time>2021-07-11T07:05:02.000Z</time>
      </trkpt>
      <trkpt lat="50.61781" lon="5.4289">
        <ele>190</ele>
        <time>2021-07-11T07:05:03.000Z</time>
      </trkpt>
      <trkpt lat="50.61776" lon="5.4288">
        <ele>190</ele>
        <time>2021-07-11T07:05:04.000Z</time>
      </trkpt>
      <trkpt lat="50.61771" lon="5.42858">
        <ele>189.60000610352</ele>
        <time>2021-07-11T07:05:06.000Z</time>
      </trkpt>
      <trkpt lat="50.61773" lon="5.42834">
        <ele>189.39999389648</ele>
        <time>2021-07-11T07:05:08.000Z</time>
      </trkpt>
      <trkpt lat="50.61776" lon="5.42823">
        <ele>189.19999694824</ele>
        <time>2021-07-11T07:05:09.000Z</time>
      </trkpt>
      <trkpt lat="50.6178" lon="5.42812">
        <ele>188.80000305176</ele>
        <time>2021-07-11T07:05:10.000Z</time>
      </trkpt>
      <trkpt lat="50.61789" lon="5.4279">
        <ele>188.19999694824</ele>
        <time>2021-07-11T07:05:12.000Z</time>
      </trkpt>
      <trkpt lat="50.61798" lon="5.42767">
        <ele>187.80000305176</ele>
        <time>2021-07-11T07:05:14.000Z</time>
      </trkpt>
      <trkpt lat="50.61804" lon="5.42742">
        <ele>187.19999694824</ele>
        <time>2021-07-11T07:05:16.000Z</time>
      </trkpt>
      <trkpt lat="50.61808" lon="5.42718">
        <ele>186.60000610352</ele>
        <time>2021-07-11T07:05:18.000Z</time>
      </trkpt>
      <trkpt lat="50.61814" lon="5.42684">
        <ele>185.19999694824</ele>
        <time>2021-07-11T07:05:21.000Z</time>
      </trkpt>
      <trkpt lat="50.61817" lon="5.42665">
        <ele>184.60000610352</ele>
        <time>2021-07-11T07:05:23.000Z</time>
      </trkpt>
      <trkpt lat="50.61819" lon="5.42656">
        <ele>184.60000610352</ele>
        <time>2021-07-11T07:05:24.000Z</time>
      </trkpt>
      <trkpt lat="50.61819" lon="5.42647">
        <ele>184.60000610352</ele>
        <time>2021-07-11T07:05:25.000Z</time>
      </trkpt>
      <trkpt lat="50.61814" lon="5.42618">
        <ele>189.2</ele>
        <time>2021-07-11T07:05:28.000Z</time>
      </trkpt>
      <trkpt lat="50.61806" lon="5.42574">
        <ele>190.4</ele>
        <time>2021-07-11T07:05:30.000Z</time>
      </trkpt>
      <trkpt lat="50.61804" lon="5.42562">
        <ele>190.7</ele>
        <time>2021-07-11T07:05:35.000Z</time>
      </trkpt>
      <trkpt lat="50.61806" lon="5.42545">
        <ele>191.4</ele>
        <time>2021-07-11T07:05:37.000Z</time>
      </trkpt>
      <trkpt lat="50.61806" lon="5.42528">
        <ele>192</ele>
        <time>2021-07-11T07:05:38.000Z</time>
      </trkpt>
      <trkpt lat="50.61813" lon="5.42514">
        <ele>187.60000610352</ele>
        <time>2021-07-11T07:05:41.000Z</time>
      </trkpt>
      <trkpt lat="50.61826" lon="5.42458">
        <ele>188.60000610352</ele>
        <time>2021-07-11T07:05:48.000Z</time>
      </trkpt>
      <trkpt lat="50.61832" lon="5.42443">
        <ele>189.19999694824</ele>
        <time>2021-07-11T07:05:50.000Z</time>
      </trkpt>
      <trkpt lat="50.61853" lon="5.42391">
        <ele>190.19999694824</ele>
        <time>2021-07-11T07:05:57.000Z</time>
      </trkpt>
      <trkpt lat="50.61878" lon="5.4233">
        <ele>190.19999694824</ele>
        <time>2021-07-11T07:06:04.000Z</time>
      </trkpt>
      <trkpt lat="50.61882" lon="5.42321">
        <ele>190</ele>
        <time>2021-07-11T07:06:05.000Z</time>
      </trkpt>
      <trkpt lat="50.619" lon="5.42264">
        <ele>189</ele>
        <time>2021-07-11T07:06:11.000Z</time>
      </trkpt>
      <trkpt lat="50.61905" lon="5.42232">
        <ele>188.19999694824</ele>
        <time>2021-07-11T07:06:14.000Z</time>
      </trkpt>
      <trkpt lat="50.61905" lon="5.42211">
        <ele>188</ele>
        <time>2021-07-11T07:06:16.000Z</time>
      </trkpt>
      <trkpt lat="50.61905" lon="5.422">
        <ele>187.60000610352</ele>
        <time>2021-07-11T07:06:17.000Z</time>
      </trkpt>
      <trkpt lat="50.61905" lon="5.42134">
        <ele>186</ele>
        <time>2021-07-11T07:06:23.000Z</time>
      </trkpt>
      <trkpt lat="50.619" lon="5.42072">
        <ele>185</ele>
        <time>2021-07-11T07:06:29.000Z</time>
      </trkpt>
      <trkpt lat="50.61893" lon="5.41982">
        <ele>184.60000610352</ele>
        <time>2021-07-11T07:06:38.000Z</time>
      </trkpt>
      <trkpt lat="50.61893" lon="5.41963">
        <ele>184.80000305176</ele>
        <time>2021-07-11T07:06:40.000Z</time>
      </trkpt>
      <trkpt lat="50.61893" lon="5.41953">
        <ele>184.80000305176</ele>
        <time>2021-07-11T07:06:41.000Z</time>
      </trkpt>
      <trkpt lat="50.61895" lon="5.41889">
        <ele>184.80000305176</ele>
        <time>2021-07-11T07:06:48.000Z</time>
      </trkpt>
      <trkpt lat="50.61896" lon="5.4188">
        <ele>184.80000305176</ele>
        <time>2021-07-11T07:06:49.000Z</time>
      </trkpt>
      <trkpt lat="50.61899" lon="5.41833">
        <ele>185.19999694824</ele>
        <time>2021-07-11T07:06:54.000Z</time>
      </trkpt>
      <trkpt lat="50.61902" lon="5.41796">
        <ele>185</ele>
        <time>2021-07-11T07:06:58.000Z</time>
      </trkpt>
      <trkpt lat="50.61911" lon="5.41722">
        <ele>185.19999694824</ele>
        <time>2021-07-11T07:07:06.000Z</time>
      </trkpt>
      <trkpt lat="50.61913" lon="5.41713">
        <ele>185</ele>
        <time>2021-07-11T07:07:07.000Z</time>
      </trkpt>
      <trkpt lat="50.61921" lon="5.41689">
        <ele>184.80000305176</ele>
        <time>2021-07-11T07:07:10.000Z</time>
      </trkpt>
      <trkpt lat="50.61921" lon="5.41681">
        <ele>184.80000305176</ele>
        <time>2021-07-11T07:07:11.000Z</time>
      </trkpt>
      <trkpt lat="50.6192" lon="5.41672">
        <ele>184.80000305176</ele>
        <time>2021-07-11T07:07:12.000Z</time>
      </trkpt>
      <trkpt lat="50.61912" lon="5.41646">
        <ele>184.60000610352</ele>
        <time>2021-07-11T07:07:15.000Z</time>
      </trkpt>
      <trkpt lat="50.61888" lon="5.41577">
        <ele>184.60000610352</ele>
        <time>2021-07-11T07:07:23.000Z</time>
      </trkpt>
      <trkpt lat="50.61875" lon="5.41544">
        <ele>184.60000610352</ele>
        <time>2021-07-11T07:07:27.000Z</time>
      </trkpt>
      <trkpt lat="50.6187" lon="5.41538">
        <ele>184.60000610352</ele>
        <time>2021-07-11T07:07:28.000Z</time>
      </trkpt>
      <trkpt lat="50.61865" lon="5.41533">
        <ele>184.39999389648</ele>
        <time>2021-07-11T07:07:29.000Z</time>
      </trkpt>
      <trkpt lat="50.61847" lon="5.41523">
        <ele>184.39999389648</ele>
        <time>2021-07-11T07:07:32.000Z</time>
      </trkpt>
      <trkpt lat="50.61794" lon="5.41492">
        <ele>184.60000610352</ele>
        <time>2021-07-11T07:07:41.000Z</time>
      </trkpt>
      <trkpt lat="50.61783" lon="5.41484">
        <ele>184.39999389648</ele>
        <time>2021-07-11T07:07:43.000Z</time>
      </trkpt>
      <trkpt lat="50.61773" lon="5.41474">
        <ele>184.39999389648</ele>
        <time>2021-07-11T07:07:45.000Z</time>
      </trkpt>
      <trkpt lat="50.61739" lon="5.41447">
        <ele>184.39999389648</ele>
        <time>2021-07-11T07:07:51.000Z</time>
      </trkpt>
      <trkpt lat="50.61693" lon="5.41418">
        <ele>183.60000610352</ele>
        <time>2021-07-11T07:07:59.000Z</time>
      </trkpt>
      <trkpt lat="50.61648" lon="5.41391">
        <ele>183.39999389648</ele>
        <time>2021-07-11T07:08:07.000Z</time>
      </trkpt>
      <trkpt lat="50.61596" lon="5.41364">
        <ele>183.60000610352</ele>
        <time>2021-07-11T07:08:16.000Z</time>
      </trkpt>
      <trkpt lat="50.6159" lon="5.41362">
        <ele>183.60000610352</ele>
        <time>2021-07-11T07:08:17.000Z</time>
      </trkpt>
      <trkpt lat="50.61562" lon="5.41347">
        <ele>183.80000305176</ele>
        <time>2021-07-11T07:08:22.000Z</time>
      </trkpt>
      <trkpt lat="50.61518" lon="5.41324">
        <ele>184.60000610352</ele>
        <time>2021-07-11T07:08:30.000Z</time>
      </trkpt>
      <trkpt lat="50.61487" lon="5.41321">
        <ele>185.19999694824</ele>
        <time>2021-07-11T07:08:35.000Z</time>
      </trkpt>
      <trkpt lat="50.6146" lon="5.41316">
        <ele>185.19999694824</ele>
        <time>2021-07-11T07:08:39.000Z</time>
      </trkpt>
      <trkpt lat="50.61448" lon="5.41309">
        <ele>185</ele>
        <time>2021-07-11T07:08:41.000Z</time>
      </trkpt>
      <trkpt lat="50.61402" lon="5.41272">
        <ele>184</ele>
        <time>2021-07-11T07:08:49.000Z</time>
      </trkpt>
      <trkpt lat="50.61376" lon="5.41246">
        <ele>183.39999389648</ele>
        <time>2021-07-11T07:08:54.000Z</time>
      </trkpt>
      <trkpt lat="50.61365" lon="5.41237">
        <ele>183.39999389648</ele>
        <time>2021-07-11T07:08:56.000Z</time>
      </trkpt>
      <trkpt lat="50.61353" lon="5.41234">
        <ele>183.19999694824</ele>
        <time>2021-07-11T07:08:58.000Z</time>
      </trkpt>
      <trkpt lat="50.61347" lon="5.41236">
        <ele>183</ele>
        <time>2021-07-11T07:08:59.000Z</time>
      </trkpt>
      <trkpt lat="50.61341" lon="5.41238">
        <ele>183.19999694824</ele>
        <time>2021-07-11T07:09:00.000Z</time>
      </trkpt>
      <trkpt lat="50.61317" lon="5.41255">
        <ele>182.39999389648</ele>
        <time>2021-07-11T07:09:04.000Z</time>
      </trkpt>
      <trkpt lat="50.61311" lon="5.4126">
        <ele>182.39999389648</ele>
        <time>2021-07-11T07:09:05.000Z</time>
      </trkpt>
      <trkpt lat="50.61289" lon="5.41282">
        <ele>182.19999694824</ele>
        <time>2021-07-11T07:09:09.000Z</time>
      </trkpt>
      <trkpt lat="50.61284" lon="5.41289">
        <ele>182</ele>
        <time>2021-07-11T07:09:10.000Z</time>
      </trkpt>
      <trkpt lat="50.61274" lon="5.41303">
        <ele>181.60000610352</ele>
        <time>2021-07-11T07:09:12.000Z</time>
      </trkpt>
      <trkpt lat="50.6127" lon="5.4131">
        <ele>181.60000610352</ele>
        <time>2021-07-11T07:09:13.000Z</time>
      </trkpt>
      <trkpt lat="50.61265" lon="5.41318">
        <ele>181.39999389648</ele>
        <time>2021-07-11T07:09:14.000Z</time>
      </trkpt>
      <trkpt lat="50.61255" lon="5.41331">
        <ele>181.19999694824</ele>
        <time>2021-07-11T07:09:16.000Z</time>
      </trkpt>
      <trkpt lat="50.61249" lon="5.41334">
        <ele>181.19999694824</ele>
        <time>2021-07-11T07:09:17.000Z</time>
      </trkpt>
      <trkpt lat="50.61242" lon="5.41335">
        <ele>181</ele>
        <time>2021-07-11T07:09:18.000Z</time>
      </trkpt>
      <trkpt lat="50.61236" lon="5.41334">
        <ele>180.80000305176</ele>
        <time>2021-07-11T07:09:19.000Z</time>
      </trkpt>
      <trkpt lat="50.61229" lon="5.41332">
        <ele>180.80000305176</ele>
        <time>2021-07-11T07:09:20.000Z</time>
      </trkpt>
      <trkpt lat="50.61209" lon="5.41325">
        <ele>180</ele>
        <time>2021-07-11T07:09:23.000Z</time>
      </trkpt>
      <trkpt lat="50.61187" lon="5.41318">
        <ele>179.60000610352</ele>
        <time>2021-07-11T07:09:26.000Z</time>
      </trkpt>
      <trkpt lat="50.61179" lon="5.41314">
        <ele>179.19999694824</ele>
        <time>2021-07-11T07:09:27.000Z</time>
      </trkpt>
      <trkpt lat="50.61163" lon="5.41308">
        <ele>178.39999389648</ele>
        <time>2021-07-11T07:09:29.000Z</time>
      </trkpt>
      <trkpt lat="50.61145" lon="5.41302">
        <ele>177.80000305176</ele>
        <time>2021-07-11T07:09:31.000Z</time>
      </trkpt>
      <trkpt lat="50.61136" lon="5.41298">
        <ele>177.39999389648</ele>
        <time>2021-07-11T07:09:32.000Z</time>
      </trkpt>
      <trkpt lat="50.61115" lon="5.41291">
        <ele>176.60000610352</ele>
        <time>2021-07-11T07:09:34.000Z</time>
      </trkpt>
      <trkpt lat="50.61104" lon="5.4129">
        <ele>176.19999694824</ele>
        <time>2021-07-11T07:09:35.000Z</time>
      </trkpt>
      <trkpt lat="50.61093" lon="5.41291">
        <ele>176</ele>
        <time>2021-07-11T07:09:36.000Z</time>
      </trkpt>
      <trkpt lat="50.61058" lon="5.41298">
        <ele>174</ele>
        <time>2021-07-11T07:09:39.000Z</time>
      </trkpt>
      <trkpt lat="50.61007" lon="5.41309">
        <ele>168.39999389648</ele>
        <time>2021-07-11T07:09:44.000Z</time>
      </trkpt>
      <trkpt lat="50.60998" lon="5.41311">
        <ele>167.19999694824</ele>
        <time>2021-07-11T07:09:45.000Z</time>
      </trkpt>
      <trkpt lat="50.60947" lon="5.41318">
        <ele>165.80000305176</ele>
        <time>2021-07-11T07:09:51.000Z</time>
      </trkpt>
      <trkpt lat="50.60938" lon="5.41319">
        <ele>165.80000305176</ele>
        <time>2021-07-11T07:09:52.000Z</time>
      </trkpt>
      <trkpt lat="50.60921" lon="5.41321">
        <ele>165.60000610352</ele>
        <time>2021-07-11T07:09:54.000Z</time>
      </trkpt>
      <trkpt lat="50.60902" lon="5.41321">
        <ele>165.39999389648</ele>
        <time>2021-07-11T07:09:56.000Z</time>
      </trkpt>
      <trkpt lat="50.60892" lon="5.4132">
        <ele>165.19999694824</ele>
        <time>2021-07-11T07:09:57.000Z</time>
      </trkpt>
      <trkpt lat="50.60882" lon="5.41318">
        <ele>164.80000305176</ele>
        <time>2021-07-11T07:09:58.000Z</time>
      </trkpt>
      <trkpt lat="50.60871" lon="5.41316">
        <ele>165</ele>
        <time>2021-07-11T07:09:59.000Z</time>
      </trkpt>
      <trkpt lat="50.6083" lon="5.41304">
        <ele>163.80000305176</ele>
        <time>2021-07-11T07:10:03.000Z</time>
      </trkpt>
      <trkpt lat="50.60809" lon="5.413">
        <ele>162</ele>
        <time>2021-07-11T07:10:05.000Z</time>
      </trkpt>
      <trkpt lat="50.60798" lon="5.41299">
        <ele>160.80000305176</ele>
        <time>2021-07-11T07:10:06.000Z</time>
      </trkpt>
      <trkpt lat="50.60787" lon="5.41298">
        <ele>159.80000305176</ele>
        <time>2021-07-11T07:10:07.000Z</time>
      </trkpt>
      <trkpt lat="50.60775" lon="5.41296">
        <ele>158.60000610352</ele>
        <time>2021-07-11T07:10:08.000Z</time>
      </trkpt>
      <trkpt lat="50.60752" lon="5.41292">
        <ele>157.80000305176</ele>
        <time>2021-07-11T07:10:10.000Z</time>
      </trkpt>
      <trkpt lat="50.60739" lon="5.41288">
        <ele>157.19999694824</ele>
        <time>2021-07-11T07:10:11.000Z</time>
      </trkpt>
      <trkpt lat="50.60714" lon="5.41281">
        <ele>155.60000610352</ele>
        <time>2021-07-11T07:10:13.000Z</time>
      </trkpt>
      <trkpt lat="50.60689" lon="5.41273">
        <ele>155</ele>
        <time>2021-07-11T07:10:15.000Z</time>
      </trkpt>
      <trkpt lat="50.60676" lon="5.4127">
        <ele>154.39999389648</ele>
        <time>2021-07-11T07:10:16.000Z</time>
      </trkpt>
      <trkpt lat="50.60663" lon="5.41266">
        <ele>153.60000610352</ele>
        <time>2021-07-11T07:10:17.000Z</time>
      </trkpt>
      <trkpt lat="50.60636" lon="5.41258">
        <ele>151.39999389648</ele>
        <time>2021-07-11T07:10:19.000Z</time>
      </trkpt>
      <trkpt lat="50.60623" lon="5.41254">
        <ele>150.39999389648</ele>
        <time>2021-07-11T07:10:20.000Z</time>
      </trkpt>
      <trkpt lat="50.60596" lon="5.41246">
        <ele>147.80000305176</ele>
        <time>2021-07-11T07:10:22.000Z</time>
      </trkpt>
      <trkpt lat="50.60569" lon="5.41239">
        <ele>145.60000610352</ele>
        <time>2021-07-11T07:10:24.000Z</time>
      </trkpt>
      <trkpt lat="50.60542" lon="5.41231">
        <ele>143</ele>
        <time>2021-07-11T07:10:26.000Z</time>
      </trkpt>
      <trkpt lat="50.60505" lon="5.41216">
        <ele>139</ele>
        <time>2021-07-11T07:10:29.000Z</time>
      </trkpt>
      <trkpt lat="50.6047" lon="5.41199">
        <ele>135.80000305176</ele>
        <time>2021-07-11T07:10:32.000Z</time>
      </trkpt>
      <trkpt lat="50.60426" lon="5.41179">
        <ele>132.80000305176</ele>
        <time>2021-07-11T07:10:36.000Z</time>
      </trkpt>
      <trkpt lat="50.60405" lon="5.4117">
        <ele>132.19999694824</ele>
        <time>2021-07-11T07:10:38.000Z</time>
      </trkpt>
      <trkpt lat="50.60394" lon="5.41166">
        <ele>131.80000305176</ele>
        <time>2021-07-11T07:10:39.000Z</time>
      </trkpt>
      <trkpt lat="50.60383" lon="5.41162">
        <ele>131.39999389648</ele>
        <time>2021-07-11T07:10:40.000Z</time>
      </trkpt>
      <trkpt lat="50.60361" lon="5.41155">
        <ele>130.80000305176</ele>
        <time>2021-07-11T07:10:42.000Z</time>
      </trkpt>
      <trkpt lat="50.6034" lon="5.41147">
        <ele>130.19999694824</ele>
        <time>2021-07-11T07:10:44.000Z</time>
      </trkpt>
      <trkpt lat="50.60318" lon="5.41141">
        <ele>129.19999694824</ele>
        <time>2021-07-11T07:10:46.000Z</time>
      </trkpt>
      <trkpt lat="50.60296" lon="5.41135">
        <ele>128</ele>
        <time>2021-07-11T07:10:48.000Z</time>
      </trkpt>
      <trkpt lat="50.60285" lon="5.41133">
        <ele>127.40000152588</ele>
        <time>2021-07-11T07:10:49.000Z</time>
      </trkpt>
      <trkpt lat="50.60262" lon="5.4113">
        <ele>126</ele>
        <time>2021-07-11T07:10:51.000Z</time>
      </trkpt>
      <trkpt lat="50.6024" lon="5.41127">
        <ele>124.80000305176</ele>
        <time>2021-07-11T07:10:53.000Z</time>
      </trkpt>
      <trkpt lat="50.60228" lon="5.41125">
        <ele>124.19999694824</ele>
        <time>2021-07-11T07:10:54.000Z</time>
      </trkpt>
      <trkpt lat="50.60215" lon="5.41122">
        <ele>123.59999847412</ele>
        <time>2021-07-11T07:10:55.000Z</time>
      </trkpt>
      <trkpt lat="50.60203" lon="5.41119">
        <ele>123.19999694824</ele>
        <time>2021-07-11T07:10:56.000Z</time>
      </trkpt>
      <trkpt lat="50.6019" lon="5.41114">
        <ele>122.19999694824</ele>
        <time>2021-07-11T07:10:57.000Z</time>
      </trkpt>
      <trkpt lat="50.60178" lon="5.41107">
        <ele>121.59999847412</ele>
        <time>2021-07-11T07:10:58.000Z</time>
      </trkpt>
      <trkpt lat="50.60166" lon="5.41097">
        <ele>121</ele>
        <time>2021-07-11T07:10:59.000Z</time>
      </trkpt>
      <trkpt lat="50.60155" lon="5.41086">
        <ele>120.40000152588</ele>
        <time>2021-07-11T07:11:00.000Z</time>
      </trkpt>
      <trkpt lat="50.60144" lon="5.41076">
        <ele>119.59999847412</ele>
        <time>2021-07-11T07:11:01.000Z</time>
      </trkpt>
      <trkpt lat="50.60134" lon="5.41067">
        <ele>118.80000305176</ele>
        <time>2021-07-11T07:11:02.000Z</time>
      </trkpt>
      <trkpt lat="50.60124" lon="5.41058">
        <ele>117.59999847412</ele>
        <time>2021-07-11T07:11:03.000Z</time>
      </trkpt>
      <trkpt lat="50.60115" lon="5.4105">
        <ele>116.40000152588</ele>
        <time>2021-07-11T07:11:04.000Z</time>
      </trkpt>
      <trkpt lat="50.60098" lon="5.4104">
        <ele>113.19999694824</ele>
        <time>2021-07-11T07:11:06.000Z</time>
      </trkpt>
      <trkpt lat="50.6009" lon="5.41038">
        <ele>111.40000152588</ele>
        <time>2021-07-11T07:11:07.000Z</time>
      </trkpt>
      <trkpt lat="50.60084" lon="5.41041">
        <ele>109.59999847412</ele>
        <time>2021-07-11T07:11:08.000Z</time>
      </trkpt>
      <trkpt lat="50.60081" lon="5.41048">
        <ele>108</ele>
        <time>2021-07-11T07:11:09.000Z</time>
      </trkpt>
      <trkpt lat="50.6008" lon="5.41057">
        <ele>106.40000152588</ele>
        <time>2021-07-11T07:11:10.000Z</time>
      </trkpt>
      <trkpt lat="50.60082" lon="5.41067">
        <ele>104.80000305176</ele>
        <time>2021-07-11T07:11:11.000Z</time>
      </trkpt>
      <trkpt lat="50.60086" lon="5.41078">
        <ele>103.19999694824</ele>
        <time>2021-07-11T07:11:12.000Z</time>
      </trkpt>
      <trkpt lat="50.60091" lon="5.4109">
        <ele>101.80000305176</ele>
        <time>2021-07-11T07:11:13.000Z</time>
      </trkpt>
      <trkpt lat="50.60096" lon="5.41103">
        <ele>100.80000305176</ele>
        <time>2021-07-11T07:11:14.000Z</time>
      </trkpt>
      <trkpt lat="50.60108" lon="5.41131">
        <ele>99.199996948242</ele>
        <time>2021-07-11T07:11:16.000Z</time>
      </trkpt>
      <trkpt lat="50.60118" lon="5.41157">
        <ele>97.800003051758</ele>
        <time>2021-07-11T07:11:18.000Z</time>
      </trkpt>
      <trkpt lat="50.60123" lon="5.41169">
        <ele>97.400001525879</ele>
        <time>2021-07-11T07:11:19.000Z</time>
      </trkpt>
      <trkpt lat="50.60128" lon="5.41188">
        <ele>95.800003051758</ele>
        <time>2021-07-11T07:11:21.000Z</time>
      </trkpt>
      <trkpt lat="50.60128" lon="5.41197">
        <ele>94.599998474121</ele>
        <time>2021-07-11T07:11:22.000Z</time>
      </trkpt>
      <trkpt lat="50.60125" lon="5.41202">
        <ele>93.599998474121</ele>
        <time>2021-07-11T07:11:23.000Z</time>
      </trkpt>
      <trkpt lat="50.60119" lon="5.41204">
        <ele>92.400001525879</ele>
        <time>2021-07-11T07:11:24.000Z</time>
      </trkpt>
      <trkpt lat="50.60114" lon="5.41204">
        <ele>91.800003051758</ele>
        <time>2021-07-11T07:11:25.000Z</time>
      </trkpt>
      <trkpt lat="50.60102" lon="5.41198">
        <ele>90.400001525879</ele>
        <time>2021-07-11T07:11:27.000Z</time>
      </trkpt>
      <trkpt lat="50.60091" lon="5.41187">
        <ele>89.800003051758</ele>
        <time>2021-07-11T07:11:29.000Z</time>
      </trkpt>
      <trkpt lat="50.60081" lon="5.41173">
        <ele>89.400001525879</ele>
        <time>2021-07-11T07:11:31.000Z</time>
      </trkpt>
      <trkpt lat="50.60072" lon="5.41158">
        <ele>88.599998474121</ele>
        <time>2021-07-11T07:11:33.000Z</time>
      </trkpt>
      <trkpt lat="50.60055" lon="5.41125">
        <ele>88.199996948242</ele>
        <time>2021-07-11T07:11:37.000Z</time>
      </trkpt>
      <trkpt lat="50.60026" lon="5.41097">
        <ele>87.599998474121</ele>
        <time>2021-07-11T07:11:42.000Z</time>
      </trkpt>
      <trkpt lat="50.59982" lon="5.41056">
        <ele>86.599998474121</ele>
        <time>2021-07-11T07:11:50.000Z</time>
      </trkpt>
      <trkpt lat="50.59969" lon="5.41037">
        <ele>86</ele>
        <time>2021-07-11T07:11:53.000Z</time>
      </trkpt>
      <trkpt lat="50.59968" lon="5.41028">
        <ele>85.800003051758</ele>
        <time>2021-07-11T07:11:54.000Z</time>
      </trkpt>
      <trkpt lat="50.59968" lon="5.4102">
        <ele>85.800003051758</ele>
        <time>2021-07-11T07:11:55.000Z</time>
      </trkpt>
      <trkpt lat="50.59972" lon="5.41006">
        <ele>85.800003051758</ele>
        <time>2021-07-11T07:11:57.000Z</time>
      </trkpt>
      <trkpt lat="50.59984" lon="5.40976">
        <ele>85.800003051758</ele>
        <time>2021-07-11T07:12:01.000Z</time>
      </trkpt>
      <trkpt lat="50.59992" lon="5.40952">
        <ele>85.599998474121</ele>
        <time>2021-07-11T07:12:04.000Z</time>
      </trkpt>
      <trkpt lat="50.60008" lon="5.40906">
        <ele>86.199996948242</ele>
        <time>2021-07-11T07:12:10.000Z</time>
      </trkpt>
      <trkpt lat="50.60018" lon="5.40878">
        <ele>86.400001525879</ele>
        <time>2021-07-11T07:12:14.000Z</time>
      </trkpt>
      <trkpt lat="50.60023" lon="5.40864">
        <ele>86.599998474121</ele>
        <time>2021-07-11T07:12:16.000Z</time>
      </trkpt>
      <trkpt lat="50.60026" lon="5.40849">
        <ele>86.599998474121</ele>
        <time>2021-07-11T07:12:18.000Z</time>
      </trkpt>
      <trkpt lat="50.60028" lon="5.40832">
        <ele>86.800003051758</ele>
        <time>2021-07-11T07:12:20.000Z</time>
      </trkpt>
      <trkpt lat="50.60028" lon="5.40803">
        <ele>86.599998474121</ele>
        <time>2021-07-11T07:12:23.000Z</time>
      </trkpt>
      <trkpt lat="50.60027" lon="5.40731">
        <ele>86.800003051758</ele>
        <time>2021-07-11T07:12:31.000Z</time>
      </trkpt>
      <trkpt lat="50.60026" lon="5.40713">
        <ele>86.800003051758</ele>
        <time>2021-07-11T07:12:33.000Z</time>
      </trkpt>
      <trkpt lat="50.60024" lon="5.40697">
        <ele>86.599998474121</ele>
        <time>2021-07-11T07:12:35.000Z</time>
      </trkpt>
      <trkpt lat="50.60021" lon="5.40672">
        <ele>86.800003051758</ele>
        <time>2021-07-11T07:12:38.000Z</time>
      </trkpt>
      <trkpt lat="50.60013" lon="5.40633">
        <ele>86.800003051758</ele>
        <time>2021-07-11T07:12:43.000Z</time>
      </trkpt>
      <trkpt lat="50.60009" lon="5.4062">
        <ele>86.800003051758</ele>
        <time>2021-07-11T07:12:45.000Z</time>
      </trkpt>
      <trkpt lat="50.59996" lon="5.40603">
        <ele>86.599998474121</ele>
        <time>2021-07-11T07:12:50.000Z</time>
      </trkpt>
      <trkpt lat="50.59994" lon="5.40602">
        <ele>86.800003051758</ele>
        <time>2021-07-11T07:12:51.000Z</time>
      </trkpt>
      <trkpt lat="50.59987" lon="5.40604">
        <ele>86.599998474121</ele>
        <time>2021-07-11T07:12:53.000Z</time>
      </trkpt>
      <trkpt lat="50.59984" lon="5.40609">
        <ele>86.599998474121</ele>
        <time>2021-07-11T07:12:54.000Z</time>
      </trkpt>
      <trkpt lat="50.59982" lon="5.40616">
        <ele>86.400001525879</ele>
        <time>2021-07-11T07:12:55.000Z</time>
      </trkpt>
      <trkpt lat="50.5998" lon="5.40624">
        <ele>86.400001525879</ele>
        <time>2021-07-11T07:12:56.000Z</time>
      </trkpt>
      <trkpt lat="50.59964" lon="5.40679">
        <ele>86.400001525879</ele>
        <time>2021-07-11T07:13:03.000Z</time>
      </trkpt>
      <trkpt lat="50.59952" lon="5.40721">
        <ele>86.199996948242</ele>
        <time>2021-07-11T07:13:08.000Z</time>
      </trkpt>
      <trkpt lat="50.59938" lon="5.40764">
        <ele>85.800003051758</ele>
        <time>2021-07-11T07:13:13.000Z</time>
      </trkpt>
      <trkpt lat="50.59914" lon="5.40845">
        <ele>84.800003051758</ele>
        <time>2021-07-11T07:13:22.000Z</time>
      </trkpt>
      <trkpt lat="50.59912" lon="5.40855">
        <ele>84.800003051758</ele>
        <time>2021-07-11T07:13:23.000Z</time>
      </trkpt>
      <trkpt lat="50.59893" lon="5.40921">
        <ele>84.400001525879</ele>
        <time>2021-07-11T07:13:30.000Z</time>
      </trkpt>
      <trkpt lat="50.59881" lon="5.40966">
        <ele>84.199996948242</ele>
        <time>2021-07-11T07:13:35.000Z</time>
      </trkpt>
      <trkpt lat="50.59876" lon="5.40985">
        <ele>84</ele>
        <time>2021-07-11T07:13:37.000Z</time>
      </trkpt>
      <trkpt lat="50.59861" lon="5.41028">
        <ele>83.800003051758</ele>
        <time>2021-07-11T07:13:42.000Z</time>
      </trkpt>
      <trkpt lat="50.59853" lon="5.41042">
        <ele>83.599998474121</ele>
        <time>2021-07-11T07:13:44.000Z</time>
      </trkpt>
      <trkpt lat="50.59823" lon="5.41079">
        <ele>83.400001525879</ele>
        <time>2021-07-11T07:13:50.000Z</time>
      </trkpt>
      <trkpt lat="50.59805" lon="5.41093">
        <ele>83.199996948242</ele>
        <time>2021-07-11T07:13:53.000Z</time>
      </trkpt>
      <trkpt lat="50.59794" lon="5.41099">
        <ele>83.400001525879</ele>
        <time>2021-07-11T07:13:55.000Z</time>
      </trkpt>
      <trkpt lat="50.59762" lon="5.41107">
        <ele>83</ele>
        <time>2021-07-11T07:14:00.000Z</time>
      </trkpt>
      <trkpt lat="50.59756" lon="5.41107">
        <ele>83.199996948242</ele>
        <time>2021-07-11T07:14:01.000Z</time>
      </trkpt>
      <trkpt lat="50.59701" lon="5.41109">
        <ele>82.800003051758</ele>
        <time>2021-07-11T07:14:10.000Z</time>
      </trkpt>
      <trkpt lat="50.59695" lon="5.41109">
        <ele>82.599998474121</ele>
        <time>2021-07-11T07:14:11.000Z</time>
      </trkpt>
      <trkpt lat="50.59651" lon="5.41109">
        <ele>82.800003051758</ele>
        <time>2021-07-11T07:14:18.000Z</time>
      </trkpt>
      <trkpt lat="50.59638" lon="5.41106">
        <ele>82.599998474121</ele>
        <time>2021-07-11T07:14:20.000Z</time>
      </trkpt>
      <trkpt lat="50.59599" lon="5.41096">
        <ele>82.599998474121</ele>
        <time>2021-07-11T07:14:26.000Z</time>
      </trkpt>
      <trkpt lat="50.59572" lon="5.41091">
        <ele>82</ele>
        <time>2021-07-11T07:14:30.000Z</time>
      </trkpt>
      <trkpt lat="50.59565" lon="5.4109">
        <ele>82</ele>
        <time>2021-07-11T07:14:31.000Z</time>
      </trkpt>
      <trkpt lat="50.59537" lon="5.41081">
        <ele>81.400001525879</ele>
        <time>2021-07-11T07:14:35.000Z</time>
      </trkpt>
      <trkpt lat="50.59515" lon="5.41078">
        <ele>80.800003051758</ele>
        <time>2021-07-11T07:14:38.000Z</time>
      </trkpt>
      <trkpt lat="50.59459" lon="5.41083">
        <ele>78.800003051758</ele>
        <time>2021-07-11T07:14:46.000Z</time>
      </trkpt>
      <trkpt lat="50.59431" lon="5.41089">
        <ele>78.199996948242</ele>
        <time>2021-07-11T07:14:50.000Z</time>
      </trkpt>
      <trkpt lat="50.59397" lon="5.41096">
        <ele>78</ele>
        <time>2021-07-11T07:14:55.000Z</time>
      </trkpt>
      <trkpt lat="50.59337" lon="5.41108">
        <ele>77.400001525879</ele>
        <time>2021-07-11T07:15:04.000Z</time>
      </trkpt>
      <trkpt lat="50.59318" lon="5.41111">
        <ele>77.400001525879</ele>
        <time>2021-07-11T07:15:07.000Z</time>
      </trkpt>
      <trkpt lat="50.59279" lon="5.41122">
        <ele>77.199996948242</ele>
        <time>2021-07-11T07:15:13.000Z</time>
      </trkpt>
      <trkpt lat="50.59266" lon="5.41127">
        <ele>77</ele>
        <time>2021-07-11T07:15:15.000Z</time>
      </trkpt>
      <trkpt lat="50.59221" lon="5.41143">
        <ele>76.599998474121</ele>
        <time>2021-07-11T07:15:22.000Z</time>
      </trkpt>
      <trkpt lat="50.59188" lon="5.41141">
        <ele>76.400001525879</ele>
        <time>2021-07-11T07:15:27.000Z</time>
      </trkpt>
      <trkpt lat="50.59143" lon="5.41125">
        <ele>76.400001525879</ele>
        <time>2021-07-11T07:15:34.000Z</time>
      </trkpt>
      <trkpt lat="50.59089" lon="5.41103">
        <ele>76.400001525879</ele>
        <time>2021-07-11T07:15:42.000Z</time>
      </trkpt>
      <trkpt lat="50.59082" lon="5.411">
        <ele>76.599998474121</ele>
        <time>2021-07-11T07:15:43.000Z</time>
      </trkpt>
      <trkpt lat="50.59061" lon="5.41091">
        <ele>76.599998474121</ele>
        <time>2021-07-11T07:15:46.000Z</time>
      </trkpt>
      <trkpt lat="50.59032" lon="5.41081">
        <ele>76.199996948242</ele>
        <time>2021-07-11T07:15:50.000Z</time>
      </trkpt>
      <trkpt lat="50.59024" lon="5.41079">
        <ele>75.800003051758</ele>
        <time>2021-07-11T07:15:51.000Z</time>
      </trkpt>
      <trkpt lat="50.59009" lon="5.41079">
        <ele>75.400001525879</ele>
        <time>2021-07-11T07:15:53.000Z</time>
      </trkpt>
      <trkpt lat="50.58995" lon="5.41084">
        <ele>75.199996948242</ele>
        <time>2021-07-11T07:15:55.000Z</time>
      </trkpt>
      <trkpt lat="50.58981" lon="5.41094">
        <ele>74.599998474121</ele>
        <time>2021-07-11T07:15:57.000Z</time>
      </trkpt>
      <trkpt lat="50.58974" lon="5.411">
        <ele>74.400001525879</ele>
        <time>2021-07-11T07:15:58.000Z</time>
      </trkpt>
      <trkpt lat="50.58969" lon="5.41109">
        <ele>74</ele>
        <time>2021-07-11T07:15:59.000Z</time>
      </trkpt>
      <trkpt lat="50.58959" lon="5.41127">
        <ele>73.599998474121</ele>
        <time>2021-07-11T07:16:01.000Z</time>
      </trkpt>
      <trkpt lat="50.58955" lon="5.41138">
        <ele>73.400001525879</ele>
        <time>2021-07-11T07:16:02.000Z</time>
      </trkpt>
      <trkpt lat="50.58939" lon="5.41181">
        <ele>72.599998474121</ele>
        <time>2021-07-11T07:16:06.000Z</time>
      </trkpt>
      <trkpt lat="50.58923" lon="5.41223">
        <ele>71.599998474121</ele>
        <time>2021-07-11T07:16:10.000Z</time>
      </trkpt>
      <trkpt lat="50.58919" lon="5.41234">
        <ele>71.400001525879</ele>
        <time>2021-07-11T07:16:11.000Z</time>
      </trkpt>
      <trkpt lat="50.58908" lon="5.41266">
        <ele>70.800003051758</ele>
        <time>2021-07-11T07:16:14.000Z</time>
      </trkpt>
      <trkpt lat="50.58883" lon="5.41326">
        <ele>69.199996948242</ele>
        <time>2021-07-11T07:16:20.000Z</time>
      </trkpt>
      <trkpt lat="50.58877" lon="5.41335">
        <ele>69</ele>
        <time>2021-07-11T07:16:21.000Z</time>
      </trkpt>
      <trkpt lat="50.58871" lon="5.41342">
        <ele>68.400001525879</ele>
        <time>2021-07-11T07:16:22.000Z</time>
      </trkpt>
      <trkpt lat="50.58858" lon="5.41356">
        <ele>68</ele>
        <time>2021-07-11T07:16:24.000Z</time>
      </trkpt>
      <trkpt lat="50.58808" lon="5.41407">
        <ele>66.400001525879</ele>
        <time>2021-07-11T07:16:32.000Z</time>
      </trkpt>
      <trkpt lat="50.58765" lon="5.41464">
        <ele>65.800003051758</ele>
        <time>2021-07-11T07:16:40.000Z</time>
      </trkpt>
      <trkpt lat="50.58727" lon="5.41513">
        <ele>65.400001525879</ele>
        <time>2021-07-11T07:16:47.000Z</time>
      </trkpt>
      <trkpt lat="50.58711" lon="5.4153">
        <ele>65</ele>
        <time>2021-07-11T07:16:50.000Z</time>
      </trkpt>
      <trkpt lat="50.587" lon="5.41539">
        <ele>65</ele>
        <time>2021-07-11T07:16:52.000Z</time>
      </trkpt>
      <trkpt lat="50.58682" lon="5.41546">
        <ele>64.800003051758</ele>
        <time>2021-07-11T07:16:55.000Z</time>
      </trkpt>
      <trkpt lat="50.58665" lon="5.41552">
        <ele>64.599998474121</ele>
        <time>2021-07-11T07:16:58.000Z</time>
      </trkpt>
      <trkpt lat="50.58648" lon="5.41558">
        <ele>64.599998474121</ele>
        <time>2021-07-11T07:17:01.000Z</time>
      </trkpt>
      <trkpt lat="50.58635" lon="5.41561">
        <ele>64.199996948242</ele>
        <time>2021-07-11T07:17:03.000Z</time>
      </trkpt>
      <trkpt lat="50.58626" lon="5.41566">
        <ele>64.199996948242</ele>
        <time>2021-07-11T07:17:05.000Z</time>
      </trkpt>
      <trkpt lat="50.58623" lon="5.41568">
        <ele>64.199996948242</ele>
        <time>2021-07-11T07:17:06.000Z</time>
      </trkpt>
      <trkpt lat="50.58615" lon="5.41564">
        <ele>64</ele>
        <time>2021-07-11T07:17:09.000Z</time>
      </trkpt>
      <trkpt lat="50.58614" lon="5.41559">
        <ele>64</ele>
        <time>2021-07-11T07:17:10.000Z</time>
      </trkpt>
      <trkpt lat="50.58613" lon="5.41531">
        <ele>64</ele>
        <time>2021-07-11T07:17:14.000Z</time>
      </trkpt>
      <trkpt lat="50.58611" lon="5.41523">
        <ele>64.199996948242</ele>
        <time>2021-07-11T07:17:15.000Z</time>
      </trkpt>
      <trkpt lat="50.58602" lon="5.41489">
        <ele>64.199996948242</ele>
        <time>2021-07-11T07:17:19.000Z</time>
      </trkpt>
      <trkpt lat="50.58599" lon="5.41481">
        <ele>64.400001525879</ele>
        <time>2021-07-11T07:17:20.000Z</time>
      </trkpt>
      <trkpt lat="50.58581" lon="5.41447">
        <ele>64.400001525879</ele>
        <time>2021-07-11T07:17:25.000Z</time>
      </trkpt>
      <trkpt lat="50.58544" lon="5.41386">
        <ele>64.800003051758</ele>
        <time>2021-07-11T07:17:34.000Z</time>
      </trkpt>
      <trkpt lat="50.58505" lon="5.41323">
        <ele>65</ele>
        <time>2021-07-11T07:17:43.000Z</time>
      </trkpt>
      <trkpt lat="50.58501" lon="5.41315">
        <ele>65.199996948242</ele>
        <time>2021-07-11T07:17:44.000Z</time>
      </trkpt>
      <trkpt lat="50.58462" lon="5.41251">
        <ele>65.599998474121</ele>
        <time>2021-07-11T07:17:53.000Z</time>
      </trkpt>
      <trkpt lat="50.58423" lon="5.41184">
        <ele>66</ele>
        <time>2021-07-11T07:18:02.000Z</time>
      </trkpt>
      <trkpt lat="50.58414" lon="5.41168">
        <ele>66.400001525879</ele>
        <time>2021-07-11T07:18:04.000Z</time>
      </trkpt>
      <trkpt lat="50.58378" lon="5.41096">
        <ele>66.199996948242</ele>
        <time>2021-07-11T07:18:13.000Z</time>
      </trkpt>
      <trkpt lat="50.58342" lon="5.41021">
        <ele>66.400001525879</ele>
        <time>2021-07-11T07:18:22.000Z</time>
      </trkpt>
      <trkpt lat="50.58309" lon="5.40943">
        <ele>66</ele>
        <time>2021-07-11T07:18:31.000Z</time>
      </trkpt>
      <trkpt lat="50.58303" lon="5.40925">
        <ele>66</ele>
        <time>2021-07-11T07:18:33.000Z</time>
      </trkpt>
      <trkpt lat="50.58271" lon="5.40846">
        <ele>65.599998474121</ele>
        <time>2021-07-11T07:18:42.000Z</time>
      </trkpt>
      <trkpt lat="50.58262" lon="5.40818">
        <ele>65.599998474121</ele>
        <time>2021-07-11T07:18:45.000Z</time>
      </trkpt>
      <trkpt lat="50.58238" lon="5.40751">
        <ele>65</ele>
        <time>2021-07-11T07:18:52.000Z</time>
      </trkpt>
      <trkpt lat="50.58235" lon="5.40742">
        <ele>65</ele>
        <time>2021-07-11T07:18:53.000Z</time>
      </trkpt>
      <trkpt lat="50.58209" lon="5.40667">
        <ele>64.800003051758</ele>
        <time>2021-07-11T07:19:01.000Z</time>
      </trkpt>
      <trkpt lat="50.58206" lon="5.40658">
        <ele>64.800003051758</ele>
        <time>2021-07-11T07:19:02.000Z</time>
      </trkpt>
      <trkpt lat="50.58176" lon="5.4058">
        <ele>64.400001525879</ele>
        <time>2021-07-11T07:19:11.000Z</time>
      </trkpt>
      <trkpt lat="50.58173" lon="5.40571">
        <ele>64.400001525879</ele>
        <time>2021-07-11T07:19:12.000Z</time>
      </trkpt>
      <trkpt lat="50.58145" lon="5.40499">
        <ele>64.400001525879</ele>
        <time>2021-07-11T07:19:20.000Z</time>
      </trkpt>
      <trkpt lat="50.58141" lon="5.4049">
        <ele>64.400001525879</ele>
        <time>2021-07-11T07:19:21.000Z</time>
      </trkpt>
      <trkpt lat="50.58122" lon="5.40444">
        <ele>63.799999237061</ele>
        <time>2021-07-11T07:19:26.000Z</time>
      </trkpt>
      <trkpt lat="50.58102" lon="5.40389">
        <ele>63.799999237061</ele>
        <time>2021-07-11T07:19:32.000Z</time>
      </trkpt>
      <trkpt lat="50.58098" lon="5.4038">
        <ele>63.799999237061</ele>
        <time>2021-07-11T07:19:33.000Z</time>
      </trkpt>
      <trkpt lat="50.58069" lon="5.40307">
        <ele>64</ele>
        <time>2021-07-11T07:19:41.000Z</time>
      </trkpt>
      <trkpt lat="50.58062" lon="5.40289">
        <ele>64</ele>
        <time>2021-07-11T07:19:43.000Z</time>
      </trkpt>
      <trkpt lat="50.58047" lon="5.40255">
        <ele>64</ele>
        <time>2021-07-11T07:19:47.000Z</time>
      </trkpt>
      <trkpt lat="50.58037" lon="5.40228">
        <ele>64</ele>
        <time>2021-07-11T07:19:50.000Z</time>
      </trkpt>
      <trkpt lat="50.58014" lon="5.40155">
        <ele>64.199996948242</ele>
        <time>2021-07-11T07:19:58.000Z</time>
      </trkpt>
      <trkpt lat="50.57988" lon="5.40073">
        <ele>64</ele>
        <time>2021-07-11T07:20:07.000Z</time>
      </trkpt>
      <trkpt lat="50.57964" lon="5.39999">
        <ele>64.199996948242</ele>
        <time>2021-07-11T07:20:15.000Z</time>
      </trkpt>
      <trkpt lat="50.57938" lon="5.39926">
        <ele>64.199996948242</ele>
        <time>2021-07-11T07:20:23.000Z</time>
      </trkpt>
      <trkpt lat="50.57914" lon="5.39856">
        <ele>64.400001525879</ele>
        <time>2021-07-11T07:20:31.000Z</time>
      </trkpt>
      <trkpt lat="50.579" lon="5.39813">
        <ele>64.599998474121</ele>
        <time>2021-07-11T07:20:36.000Z</time>
      </trkpt>
      <trkpt lat="50.57893" lon="5.39785">
        <ele>64.800003051758</ele>
        <time>2021-07-11T07:20:39.000Z</time>
      </trkpt>
      <trkpt lat="50.57893" lon="5.39775">
        <ele>64.599998474121</ele>
        <time>2021-07-11T07:20:40.000Z</time>
      </trkpt>
      <trkpt lat="50.57893" lon="5.39765">
        <ele>64.800003051758</ele>
        <time>2021-07-11T07:20:41.000Z</time>
      </trkpt>
      <trkpt lat="50.57899" lon="5.39737">
        <ele>65</ele>
        <time>2021-07-11T07:20:44.000Z</time>
      </trkpt>
      <trkpt lat="50.57908" lon="5.39722">
        <ele>65</ele>
        <time>2021-07-11T07:20:46.000Z</time>
      </trkpt>
      <trkpt lat="50.57917" lon="5.39708">
        <ele>65</ele>
        <time>2021-07-11T07:20:48.000Z</time>
      </trkpt>
      <trkpt lat="50.57938" lon="5.39674">
        <ele>65</ele>
        <time>2021-07-11T07:20:53.000Z</time>
      </trkpt>
      <trkpt lat="50.57945" lon="5.39659">
        <ele>65.199996948242</ele>
        <time>2021-07-11T07:20:55.000Z</time>
      </trkpt>
      <trkpt lat="50.57949" lon="5.39643">
        <ele>65.400001525879</ele>
        <time>2021-07-11T07:20:57.000Z</time>
      </trkpt>
      <trkpt lat="50.57955" lon="5.39611">
        <ele>66.199996948242</ele>
        <time>2021-07-11T07:21:01.000Z</time>
      </trkpt>
      <trkpt lat="50.57955" lon="5.39603">
        <ele>66.400001525879</ele>
        <time>2021-07-11T07:21:02.000Z</time>
      </trkpt>
      <trkpt lat="50.57955" lon="5.39571">
        <ele>67.599998474121</ele>
        <time>2021-07-11T07:21:06.000Z</time>
      </trkpt>
      <trkpt lat="50.57954" lon="5.39563">
        <ele>68</ele>
        <time>2021-07-11T07:21:07.000Z</time>
      </trkpt>
      <trkpt lat="50.57951" lon="5.39539">
        <ele>68.800003051758</ele>
        <time>2021-07-11T07:21:10.000Z</time>
      </trkpt>
      <trkpt lat="50.57944" lon="5.39517">
        <ele>69.599998474121</ele>
        <time>2021-07-11T07:21:13.000Z</time>
      </trkpt>
      <trkpt lat="50.57941" lon="5.3951">
        <ele>69.800003051758</ele>
        <time>2021-07-11T07:21:14.000Z</time>
      </trkpt>
      <trkpt lat="50.57927" lon="5.39477">
        <ele>71.199996948242</ele>
        <time>2021-07-11T07:21:19.000Z</time>
      </trkpt>
      <trkpt lat="50.57921" lon="5.39464">
        <ele>72</ele>
        <time>2021-07-11T07:21:21.000Z</time>
      </trkpt>
      <trkpt lat="50.57913" lon="5.39445">
        <ele>72.800003051758</ele>
        <time>2021-07-11T07:21:24.000Z</time>
      </trkpt>
      <trkpt lat="50.57898" lon="5.39412">
        <ele>74</ele>
        <time>2021-07-11T07:21:29.000Z</time>
      </trkpt>
      <trkpt lat="50.5789" lon="5.39393">
        <ele>74.800003051758</ele>
        <time>2021-07-11T07:21:32.000Z</time>
      </trkpt>
      <trkpt lat="50.57887" lon="5.39386">
        <ele>75</ele>
        <time>2021-07-11T07:21:33.000Z</time>
      </trkpt>
      <trkpt lat="50.57879" lon="5.39366">
        <ele>76</ele>
        <time>2021-07-11T07:21:36.000Z</time>
      </trkpt>
      <trkpt lat="50.57874" lon="5.39343">
        <ele>76.400001525879</ele>
        <time>2021-07-11T07:21:39.000Z</time>
      </trkpt>
      <trkpt lat="50.57872" lon="5.39292">
        <ele>78</ele>
        <time>2021-07-11T07:21:45.000Z</time>
      </trkpt>
      <trkpt lat="50.57872" lon="5.39247">
        <ele>78.800003051758</ele>
        <time>2021-07-11T07:21:50.000Z</time>
      </trkpt>
      <trkpt lat="50.57869" lon="5.39202">
        <ele>79.400001525879</ele>
        <time>2021-07-11T07:21:55.000Z</time>
      </trkpt>
      <trkpt lat="50.57863" lon="5.39175">
        <ele>79.199996948242</ele>
        <time>2021-07-11T07:21:58.000Z</time>
      </trkpt>
      <trkpt lat="50.57857" lon="5.3916">
        <ele>79.400001525879</ele>
        <time>2021-07-11T07:22:00.000Z</time>
      </trkpt>
      <trkpt lat="50.57819" lon="5.39095">
        <ele>79.599998474121</ele>
        <time>2021-07-11T07:22:09.000Z</time>
      </trkpt>
      <trkpt lat="50.57777" lon="5.39027">
        <ele>79.199996948242</ele>
        <time>2021-07-11T07:22:18.000Z</time>
      </trkpt>
      <trkpt lat="50.57773" lon="5.3902">
        <ele>79.199996948242</ele>
        <time>2021-07-11T07:22:19.000Z</time>
      </trkpt>
      <trkpt lat="50.57763" lon="5.39005">
        <ele>79.199996948242</ele>
        <time>2021-07-11T07:22:21.000Z</time>
      </trkpt>
      <trkpt lat="50.57725" lon="5.3894">
        <ele>78.599998474121</ele>
        <time>2021-07-11T07:22:29.000Z</time>
      </trkpt>
      <trkpt lat="50.5771" lon="5.38915">
        <ele>78.199996948242</ele>
        <time>2021-07-11T07:22:32.000Z</time>
      </trkpt>
      <trkpt lat="50.57705" lon="5.38907">
        <ele>78.199996948242</ele>
        <time>2021-07-11T07:22:33.000Z</time>
      </trkpt>
      <trkpt lat="50.57668" lon="5.38842">
        <ele>77.800003051758</ele>
        <time>2021-07-11T07:22:41.000Z</time>
      </trkpt>
      <trkpt lat="50.57655" lon="5.38818">
        <ele>77.599998474121</ele>
        <time>2021-07-11T07:22:44.000Z</time>
      </trkpt>
      <trkpt lat="50.57621" lon="5.3875">
        <ele>77.599998474121</ele>
        <time>2021-07-11T07:22:52.000Z</time>
      </trkpt>
      <trkpt lat="50.57605" lon="5.38716">
        <ele>77.599998474121</ele>
        <time>2021-07-11T07:22:56.000Z</time>
      </trkpt>
      <trkpt lat="50.57572" lon="5.38649">
        <ele>77.800003051758</ele>
        <time>2021-07-11T07:23:04.000Z</time>
      </trkpt>
      <trkpt lat="50.57562" lon="5.38633">
        <ele>78</ele>
        <time>2021-07-11T07:23:06.000Z</time>
      </trkpt>
      <trkpt lat="50.57524" lon="5.38571">
        <ele>78.400001525879</ele>
        <time>2021-07-11T07:23:14.000Z</time>
      </trkpt>
      <trkpt lat="50.57509" lon="5.38548">
        <ele>78.400001525879</ele>
        <time>2021-07-11T07:23:17.000Z</time>
      </trkpt>
      <trkpt lat="50.57471" lon="5.38484">
        <ele>78.800003051758</ele>
        <time>2021-07-11T07:23:25.000Z</time>
      </trkpt>
      <trkpt lat="50.57443" lon="5.38436">
        <ele>79</ele>
        <time>2021-07-11T07:23:31.000Z</time>
      </trkpt>
      <trkpt lat="50.57404" lon="5.38371">
        <ele>78.800003051758</ele>
        <time>2021-07-11T07:23:39.000Z</time>
      </trkpt>
      <trkpt lat="50.57384" lon="5.38335">
        <ele>78.800003051758</ele>
        <time>2021-07-11T07:23:43.000Z</time>
      </trkpt>
      <trkpt lat="50.57364" lon="5.38298">
        <ele>78.199996948242</ele>
        <time>2021-07-11T07:23:47.000Z</time>
      </trkpt>
      <trkpt lat="50.57359" lon="5.38289">
        <ele>78.199996948242</ele>
        <time>2021-07-11T07:23:48.000Z</time>
      </trkpt>
      <trkpt lat="50.57354" lon="5.38279">
        <ele>78</ele>
        <time>2021-07-11T07:23:49.000Z</time>
      </trkpt>
      <trkpt lat="50.57316" lon="5.38204">
        <ele>75.800003051758</ele>
        <time>2021-07-11T07:23:57.000Z</time>
      </trkpt>
      <trkpt lat="50.57312" lon="5.38194">
        <ele>75.599998474121</ele>
        <time>2021-07-11T07:23:58.000Z</time>
      </trkpt>
      <trkpt lat="50.57282" lon="5.3812">
        <ele>74.199996948242</ele>
        <time>2021-07-11T07:24:05.000Z</time>
      </trkpt>
      <trkpt lat="50.57278" lon="5.3811">
        <ele>74</ele>
        <time>2021-07-11T07:24:06.000Z</time>
      </trkpt>
      <trkpt lat="50.57262" lon="5.38066">
        <ele>73.400001525879</ele>
        <time>2021-07-11T07:24:10.000Z</time>
      </trkpt>
      <trkpt lat="50.57238" lon="5.38002">
        <ele>72.599998474121</ele>
        <time>2021-07-11T07:24:16.000Z</time>
      </trkpt>
      <trkpt lat="50.5723" lon="5.37982">
        <ele>72.400001525879</ele>
        <time>2021-07-11T07:24:18.000Z</time>
      </trkpt>
      <trkpt lat="50.57199" lon="5.37915">
        <ele>71.199996948242</ele>
        <time>2021-07-11T07:24:25.000Z</time>
      </trkpt>
      <trkpt lat="50.57185" lon="5.37887">
        <ele>70.599998474121</ele>
        <time>2021-07-11T07:24:28.000Z</time>
      </trkpt>
      <trkpt lat="50.57152" lon="5.37823">
        <ele>70</ele>
        <time>2021-07-11T07:24:35.000Z</time>
      </trkpt>
      <trkpt lat="50.57118" lon="5.37744">
        <ele>68.400001525879</ele>
        <time>2021-07-11T07:24:43.000Z</time>
      </trkpt>
      <trkpt lat="50.57091" lon="5.37659">
        <ele>67.599998474121</ele>
        <time>2021-07-11T07:24:51.000Z</time>
      </trkpt>
      <trkpt lat="50.57078" lon="5.37618">
        <ele>67.599998474121</ele>
        <time>2021-07-11T07:24:55.000Z</time>
      </trkpt>
      <trkpt lat="50.57057" lon="5.37558">
        <ele>67.800003051758</ele>
        <time>2021-07-11T07:25:01.000Z</time>
      </trkpt>
      <trkpt lat="50.57031" lon="5.3748">
        <ele>68</ele>
        <time>2021-07-11T07:25:09.000Z</time>
      </trkpt>
      <trkpt lat="50.57024" lon="5.37461">
        <ele>68</ele>
        <time>2021-07-11T07:25:11.000Z</time>
      </trkpt>
      <trkpt lat="50.56998" lon="5.37384">
        <ele>68.199996948242</ele>
        <time>2021-07-11T07:25:19.000Z</time>
      </trkpt>
      <trkpt lat="50.56991" lon="5.37365">
        <ele>68.199996948242</ele>
        <time>2021-07-11T07:25:21.000Z</time>
      </trkpt>
      <trkpt lat="50.56972" lon="5.37313">
        <ele>68.199996948242</ele>
        <time>2021-07-11T07:25:27.000Z</time>
      </trkpt>
      <trkpt lat="50.5697" lon="5.37303">
        <ele>68.199996948242</ele>
        <time>2021-07-11T07:25:28.000Z</time>
      </trkpt>
      <trkpt lat="50.56967" lon="5.37294">
        <ele>68</ele>
        <time>2021-07-11T07:25:29.000Z</time>
      </trkpt>
      <trkpt lat="50.56954" lon="5.37257">
        <ele>67.800003051758</ele>
        <time>2021-07-11T07:25:33.000Z</time>
      </trkpt>
      <trkpt lat="50.56937" lon="5.37208">
        <ele>67.800003051758</ele>
        <time>2021-07-11T07:25:38.000Z</time>
      </trkpt>
      <trkpt lat="50.56921" lon="5.37158">
        <ele>67</ele>
        <time>2021-07-11T07:25:43.000Z</time>
      </trkpt>
      <trkpt lat="50.56899" lon="5.37077">
        <ele>66</ele>
        <time>2021-07-11T07:25:51.000Z</time>
      </trkpt>
      <trkpt lat="50.56897" lon="5.37066">
        <ele>66</ele>
        <time>2021-07-11T07:25:52.000Z</time>
      </trkpt>
      <trkpt lat="50.56878" lon="5.36985">
        <ele>66</ele>
        <time>2021-07-11T07:26:00.000Z</time>
      </trkpt>
      <trkpt lat="50.56876" lon="5.36975">
        <ele>66</ele>
        <time>2021-07-11T07:26:01.000Z</time>
      </trkpt>
      <trkpt lat="50.56858" lon="5.36905">
        <ele>66.199996948242</ele>
        <time>2021-07-11T07:26:08.000Z</time>
      </trkpt>
      <trkpt lat="50.56848" lon="5.36866">
        <ele>66.400001525879</ele>
        <time>2021-07-11T07:26:12.000Z</time>
      </trkpt>
      <trkpt lat="50.56828" lon="5.36786">
        <ele>67</ele>
        <time>2021-07-11T07:26:20.000Z</time>
      </trkpt>
      <trkpt lat="50.56813" lon="5.36726">
        <ele>67.199996948242</ele>
        <time>2021-07-11T07:26:26.000Z</time>
      </trkpt>
      <trkpt lat="50.56802" lon="5.36687">
        <ele>67.400001525879</ele>
        <time>2021-07-11T07:26:30.000Z</time>
      </trkpt>
      <trkpt lat="50.56788" lon="5.36638">
        <ele>67.800003051758</ele>
        <time>2021-07-11T07:26:35.000Z</time>
      </trkpt>
      <trkpt lat="50.56784" lon="5.36619">
        <ele>67.800003051758</ele>
        <time>2021-07-11T07:26:37.000Z</time>
      </trkpt>
      <trkpt lat="50.56775" lon="5.36581">
        <ele>67.800003051758</ele>
        <time>2021-07-11T07:26:41.000Z</time>
      </trkpt>
      <trkpt lat="50.5677" lon="5.36562">
        <ele>67.800003051758</ele>
        <time>2021-07-11T07:26:43.000Z</time>
      </trkpt>
      <trkpt lat="50.56749" lon="5.36474">
        <ele>67.199996948242</ele>
        <time>2021-07-11T07:26:52.000Z</time>
      </trkpt>
      <trkpt lat="50.56736" lon="5.36403">
        <ele>67.199996948242</ele>
        <time>2021-07-11T07:26:59.000Z</time>
      </trkpt>
      <trkpt lat="50.5672" lon="5.36321">
        <ele>66.599998474121</ele>
        <time>2021-07-11T07:27:07.000Z</time>
      </trkpt>
      <trkpt lat="50.56713" lon="5.3629">
        <ele>66.599998474121</ele>
        <time>2021-07-11T07:27:10.000Z</time>
      </trkpt>
      <trkpt lat="50.56697" lon="5.36204">
        <ele>66.800003051758</ele>
        <time>2021-07-11T07:27:18.000Z</time>
      </trkpt>
      <trkpt lat="50.56695" lon="5.36193">
        <ele>66.800003051758</ele>
        <time>2021-07-11T07:27:19.000Z</time>
      </trkpt>
      <trkpt lat="50.56684" lon="5.36139">
        <ele>67</ele>
        <time>2021-07-11T07:27:24.000Z</time>
      </trkpt>
      <trkpt lat="50.56676" lon="5.36107">
        <ele>66.800003051758</ele>
        <time>2021-07-11T07:27:27.000Z</time>
      </trkpt>
      <trkpt lat="50.56654" lon="5.36023">
        <ele>67.800003051758</ele>
        <time>2021-07-11T07:27:35.000Z</time>
      </trkpt>
      <trkpt lat="50.56648" lon="5.36003">
        <ele>67.800003051758</ele>
        <time>2021-07-11T07:27:37.000Z</time>
      </trkpt>
      <trkpt lat="50.56639" lon="5.35972">
        <ele>68.199996948242</ele>
        <time>2021-07-11T07:27:40.000Z</time>
      </trkpt>
      <trkpt lat="50.56622" lon="5.3591">
        <ele>68.400001525879</ele>
        <time>2021-07-11T07:27:46.000Z</time>
      </trkpt>
      <trkpt lat="50.56597" lon="5.35824">
        <ele>68.599998474121</ele>
        <time>2021-07-11T07:27:54.000Z</time>
      </trkpt>
      <trkpt lat="50.56591" lon="5.35802">
        <ele>68.599998474121</ele>
        <time>2021-07-11T07:27:56.000Z</time>
      </trkpt>
      <trkpt lat="50.56568" lon="5.35725">
        <ele>68.400001525879</ele>
        <time>2021-07-11T07:28:03.000Z</time>
      </trkpt>
      <trkpt lat="50.56556" lon="5.35682">
        <ele>68.199996948242</ele>
        <time>2021-07-11T07:28:07.000Z</time>
      </trkpt>
      <trkpt lat="50.56531" lon="5.35597">
        <ele>68</ele>
        <time>2021-07-11T07:28:15.000Z</time>
      </trkpt>
      <trkpt lat="50.56528" lon="5.35586">
        <ele>67.800003051758</ele>
        <time>2021-07-11T07:28:16.000Z</time>
      </trkpt>
      <trkpt lat="50.56503" lon="5.355">
        <ele>67.599998474121</ele>
        <time>2021-07-11T07:28:24.000Z</time>
      </trkpt>
      <trkpt lat="50.565" lon="5.35489">
        <ele>67.599998474121</ele>
        <time>2021-07-11T07:28:25.000Z</time>
      </trkpt>
      <trkpt lat="50.56477" lon="5.35411">
        <ele>67.599998474121</ele>
        <time>2021-07-11T07:28:32.000Z</time>
      </trkpt>
      <trkpt lat="50.56467" lon="5.35378">
        <ele>67.599998474121</ele>
        <time>2021-07-11T07:28:35.000Z</time>
      </trkpt>
      <trkpt lat="50.56442" lon="5.3529">
        <ele>67.800003051758</ele>
        <time>2021-07-11T07:28:43.000Z</time>
      </trkpt>
      <trkpt lat="50.56416" lon="5.35204">
        <ele>67.599998474121</ele>
        <time>2021-07-11T07:28:51.000Z</time>
      </trkpt>
      <trkpt lat="50.56413" lon="5.35193">
        <ele>67.599998474121</ele>
        <time>2021-07-11T07:28:52.000Z</time>
      </trkpt>
      <trkpt lat="50.56388" lon="5.35109">
        <ele>67.400001525879</ele>
        <time>2021-07-11T07:29:00.000Z</time>
      </trkpt>
      <trkpt lat="50.56378" lon="5.35078">
        <ele>67.400001525879</ele>
        <time>2021-07-11T07:29:03.000Z</time>
      </trkpt>
      <trkpt lat="50.56351" lon="5.34994">
        <ele>67.599998474121</ele>
        <time>2021-07-11T07:29:11.000Z</time>
      </trkpt>
      <trkpt lat="50.56322" lon="5.3491">
        <ele>67.599998474121</ele>
        <time>2021-07-11T07:29:19.000Z</time>
      </trkpt>
      <trkpt lat="50.56319" lon="5.349">
        <ele>67.599998474121</ele>
        <time>2021-07-11T07:29:20.000Z</time>
      </trkpt>
      <trkpt lat="50.56294" lon="5.34824">
        <ele>67.599998474121</ele>
        <time>2021-07-11T07:29:27.000Z</time>
      </trkpt>
      <trkpt lat="50.56279" lon="5.34782">
        <ele>67.400001525879</ele>
        <time>2021-07-11T07:29:31.000Z</time>
      </trkpt>
      <trkpt lat="50.56252" lon="5.34701">
        <ele>67.400001525879</ele>
        <time>2021-07-11T07:29:39.000Z</time>
      </trkpt>
      <trkpt lat="50.56237" lon="5.3466">
        <ele>67.400001525879</ele>
        <time>2021-07-11T07:29:43.000Z</time>
      </trkpt>
      <trkpt lat="50.56208" lon="5.34578">
        <ele>67.400001525879</ele>
        <time>2021-07-11T07:29:51.000Z</time>
      </trkpt>
      <trkpt lat="50.56197" lon="5.34547">
        <ele>67.400001525879</ele>
        <time>2021-07-11T07:29:54.000Z</time>
      </trkpt>
      <trkpt lat="50.56167" lon="5.34465">
        <ele>70.800003051758</ele>
        <time>2021-07-11T07:30:02.000Z</time>
      </trkpt>
      <trkpt lat="50.56137" lon="5.34382">
        <ele>67.400001525879</ele>
        <time>2021-07-11T07:30:10.000Z</time>
      </trkpt>
      <trkpt lat="50.56125" lon="5.34353">
        <ele>67.400001525879</ele>
        <time>2021-07-11T07:30:13.000Z</time>
      </trkpt>
      <trkpt lat="50.56094" lon="5.34271">
        <ele>67.599998474121</ele>
        <time>2021-07-11T07:30:21.000Z</time>
      </trkpt>
      <trkpt lat="50.56087" lon="5.34251">
        <ele>67.599998474121</ele>
        <time>2021-07-11T07:30:23.000Z</time>
      </trkpt>
      <trkpt lat="50.56058" lon="5.34169">
        <ele>67.599998474121</ele>
        <time>2021-07-11T07:30:31.000Z</time>
      </trkpt>
      <trkpt lat="50.56031" lon="5.34094">
        <ele>67.800003051758</ele>
        <time>2021-07-11T07:30:38.000Z</time>
      </trkpt>
      <trkpt lat="50.56019" lon="5.34063">
        <ele>68</ele>
        <time>2021-07-11T07:30:41.000Z</time>
      </trkpt>
      <trkpt lat="50.5599" lon="5.33995">
        <ele>67.800003051758</ele>
        <time>2021-07-11T07:30:48.000Z</time>
      </trkpt>
      <trkpt lat="50.55985" lon="5.33987">
        <ele>68</ele>
        <time>2021-07-11T07:30:49.000Z</time>
      </trkpt>
      <trkpt lat="50.55951" lon="5.33955">
        <ele>67.800003051758</ele>
        <time>2021-07-11T07:30:54.000Z</time>
      </trkpt>
      <trkpt lat="50.55931" lon="5.33937">
        <ele>67.800003051758</ele>
        <time>2021-07-11T07:30:57.000Z</time>
      </trkpt>
      <trkpt lat="50.55919" lon="5.33922">
        <ele>67.599998474121</ele>
        <time>2021-07-11T07:30:59.000Z</time>
      </trkpt>
      <trkpt lat="50.55891" lon="5.33868">
        <ele>67.400001525879</ele>
        <time>2021-07-11T07:31:05.000Z</time>
      </trkpt>
      <trkpt lat="50.55855" lon="5.33795">
        <ele>67.400001525879</ele>
        <time>2021-07-11T07:31:13.000Z</time>
      </trkpt>
      <trkpt lat="50.55846" lon="5.33777">
        <ele>67.400001525879</ele>
        <time>2021-07-11T07:31:15.000Z</time>
      </trkpt>
      <trkpt lat="50.5581" lon="5.33702">
        <ele>67.400001525879</ele>
        <time>2021-07-11T07:31:23.000Z</time>
      </trkpt>
      <trkpt lat="50.55792" lon="5.33666">
        <ele>67.400001525879</ele>
        <time>2021-07-11T07:31:27.000Z</time>
      </trkpt>
      <trkpt lat="50.55758" lon="5.33594">
        <ele>67.400001525879</ele>
        <time>2021-07-11T07:31:35.000Z</time>
      </trkpt>
      <trkpt lat="50.55745" lon="5.33567">
        <ele>67.400001525879</ele>
        <time>2021-07-11T07:31:38.000Z</time>
      </trkpt>
      <trkpt lat="50.55709" lon="5.33493">
        <ele>67.599998474121</ele>
        <time>2021-07-11T07:31:46.000Z</time>
      </trkpt>
      <trkpt lat="50.55691" lon="5.33457">
        <ele>67.800003051758</ele>
        <time>2021-07-11T07:31:50.000Z</time>
      </trkpt>
      <trkpt lat="50.55687" lon="5.33448">
        <ele>67.800003051758</ele>
        <time>2021-07-11T07:31:51.000Z</time>
      </trkpt>
      <trkpt lat="50.55652" lon="5.33377">
        <ele>68</ele>
        <time>2021-07-11T07:31:59.000Z</time>
      </trkpt>
      <trkpt lat="50.55644" lon="5.3336">
        <ele>68.400001525879</ele>
        <time>2021-07-11T07:32:01.000Z</time>
      </trkpt>
      <trkpt lat="50.55627" lon="5.33325">
        <ele>68.599998474121</ele>
        <time>2021-07-11T07:32:05.000Z</time>
      </trkpt>
      <trkpt lat="50.55607" lon="5.33293">
        <ele>68.800003051758</ele>
        <time>2021-07-11T07:32:09.000Z</time>
      </trkpt>
      <trkpt lat="50.55567" lon="5.33244">
        <ele>69.599998474121</ele>
        <time>2021-07-11T07:32:16.000Z</time>
      </trkpt>
      <trkpt lat="50.5552" lon="5.33186">
        <ele>69.599998474121</ele>
        <time>2021-07-11T07:32:24.000Z</time>
      </trkpt>
      <trkpt lat="50.55515" lon="5.33178">
        <ele>69.800003051758</ele>
        <time>2021-07-11T07:32:25.000Z</time>
      </trkpt>
      <trkpt lat="50.55482" lon="5.33117">
        <ele>69.599998474121</ele>
        <time>2021-07-11T07:32:32.000Z</time>
      </trkpt>
      <trkpt lat="50.55443" lon="5.3305">
        <ele>69.599998474121</ele>
        <time>2021-07-11T07:32:40.000Z</time>
      </trkpt>
      <trkpt lat="50.55404" lon="5.32981">
        <ele>69.599998474121</ele>
        <time>2021-07-11T07:32:48.000Z</time>
      </trkpt>
      <trkpt lat="50.55389" lon="5.32954">
        <ele>69.800003051758</ele>
        <time>2021-07-11T07:32:51.000Z</time>
      </trkpt>
      <trkpt lat="50.55361" lon="5.329">
        <ele>70</ele>
        <time>2021-07-11T07:32:57.000Z</time>
      </trkpt>
      <trkpt lat="50.55349" lon="5.32872">
        <ele>69.800003051758</ele>
        <time>2021-07-11T07:33:00.000Z</time>
      </trkpt>
      <trkpt lat="50.55331" lon="5.32825">
        <ele>70</ele>
        <time>2021-07-11T07:33:05.000Z</time>
      </trkpt>
      <trkpt lat="50.55314" lon="5.32778">
        <ele>70.400001525879</ele>
        <time>2021-07-11T07:33:10.000Z</time>
      </trkpt>
      <trkpt lat="50.55293" lon="5.3272">
        <ele>71.199996948242</ele>
        <time>2021-07-11T07:33:16.000Z</time>
      </trkpt>
      <trkpt lat="50.55278" lon="5.32683">
        <ele>71.400001525879</ele>
        <time>2021-07-11T07:33:20.000Z</time>
      </trkpt>
      <trkpt lat="50.55255" lon="5.32638">
        <ele>71.800003051758</ele>
        <time>2021-07-11T07:33:25.000Z</time>
      </trkpt>
      <trkpt lat="50.5525" lon="5.32629">
        <ele>72</ele>
        <time>2021-07-11T07:33:26.000Z</time>
      </trkpt>
      <trkpt lat="50.55229" lon="5.32593">
        <ele>71.800003051758</ele>
        <time>2021-07-11T07:33:30.000Z</time>
      </trkpt>
      <trkpt lat="50.55213" lon="5.32565">
        <ele>71.599998474121</ele>
        <time>2021-07-11T07:33:33.000Z</time>
      </trkpt>
      <trkpt lat="50.55208" lon="5.32555">
        <ele>71.400001525879</ele>
        <time>2021-07-11T07:33:34.000Z</time>
      </trkpt>
      <trkpt lat="50.5517" lon="5.32489">
        <ele>69.800003051758</ele>
        <time>2021-07-11T07:33:41.000Z</time>
      </trkpt>
      <trkpt lat="50.55159" lon="5.3247">
        <ele>69.400001525879</ele>
        <time>2021-07-11T07:33:43.000Z</time>
      </trkpt>
      <trkpt lat="50.55118" lon="5.32398">
        <ele>68.599998474121</ele>
        <time>2021-07-11T07:33:51.000Z</time>
      </trkpt>
      <trkpt lat="50.55114" lon="5.32389">
        <ele>68.599998474121</ele>
        <time>2021-07-11T07:33:52.000Z</time>
      </trkpt>
      <trkpt lat="50.55075" lon="5.32321">
        <ele>68.599998474121</ele>
        <time>2021-07-11T07:34:00.000Z</time>
      </trkpt>
      <trkpt lat="50.55055" lon="5.32288">
        <ele>68.599998474121</ele>
        <time>2021-07-11T07:34:04.000Z</time>
      </trkpt>
      <trkpt lat="50.5505" lon="5.3228">
        <ele>68.400001525879</ele>
        <time>2021-07-11T07:34:05.000Z</time>
      </trkpt>
      <trkpt lat="50.55024" lon="5.32235">
        <ele>68.599998474121</ele>
        <time>2021-07-11T07:34:11.000Z</time>
      </trkpt>
      <trkpt lat="50.55009" lon="5.32209">
        <ele>68.599998474121</ele>
        <time>2021-07-11T07:34:15.000Z</time>
      </trkpt>
      <trkpt lat="50.55005" lon="5.32207">
        <ele>68.599998474121</ele>
        <time>2021-07-11T07:34:16.000Z</time>
      </trkpt>
      <trkpt lat="50.55001" lon="5.32208">
        <ele>68.599998474121</ele>
        <time>2021-07-11T07:34:17.000Z</time>
      </trkpt>
      <trkpt lat="50.54993" lon="5.32217">
        <ele>68.599998474121</ele>
        <time>2021-07-11T07:34:19.000Z</time>
      </trkpt>
      <trkpt lat="50.54969" lon="5.32255">
        <ele>68.599998474121</ele>
        <time>2021-07-11T07:34:25.000Z</time>
      </trkpt>
      <trkpt lat="50.54936" lon="5.32304">
        <ele>68.800003051758</ele>
        <time>2021-07-11T07:34:33.000Z</time>
      </trkpt>
      <trkpt lat="50.54919" lon="5.32329">
        <ele>68.800003051758</ele>
        <time>2021-07-11T07:34:37.000Z</time>
      </trkpt>
      <trkpt lat="50.54904" lon="5.32352">
        <ele>69.199996948242</ele>
        <time>2021-07-11T07:34:41.000Z</time>
      </trkpt>
      <trkpt lat="50.549" lon="5.32358">
        <ele>69.199996948242</ele>
        <time>2021-07-11T07:34:42.000Z</time>
      </trkpt>
      <trkpt lat="50.54889" lon="5.32375">
        <ele>69.800003051758</ele>
        <time>2021-07-11T07:34:45.000Z</time>
      </trkpt>
      <trkpt lat="50.54873" lon="5.32398">
        <ele>71.199996948242</ele>
        <time>2021-07-11T07:34:49.000Z</time>
      </trkpt>
      <trkpt lat="50.54865" lon="5.3241">
        <ele>71.800003051758</ele>
        <time>2021-07-11T07:34:51.000Z</time>
      </trkpt>
      <trkpt lat="50.54828" lon="5.32465">
        <ele>74.400001525879</ele>
        <time>2021-07-11T07:35:00.000Z</time>
      </trkpt>
      <trkpt lat="50.54823" lon="5.32471">
        <ele>74.400001525879</ele>
        <time>2021-07-11T07:35:01.000Z</time>
      </trkpt>
      <trkpt lat="50.54817" lon="5.32477">
        <ele>74.400001525879</ele>
        <time>2021-07-11T07:35:02.000Z</time>
      </trkpt>
      <trkpt lat="50.54804" lon="5.32487">
        <ele>74.400001525879</ele>
        <time>2021-07-11T07:35:04.000Z</time>
      </trkpt>
      <trkpt lat="50.5479" lon="5.32494">
        <ele>74.599998474121</ele>
        <time>2021-07-11T07:35:06.000Z</time>
      </trkpt>
      <trkpt lat="50.54766" lon="5.32503">
        <ele>74.400001525879</ele>
        <time>2021-07-11T07:35:09.000Z</time>
      </trkpt>
      <trkpt lat="50.54757" lon="5.32506">
        <ele>74.400001525879</ele>
        <time>2021-07-11T07:35:10.000Z</time>
      </trkpt>
      <trkpt lat="50.5474" lon="5.32513">
        <ele>73.599998474121</ele>
        <time>2021-07-11T07:35:12.000Z</time>
      </trkpt>
      <trkpt lat="50.54721" lon="5.3252">
        <ele>73</ele>
        <time>2021-07-11T07:35:14.000Z</time>
      </trkpt>
      <trkpt lat="50.54702" lon="5.32527">
        <ele>72.199996948242</ele>
        <time>2021-07-11T07:35:16.000Z</time>
      </trkpt>
      <trkpt lat="50.54647" lon="5.32548">
        <ele>69</ele>
        <time>2021-07-11T07:35:22.000Z</time>
      </trkpt>
      <trkpt lat="50.54639" lon="5.32552">
        <ele>68.400001525879</ele>
        <time>2021-07-11T07:35:23.000Z</time>
      </trkpt>
      <trkpt lat="50.54611" lon="5.32572">
        <ele>66.800003051758</ele>
        <time>2021-07-11T07:35:27.000Z</time>
      </trkpt>
      <trkpt lat="50.54605" lon="5.32579">
        <ele>66.800003051758</ele>
        <time>2021-07-11T07:35:28.000Z</time>
      </trkpt>
      <trkpt lat="50.54595" lon="5.32594">
        <ele>66.800003051758</ele>
        <time>2021-07-11T07:35:30.000Z</time>
      </trkpt>
      <trkpt lat="50.54591" lon="5.32602">
        <ele>66.800003051758</ele>
        <time>2021-07-11T07:35:31.000Z</time>
      </trkpt>
      <trkpt lat="50.54575" lon="5.32649">
        <ele>66.800003051758</ele>
        <time>2021-07-11T07:35:36.000Z</time>
      </trkpt>
      <trkpt lat="50.54569" lon="5.32702">
        <ele>67</ele>
        <time>2021-07-11T07:35:41.000Z</time>
      </trkpt>
      <trkpt lat="50.54565" lon="5.3278">
        <ele>67.199996948242</ele>
        <time>2021-07-11T07:35:48.000Z</time>
      </trkpt>
      <trkpt lat="50.54562" lon="5.32825">
        <ele>67.400001525879</ele>
        <time>2021-07-11T07:35:52.000Z</time>
      </trkpt>
      <trkpt lat="50.54558" lon="5.32913">
        <ele>67.599998474121</ele>
        <time>2021-07-11T07:36:00.000Z</time>
      </trkpt>
      <trkpt lat="50.54557" lon="5.32935">
        <ele>67.800003051758</ele>
        <time>2021-07-11T07:36:02.000Z</time>
      </trkpt>
      <trkpt lat="50.54556" lon="5.32946">
        <ele>67.800003051758</ele>
        <time>2021-07-11T07:36:03.000Z</time>
      </trkpt>
      <trkpt lat="50.54553" lon="5.32967">
        <ele>67.800003051758</ele>
        <time>2021-07-11T07:36:05.000Z</time>
      </trkpt>
      <trkpt lat="50.54546" lon="5.32984">
        <ele>68</ele>
        <time>2021-07-11T07:36:07.000Z</time>
      </trkpt>
      <trkpt lat="50.54531" lon="5.33004">
        <ele>68</ele>
        <time>2021-07-11T07:36:10.000Z</time>
      </trkpt>
      <trkpt lat="50.54527" lon="5.33011">
        <ele>68</ele>
        <time>2021-07-11T07:36:11.000Z</time>
      </trkpt>
      <trkpt lat="50.54524" lon="5.3302">
        <ele>68</ele>
        <time>2021-07-11T07:36:12.000Z</time>
      </trkpt>
      <trkpt lat="50.54519" lon="5.33038">
        <ele>68.199996948242</ele>
        <time>2021-07-11T07:36:14.000Z</time>
      </trkpt>
      <trkpt lat="50.54515" lon="5.33047">
        <ele>68</ele>
        <time>2021-07-11T07:36:15.000Z</time>
      </trkpt>
      <trkpt lat="50.54512" lon="5.33054">
        <ele>68.199996948242</ele>
        <time>2021-07-11T07:36:16.000Z</time>
      </trkpt>
      <trkpt lat="50.54495" lon="5.33083">
        <ele>68.599998474121</ele>
        <time>2021-07-11T07:36:20.000Z</time>
      </trkpt>
      <trkpt lat="50.54486" lon="5.33096">
        <ele>69.199996948242</ele>
        <time>2021-07-11T07:36:22.000Z</time>
      </trkpt>
      <trkpt lat="50.54464" lon="5.33127">
        <ele>70.599998474121</ele>
        <time>2021-07-11T07:36:27.000Z</time>
      </trkpt>
      <trkpt lat="50.54452" lon="5.33146">
        <ele>71.400001525879</ele>
        <time>2021-07-11T07:36:30.000Z</time>
      </trkpt>
      <trkpt lat="50.54434" lon="5.33172">
        <ele>72.199996948242</ele>
        <time>2021-07-11T07:36:34.000Z</time>
      </trkpt>
      <trkpt lat="50.54421" lon="5.33191">
        <ele>72.800003051758</ele>
        <time>2021-07-11T07:36:37.000Z</time>
      </trkpt>
      <trkpt lat="50.54396" lon="5.33228">
        <ele>73.800003051758</ele>
        <time>2021-07-11T07:36:43.000Z</time>
      </trkpt>
      <trkpt lat="50.54365" lon="5.33272">
        <ele>75.199996948242</ele>
        <time>2021-07-11T07:36:50.000Z</time>
      </trkpt>
      <trkpt lat="50.54356" lon="5.33286">
        <ele>75.400001525879</ele>
        <time>2021-07-11T07:36:52.000Z</time>
      </trkpt>
      <trkpt lat="50.54342" lon="5.33306">
        <ele>75.599998474121</ele>
        <time>2021-07-11T07:36:55.000Z</time>
      </trkpt>
      <trkpt lat="50.54322" lon="5.33334">
        <ele>75.599998474121</ele>
        <time>2021-07-11T07:36:59.000Z</time>
      </trkpt>
      <trkpt lat="50.54307" lon="5.33356">
        <ele>75.400001525879</ele>
        <time>2021-07-11T07:37:02.000Z</time>
      </trkpt>
      <trkpt lat="50.54303" lon="5.33366">
        <ele>75.599998474121</ele>
        <time>2021-07-11T07:37:03.000Z</time>
      </trkpt>
      <trkpt lat="50.543" lon="5.33376">
        <ele>75.400001525879</ele>
        <time>2021-07-11T07:37:04.000Z</time>
      </trkpt>
      <trkpt lat="50.54297" lon="5.33398">
        <ele>75.199996948242</ele>
        <time>2021-07-11T07:37:06.000Z</time>
      </trkpt>
      <trkpt lat="50.54298" lon="5.33409">
        <ele>74.800003051758</ele>
        <time>2021-07-11T07:37:07.000Z</time>
      </trkpt>
      <trkpt lat="50.54299" lon="5.33419">
        <ele>74.599998474121</ele>
        <time>2021-07-11T07:37:08.000Z</time>
      </trkpt>
      <trkpt lat="50.54302" lon="5.33429">
        <ele>74.400001525879</ele>
        <time>2021-07-11T07:37:09.000Z</time>
      </trkpt>
      <trkpt lat="50.54306" lon="5.33439">
        <ele>74.199996948242</ele>
        <time>2021-07-11T07:37:10.000Z</time>
      </trkpt>
      <trkpt lat="50.54326" lon="5.3347">
        <ele>73.400001525879</ele>
        <time>2021-07-11T07:37:14.000Z</time>
      </trkpt>
      <trkpt lat="50.54331" lon="5.33478">
        <ele>73.199996948242</ele>
        <time>2021-07-11T07:37:15.000Z</time>
      </trkpt>
      <trkpt lat="50.54341" lon="5.33493">
        <ele>72.800003051758</ele>
        <time>2021-07-11T07:37:17.000Z</time>
      </trkpt>
      <trkpt lat="50.54346" lon="5.33511">
        <ele>72.199996948242</ele>
        <time>2021-07-11T07:37:19.000Z</time>
      </trkpt>
      <trkpt lat="50.54343" lon="5.33528">
        <ele>71.800003051758</ele>
        <time>2021-07-11T07:37:21.000Z</time>
      </trkpt>
      <trkpt lat="50.5434" lon="5.33535">
        <ele>71.599998474121</ele>
        <time>2021-07-11T07:37:22.000Z</time>
      </trkpt>
      <trkpt lat="50.54335" lon="5.3354">
        <ele>71.400001525879</ele>
        <time>2021-07-11T07:37:23.000Z</time>
      </trkpt>
      <trkpt lat="50.54327" lon="5.33546">
        <ele>71</ele>
        <time>2021-07-11T07:37:25.000Z</time>
      </trkpt>
      <trkpt lat="50.54322" lon="5.33554">
        <ele>70.800003051758</ele>
        <time>2021-07-11T07:37:27.000Z</time>
      </trkpt>
      <trkpt lat="50.54322" lon="5.3356">
        <ele>70.800003051758</ele>
        <time>2021-07-11T07:37:28.000Z</time>
      </trkpt>
      <trkpt lat="50.54323" lon="5.33567">
        <ele>70.599998474121</ele>
        <time>2021-07-11T07:37:29.000Z</time>
      </trkpt>
      <trkpt lat="50.54328" lon="5.33591">
        <ele>70</ele>
        <time>2021-07-11T07:37:32.000Z</time>
      </trkpt>
      <trkpt lat="50.54336" lon="5.33643">
        <ele>70</ele>
        <time>2021-07-11T07:37:38.000Z</time>
      </trkpt>
      <trkpt lat="50.54339" lon="5.3365">
        <ele>70</ele>
        <time>2021-07-11T07:37:39.000Z</time>
      </trkpt>
      <trkpt lat="50.54342" lon="5.33656">
        <ele>69.800003051758</ele>
        <time>2021-07-11T07:37:40.000Z</time>
      </trkpt>
      <trkpt lat="50.54352" lon="5.33673">
        <ele>70</ele>
        <time>2021-07-11T07:37:43.000Z</time>
      </trkpt>
      <trkpt lat="50.54358" lon="5.33684">
        <ele>70.199996948242</ele>
        <time>2021-07-11T07:37:45.000Z</time>
      </trkpt>
      <trkpt lat="50.54365" lon="5.33694">
        <ele>71.199996948242</ele>
        <time>2021-07-11T07:37:47.000Z</time>
      </trkpt>
      <trkpt lat="50.54378" lon="5.33715">
        <ele>72.199996948242</ele>
        <time>2021-07-11T07:37:51.000Z</time>
      </trkpt>
      <trkpt lat="50.54384" lon="5.33725">
        <ele>72.800003051758</ele>
        <time>2021-07-11T07:37:53.000Z</time>
      </trkpt>
      <trkpt lat="50.5439" lon="5.33736">
        <ele>73.599998474121</ele>
        <time>2021-07-11T07:37:55.000Z</time>
      </trkpt>
      <trkpt lat="50.54406" lon="5.33761">
        <ele>75</ele>
        <time>2021-07-11T07:38:00.000Z</time>
      </trkpt>
      <trkpt lat="50.54412" lon="5.33772">
        <ele>75.599998474121</ele>
        <time>2021-07-11T07:38:02.000Z</time>
      </trkpt>
      <trkpt lat="50.54418" lon="5.33783">
        <ele>76.199996948242</ele>
        <time>2021-07-11T07:38:04.000Z</time>
      </trkpt>
      <trkpt lat="50.54426" lon="5.338">
        <ele>76.800003051758</ele>
        <time>2021-07-11T07:38:07.000Z</time>
      </trkpt>
      <trkpt lat="50.54433" lon="5.33817">
        <ele>77.599998474121</ele>
        <time>2021-07-11T07:38:10.000Z</time>
      </trkpt>
      <trkpt lat="50.54438" lon="5.33829">
        <ele>78.199996948242</ele>
        <time>2021-07-11T07:38:12.000Z</time>
      </trkpt>
      <trkpt lat="50.54442" lon="5.33841">
        <ele>78.800003051758</ele>
        <time>2021-07-11T07:38:14.000Z</time>
      </trkpt>
      <trkpt lat="50.54449" lon="5.3386">
        <ele>79.800003051758</ele>
        <time>2021-07-11T07:38:17.000Z</time>
      </trkpt>
      <trkpt lat="50.54451" lon="5.33867">
        <ele>80</ele>
        <time>2021-07-11T07:38:18.000Z</time>
      </trkpt>
      <trkpt lat="50.54461" lon="5.33894">
        <ele>80.800003051758</ele>
        <time>2021-07-11T07:38:22.000Z</time>
      </trkpt>
      <trkpt lat="50.54465" lon="5.33908">
        <ele>81.800003051758</ele>
        <time>2021-07-11T07:38:24.000Z</time>
      </trkpt>
      <trkpt lat="50.54485" lon="5.33975">
        <ele>84</ele>
        <time>2021-07-11T07:38:33.000Z</time>
      </trkpt>
      <trkpt lat="50.54499" lon="5.34028">
        <ele>84.199996948242</ele>
        <time>2021-07-11T07:38:40.000Z</time>
      </trkpt>
      <trkpt lat="50.54495" lon="5.34042">
        <ele>84</ele>
        <time>2021-07-11T07:38:42.000Z</time>
      </trkpt>
      <trkpt lat="50.54477" lon="5.3406">
        <ele>84</ele>
        <time>2021-07-11T07:38:46.000Z</time>
      </trkpt>
      <trkpt lat="50.5443" lon="5.34101">
        <ele>84.199996948242</ele>
        <time>2021-07-11T07:38:56.000Z</time>
      </trkpt>
      <trkpt lat="50.54383" lon="5.34141">
        <ele>84.400001525879</ele>
        <time>2021-07-11T07:39:06.000Z</time>
      </trkpt>
      <trkpt lat="50.54368" lon="5.34154">
        <ele>84.599998474121</ele>
        <time>2021-07-11T07:39:09.000Z</time>
      </trkpt>
      <trkpt lat="50.54344" lon="5.34176">
        <ele>84.599998474121</ele>
        <time>2021-07-11T07:39:14.000Z</time>
      </trkpt>
      <trkpt lat="50.54301" lon="5.34214">
        <ele>85</ele>
        <time>2021-07-11T07:39:23.000Z</time>
      </trkpt>
      <trkpt lat="50.54287" lon="5.34227">
        <ele>85.400001525879</ele>
        <time>2021-07-11T07:39:26.000Z</time>
      </trkpt>
      <trkpt lat="50.54238" lon="5.34272">
        <ele>86.199996948242</ele>
        <time>2021-07-11T07:39:36.000Z</time>
      </trkpt>
      <trkpt lat="50.54233" lon="5.34277">
        <ele>86.199996948242</ele>
        <time>2021-07-11T07:39:37.000Z</time>
      </trkpt>
      <trkpt lat="50.54228" lon="5.34281">
        <ele>86.400001525879</ele>
        <time>2021-07-11T07:39:38.000Z</time>
      </trkpt>
      <trkpt lat="50.54194" lon="5.34311">
        <ele>87.199996948242</ele>
        <time>2021-07-11T07:39:45.000Z</time>
      </trkpt>
      <trkpt lat="50.54183" lon="5.34317">
        <ele>87.599998474121</ele>
        <time>2021-07-11T07:39:47.000Z</time>
      </trkpt>
      <trkpt lat="50.5415" lon="5.34329">
        <ele>88.400001525879</ele>
        <time>2021-07-11T07:39:53.000Z</time>
      </trkpt>
      <trkpt lat="50.54145" lon="5.3433">
        <ele>88.400001525879</ele>
        <time>2021-07-11T07:39:54.000Z</time>
      </trkpt>
      <trkpt lat="50.54118" lon="5.34337">
        <ele>89.199996948242</ele>
        <time>2021-07-11T07:39:59.000Z</time>
      </trkpt>
      <trkpt lat="50.54097" lon="5.34345">
        <ele>89.800003051758</ele>
        <time>2021-07-11T07:40:03.000Z</time>
      </trkpt>
      <trkpt lat="50.54055" lon="5.34362">
        <ele>91.400001525879</ele>
        <time>2021-07-11T07:40:11.000Z</time>
      </trkpt>
      <trkpt lat="50.5405" lon="5.34366">
        <ele>91.400001525879</ele>
        <time>2021-07-11T07:40:12.000Z</time>
      </trkpt>
      <trkpt lat="50.54045" lon="5.34369">
        <ele>91.599998474121</ele>
        <time>2021-07-11T07:40:13.000Z</time>
      </trkpt>
      <trkpt lat="50.54036" lon="5.34379">
        <ele>91.599998474121</ele>
        <time>2021-07-11T07:40:15.000Z</time>
      </trkpt>
      <trkpt lat="50.54032" lon="5.34385">
        <ele>91.599998474121</ele>
        <time>2021-07-11T07:40:16.000Z</time>
      </trkpt>
      <trkpt lat="50.54028" lon="5.34391">
        <ele>91.599998474121</ele>
        <time>2021-07-11T07:40:17.000Z</time>
      </trkpt>
      <trkpt lat="50.54022" lon="5.34405">
        <ele>92</ele>
        <time>2021-07-11T07:40:19.000Z</time>
      </trkpt>
      <trkpt lat="50.54017" lon="5.3442">
        <ele>92.199996948242</ele>
        <time>2021-07-11T07:40:21.000Z</time>
      </trkpt>
      <trkpt lat="50.54" lon="5.34477">
        <ele>92.199996948242</ele>
        <time>2021-07-11T07:40:28.000Z</time>
      </trkpt>
      <trkpt lat="50.53985" lon="5.34526">
        <ele>92.199996948242</ele>
        <time>2021-07-11T07:40:34.000Z</time>
      </trkpt>
      <trkpt lat="50.53967" lon="5.34572">
        <ele>92.199996948242</ele>
        <time>2021-07-11T07:40:40.000Z</time>
      </trkpt>
      <trkpt lat="50.53957" lon="5.34603">
        <ele>92.400001525879</ele>
        <time>2021-07-11T07:40:44.000Z</time>
      </trkpt>
      <trkpt lat="50.53952" lon="5.34618">
        <ele>92.199996948242</ele>
        <time>2021-07-11T07:40:46.000Z</time>
      </trkpt>
      <trkpt lat="50.53941" lon="5.34647">
        <ele>92.800003051758</ele>
        <time>2021-07-11T07:40:50.000Z</time>
      </trkpt>
      <trkpt lat="50.53928" lon="5.34684">
        <ele>93.599998474121</ele>
        <time>2021-07-11T07:40:55.000Z</time>
      </trkpt>
      <trkpt lat="50.5392" lon="5.34705">
        <ele>94</ele>
        <time>2021-07-11T07:40:58.000Z</time>
      </trkpt>
      <trkpt lat="50.53905" lon="5.34747">
        <ele>94.800003051758</ele>
        <time>2021-07-11T07:41:04.000Z</time>
      </trkpt>
      <trkpt lat="50.53902" lon="5.34753">
        <ele>94.800003051758</ele>
        <time>2021-07-11T07:41:05.000Z</time>
      </trkpt>
      <trkpt lat="50.53881" lon="5.34799">
        <ele>96.199996948242</ele>
        <time>2021-07-11T07:41:12.000Z</time>
      </trkpt>
      <trkpt lat="50.53871" lon="5.34819">
        <ele>96.599998474121</ele>
        <time>2021-07-11T07:41:15.000Z</time>
      </trkpt>
      <trkpt lat="50.53854" lon="5.34852">
        <ele>97</ele>
        <time>2021-07-11T07:41:20.000Z</time>
      </trkpt>
      <trkpt lat="50.53834" lon="5.34891">
        <ele>97.599998474121</ele>
        <time>2021-07-11T07:41:26.000Z</time>
      </trkpt>
      <trkpt lat="50.53828" lon="5.34903">
        <ele>97.599998474121</ele>
        <time>2021-07-11T07:41:28.000Z</time>
      </trkpt>
      <trkpt lat="50.53814" lon="5.34926">
        <ele>98.199996948242</ele>
        <time>2021-07-11T07:41:32.000Z</time>
      </trkpt>
      <trkpt lat="50.538" lon="5.34947">
        <ele>98.599998474121</ele>
        <time>2021-07-11T07:41:36.000Z</time>
      </trkpt>
      <trkpt lat="50.53785" lon="5.34968">
        <ele>99.199996948242</ele>
        <time>2021-07-11T07:41:40.000Z</time>
      </trkpt>
      <trkpt lat="50.53773" lon="5.34983">
        <ele>99.800003051758</ele>
        <time>2021-07-11T07:41:43.000Z</time>
      </trkpt>
      <trkpt lat="50.53757" lon="5.35003">
        <ele>100.19999694824</ele>
        <time>2021-07-11T07:41:47.000Z</time>
      </trkpt>
      <trkpt lat="50.53742" lon="5.35023">
        <ele>101</ele>
        <time>2021-07-11T07:41:51.000Z</time>
      </trkpt>
      <trkpt lat="50.53731" lon="5.3504">
        <ele>101.19999694824</ele>
        <time>2021-07-11T07:41:54.000Z</time>
      </trkpt>
      <trkpt lat="50.53712" lon="5.35057">
        <ele>101.59999847412</ele>
        <time>2021-07-11T07:41:58.000Z</time>
      </trkpt>
      <trkpt lat="50.53683" lon="5.35081">
        <ele>102</ele>
        <time>2021-07-11T07:42:04.000Z</time>
      </trkpt>
      <trkpt lat="50.5367" lon="5.35092">
        <ele>102</ele>
        <time>2021-07-11T07:42:07.000Z</time>
      </trkpt>
      <trkpt lat="50.53661" lon="5.35097">
        <ele>102</ele>
        <time>2021-07-11T07:42:09.000Z</time>
      </trkpt>
      <trkpt lat="50.53651" lon="5.351">
        <ele>102.40000152588</ele>
        <time>2021-07-11T07:42:11.000Z</time>
      </trkpt>
      <trkpt lat="50.53647" lon="5.35099">
        <ele>102.59999847412</ele>
        <time>2021-07-11T07:42:12.000Z</time>
      </trkpt>
      <trkpt lat="50.53633" lon="5.35096">
        <ele>103.19999694824</ele>
        <time>2021-07-11T07:42:15.000Z</time>
      </trkpt>
      <trkpt lat="50.53624" lon="5.3509">
        <ele>103.40000152588</ele>
        <time>2021-07-11T07:42:17.000Z</time>
      </trkpt>
      <trkpt lat="50.5362" lon="5.35086">
        <ele>103.80000305176</ele>
        <time>2021-07-11T07:42:18.000Z</time>
      </trkpt>
      <trkpt lat="50.53616" lon="5.35082">
        <ele>104</ele>
        <time>2021-07-11T07:42:19.000Z</time>
      </trkpt>
      <trkpt lat="50.53604" lon="5.35065">
        <ele>104.59999847412</ele>
        <time>2021-07-11T07:42:23.000Z</time>
      </trkpt>
      <trkpt lat="50.53587" lon="5.35027">
        <ele>106.80000305176</ele>
        <time>2021-07-11T07:42:30.000Z</time>
      </trkpt>
      <trkpt lat="50.53581" lon="5.35015">
        <ele>107.40000152588</ele>
        <time>2021-07-11T07:42:32.000Z</time>
      </trkpt>
      <trkpt lat="50.53573" lon="5.34998">
        <ele>107.80000305176</ele>
        <time>2021-07-11T07:42:35.000Z</time>
      </trkpt>
      <trkpt lat="50.5356" lon="5.34971">
        <ele>108.59999847412</ele>
        <time>2021-07-11T07:42:40.000Z</time>
      </trkpt>
      <trkpt lat="50.53552" lon="5.34955">
        <ele>109.59999847412</ele>
        <time>2021-07-11T07:42:43.000Z</time>
      </trkpt>
      <trkpt lat="50.53544" lon="5.34939">
        <ele>110.19999694824</ele>
        <time>2021-07-11T07:42:46.000Z</time>
      </trkpt>
      <trkpt lat="50.53536" lon="5.34922">
        <ele>111</ele>
        <time>2021-07-11T07:42:49.000Z</time>
      </trkpt>
      <trkpt lat="50.53531" lon="5.34911">
        <ele>111.40000152588</ele>
        <time>2021-07-11T07:42:51.000Z</time>
      </trkpt>
      <trkpt lat="50.53511" lon="5.34864">
        <ele>113.19999694824</ele>
        <time>2021-07-11T07:42:59.000Z</time>
      </trkpt>
      <trkpt lat="50.53509" lon="5.34857">
        <ele>113.40000152588</ele>
        <time>2021-07-11T07:43:00.000Z</time>
      </trkpt>
      <trkpt lat="50.53502" lon="5.34831">
        <ele>113.80000305176</ele>
        <time>2021-07-11T07:43:04.000Z</time>
      </trkpt>
      <trkpt lat="50.53496" lon="5.34797">
        <ele>115</ele>
        <time>2021-07-11T07:43:09.000Z</time>
      </trkpt>
      <trkpt lat="50.53495" lon="5.3479">
        <ele>115.19999694824</ele>
        <time>2021-07-11T07:43:10.000Z</time>
      </trkpt>
      <trkpt lat="50.53489" lon="5.34733">
        <ele>116.40000152588</ele>
        <time>2021-07-11T07:43:18.000Z</time>
      </trkpt>
      <trkpt lat="50.53488" lon="5.34718">
        <ele>117</ele>
        <time>2021-07-11T07:43:20.000Z</time>
      </trkpt>
      <trkpt lat="50.53482" lon="5.34651">
        <ele>118.19999694824</ele>
        <time>2021-07-11T07:43:29.000Z</time>
      </trkpt>
      <trkpt lat="50.53481" lon="5.34635">
        <ele>118.19999694824</ele>
        <time>2021-07-11T07:43:31.000Z</time>
      </trkpt>
      <trkpt lat="50.53474" lon="5.34563">
        <ele>119.40000152588</ele>
        <time>2021-07-11T07:43:40.000Z</time>
      </trkpt>
      <trkpt lat="50.53465" lon="5.34492">
        <ele>119.40000152588</ele>
        <time>2021-07-11T07:43:48.000Z</time>
      </trkpt>
      <trkpt lat="50.53457" lon="5.34437">
        <ele>118.80000305176</ele>
        <time>2021-07-11T07:43:54.000Z</time>
      </trkpt>
      <trkpt lat="50.53453" lon="5.34419">
        <ele>118.80000305176</ele>
        <time>2021-07-11T07:43:56.000Z</time>
      </trkpt>
      <trkpt lat="50.5345" lon="5.34411">
        <ele>118.59999847412</ele>
        <time>2021-07-11T07:43:57.000Z</time>
      </trkpt>
      <trkpt lat="50.53443" lon="5.34394">
        <ele>118.19999694824</ele>
        <time>2021-07-11T07:43:59.000Z</time>
      </trkpt>
      <trkpt lat="50.53432" lon="5.34368">
        <ele>118</ele>
        <time>2021-07-11T07:44:02.000Z</time>
      </trkpt>
      <trkpt lat="50.5342" lon="5.34342">
        <ele>117.40000152588</ele>
        <time>2021-07-11T07:44:05.000Z</time>
      </trkpt>
      <trkpt lat="50.53401" lon="5.34302">
        <ele>116.40000152588</ele>
        <time>2021-07-11T07:44:10.000Z</time>
      </trkpt>
      <trkpt lat="50.53389" lon="5.34279">
        <ele>116.19999694824</ele>
        <time>2021-07-11T07:44:13.000Z</time>
      </trkpt>
      <trkpt lat="50.53366" lon="5.34233">
        <ele>115.19999694824</ele>
        <time>2021-07-11T07:44:19.000Z</time>
      </trkpt>
      <trkpt lat="50.53362" lon="5.34225">
        <ele>115</ele>
        <time>2021-07-11T07:44:20.000Z</time>
      </trkpt>
      <trkpt lat="50.53357" lon="5.34218">
        <ele>114.80000305176</ele>
        <time>2021-07-11T07:44:21.000Z</time>
      </trkpt>
      <trkpt lat="50.53346" lon="5.34195">
        <ele>114.40000152588</ele>
        <time>2021-07-11T07:44:24.000Z</time>
      </trkpt>
      <trkpt lat="50.53339" lon="5.3418">
        <ele>114.40000152588</ele>
        <time>2021-07-11T07:44:26.000Z</time>
      </trkpt>
      <trkpt lat="50.53317" lon="5.34133">
        <ele>114</ele>
        <time>2021-07-11T07:44:32.000Z</time>
      </trkpt>
      <trkpt lat="50.53312" lon="5.34125">
        <ele>113.80000305176</ele>
        <time>2021-07-11T07:44:33.000Z</time>
      </trkpt>
      <trkpt lat="50.53278" lon="5.34074">
        <ele>114</ele>
        <time>2021-07-11T07:44:41.000Z</time>
      </trkpt>
      <trkpt lat="50.53243" lon="5.34027">
        <ele>114.40000152588</ele>
        <time>2021-07-11T07:44:49.000Z</time>
      </trkpt>
      <trkpt lat="50.53218" lon="5.33999">
        <ele>114.59999847412</ele>
        <time>2021-07-11T07:44:55.000Z</time>
      </trkpt>
      <trkpt lat="50.53191" lon="5.33965">
        <ele>115.59999847412</ele>
        <time>2021-07-11T07:45:02.000Z</time>
      </trkpt>
      <trkpt lat="50.53179" lon="5.33945">
        <ele>115.80000305176</ele>
        <time>2021-07-11T07:45:05.000Z</time>
      </trkpt>
      <trkpt lat="50.53172" lon="5.33929">
        <ele>115.80000305176</ele>
        <time>2021-07-11T07:45:07.000Z</time>
      </trkpt>
      <trkpt lat="50.53164" lon="5.339">
        <ele>116.19999694824</ele>
        <time>2021-07-11T07:45:10.000Z</time>
      </trkpt>
      <trkpt lat="50.53161" lon="5.33874">
        <ele>116.40000152588</ele>
        <time>2021-07-11T07:45:13.000Z</time>
      </trkpt>
      <trkpt lat="50.5316" lon="5.33865">
        <ele>116.59999847412</ele>
        <time>2021-07-11T07:45:14.000Z</time>
      </trkpt>
      <trkpt lat="50.53156" lon="5.33831">
        <ele>116.59999847412</ele>
        <time>2021-07-11T07:45:18.000Z</time>
      </trkpt>
      <trkpt lat="50.53154" lon="5.33824">
        <ele>116.59999847412</ele>
        <time>2021-07-11T07:45:19.000Z</time>
      </trkpt>
      <trkpt lat="50.53153" lon="5.33818">
        <ele>116.59999847412</ele>
        <time>2021-07-11T07:45:20.000Z</time>
      </trkpt>
      <trkpt lat="50.53149" lon="5.338">
        <ele>117</ele>
        <time>2021-07-11T07:45:24.000Z</time>
      </trkpt>
      <trkpt lat="50.53148" lon="5.33799">
        <ele>117.40000152588</ele>
        <time>2021-07-11T07:45:26.000Z</time>
      </trkpt>
      <trkpt lat="50.53141" lon="5.33797">
        <ele>118</ele>
        <time>2021-07-11T07:48:05.000Z</time>
      </trkpt>
      <trkpt lat="50.53139" lon="5.33797">
        <ele>118</ele>
        <time>2021-07-11T07:48:06.000Z</time>
      </trkpt>
      <trkpt lat="50.53121" lon="5.33792">
        <ele>118.19999694824</ele>
        <time>2021-07-11T07:48:12.000Z</time>
      </trkpt>
      <trkpt lat="50.531" lon="5.33787">
        <ele>118.19999694824</ele>
        <time>2021-07-11T07:48:17.000Z</time>
      </trkpt>
      <trkpt lat="50.53096" lon="5.33788">
        <ele>118.40000152588</ele>
        <time>2021-07-11T07:48:18.000Z</time>
      </trkpt>
      <trkpt lat="50.53057" lon="5.33779">
        <ele>119</ele>
        <time>2021-07-11T07:48:27.000Z</time>
      </trkpt>
      <trkpt lat="50.53048" lon="5.33775">
        <ele>119.19999694824</ele>
        <time>2021-07-11T07:48:29.000Z</time>
      </trkpt>
      <trkpt lat="50.53044" lon="5.33773">
        <ele>119.19999694824</ele>
        <time>2021-07-11T07:48:30.000Z</time>
      </trkpt>
      <trkpt lat="50.53016" lon="5.3376">
        <ele>119.80000305176</ele>
        <time>2021-07-11T07:48:36.000Z</time>
      </trkpt>
      <trkpt lat="50.52985" lon="5.33746">
        <ele>120</ele>
        <time>2021-07-11T07:48:42.000Z</time>
      </trkpt>
      <trkpt lat="50.52976" lon="5.3374">
        <ele>120</ele>
        <time>2021-07-11T07:48:44.000Z</time>
      </trkpt>
      <trkpt lat="50.5295" lon="5.33712">
        <ele>120.59999847412</ele>
        <time>2021-07-11T07:48:50.000Z</time>
      </trkpt>
      <trkpt lat="50.52926" lon="5.33683">
        <ele>121</ele>
        <time>2021-07-11T07:48:56.000Z</time>
      </trkpt>
      <trkpt lat="50.52919" lon="5.33675">
        <ele>121.19999694824</ele>
        <time>2021-07-11T07:48:58.000Z</time>
      </trkpt>
      <trkpt lat="50.52884" lon="5.3365">
        <ele>122</ele>
        <time>2021-07-11T07:49:06.000Z</time>
      </trkpt>
      <trkpt lat="50.5288" lon="5.33648">
        <ele>122.19999694824</ele>
        <time>2021-07-11T07:49:07.000Z</time>
      </trkpt>
      <trkpt lat="50.52853" lon="5.33633">
        <ele>122.59999847412</ele>
        <time>2021-07-11T07:49:13.000Z</time>
      </trkpt>
      <trkpt lat="50.5283" lon="5.3362">
        <ele>122.80000305176</ele>
        <time>2021-07-11T07:49:18.000Z</time>
      </trkpt>
      <trkpt lat="50.52815" lon="5.33612">
        <ele>123</ele>
        <time>2021-07-11T07:49:21.000Z</time>
      </trkpt>
      <trkpt lat="50.52791" lon="5.33601">
        <ele>123.59999847412</ele>
        <time>2021-07-11T07:49:26.000Z</time>
      </trkpt>
      <trkpt lat="50.52782" lon="5.33601">
        <ele>123.80000305176</ele>
        <time>2021-07-11T07:49:28.000Z</time>
      </trkpt>
      <trkpt lat="50.52748" lon="5.33613">
        <ele>124.19999694824</ele>
        <time>2021-07-11T07:49:35.000Z</time>
      </trkpt>
      <trkpt lat="50.52728" lon="5.33621">
        <ele>124.19999694824</ele>
        <time>2021-07-11T07:49:39.000Z</time>
      </trkpt>
      <trkpt lat="50.5271" lon="5.33628">
        <ele>124.40000152588</ele>
        <time>2021-07-11T07:49:43.000Z</time>
      </trkpt>
      <trkpt lat="50.52686" lon="5.33635">
        <ele>124.59999847412</ele>
        <time>2021-07-11T07:49:48.000Z</time>
      </trkpt>
      <trkpt lat="50.52672" lon="5.33641">
        <ele>125.19999694824</ele>
        <time>2021-07-11T07:49:51.000Z</time>
      </trkpt>
      <trkpt lat="50.52659" lon="5.33647">
        <ele>125.59999847412</ele>
        <time>2021-07-11T07:49:54.000Z</time>
      </trkpt>
      <trkpt lat="50.52639" lon="5.33658">
        <ele>126.19999694824</ele>
        <time>2021-07-11T07:49:59.000Z</time>
      </trkpt>
      <trkpt lat="50.52623" lon="5.33671">
        <ele>127</ele>
        <time>2021-07-11T07:50:03.000Z</time>
      </trkpt>
      <trkpt lat="50.52612" lon="5.33684">
        <ele>127.59999847412</ele>
        <time>2021-07-11T07:50:06.000Z</time>
      </trkpt>
      <trkpt lat="50.5261" lon="5.33689">
        <ele>127.80000305176</ele>
        <time>2021-07-11T07:50:07.000Z</time>
      </trkpt>
      <trkpt lat="50.52605" lon="5.33697">
        <ele>128</ele>
        <time>2021-07-11T07:50:09.000Z</time>
      </trkpt>
      <trkpt lat="50.52597" lon="5.33715">
        <ele>128.60000610352</ele>
        <time>2021-07-11T07:50:13.000Z</time>
      </trkpt>
      <trkpt lat="50.52595" lon="5.3372">
        <ele>129</ele>
        <time>2021-07-11T07:50:14.000Z</time>
      </trkpt>
      <trkpt lat="50.52585" lon="5.33749">
        <ele>129.80000305176</ele>
        <time>2021-07-11T07:50:20.000Z</time>
      </trkpt>
      <trkpt lat="50.5258" lon="5.3376">
        <ele>130.19999694824</ele>
        <time>2021-07-11T07:50:22.000Z</time>
      </trkpt>
      <trkpt lat="50.52566" lon="5.33797">
        <ele>131.19999694824</ele>
        <time>2021-07-11T07:50:27.000Z</time>
      </trkpt>
      <trkpt lat="50.52561" lon="5.3381">
        <ele>131.60000610352</ele>
        <time>2021-07-11T07:50:29.000Z</time>
      </trkpt>
      <trkpt lat="50.52549" lon="5.33838">
        <ele>132.39999389648</ele>
        <time>2021-07-11T07:50:34.000Z</time>
      </trkpt>
      <trkpt lat="50.52531" lon="5.33869">
        <ele>133.80000305176</ele>
        <time>2021-07-11T07:50:40.000Z</time>
      </trkpt>
      <trkpt lat="50.52507" lon="5.33891">
        <ele>134.80000305176</ele>
        <time>2021-07-11T07:50:46.000Z</time>
      </trkpt>
      <trkpt lat="50.52472" lon="5.33915">
        <ele>135.80000305176</ele>
        <time>2021-07-11T07:50:53.000Z</time>
      </trkpt>
      <trkpt lat="50.52467" lon="5.33918">
        <ele>135.80000305176</ele>
        <time>2021-07-11T07:50:54.000Z</time>
      </trkpt>
      <trkpt lat="50.52433" lon="5.33936">
        <ele>136</ele>
        <time>2021-07-11T07:51:01.000Z</time>
      </trkpt>
      <trkpt lat="50.52379" lon="5.33966">
        <ele>137</ele>
        <time>2021-07-11T07:51:12.000Z</time>
      </trkpt>
      <trkpt lat="50.52374" lon="5.33968">
        <ele>137</ele>
        <time>2021-07-11T07:51:13.000Z</time>
      </trkpt>
      <trkpt lat="50.52369" lon="5.33971">
        <ele>137</ele>
        <time>2021-07-11T07:51:14.000Z</time>
      </trkpt>
      <trkpt lat="50.52344" lon="5.33986">
        <ele>137.39999389648</ele>
        <time>2021-07-11T07:51:19.000Z</time>
      </trkpt>
      <trkpt lat="50.5231" lon="5.34005">
        <ele>138</ele>
        <time>2021-07-11T07:51:26.000Z</time>
      </trkpt>
      <trkpt lat="50.52267" lon="5.3403">
        <ele>138.39999389648</ele>
        <time>2021-07-11T07:51:35.000Z</time>
      </trkpt>
      <trkpt lat="50.52229" lon="5.34054">
        <ele>138.80000305176</ele>
        <time>2021-07-11T07:51:43.000Z</time>
      </trkpt>
      <trkpt lat="50.52185" lon="5.34084">
        <ele>139.19999694824</ele>
        <time>2021-07-11T07:51:52.000Z</time>
      </trkpt>
      <trkpt lat="50.52143" lon="5.34122">
        <ele>140</ele>
        <time>2021-07-11T07:52:01.000Z</time>
      </trkpt>
      <trkpt lat="50.5212" lon="5.34146">
        <ele>139.80000305176</ele>
        <time>2021-07-11T07:52:06.000Z</time>
      </trkpt>
      <trkpt lat="50.52105" lon="5.34158">
        <ele>139.80000305176</ele>
        <time>2021-07-11T07:52:09.000Z</time>
      </trkpt>
      <trkpt lat="50.52094" lon="5.34159">
        <ele>140</ele>
        <time>2021-07-11T07:52:11.000Z</time>
      </trkpt>
      <trkpt lat="50.52082" lon="5.34157">
        <ele>140</ele>
        <time>2021-07-11T07:52:13.000Z</time>
      </trkpt>
      <trkpt lat="50.52067" lon="5.34145">
        <ele>140.19999694824</ele>
        <time>2021-07-11T07:52:15.000Z</time>
      </trkpt>
      <trkpt lat="50.52035" lon="5.341">
        <ele>141</ele>
        <time>2021-07-11T07:52:23.000Z</time>
      </trkpt>
      <trkpt lat="50.52011" lon="5.34065">
        <ele>141.39999389648</ele>
        <time>2021-07-11T07:52:30.000Z</time>
      </trkpt>
      <trkpt lat="50.51983" lon="5.34024">
        <ele>142</ele>
        <time>2021-07-11T07:52:37.000Z</time>
      </trkpt>
      <trkpt lat="50.51956" lon="5.33983">
        <ele>143.39999389648</ele>
        <time>2021-07-11T07:52:44.000Z</time>
      </trkpt>
      <trkpt lat="50.51952" lon="5.33978">
        <ele>143.39999389648</ele>
        <time>2021-07-11T07:52:45.000Z</time>
      </trkpt>
      <trkpt lat="50.51926" lon="5.33938">
        <ele>144.39999389648</ele>
        <time>2021-07-11T07:52:52.000Z</time>
      </trkpt>
      <trkpt lat="50.51922" lon="5.33932">
        <ele>144.60000610352</ele>
        <time>2021-07-11T07:52:53.000Z</time>
      </trkpt>
      <trkpt lat="50.51899" lon="5.33899">
        <ele>145.19999694824</ele>
        <time>2021-07-11T07:52:59.000Z</time>
      </trkpt>
      <trkpt lat="50.51888" lon="5.33882">
        <ele>145.60000610352</ele>
        <time>2021-07-11T07:53:02.000Z</time>
      </trkpt>
      <trkpt lat="50.51862" lon="5.33842">
        <ele>146.60000610352</ele>
        <time>2021-07-11T07:53:09.000Z</time>
      </trkpt>
      <trkpt lat="50.51858" lon="5.33836">
        <ele>146.60000610352</ele>
        <time>2021-07-11T07:53:10.000Z</time>
      </trkpt>
      <trkpt lat="50.51835" lon="5.33803">
        <ele>147.39999389648</ele>
        <time>2021-07-11T07:53:16.000Z</time>
      </trkpt>
      <trkpt lat="50.51822" lon="5.33788">
        <ele>147.80000305176</ele>
        <time>2021-07-11T07:53:19.000Z</time>
      </trkpt>
      <trkpt lat="50.51793" lon="5.33752">
        <ele>148.39999389648</ele>
        <time>2021-07-11T07:53:26.000Z</time>
      </trkpt>
      <trkpt lat="50.51772" lon="5.33725">
        <ele>148.80000305176</ele>
        <time>2021-07-11T07:53:31.000Z</time>
      </trkpt>
      <trkpt lat="50.5176" lon="5.33709">
        <ele>149.19999694824</ele>
        <time>2021-07-11T07:53:33.000Z</time>
      </trkpt>
      <trkpt lat="50.51733" lon="5.33671">
        <ele>149.80000305176</ele>
        <time>2021-07-11T07:53:41.000Z</time>
      </trkpt>
      <trkpt lat="50.51726" lon="5.3366">
        <ele>150</ele>
        <time>2021-07-11T07:53:43.000Z</time>
      </trkpt>
      <trkpt lat="50.51723" lon="5.33655">
        <ele>150</ele>
        <time>2021-07-11T07:53:44.000Z</time>
      </trkpt>
      <trkpt lat="50.51709" lon="5.33635">
        <ele>150.19999694824</ele>
        <time>2021-07-11T07:53:48.000Z</time>
      </trkpt>
      <trkpt lat="50.51703" lon="5.33625">
        <ele>150.39999389648</ele>
        <time>2021-07-11T07:53:50.000Z</time>
      </trkpt>
      <trkpt lat="50.51684" lon="5.33597">
        <ele>151</ele>
        <time>2021-07-11T07:53:55.000Z</time>
      </trkpt>
      <trkpt lat="50.5168" lon="5.33592">
        <ele>151.19999694824</ele>
        <time>2021-07-11T07:53:56.000Z</time>
      </trkpt>
      <trkpt lat="50.51676" lon="5.33588">
        <ele>151.19999694824</ele>
        <time>2021-07-11T07:53:57.000Z</time>
      </trkpt>
      <trkpt lat="50.51672" lon="5.33584">
        <ele>151.39999389648</ele>
        <time>2021-07-11T07:53:58.000Z</time>
      </trkpt>
      <trkpt lat="50.51663" lon="5.33579">
        <ele>151.80000305176</ele>
        <time>2021-07-11T07:54:00.000Z</time>
      </trkpt>
      <trkpt lat="50.51653" lon="5.33575">
        <ele>152</ele>
        <time>2021-07-11T07:54:02.000Z</time>
      </trkpt>
      <trkpt lat="50.51643" lon="5.33574">
        <ele>152.19999694824</ele>
        <time>2021-07-11T07:54:04.000Z</time>
      </trkpt>
      <trkpt lat="50.51638" lon="5.33575">
        <ele>152.39999389648</ele>
        <time>2021-07-11T07:54:05.000Z</time>
      </trkpt>
      <trkpt lat="50.51632" lon="5.33576">
        <ele>152.60000610352</ele>
        <time>2021-07-11T07:54:06.000Z</time>
      </trkpt>
      <trkpt lat="50.51627" lon="5.33579">
        <ele>152.60000610352</ele>
        <time>2021-07-11T07:54:07.000Z</time>
      </trkpt>
      <trkpt lat="50.51618" lon="5.33584">
        <ele>153</ele>
        <time>2021-07-11T07:54:09.000Z</time>
      </trkpt>
      <trkpt lat="50.51614" lon="5.33589">
        <ele>153.19999694824</ele>
        <time>2021-07-11T07:54:10.000Z</time>
      </trkpt>
      <trkpt lat="50.51611" lon="5.33594">
        <ele>153.39999389648</ele>
        <time>2021-07-11T07:54:11.000Z</time>
      </trkpt>
      <trkpt lat="50.51606" lon="5.33606">
        <ele>153.60000610352</ele>
        <time>2021-07-11T07:54:13.000Z</time>
      </trkpt>
      <trkpt lat="50.51604" lon="5.33612">
        <ele>153.39999389648</ele>
        <time>2021-07-11T07:54:14.000Z</time>
      </trkpt>
      <trkpt lat="50.51602" lon="5.33618">
        <ele>153.60000610352</ele>
        <time>2021-07-11T07:54:15.000Z</time>
      </trkpt>
      <trkpt lat="50.51593" lon="5.33649">
        <ele>154.19999694824</ele>
        <time>2021-07-11T07:54:20.000Z</time>
      </trkpt>
      <trkpt lat="50.51591" lon="5.33656">
        <ele>154.19999694824</ele>
        <time>2021-07-11T07:54:21.000Z</time>
      </trkpt>
      <trkpt lat="50.51589" lon="5.33663">
        <ele>154.39999389648</ele>
        <time>2021-07-11T07:54:22.000Z</time>
      </trkpt>
      <trkpt lat="50.51579" lon="5.33687">
        <ele>155.19999694824</ele>
        <time>2021-07-11T07:54:26.000Z</time>
      </trkpt>
      <trkpt lat="50.51573" lon="5.337">
        <ele>155.39999389648</ele>
        <time>2021-07-11T07:54:28.000Z</time>
      </trkpt>
      <trkpt lat="50.5156" lon="5.3373">
        <ele>155.80000305176</ele>
        <time>2021-07-11T07:54:32.000Z</time>
      </trkpt>
      <trkpt lat="50.51555" lon="5.33741">
        <ele>156</ele>
        <time>2021-07-11T07:54:35.000Z</time>
      </trkpt>
      <trkpt lat="50.51539" lon="5.33773">
        <ele>156.80000305176</ele>
        <time>2021-07-11T07:54:41.000Z</time>
      </trkpt>
      <trkpt lat="50.51536" lon="5.33778">
        <ele>157</ele>
        <time>2021-07-11T07:54:42.000Z</time>
      </trkpt>
      <trkpt lat="50.5152" lon="5.33807">
        <ele>157.39999389648</ele>
        <time>2021-07-11T07:54:47.000Z</time>
      </trkpt>
      <trkpt lat="50.51504" lon="5.33834">
        <ele>157.80000305176</ele>
        <time>2021-07-11T07:54:51.000Z</time>
      </trkpt>
      <trkpt lat="50.51496" lon="5.33843">
        <ele>158</ele>
        <time>2021-07-11T07:54:53.000Z</time>
      </trkpt>
      <trkpt lat="50.51489" lon="5.33854">
        <ele>158.19999694824</ele>
        <time>2021-07-11T07:54:55.000Z</time>
      </trkpt>
      <trkpt lat="50.51468" lon="5.33875">
        <ele>158.80000305176</ele>
        <time>2021-07-11T07:55:00.000Z</time>
      </trkpt>
      <trkpt lat="50.51464" lon="5.3388">
        <ele>158.80000305176</ele>
        <time>2021-07-11T07:55:01.000Z</time>
      </trkpt>
      <trkpt lat="50.51455" lon="5.33888">
        <ele>159</ele>
        <time>2021-07-11T07:55:03.000Z</time>
      </trkpt>
      <trkpt lat="50.51438" lon="5.33904">
        <ele>159.60000610352</ele>
        <time>2021-07-11T07:55:07.000Z</time>
      </trkpt>
      <trkpt lat="50.51425" lon="5.33917">
        <ele>159.80000305176</ele>
        <time>2021-07-11T07:55:10.000Z</time>
      </trkpt>
      <trkpt lat="50.51419" lon="5.33919">
        <ele>160</ele>
        <time>2021-07-11T07:55:11.000Z</time>
      </trkpt>
      <trkpt lat="50.51409" lon="5.33922">
        <ele>160.19999694824</ele>
        <time>2021-07-11T07:55:13.000Z</time>
      </trkpt>
      <trkpt lat="50.5139" lon="5.3392">
        <ele>160.39999389648</ele>
        <time>2021-07-11T07:55:16.000Z</time>
      </trkpt>
      <trkpt lat="50.51383" lon="5.33918">
        <ele>160.39999389648</ele>
        <time>2021-07-11T07:55:17.000Z</time>
      </trkpt>
      <trkpt lat="50.51378" lon="5.33916">
        <ele>160.60000610352</ele>
        <time>2021-07-11T07:55:18.000Z</time>
      </trkpt>
      <trkpt lat="50.51356" lon="5.33909">
        <ele>161.19999694824</ele>
        <time>2021-07-11T07:55:22.000Z</time>
      </trkpt>
      <trkpt lat="50.51331" lon="5.33902">
        <ele>162</ele>
        <time>2021-07-11T07:55:27.000Z</time>
      </trkpt>
      <trkpt lat="50.51322" lon="5.339">
        <ele>162.39999389648</ele>
        <time>2021-07-11T07:55:29.000Z</time>
      </trkpt>
      <trkpt lat="50.51312" lon="5.339">
        <ele>162.80000305176</ele>
        <time>2021-07-11T07:55:31.000Z</time>
      </trkpt>
      <trkpt lat="50.51302" lon="5.339">
        <ele>163.60000610352</ele>
        <time>2021-07-11T07:55:34.000Z</time>
      </trkpt>
      <trkpt lat="50.51283" lon="5.339">
        <ele>164.60000610352</ele>
        <time>2021-07-11T07:55:37.000Z</time>
      </trkpt>
      <trkpt lat="50.51269" lon="5.33901">
        <ele>165.60000610352</ele>
        <time>2021-07-11T07:55:40.000Z</time>
      </trkpt>
      <trkpt lat="50.51247" lon="5.33902">
        <ele>167</ele>
        <time>2021-07-11T07:55:46.000Z</time>
      </trkpt>
      <trkpt lat="50.51229" lon="5.33903">
        <ele>168</ele>
        <time>2021-07-11T07:55:50.000Z</time>
      </trkpt>
      <trkpt lat="50.51216" lon="5.33904">
        <ele>168.80000305176</ele>
        <time>2021-07-11T07:55:53.000Z</time>
      </trkpt>
      <trkpt lat="50.51208" lon="5.33904">
        <ele>169.19999694824</ele>
        <time>2021-07-11T07:55:55.000Z</time>
      </trkpt>
      <trkpt lat="50.51191" lon="5.33902">
        <ele>170</ele>
        <time>2021-07-11T07:55:59.000Z</time>
      </trkpt>
      <trkpt lat="50.5117" lon="5.339">
        <ele>171.19999694824</ele>
        <time>2021-07-11T07:56:04.000Z</time>
      </trkpt>
      <trkpt lat="50.51162" lon="5.33899">
        <ele>171.19999694824</ele>
        <time>2021-07-11T07:56:05.000Z</time>
      </trkpt>
      <trkpt lat="50.5114" lon="5.33896">
        <ele>172.60000610352</ele>
        <time>2021-07-11T07:56:10.000Z</time>
      </trkpt>
      <trkpt lat="50.51131" lon="5.33895">
        <ele>172.80000305176</ele>
        <time>2021-07-11T07:56:12.000Z</time>
      </trkpt>
      <trkpt lat="50.51126" lon="5.33894">
        <ele>173</ele>
        <time>2021-07-11T07:56:13.000Z</time>
      </trkpt>
      <trkpt lat="50.51117" lon="5.33892">
        <ele>173.39999389648</ele>
        <time>2021-07-11T07:56:15.000Z</time>
      </trkpt>
      <trkpt lat="50.51104" lon="5.33891">
        <ele>174</ele>
        <time>2021-07-11T07:56:18.000Z</time>
      </trkpt>
      <trkpt lat="50.51099" lon="5.3389">
        <ele>174.39999389648</ele>
        <time>2021-07-11T07:56:19.000Z</time>
      </trkpt>
      <trkpt lat="50.5109" lon="5.33891">
        <ele>174.80000305176</ele>
        <time>2021-07-11T07:56:21.000Z</time>
      </trkpt>
      <trkpt lat="50.51082" lon="5.33894">
        <ele>175.39999389648</ele>
        <time>2021-07-11T07:56:24.000Z</time>
      </trkpt>
      <trkpt lat="50.51078" lon="5.33896">
        <ele>175.60000610352</ele>
        <time>2021-07-11T07:56:25.000Z</time>
      </trkpt>
      <trkpt lat="50.5107" lon="5.33902">
        <ele>176.19999694824</ele>
        <time>2021-07-11T07:56:27.000Z</time>
      </trkpt>
      <trkpt lat="50.51063" lon="5.33908">
        <ele>176.80000305176</ele>
        <time>2021-07-11T07:56:29.000Z</time>
      </trkpt>
      <trkpt lat="50.51056" lon="5.33914">
        <ele>177.19999694824</ele>
        <time>2021-07-11T07:56:31.000Z</time>
      </trkpt>
      <trkpt lat="50.51044" lon="5.3392">
        <ele>178</ele>
        <time>2021-07-11T07:56:34.000Z</time>
      </trkpt>
      <trkpt lat="50.51035" lon="5.33921">
        <ele>178.39999389648</ele>
        <time>2021-07-11T07:56:36.000Z</time>
      </trkpt>
      <trkpt lat="50.51022" lon="5.33922">
        <ele>179</ele>
        <time>2021-07-11T07:56:39.000Z</time>
      </trkpt>
      <trkpt lat="50.51007" lon="5.33922">
        <ele>179.39999389648</ele>
        <time>2021-07-11T07:56:41.000Z</time>
      </trkpt>
      <trkpt lat="50.50988" lon="5.3392">
        <ele>180.80000305176</ele>
        <time>2021-07-11T07:56:46.000Z</time>
      </trkpt>
      <trkpt lat="50.50977" lon="5.33917">
        <ele>181</ele>
        <time>2021-07-11T07:56:48.000Z</time>
      </trkpt>
      <trkpt lat="50.50965" lon="5.33911">
        <ele>181.19999694824</ele>
        <time>2021-07-11T07:56:50.000Z</time>
      </trkpt>
      <trkpt lat="50.50955" lon="5.33902">
        <ele>181.19999694824</ele>
        <time>2021-07-11T07:56:52.000Z</time>
      </trkpt>
      <trkpt lat="50.50951" lon="5.33896">
        <ele>181.39999389648</ele>
        <time>2021-07-11T07:56:53.000Z</time>
      </trkpt>
      <trkpt lat="50.50943" lon="5.33885">
        <ele>181.60000610352</ele>
        <time>2021-07-11T07:56:55.000Z</time>
      </trkpt>
      <trkpt lat="50.50931" lon="5.33858">
        <ele>182.80000305176</ele>
        <time>2021-07-11T07:56:59.000Z</time>
      </trkpt>
      <trkpt lat="50.50925" lon="5.33844">
        <ele>183.39999389648</ele>
        <time>2021-07-11T07:57:01.000Z</time>
      </trkpt>
      <trkpt lat="50.50912" lon="5.33814">
        <ele>184.19999694824</ele>
        <time>2021-07-11T07:57:06.000Z</time>
      </trkpt>
      <trkpt lat="50.5091" lon="5.33808">
        <ele>184.39999389648</ele>
        <time>2021-07-11T07:57:07.000Z</time>
      </trkpt>
      <trkpt lat="50.50907" lon="5.33802">
        <ele>184.39999389648</ele>
        <time>2021-07-11T07:57:08.000Z</time>
      </trkpt>
      <trkpt lat="50.50896" lon="5.33775">
        <ele>185.60000610352</ele>
        <time>2021-07-11T07:57:13.000Z</time>
      </trkpt>
      <trkpt lat="50.5088" lon="5.3374">
        <ele>186.80000305176</ele>
        <time>2021-07-11T07:57:19.000Z</time>
      </trkpt>
      <trkpt lat="50.50874" lon="5.33729">
        <ele>187.19999694824</ele>
        <time>2021-07-11T07:57:21.000Z</time>
      </trkpt>
      <trkpt lat="50.50864" lon="5.33708">
        <ele>188.39999389648</ele>
        <time>2021-07-11T07:57:25.000Z</time>
      </trkpt>
      <trkpt lat="50.50855" lon="5.33684">
        <ele>188.80000305176</ele>
        <time>2021-07-11T07:57:29.000Z</time>
      </trkpt>
      <trkpt lat="50.5085" lon="5.33672">
        <ele>189.19999694824</ele>
        <time>2021-07-11T07:57:31.000Z</time>
      </trkpt>
      <trkpt lat="50.50838" lon="5.33645">
        <ele>190.19999694824</ele>
        <time>2021-07-11T07:57:36.000Z</time>
      </trkpt>
      <trkpt lat="50.50831" lon="5.33627">
        <ele>191.19999694824</ele>
        <time>2021-07-11T07:57:39.000Z</time>
      </trkpt>
      <trkpt lat="50.50827" lon="5.33615">
        <ele>191.60000610352</ele>
        <time>2021-07-11T07:57:41.000Z</time>
      </trkpt>
      <trkpt lat="50.50817" lon="5.33593">
        <ele>192.19999694824</ele>
        <time>2021-07-11T07:57:45.000Z</time>
      </trkpt>
      <trkpt lat="50.50808" lon="5.33568">
        <ele>193.19999694824</ele>
        <time>2021-07-11T07:57:49.000Z</time>
      </trkpt>
      <trkpt lat="50.50804" lon="5.33555">
        <ele>193.60000610352</ele>
        <time>2021-07-11T07:57:51.000Z</time>
      </trkpt>
      <trkpt lat="50.50798" lon="5.33527">
        <ele>194.60000610352</ele>
        <time>2021-07-11T07:57:55.000Z</time>
      </trkpt>
      <trkpt lat="50.50795" lon="5.33513">
        <ele>195</ele>
        <time>2021-07-11T07:57:57.000Z</time>
      </trkpt>
      <trkpt lat="50.50791" lon="5.33493">
        <ele>195.39999389648</ele>
        <time>2021-07-11T07:58:00.000Z</time>
      </trkpt>
      <trkpt lat="50.50783" lon="5.33461">
        <ele>196.39999389648</ele>
        <time>2021-07-11T07:58:05.000Z</time>
      </trkpt>
      <trkpt lat="50.50778" lon="5.33443">
        <ele>197.39999389648</ele>
        <time>2021-07-11T07:58:08.000Z</time>
      </trkpt>
      <trkpt lat="50.50771" lon="5.3342">
        <ele>198</ele>
        <time>2021-07-11T07:58:12.000Z</time>
      </trkpt>
      <trkpt lat="50.50769" lon="5.33414">
        <ele>198</ele>
        <time>2021-07-11T07:58:13.000Z</time>
      </trkpt>
      <trkpt lat="50.50754" lon="5.3338">
        <ele>199.19999694824</ele>
        <time>2021-07-11T07:58:19.000Z</time>
      </trkpt>
      <trkpt lat="50.50752" lon="5.33375">
        <ele>199.39999389648</ele>
        <time>2021-07-11T07:58:20.000Z</time>
      </trkpt>
      <trkpt lat="50.50741" lon="5.33356">
        <ele>200.39999389648</ele>
        <time>2021-07-11T07:58:24.000Z</time>
      </trkpt>
      <trkpt lat="50.50733" lon="5.33342">
        <ele>201</ele>
        <time>2021-07-11T07:58:27.000Z</time>
      </trkpt>
      <trkpt lat="50.50727" lon="5.33332">
        <ele>201.39999389648</ele>
        <time>2021-07-11T07:58:29.000Z</time>
      </trkpt>
      <trkpt lat="50.50714" lon="5.33309">
        <ele>202.39999389648</ele>
        <time>2021-07-11T07:58:34.000Z</time>
      </trkpt>
      <trkpt lat="50.50708" lon="5.33299">
        <ele>202.60000610352</ele>
        <time>2021-07-11T07:58:36.000Z</time>
      </trkpt>
      <trkpt lat="50.50698" lon="5.33285">
        <ele>203.60000610352</ele>
        <time>2021-07-11T07:58:39.000Z</time>
      </trkpt>
      <trkpt lat="50.50676" lon="5.33266">
        <ele>204.60000610352</ele>
        <time>2021-07-11T07:58:45.000Z</time>
      </trkpt>
      <trkpt lat="50.50666" lon="5.33259">
        <ele>205.19999694824</ele>
        <time>2021-07-11T07:58:47.000Z</time>
      </trkpt>
      <trkpt lat="50.50647" lon="5.33243">
        <ele>205.80000305176</ele>
        <time>2021-07-11T07:58:51.000Z</time>
      </trkpt>
      <trkpt lat="50.5063" lon="5.33228">
        <ele>206</ele>
        <time>2021-07-11T07:58:55.000Z</time>
      </trkpt>
      <trkpt lat="50.50618" lon="5.33214">
        <ele>206</ele>
        <time>2021-07-11T07:58:58.000Z</time>
      </trkpt>
      <trkpt lat="50.50611" lon="5.33204">
        <ele>206.19999694824</ele>
        <time>2021-07-11T07:59:00.000Z</time>
      </trkpt>
      <trkpt lat="50.50599" lon="5.33181">
        <ele>207</ele>
        <time>2021-07-11T07:59:04.000Z</time>
      </trkpt>
      <trkpt lat="50.50596" lon="5.33175">
        <ele>207.19999694824</ele>
        <time>2021-07-11T07:59:05.000Z</time>
      </trkpt>
      <trkpt lat="50.50591" lon="5.33163">
        <ele>207.39999389648</ele>
        <time>2021-07-11T07:59:07.000Z</time>
      </trkpt>
      <trkpt lat="50.50576" lon="5.33116">
        <ele>208.80000305176</ele>
        <time>2021-07-11T07:59:14.000Z</time>
      </trkpt>
      <trkpt lat="50.50564" lon="5.33075">
        <ele>209.80000305176</ele>
        <time>2021-07-11T07:59:20.000Z</time>
      </trkpt>
      <trkpt lat="50.50557" lon="5.33055">
        <ele>210.39999389648</ele>
        <time>2021-07-11T07:59:23.000Z</time>
      </trkpt>
      <trkpt lat="50.50547" lon="5.33023">
        <ele>211.19999694824</ele>
        <time>2021-07-11T07:59:28.000Z</time>
      </trkpt>
      <trkpt lat="50.50536" lon="5.32989">
        <ele>212.19999694824</ele>
        <time>2021-07-11T07:59:33.000Z</time>
      </trkpt>
      <trkpt lat="50.50534" lon="5.32983">
        <ele>212.39999389648</ele>
        <time>2021-07-11T07:59:34.000Z</time>
      </trkpt>
      <trkpt lat="50.50526" lon="5.32957">
        <ele>213</ele>
        <time>2021-07-11T07:59:38.000Z</time>
      </trkpt>
      <trkpt lat="50.5052" lon="5.32937">
        <ele>213.60000610352</ele>
        <time>2021-07-11T07:59:41.000Z</time>
      </trkpt>
      <trkpt lat="50.50516" lon="5.32924">
        <ele>214.19999694824</ele>
        <time>2021-07-11T07:59:43.000Z</time>
      </trkpt>
      <trkpt lat="50.50512" lon="5.32911">
        <ele>214.60000610352</ele>
        <time>2021-07-11T07:59:45.000Z</time>
      </trkpt>
      <trkpt lat="50.505" lon="5.32887">
        <ele>215.39999389648</ele>
        <time>2021-07-11T07:59:50.000Z</time>
      </trkpt>
      <trkpt lat="50.50498" lon="5.32889">
        <ele>215.60000610352</ele>
        <time>2021-07-11T07:59:51.000Z</time>
      </trkpt>
      <trkpt lat="50.50496" lon="5.32895">
        <ele>215.80000305176</ele>
        <time>2021-07-11T07:59:52.000Z</time>
      </trkpt>
      <trkpt lat="50.50501" lon="5.32932">
        <ele>217</ele>
        <time>2021-07-11T07:59:57.000Z</time>
      </trkpt>
      <trkpt lat="50.50505" lon="5.3297">
        <ele>218</ele>
        <time>2021-07-11T08:00:02.000Z</time>
      </trkpt>
      <trkpt lat="50.50507" lon="5.33">
        <ele>218.19999694824</ele>
        <time>2021-07-11T08:00:06.000Z</time>
      </trkpt>
      <trkpt lat="50.50507" lon="5.33014">
        <ele>218.39999389648</ele>
        <time>2021-07-11T08:00:08.000Z</time>
      </trkpt>
      <trkpt lat="50.50506" lon="5.33054">
        <ele>219.39999389648</ele>
        <time>2021-07-11T08:00:14.000Z</time>
      </trkpt>
      <trkpt lat="50.50506" lon="5.33061">
        <ele>219.39999389648</ele>
        <time>2021-07-11T08:00:15.000Z</time>
      </trkpt>
      <trkpt lat="50.50504" lon="5.33086">
        <ele>220.19999694824</ele>
        <time>2021-07-11T08:00:19.000Z</time>
      </trkpt>
      <trkpt lat="50.50503" lon="5.33105">
        <ele>221.19999694824</ele>
        <time>2021-07-11T08:00:22.000Z</time>
      </trkpt>
      <trkpt lat="50.50502" lon="5.33117">
        <ele>221.80000305176</ele>
        <time>2021-07-11T08:00:24.000Z</time>
      </trkpt>
      <trkpt lat="50.505" lon="5.33142">
        <ele>223.19999694824</ele>
        <time>2021-07-11T08:00:28.000Z</time>
      </trkpt>
      <trkpt lat="50.50498" lon="5.33161">
        <ele>223.60000610352</ele>
        <time>2021-07-11T08:00:31.000Z</time>
      </trkpt>
      <trkpt lat="50.50495" lon="5.33172">
        <ele>224</ele>
        <time>2021-07-11T08:00:33.000Z</time>
      </trkpt>
      <trkpt lat="50.5049" lon="5.33189">
        <ele>225.19999694824</ele>
        <time>2021-07-11T08:00:36.000Z</time>
      </trkpt>
      <trkpt lat="50.50488" lon="5.33194">
        <ele>225.80000305176</ele>
        <time>2021-07-11T08:00:37.000Z</time>
      </trkpt>
      <trkpt lat="50.50482" lon="5.3321">
        <ele>226.80000305176</ele>
        <time>2021-07-11T08:00:40.000Z</time>
      </trkpt>
      <trkpt lat="50.50476" lon="5.33226">
        <ele>228.19999694824</ele>
        <time>2021-07-11T08:00:43.000Z</time>
      </trkpt>
      <trkpt lat="50.50474" lon="5.33231">
        <ele>228.19999694824</ele>
        <time>2021-07-11T08:00:44.000Z</time>
      </trkpt>
      <trkpt lat="50.50465" lon="5.33265">
        <ele>230.80000305176</ele>
        <time>2021-07-11T08:00:50.000Z</time>
      </trkpt>
      <trkpt lat="50.50462" lon="5.33284">
        <ele>231.80000305176</ele>
        <time>2021-07-11T08:00:53.000Z</time>
      </trkpt>
      <trkpt lat="50.50462" lon="5.33311">
        <ele>232.60000610352</ele>
        <time>2021-07-11T08:00:57.000Z</time>
      </trkpt>
      <trkpt lat="50.50466" lon="5.33371">
        <ele>234.39999389648</ele>
        <time>2021-07-11T08:01:05.000Z</time>
      </trkpt>
      <trkpt lat="50.50467" lon="5.33395">
        <ele>234.60000610352</ele>
        <time>2021-07-11T08:01:08.000Z</time>
      </trkpt>
      <trkpt lat="50.50463" lon="5.33408">
        <ele>234.60000610352</ele>
        <time>2021-07-11T08:01:10.000Z</time>
      </trkpt>
      <trkpt lat="50.50436" lon="5.33424">
        <ele>234.39999389648</ele>
        <time>2021-07-11T08:01:15.000Z</time>
      </trkpt>
      <trkpt lat="50.50401" lon="5.33444">
        <ele>234.19999694824</ele>
        <time>2021-07-11T08:01:21.000Z</time>
      </trkpt>
      <trkpt lat="50.50388" lon="5.33451">
        <ele>234</ele>
        <time>2021-07-11T08:01:23.000Z</time>
      </trkpt>
      <trkpt lat="50.50375" lon="5.33457">
        <ele>233.60000610352</ele>
        <time>2021-07-11T08:01:25.000Z</time>
      </trkpt>
      <trkpt lat="50.50368" lon="5.33459">
        <ele>233.60000610352</ele>
        <time>2021-07-11T08:01:26.000Z</time>
      </trkpt>
      <trkpt lat="50.50346" lon="5.33459">
        <ele>233</ele>
        <time>2021-07-11T08:01:28.000Z</time>
      </trkpt>
      <trkpt lat="50.50324" lon="5.33459">
        <ele>231.60000610352</ele>
        <time>2021-07-11T08:01:33.000Z</time>
      </trkpt>
      <trkpt lat="50.50317" lon="5.33447">
        <ele>230.80000305176</ele>
        <time>2021-07-11T08:01:35.000Z</time>
      </trkpt>
      <trkpt lat="50.50314" lon="5.33439">
        <ele>230.39999389648</ele>
        <time>2021-07-11T08:01:36.000Z</time>
      </trkpt>
      <trkpt lat="50.50308" lon="5.33421">
        <ele>229.80000305176</ele>
        <time>2021-07-11T08:01:38.000Z</time>
      </trkpt>
      <trkpt lat="50.50294" lon="5.33376">
        <ele>228.19999694824</ele>
        <time>2021-07-11T08:01:43.000Z</time>
      </trkpt>
      <trkpt lat="50.50289" lon="5.3336">
        <ele>227.80000305176</ele>
        <time>2021-07-11T08:01:45.000Z</time>
      </trkpt>
      <trkpt lat="50.50271" lon="5.33305">
        <ele>227.80000305176</ele>
        <time>2021-07-11T08:01:52.000Z</time>
      </trkpt>
      <trkpt lat="50.50254" lon="5.33241">
        <ele>228</ele>
        <time>2021-07-11T08:01:59.000Z</time>
      </trkpt>
      <trkpt lat="50.50248" lon="5.33217">
        <ele>228.80000305176</ele>
        <time>2021-07-11T08:02:03.000Z</time>
      </trkpt>
      <trkpt lat="50.50243" lon="5.33199">
        <ele>228.60000610352</ele>
        <time>2021-07-11T08:02:05.000Z</time>
      </trkpt>
      <trkpt lat="50.50236" lon="5.33183">
        <ele>228.80000305176</ele>
        <time>2021-07-11T08:02:07.000Z</time>
      </trkpt>
      <trkpt lat="50.50225" lon="5.33162">
        <ele>228.80000305176</ele>
        <time>2021-07-11T08:02:10.000Z</time>
      </trkpt>
      <trkpt lat="50.50216" lon="5.3314">
        <ele>229</ele>
        <time>2021-07-11T08:02:13.000Z</time>
      </trkpt>
      <trkpt lat="50.50198" lon="5.33099">
        <ele>229.80000305176</ele>
        <time>2021-07-11T08:02:19.000Z</time>
      </trkpt>
      <trkpt lat="50.50183" lon="5.33067">
        <ele>231.39999389648</ele>
        <time>2021-07-11T08:02:24.000Z</time>
      </trkpt>
      <trkpt lat="50.5018" lon="5.3306">
        <ele>231.60000610352</ele>
        <time>2021-07-11T08:02:25.000Z</time>
      </trkpt>
      <trkpt lat="50.50166" lon="5.33025">
        <ele>232.60000610352</ele>
        <time>2021-07-11T08:02:30.000Z</time>
      </trkpt>
      <trkpt lat="50.50157" lon="5.33003">
        <ele>233.39999389648</ele>
        <time>2021-07-11T08:02:33.000Z</time>
      </trkpt>
      <trkpt lat="50.50125" lon="5.3293">
        <ele>234.60000610352</ele>
        <time>2021-07-11T08:02:43.000Z</time>
      </trkpt>
      <trkpt lat="50.50122" lon="5.32923">
        <ele>234.60000610352</ele>
        <time>2021-07-11T08:02:44.000Z</time>
      </trkpt>
      <trkpt lat="50.50091" lon="5.32843">
        <ele>235.19999694824</ele>
        <time>2021-07-11T08:02:54.000Z</time>
      </trkpt>
      <trkpt lat="50.50086" lon="5.32827">
        <ele>235.19999694824</ele>
        <time>2021-07-11T08:02:56.000Z</time>
      </trkpt>
      <trkpt lat="50.50074" lon="5.32785">
        <ele>235.39999389648</ele>
        <time>2021-07-11T08:03:01.000Z</time>
      </trkpt>
      <trkpt lat="50.50061" lon="5.32733">
        <ele>235.39999389648</ele>
        <time>2021-07-11T08:03:07.000Z</time>
      </trkpt>
      <trkpt lat="50.50049" lon="5.32662">
        <ele>236</ele>
        <time>2021-07-11T08:03:15.000Z</time>
      </trkpt>
      <trkpt lat="50.50041" lon="5.32613">
        <ele>236.19999694824</ele>
        <time>2021-07-11T08:03:21.000Z</time>
      </trkpt>
      <trkpt lat="50.50039" lon="5.32599">
        <ele>236</ele>
        <time>2021-07-11T08:03:23.000Z</time>
      </trkpt>
      <trkpt lat="50.50032" lon="5.32587">
        <ele>236.39999389648</ele>
        <time>2021-07-11T08:03:26.000Z</time>
      </trkpt>
      <trkpt lat="50.50014" lon="5.32582">
        <ele>237.19999694824</ele>
        <time>2021-07-11T08:03:31.000Z</time>
      </trkpt>
      <trkpt lat="50.49981" lon="5.32577">
        <ele>237.60000610352</ele>
        <time>2021-07-11T08:03:38.000Z</time>
      </trkpt>
      <trkpt lat="50.49924" lon="5.32566">
        <ele>237.60000610352</ele>
        <time>2021-07-11T08:03:49.000Z</time>
      </trkpt>
      <trkpt lat="50.49867" lon="5.32555">
        <ele>237.80000305176</ele>
        <time>2021-07-11T08:04:00.000Z</time>
      </trkpt>
      <trkpt lat="50.49861" lon="5.32554">
        <ele>237.80000305176</ele>
        <time>2021-07-11T08:04:01.000Z</time>
      </trkpt>
      <trkpt lat="50.49846" lon="5.3255">
        <ele>238</ele>
        <time>2021-07-11T08:04:04.000Z</time>
      </trkpt>
      <trkpt lat="50.49826" lon="5.32546">
        <ele>238.39999389648</ele>
        <time>2021-07-11T08:04:08.000Z</time>
      </trkpt>
      <trkpt lat="50.49816" lon="5.32544">
        <ele>238.60000610352</ele>
        <time>2021-07-11T08:04:10.000Z</time>
      </trkpt>
      <trkpt lat="50.49796" lon="5.3254">
        <ele>239.80000305176</ele>
        <time>2021-07-11T08:04:14.000Z</time>
      </trkpt>
      <trkpt lat="50.49776" lon="5.32536">
        <ele>240.80000305176</ele>
        <time>2021-07-11T08:04:18.000Z</time>
      </trkpt>
      <trkpt lat="50.49761" lon="5.32534">
        <ele>241.60000610352</ele>
        <time>2021-07-11T08:04:21.000Z</time>
      </trkpt>
      <trkpt lat="50.49751" lon="5.32533">
        <ele>242</ele>
        <time>2021-07-11T08:04:23.000Z</time>
      </trkpt>
      <trkpt lat="50.49732" lon="5.3253">
        <ele>243.19999694824</ele>
        <time>2021-07-11T08:04:27.000Z</time>
      </trkpt>
      <trkpt lat="50.49712" lon="5.32527">
        <ele>244.60000610352</ele>
        <time>2021-07-11T08:04:31.000Z</time>
      </trkpt>
      <trkpt lat="50.49697" lon="5.32525">
        <ele>245.39999389648</ele>
        <time>2021-07-11T08:04:34.000Z</time>
      </trkpt>
      <trkpt lat="50.49683" lon="5.32524">
        <ele>246.19999694824</ele>
        <time>2021-07-11T08:04:37.000Z</time>
      </trkpt>
      <trkpt lat="50.49659" lon="5.32521">
        <ele>247.39999389648</ele>
        <time>2021-07-11T08:04:42.000Z</time>
      </trkpt>
      <trkpt lat="50.49639" lon="5.32519">
        <ele>248.19999694824</ele>
        <time>2021-07-11T08:04:46.000Z</time>
      </trkpt>
      <trkpt lat="50.49629" lon="5.32519">
        <ele>248.39999389648</ele>
        <time>2021-07-11T08:04:48.000Z</time>
      </trkpt>
      <trkpt lat="50.4959" lon="5.32515">
        <ele>250</ele>
        <time>2021-07-11T08:04:56.000Z</time>
      </trkpt>
      <trkpt lat="50.4958" lon="5.32514">
        <ele>250.60000610352</ele>
        <time>2021-07-11T08:04:58.000Z</time>
      </trkpt>
      <trkpt lat="50.4954" lon="5.32509">
        <ele>252</ele>
        <time>2021-07-11T08:05:06.000Z</time>
      </trkpt>
      <trkpt lat="50.49499" lon="5.32504">
        <ele>253.19999694824</ele>
        <time>2021-07-11T08:05:14.000Z</time>
      </trkpt>
      <trkpt lat="50.49456" lon="5.32498">
        <ele>253.60000610352</ele>
        <time>2021-07-11T08:05:22.000Z</time>
      </trkpt>
      <trkpt lat="50.49439" lon="5.32496">
        <ele>254.19999694824</ele>
        <time>2021-07-11T08:05:25.000Z</time>
      </trkpt>
      <trkpt lat="50.49405" lon="5.32492">
        <ele>254.39999389648</ele>
        <time>2021-07-11T08:05:31.000Z</time>
      </trkpt>
      <trkpt lat="50.49388" lon="5.32486">
        <ele>254.60000610352</ele>
        <time>2021-07-11T08:05:34.000Z</time>
      </trkpt>
      <trkpt lat="50.4935" lon="5.32473">
        <ele>254.80000305176</ele>
        <time>2021-07-11T08:05:41.000Z</time>
      </trkpt>
      <trkpt lat="50.4934" lon="5.32472">
        <ele>254.80000305176</ele>
        <time>2021-07-11T08:05:43.000Z</time>
      </trkpt>
      <trkpt lat="50.49314" lon="5.32472">
        <ele>255.39999389648</ele>
        <time>2021-07-11T08:05:48.000Z</time>
      </trkpt>
      <trkpt lat="50.49288" lon="5.32477">
        <ele>256.60000610352</ele>
        <time>2021-07-11T08:05:53.000Z</time>
      </trkpt>
      <trkpt lat="50.49273" lon="5.32482">
        <ele>256.79998779297</ele>
        <time>2021-07-11T08:05:56.000Z</time>
      </trkpt>
      <trkpt lat="50.49259" lon="5.32487">
        <ele>257.39999389648</ele>
        <time>2021-07-11T08:05:59.000Z</time>
      </trkpt>
      <trkpt lat="50.4925" lon="5.3249">
        <ele>257.60000610352</ele>
        <time>2021-07-11T08:06:01.000Z</time>
      </trkpt>
      <trkpt lat="50.49246" lon="5.32492">
        <ele>257.79998779297</ele>
        <time>2021-07-11T08:06:02.000Z</time>
      </trkpt>
      <trkpt lat="50.49242" lon="5.32493">
        <ele>258</ele>
        <time>2021-07-11T08:06:03.000Z</time>
      </trkpt>
      <trkpt lat="50.49225" lon="5.32501">
        <ele>259.20001220703</ele>
        <time>2021-07-11T08:06:07.000Z</time>
      </trkpt>
      <trkpt lat="50.4922" lon="5.32504">
        <ele>259.60000610352</ele>
        <time>2021-07-11T08:06:08.000Z</time>
      </trkpt>
      <trkpt lat="50.49196" lon="5.32514">
        <ele>261.60000610352</ele>
        <time>2021-07-11T08:06:13.000Z</time>
      </trkpt>
      <trkpt lat="50.49186" lon="5.32517">
        <ele>262</ele>
        <time>2021-07-11T08:06:15.000Z</time>
      </trkpt>
      <trkpt lat="50.49172" lon="5.32522">
        <ele>262.39999389648</ele>
        <time>2021-07-11T08:06:17.000Z</time>
      </trkpt>
      <trkpt lat="50.49154" lon="5.32529">
        <ele>263</ele>
        <time>2021-07-11T08:06:21.000Z</time>
      </trkpt>
      <trkpt lat="50.49149" lon="5.3253">
        <ele>263.20001220703</ele>
        <time>2021-07-11T08:06:22.000Z</time>
      </trkpt>
      <trkpt lat="50.4914" lon="5.32527">
        <ele>263.39999389648</ele>
        <time>2021-07-11T08:06:24.000Z</time>
      </trkpt>
      <trkpt lat="50.49134" lon="5.32513">
        <ele>264</ele>
        <time>2021-07-11T08:06:27.000Z</time>
      </trkpt>
      <trkpt lat="50.49125" lon="5.32465">
        <ele>264.60000610352</ele>
        <time>2021-07-11T08:06:33.000Z</time>
      </trkpt>
      <trkpt lat="50.49109" lon="5.32381">
        <ele>264.60000610352</ele>
        <time>2021-07-11T08:06:43.000Z</time>
      </trkpt>
      <trkpt lat="50.49105" lon="5.32355">
        <ele>264.79998779297</ele>
        <time>2021-07-11T08:06:45.000Z</time>
      </trkpt>
      <trkpt lat="50.49097" lon="5.32311">
        <ele>264.79998779297</ele>
        <time>2021-07-11T08:06:50.000Z</time>
      </trkpt>
      <trkpt lat="50.49093" lon="5.32305">
        <ele>264.79998779297</ele>
        <time>2021-07-11T08:06:52.000Z</time>
      </trkpt>
      <trkpt lat="50.49084" lon="5.323">
        <ele>264.79998779297</ele>
        <time>2021-07-11T08:06:54.000Z</time>
      </trkpt>
      <trkpt lat="50.49079" lon="5.32302">
        <ele>264.79998779297</ele>
        <time>2021-07-11T08:06:55.000Z</time>
      </trkpt>
      <trkpt lat="50.4907" lon="5.32308">
        <ele>264.79998779297</ele>
        <time>2021-07-11T08:06:56.000Z</time>
      </trkpt>
      <trkpt lat="50.4906" lon="5.3231">
        <ele>265.20001220703</ele>
        <time>2021-07-11T08:07:00.000Z</time>
      </trkpt>
      <trkpt lat="50.49048" lon="5.3231">
        <ele>265</ele>
        <time>2021-07-11T08:07:03.000Z</time>
      </trkpt>
      <trkpt lat="50.49041" lon="5.32318">
        <ele>265</ele>
        <time>2021-07-11T08:07:04.000Z</time>
      </trkpt>
      <trkpt lat="50.49036" lon="5.32321">
        <ele>265.39999389648</ele>
        <time>2021-07-11T08:07:06.000Z</time>
      </trkpt>
      <trkpt lat="50.49027" lon="5.32327">
        <ele>265.39999389648</ele>
        <time>2021-07-11T08:07:08.000Z</time>
      </trkpt>
      <trkpt lat="50.49016" lon="5.32331">
        <ele>265.60000610352</ele>
        <time>2021-07-11T08:07:10.000Z</time>
      </trkpt>
      <trkpt lat="50.49005" lon="5.32333">
        <ele>265.60000610352</ele>
        <time>2021-07-11T08:07:11.000Z</time>
      </trkpt>
      <trkpt lat="50.48999" lon="5.32334">
        <ele>265.60000610352</ele>
        <time>2021-07-11T08:07:13.000Z</time>
      </trkpt>
      <trkpt lat="50.4898" lon="5.32336">
        <ele>265.39999389648</ele>
        <time>2021-07-11T08:07:15.000Z</time>
      </trkpt>
      <trkpt lat="50.48973" lon="5.32336">
        <ele>265.39999389648</ele>
        <time>2021-07-11T08:07:17.000Z</time>
      </trkpt>
      <trkpt lat="50.4893" lon="5.3234">
        <ele>264.60000610352</ele>
        <time>2021-07-11T08:07:22.000Z</time>
      </trkpt>
      <trkpt lat="50.48923" lon="5.32342">
        <ele>264.20001220703</ele>
        <time>2021-07-11T08:07:24.000Z</time>
      </trkpt>
      <trkpt lat="50.48915" lon="5.32345">
        <ele>264</ele>
        <time>2021-07-11T08:07:25.000Z</time>
      </trkpt>
      <trkpt lat="50.48907" lon="5.3235">
        <ele>263.39999389648</ele>
        <time>2021-07-11T08:07:26.000Z</time>
      </trkpt>
      <trkpt lat="50.489" lon="5.32357">
        <ele>263.20001220703</ele>
        <time>2021-07-11T08:07:27.000Z</time>
      </trkpt>
      <trkpt lat="50.48888" lon="5.32377">
        <ele>262.60000610352</ele>
        <time>2021-07-11T08:07:29.000Z</time>
      </trkpt>
      <trkpt lat="50.48882" lon="5.32389">
        <ele>262.39999389648</ele>
        <time>2021-07-11T08:07:30.000Z</time>
      </trkpt>
      <trkpt lat="50.48871" lon="5.32414">
        <ele>262.20001220703</ele>
        <time>2021-07-11T08:07:31.000Z</time>
      </trkpt>
      <trkpt lat="50.48857" lon="5.32439">
        <ele>260.60000610352</ele>
        <time>2021-07-11T08:07:34.000Z</time>
      </trkpt>
      <trkpt lat="50.48841" lon="5.32464">
        <ele>259.39999389648</ele>
        <time>2021-07-11T08:07:36.000Z</time>
      </trkpt>
      <trkpt lat="50.48825" lon="5.32489">
        <ele>258.79998779297</ele>
        <time>2021-07-11T08:07:37.000Z</time>
      </trkpt>
      <trkpt lat="50.48808" lon="5.32515">
        <ele>257.39999389648</ele>
        <time>2021-07-11T08:07:39.000Z</time>
      </trkpt>
      <trkpt lat="50.48791" lon="5.32542">
        <ele>255.19999694824</ele>
        <time>2021-07-11T08:07:42.000Z</time>
      </trkpt>
      <trkpt lat="50.48776" lon="5.3257">
        <ele>253.60000610352</ele>
        <time>2021-07-11T08:07:44.000Z</time>
      </trkpt>
      <trkpt lat="50.48757" lon="5.32616">
        <ele>250.60000610352</ele>
        <time>2021-07-11T08:07:47.000Z</time>
      </trkpt>
      <trkpt lat="50.48746" lon="5.32648">
        <ele>248.60000610352</ele>
        <time>2021-07-11T08:07:49.000Z</time>
      </trkpt>
      <trkpt lat="50.48737" lon="5.32661">
        <ele>247.60000610352</ele>
        <time>2021-07-11T08:07:50.000Z</time>
      </trkpt>
      <trkpt lat="50.48727" lon="5.3267">
        <ele>246.60000610352</ele>
        <time>2021-07-11T08:07:51.000Z</time>
      </trkpt>
      <trkpt lat="50.48717" lon="5.32675">
        <ele>245.80000305176</ele>
        <time>2021-07-11T08:07:52.000Z</time>
      </trkpt>
      <trkpt lat="50.48706" lon="5.32677">
        <ele>245</ele>
        <time>2021-07-11T08:07:53.000Z</time>
      </trkpt>
      <trkpt lat="50.48676" lon="5.32685">
        <ele>243.19999694824</ele>
        <time>2021-07-11T08:07:56.000Z</time>
      </trkpt>
      <trkpt lat="50.48632" lon="5.32698">
        <ele>241.19999694824</ele>
        <time>2021-07-11T08:08:01.000Z</time>
      </trkpt>
      <trkpt lat="50.48624" lon="5.32701">
        <ele>241.19999694824</ele>
        <time>2021-07-11T08:08:02.000Z</time>
      </trkpt>
      <trkpt lat="50.48581" lon="5.32715">
        <ele>241</ele>
        <time>2021-07-11T08:08:08.000Z</time>
      </trkpt>
      <trkpt lat="50.48523" lon="5.32733">
        <ele>241.80000305176</ele>
        <time>2021-07-11T08:08:17.000Z</time>
      </trkpt>
      <trkpt lat="50.48517" lon="5.32735">
        <ele>241.80000305176</ele>
        <time>2021-07-11T08:08:18.000Z</time>
      </trkpt>
      <trkpt lat="50.48478" lon="5.32748">
        <ele>241.80000305176</ele>
        <time>2021-07-11T08:08:24.000Z</time>
      </trkpt>
      <trkpt lat="50.48428" lon="5.32764">
        <ele>242.19999694824</ele>
        <time>2021-07-11T08:08:32.000Z</time>
      </trkpt>
      <trkpt lat="50.48423" lon="5.32766">
        <ele>242.39999389648</ele>
        <time>2021-07-11T08:08:33.000Z</time>
      </trkpt>
      <trkpt lat="50.48389" lon="5.32777">
        <ele>242.60000610352</ele>
        <time>2021-07-11T08:08:39.000Z</time>
      </trkpt>
      <trkpt lat="50.48372" lon="5.32783">
        <ele>243.39999389648</ele>
        <time>2021-07-11T08:08:42.000Z</time>
      </trkpt>
      <trkpt lat="50.48338" lon="5.32794">
        <ele>244.60000610352</ele>
        <time>2021-07-11T08:08:48.000Z</time>
      </trkpt>
      <trkpt lat="50.48293" lon="5.32809">
        <ele>245.80000305176</ele>
        <time>2021-07-11T08:08:56.000Z</time>
      </trkpt>
      <trkpt lat="50.48288" lon="5.32811">
        <ele>246</ele>
        <time>2021-07-11T08:08:57.000Z</time>
      </trkpt>
      <trkpt lat="50.4823" lon="5.3283">
        <ele>247.60000610352</ele>
        <time>2021-07-11T08:09:07.000Z</time>
      </trkpt>
      <trkpt lat="50.48219" lon="5.32834">
        <ele>248</ele>
        <time>2021-07-11T08:09:09.000Z</time>
      </trkpt>
      <trkpt lat="50.48155" lon="5.32855">
        <ele>248.80000305176</ele>
        <time>2021-07-11T08:09:18.000Z</time>
      </trkpt>
      <trkpt lat="50.48115" lon="5.32868">
        <ele>248.80000305176</ele>
        <time>2021-07-11T08:09:25.000Z</time>
      </trkpt>
      <trkpt lat="50.48085" lon="5.32878">
        <ele>248.80000305176</ele>
        <time>2021-07-11T08:09:30.000Z</time>
      </trkpt>
      <trkpt lat="50.48046" lon="5.3289">
        <ele>249.80000305176</ele>
        <time>2021-07-11T08:09:37.000Z</time>
      </trkpt>
      <trkpt lat="50.48025" lon="5.32898">
        <ele>251.19999694824</ele>
        <time>2021-07-11T08:09:41.000Z</time>
      </trkpt>
      <trkpt lat="50.48015" lon="5.32901">
        <ele>251.60000610352</ele>
        <time>2021-07-11T08:09:43.000Z</time>
      </trkpt>
      <trkpt lat="50.47986" lon="5.3291">
        <ele>252.19999694824</ele>
        <time>2021-07-11T08:09:48.000Z</time>
      </trkpt>
      <trkpt lat="50.47972" lon="5.32914">
        <ele>253.39999389648</ele>
        <time>2021-07-11T08:09:53.000Z</time>
      </trkpt>
      <trkpt lat="50.47959" lon="5.3292">
        <ele>254.80000305176</ele>
        <time>2021-07-11T08:09:59.000Z</time>
      </trkpt>
      <trkpt lat="50.47955" lon="5.32922">
        <ele>255</ele>
        <time>2021-07-11T08:10:00.000Z</time>
      </trkpt>
      <trkpt lat="50.47947" lon="5.32925">
        <ele>255.39999389648</ele>
        <time>2021-07-11T08:10:01.000Z</time>
      </trkpt>
      <trkpt lat="50.47939" lon="5.32928">
        <ele>255.60000610352</ele>
        <time>2021-07-11T08:10:03.000Z</time>
      </trkpt>
      <trkpt lat="50.47935" lon="5.3293">
        <ele>256</ele>
        <time>2021-07-11T08:10:05.000Z</time>
      </trkpt>
      <trkpt lat="50.47918" lon="5.32936">
        <ele>256.20001220703</ele>
        <time>2021-07-11T08:10:08.000Z</time>
      </trkpt>
      <trkpt lat="50.4791" lon="5.32939">
        <ele>257.39999389648</ele>
        <time>2021-07-11T08:10:11.000Z</time>
      </trkpt>
      <trkpt lat="50.47897" lon="5.32943">
        <ele>258</ele>
        <time>2021-07-11T08:10:14.000Z</time>
      </trkpt>
      <trkpt lat="50.47885" lon="5.32947">
        <ele>259</ele>
        <time>2021-07-11T08:10:17.000Z</time>
      </trkpt>
      <trkpt lat="50.47872" lon="5.32951">
        <ele>259.79998779297</ele>
        <time>2021-07-11T08:10:20.000Z</time>
      </trkpt>
      <trkpt lat="50.47854" lon="5.32957">
        <ele>260.20001220703</ele>
        <time>2021-07-11T08:10:23.000Z</time>
      </trkpt>
      <trkpt lat="50.47845" lon="5.3296">
        <ele>261.20001220703</ele>
        <time>2021-07-11T08:10:26.000Z</time>
      </trkpt>
      <trkpt lat="50.47824" lon="5.32968">
        <ele>262.60000610352</ele>
        <time>2021-07-11T08:10:30.000Z</time>
      </trkpt>
      <trkpt lat="50.47815" lon="5.32971">
        <ele>262.79998779297</ele>
        <time>2021-07-11T08:10:32.000Z</time>
      </trkpt>
      <trkpt lat="50.47802" lon="5.32974">
        <ele>264</ele>
        <time>2021-07-11T08:10:35.000Z</time>
      </trkpt>
      <trkpt lat="50.47785" lon="5.32979">
        <ele>265.20001220703</ele>
        <time>2021-07-11T08:10:39.000Z</time>
      </trkpt>
      <trkpt lat="50.47767" lon="5.32985">
        <ele>266.60000610352</ele>
        <time>2021-07-11T08:10:43.000Z</time>
      </trkpt>
      <trkpt lat="50.47742" lon="5.32993">
        <ele>267.79998779297</ele>
        <time>2021-07-11T08:10:49.000Z</time>
      </trkpt>
      <trkpt lat="50.47708" lon="5.33004">
        <ele>269.60000610352</ele>
        <time>2021-07-11T08:10:56.000Z</time>
      </trkpt>
      <trkpt lat="50.47675" lon="5.33016">
        <ele>270.39999389648</ele>
        <time>2021-07-11T08:11:04.000Z</time>
      </trkpt>
      <trkpt lat="50.47649" lon="5.33026">
        <ele>270.60000610352</ele>
        <time>2021-07-11T08:11:09.000Z</time>
      </trkpt>
      <trkpt lat="50.47644" lon="5.33028">
        <ele>270.39999389648</ele>
        <time>2021-07-11T08:11:11.000Z</time>
      </trkpt>
      <trkpt lat="50.47638" lon="5.3303">
        <ele>270.60000610352</ele>
        <time>2021-07-11T08:11:12.000Z</time>
      </trkpt>
      <trkpt lat="50.47609" lon="5.3304">
        <ele>269.79998779297</ele>
        <time>2021-07-11T08:11:17.000Z</time>
      </trkpt>
      <trkpt lat="50.47591" lon="5.33045">
        <ele>269.20001220703</ele>
        <time>2021-07-11T08:11:19.000Z</time>
      </trkpt>
      <trkpt lat="50.47567" lon="5.33052">
        <ele>267.79998779297</ele>
        <time>2021-07-11T08:11:23.000Z</time>
      </trkpt>
      <trkpt lat="50.47554" lon="5.33055">
        <ele>267</ele>
        <time>2021-07-11T08:11:26.000Z</time>
      </trkpt>
      <trkpt lat="50.47528" lon="5.33063">
        <ele>266</ele>
        <time>2021-07-11T08:11:30.000Z</time>
      </trkpt>
      <trkpt lat="50.47501" lon="5.33071">
        <ele>265.39999389648</ele>
        <time>2021-07-11T08:11:34.000Z</time>
      </trkpt>
      <trkpt lat="50.47467" lon="5.33082">
        <ele>264.79998779297</ele>
        <time>2021-07-11T08:11:38.000Z</time>
      </trkpt>
      <trkpt lat="50.47418" lon="5.33097">
        <ele>263.39999389648</ele>
        <time>2021-07-11T08:11:45.000Z</time>
      </trkpt>
      <trkpt lat="50.47385" lon="5.33107">
        <ele>262.60000610352</ele>
        <time>2021-07-11T08:11:50.000Z</time>
      </trkpt>
      <trkpt lat="50.47331" lon="5.33124">
        <ele>261.79998779297</ele>
        <time>2021-07-11T08:11:58.000Z</time>
      </trkpt>
      <trkpt lat="50.47324" lon="5.33126">
        <ele>261.60000610352</ele>
        <time>2021-07-11T08:12:00.000Z</time>
      </trkpt>
      <trkpt lat="50.47298" lon="5.33135">
        <ele>261.60000610352</ele>
        <time>2021-07-11T08:12:03.000Z</time>
      </trkpt>
      <trkpt lat="50.47247" lon="5.33155">
        <ele>261</ele>
        <time>2021-07-11T08:12:12.000Z</time>
      </trkpt>
      <trkpt lat="50.47192" lon="5.33182">
        <ele>260.79998779297</ele>
        <time>2021-07-11T08:12:20.000Z</time>
      </trkpt>
      <trkpt lat="50.47145" lon="5.332">
        <ele>260.60000610352</ele>
        <time>2021-07-11T08:12:28.000Z</time>
      </trkpt>
      <trkpt lat="50.4711" lon="5.33208">
        <ele>260.60000610352</ele>
        <time>2021-07-11T08:12:36.000Z</time>
      </trkpt>
      <trkpt lat="50.47073" lon="5.33213">
        <ele>260.39999389648</ele>
        <time>2021-07-11T08:12:44.000Z</time>
      </trkpt>
      <trkpt lat="50.4707" lon="5.33214">
        <ele>260.39999389648</ele>
        <time>2021-07-11T08:12:45.000Z</time>
      </trkpt>
      <trkpt lat="50.47055" lon="5.33217">
        <ele>260.20001220703</ele>
        <time>2021-07-11T08:12:51.000Z</time>
      </trkpt>
      <trkpt lat="50.47054" lon="5.33217">
        <ele>260.20001220703</ele>
        <time>2021-07-11T08:12:53.000Z</time>
      </trkpt>
      <trkpt lat="50.47052" lon="5.33217">
        <ele>260.60000610352</ele>
        <time>2021-07-11T08:16:46.000Z</time>
      </trkpt>
      <trkpt lat="50.47036" lon="5.33221">
        <ele>260.60000610352</ele>
        <time>2021-07-11T08:16:51.000Z</time>
      </trkpt>
      <trkpt lat="50.47008" lon="5.33228">
        <ele>260.60000610352</ele>
        <time>2021-07-11T08:16:57.000Z</time>
      </trkpt>
      <trkpt lat="50.46969" lon="5.33237">
        <ele>260.79998779297</ele>
        <time>2021-07-11T08:17:04.000Z</time>
      </trkpt>
      <trkpt lat="50.46963" lon="5.33238">
        <ele>260.79998779297</ele>
        <time>2021-07-11T08:17:05.000Z</time>
      </trkpt>
      <trkpt lat="50.46939" lon="5.33244">
        <ele>261.20001220703</ele>
        <time>2021-07-11T08:17:09.000Z</time>
      </trkpt>
      <trkpt lat="50.46903" lon="5.33253">
        <ele>261.39999389648</ele>
        <time>2021-07-11T08:17:15.000Z</time>
      </trkpt>
      <trkpt lat="50.46868" lon="5.33262">
        <ele>261.79998779297</ele>
        <time>2021-07-11T08:17:21.000Z</time>
      </trkpt>
      <trkpt lat="50.46852" lon="5.33266">
        <ele>261.79998779297</ele>
        <time>2021-07-11T08:17:24.000Z</time>
      </trkpt>
      <trkpt lat="50.46833" lon="5.33272">
        <ele>262.39999389648</ele>
        <time>2021-07-11T08:17:28.000Z</time>
      </trkpt>
      <trkpt lat="50.46818" lon="5.33276">
        <ele>263.20001220703</ele>
        <time>2021-07-11T08:17:31.000Z</time>
      </trkpt>
      <trkpt lat="50.46804" lon="5.33281">
        <ele>264</ele>
        <time>2021-07-11T08:17:34.000Z</time>
      </trkpt>
      <trkpt lat="50.46799" lon="5.33282">
        <ele>264.39999389648</ele>
        <time>2021-07-11T08:17:35.000Z</time>
      </trkpt>
      <trkpt lat="50.4679" lon="5.33286">
        <ele>264.60000610352</ele>
        <time>2021-07-11T08:17:37.000Z</time>
      </trkpt>
      <trkpt lat="50.46785" lon="5.33288">
        <ele>265</ele>
        <time>2021-07-11T08:17:38.000Z</time>
      </trkpt>
      <trkpt lat="50.46772" lon="5.33293">
        <ele>265.79998779297</ele>
        <time>2021-07-11T08:17:41.000Z</time>
      </trkpt>
      <trkpt lat="50.46762" lon="5.33296">
        <ele>266.79998779297</ele>
        <time>2021-07-11T08:17:43.000Z</time>
      </trkpt>
      <trkpt lat="50.46758" lon="5.33297">
        <ele>267.39999389648</ele>
        <time>2021-07-11T08:17:44.000Z</time>
      </trkpt>
      <trkpt lat="50.46739" lon="5.33303">
        <ele>268.79998779297</ele>
        <time>2021-07-11T08:17:48.000Z</time>
      </trkpt>
      <trkpt lat="50.46726" lon="5.33308">
        <ele>270.60000610352</ele>
        <time>2021-07-11T08:17:51.000Z</time>
      </trkpt>
      <trkpt lat="50.46722" lon="5.3331">
        <ele>270.79998779297</ele>
        <time>2021-07-11T08:17:52.000Z</time>
      </trkpt>
      <trkpt lat="50.46713" lon="5.33315">
        <ele>271.60000610352</ele>
        <time>2021-07-11T08:17:54.000Z</time>
      </trkpt>
      <trkpt lat="50.46704" lon="5.33321">
        <ele>272</ele>
        <time>2021-07-11T08:17:56.000Z</time>
      </trkpt>
      <trkpt lat="50.46697" lon="5.33332">
        <ele>272.60000610352</ele>
        <time>2021-07-11T08:17:58.000Z</time>
      </trkpt>
      <trkpt lat="50.4668" lon="5.33362">
        <ele>273.60000610352</ele>
        <time>2021-07-11T08:18:02.000Z</time>
      </trkpt>
      <trkpt lat="50.46659" lon="5.33383">
        <ele>273.60000610352</ele>
        <time>2021-07-11T08:18:05.000Z</time>
      </trkpt>
      <trkpt lat="50.46652" lon="5.33389">
        <ele>273.60000610352</ele>
        <time>2021-07-11T08:18:06.000Z</time>
      </trkpt>
      <trkpt lat="50.46638" lon="5.33405">
        <ele>273.39999389648</ele>
        <time>2021-07-11T08:18:08.000Z</time>
      </trkpt>
      <trkpt lat="50.46627" lon="5.33426">
        <ele>273.39999389648</ele>
        <time>2021-07-11T08:18:10.000Z</time>
      </trkpt>
      <trkpt lat="50.46618" lon="5.33452">
        <ele>272.39999389648</ele>
        <time>2021-07-11T08:18:12.000Z</time>
      </trkpt>
      <trkpt lat="50.46612" lon="5.33481">
        <ele>271.39999389648</ele>
        <time>2021-07-11T08:18:14.000Z</time>
      </trkpt>
      <trkpt lat="50.46608" lon="5.33495">
        <ele>271</ele>
        <time>2021-07-11T08:18:15.000Z</time>
      </trkpt>
      <trkpt lat="50.46599" lon="5.33524">
        <ele>270</ele>
        <time>2021-07-11T08:18:17.000Z</time>
      </trkpt>
      <trkpt lat="50.46592" lon="5.33537">
        <ele>269.20001220703</ele>
        <time>2021-07-11T08:18:18.000Z</time>
      </trkpt>
      <trkpt lat="50.46585" lon="5.33549">
        <ele>268.79998779297</ele>
        <time>2021-07-11T08:18:19.000Z</time>
      </trkpt>
      <trkpt lat="50.46576" lon="5.33559">
        <ele>268.20001220703</ele>
        <time>2021-07-11T08:18:20.000Z</time>
      </trkpt>
      <trkpt lat="50.46567" lon="5.33568">
        <ele>267.60000610352</ele>
        <time>2021-07-11T08:18:21.000Z</time>
      </trkpt>
      <trkpt lat="50.46539" lon="5.33591">
        <ele>266.20001220703</ele>
        <time>2021-07-11T08:18:24.000Z</time>
      </trkpt>
      <trkpt lat="50.46529" lon="5.33596">
        <ele>265.39999389648</ele>
        <time>2021-07-11T08:18:25.000Z</time>
      </trkpt>
      <trkpt lat="50.4652" lon="5.336">
        <ele>265.20001220703</ele>
        <time>2021-07-11T08:18:26.000Z</time>
      </trkpt>
      <trkpt lat="50.46487" lon="5.33615">
        <ele>262.20001220703</ele>
        <time>2021-07-11T08:18:30.000Z</time>
      </trkpt>
      <trkpt lat="50.46478" lon="5.33619">
        <ele>261.79998779297</ele>
        <time>2021-07-11T08:18:31.000Z</time>
      </trkpt>
      <trkpt lat="50.46454" lon="5.33633">
        <ele>260.60000610352</ele>
        <time>2021-07-11T08:18:34.000Z</time>
      </trkpt>
      <trkpt lat="50.4643" lon="5.33647">
        <ele>260</ele>
        <time>2021-07-11T08:18:37.000Z</time>
      </trkpt>
      <trkpt lat="50.46422" lon="5.33652">
        <ele>259.60000610352</ele>
        <time>2021-07-11T08:18:38.000Z</time>
      </trkpt>
      <trkpt lat="50.46389" lon="5.33671">
        <ele>258.60000610352</ele>
        <time>2021-07-11T08:18:42.000Z</time>
      </trkpt>
      <trkpt lat="50.46358" lon="5.33692">
        <ele>256.60000610352</ele>
        <time>2021-07-11T08:18:46.000Z</time>
      </trkpt>
      <trkpt lat="50.46342" lon="5.33703">
        <ele>256.39999389648</ele>
        <time>2021-07-11T08:18:48.000Z</time>
      </trkpt>
      <trkpt lat="50.46303" lon="5.33728">
        <ele>255.39999389648</ele>
        <time>2021-07-11T08:18:53.000Z</time>
      </trkpt>
      <trkpt lat="50.46257" lon="5.33756">
        <ele>253.80000305176</ele>
        <time>2021-07-11T08:19:00.000Z</time>
      </trkpt>
      <trkpt lat="50.46214" lon="5.33784">
        <ele>253.60000610352</ele>
        <time>2021-07-11T08:19:07.000Z</time>
      </trkpt>
      <trkpt lat="50.46185" lon="5.33803">
        <ele>253.80000305176</ele>
        <time>2021-07-11T08:19:12.000Z</time>
      </trkpt>
      <trkpt lat="50.46171" lon="5.33812">
        <ele>254.19999694824</ele>
        <time>2021-07-11T08:19:15.000Z</time>
      </trkpt>
      <trkpt lat="50.46167" lon="5.33815">
        <ele>254.19999694824</ele>
        <time>2021-07-11T08:19:16.000Z</time>
      </trkpt>
      <trkpt lat="50.46154" lon="5.33823">
        <ele>254.80000305176</ele>
        <time>2021-07-11T08:19:20.000Z</time>
      </trkpt>
      <trkpt lat="50.46148" lon="5.33827">
        <ele>255.39999389648</ele>
        <time>2021-07-11T08:19:22.000Z</time>
      </trkpt>
      <trkpt lat="50.46133" lon="5.33838">
        <ele>256.79998779297</ele>
        <time>2021-07-11T08:19:27.000Z</time>
      </trkpt>
      <trkpt lat="50.46127" lon="5.33843">
        <ele>257</ele>
        <time>2021-07-11T08:19:29.000Z</time>
      </trkpt>
      <trkpt lat="50.4611" lon="5.3386">
        <ele>258</ele>
        <time>2021-07-11T08:19:35.000Z</time>
      </trkpt>
      <trkpt lat="50.46101" lon="5.33868">
        <ele>258.79998779297</ele>
        <time>2021-07-11T08:19:38.000Z</time>
      </trkpt>
      <trkpt lat="50.46095" lon="5.33874">
        <ele>259</ele>
        <time>2021-07-11T08:19:40.000Z</time>
      </trkpt>
      <trkpt lat="50.46083" lon="5.33884">
        <ele>259.79998779297</ele>
        <time>2021-07-11T08:19:44.000Z</time>
      </trkpt>
      <trkpt lat="50.46072" lon="5.33891">
        <ele>260.60000610352</ele>
        <time>2021-07-11T08:19:48.000Z</time>
      </trkpt>
      <trkpt lat="50.46059" lon="5.33897">
        <ele>261.60000610352</ele>
        <time>2021-07-11T08:19:52.000Z</time>
      </trkpt>
      <trkpt lat="50.46041" lon="5.33907">
        <ele>263</ele>
        <time>2021-07-11T08:19:58.000Z</time>
      </trkpt>
      <trkpt lat="50.46035" lon="5.3391">
        <ele>263.39999389648</ele>
        <time>2021-07-11T08:20:00.000Z</time>
      </trkpt>
      <trkpt lat="50.46026" lon="5.33913">
        <ele>264.39999389648</ele>
        <time>2021-07-11T08:20:03.000Z</time>
      </trkpt>
      <trkpt lat="50.46016" lon="5.33919">
        <ele>265.39999389648</ele>
        <time>2021-07-11T08:20:07.000Z</time>
      </trkpt>
      <trkpt lat="50.4601" lon="5.33922">
        <ele>266.20001220703</ele>
        <time>2021-07-11T08:20:10.000Z</time>
      </trkpt>
      <trkpt lat="50.46003" lon="5.33926">
        <ele>266.60000610352</ele>
        <time>2021-07-11T08:20:12.000Z</time>
      </trkpt>
      <trkpt lat="50.4599" lon="5.33932">
        <ele>267.79998779297</ele>
        <time>2021-07-11T08:20:17.000Z</time>
      </trkpt>
      <trkpt lat="50.45985" lon="5.33935">
        <ele>268.39999389648</ele>
        <time>2021-07-11T08:20:19.000Z</time>
      </trkpt>
      <trkpt lat="50.45977" lon="5.3394">
        <ele>269.20001220703</ele>
        <time>2021-07-11T08:20:22.000Z</time>
      </trkpt>
      <trkpt lat="50.45965" lon="5.33947">
        <ele>270.20001220703</ele>
        <time>2021-07-11T08:20:26.000Z</time>
      </trkpt>
      <trkpt lat="50.45959" lon="5.33952">
        <ele>270.60000610352</ele>
        <time>2021-07-11T08:20:28.000Z</time>
      </trkpt>
      <trkpt lat="50.45952" lon="5.33958">
        <ele>271</ele>
        <time>2021-07-11T08:20:30.000Z</time>
      </trkpt>
      <trkpt lat="50.45935" lon="5.33977">
        <ele>272.60000610352</ele>
        <time>2021-07-11T08:20:36.000Z</time>
      </trkpt>
      <trkpt lat="50.45929" lon="5.33983">
        <ele>273.20001220703</ele>
        <time>2021-07-11T08:20:38.000Z</time>
      </trkpt>
      <trkpt lat="50.45909" lon="5.34006">
        <ele>274.39999389648</ele>
        <time>2021-07-11T08:20:44.000Z</time>
      </trkpt>
      <trkpt lat="50.45906" lon="5.34011">
        <ele>274.39999389648</ele>
        <time>2021-07-11T08:20:45.000Z</time>
      </trkpt>
      <trkpt lat="50.45892" lon="5.34032">
        <ele>274.79998779297</ele>
        <time>2021-07-11T08:20:49.000Z</time>
      </trkpt>
      <trkpt lat="50.45888" lon="5.34038">
        <ele>274.60000610352</ele>
        <time>2021-07-11T08:20:50.000Z</time>
      </trkpt>
      <trkpt lat="50.45879" lon="5.3405">
        <ele>274.60000610352</ele>
        <time>2021-07-11T08:20:52.000Z</time>
      </trkpt>
      <trkpt lat="50.45868" lon="5.34064">
        <ele>274.79998779297</ele>
        <time>2021-07-11T08:20:54.000Z</time>
      </trkpt>
      <trkpt lat="50.45862" lon="5.34073">
        <ele>274.79998779297</ele>
        <time>2021-07-11T08:20:55.000Z</time>
      </trkpt>
      <trkpt lat="50.4585" lon="5.34091">
        <ele>274.20001220703</ele>
        <time>2021-07-11T08:20:57.000Z</time>
      </trkpt>
      <trkpt lat="50.45843" lon="5.34101">
        <ele>274.20001220703</ele>
        <time>2021-07-11T08:20:58.000Z</time>
      </trkpt>
      <trkpt lat="50.45829" lon="5.34121">
        <ele>273.60000610352</ele>
        <time>2021-07-11T08:21:00.000Z</time>
      </trkpt>
      <trkpt lat="50.45815" lon="5.34142">
        <ele>272.60000610352</ele>
        <time>2021-07-11T08:21:02.000Z</time>
      </trkpt>
      <trkpt lat="50.45807" lon="5.34152">
        <ele>272.20001220703</ele>
        <time>2021-07-11T08:21:03.000Z</time>
      </trkpt>
      <trkpt lat="50.45798" lon="5.34163">
        <ele>271.79998779297</ele>
        <time>2021-07-11T08:21:04.000Z</time>
      </trkpt>
      <trkpt lat="50.45788" lon="5.34174">
        <ele>271.20001220703</ele>
        <time>2021-07-11T08:21:05.000Z</time>
      </trkpt>
      <trkpt lat="50.45769" lon="5.34196">
        <ele>269.60000610352</ele>
        <time>2021-07-11T08:21:07.000Z</time>
      </trkpt>
      <trkpt lat="50.4576" lon="5.34207">
        <ele>269</ele>
        <time>2021-07-11T08:21:08.000Z</time>
      </trkpt>
      <trkpt lat="50.4575" lon="5.34219">
        <ele>268.39999389648</ele>
        <time>2021-07-11T08:21:09.000Z</time>
      </trkpt>
      <trkpt lat="50.45741" lon="5.3423">
        <ele>267.60000610352</ele>
        <time>2021-07-11T08:21:10.000Z</time>
      </trkpt>
      <trkpt lat="50.45721" lon="5.34253">
        <ele>266</ele>
        <time>2021-07-11T08:21:12.000Z</time>
      </trkpt>
      <trkpt lat="50.45701" lon="5.34279">
        <ele>264.79998779297</ele>
        <time>2021-07-11T08:21:14.000Z</time>
      </trkpt>
      <trkpt lat="50.45691" lon="5.34291">
        <ele>263.79998779297</ele>
        <time>2021-07-11T08:21:15.000Z</time>
      </trkpt>
      <trkpt lat="50.45681" lon="5.34304">
        <ele>263.39999389648</ele>
        <time>2021-07-11T08:21:16.000Z</time>
      </trkpt>
      <trkpt lat="50.45662" lon="5.3433">
        <ele>261.79998779297</ele>
        <time>2021-07-11T08:21:18.000Z</time>
      </trkpt>
      <trkpt lat="50.45634" lon="5.3437">
        <ele>259.20001220703</ele>
        <time>2021-07-11T08:21:21.000Z</time>
      </trkpt>
      <trkpt lat="50.45625" lon="5.34384">
        <ele>258.39999389648</ele>
        <time>2021-07-11T08:21:22.000Z</time>
      </trkpt>
      <trkpt lat="50.45588" lon="5.34431">
        <ele>254.60000610352</ele>
        <time>2021-07-11T08:21:26.000Z</time>
      </trkpt>
      <trkpt lat="50.45549" lon="5.34462">
        <ele>252</ele>
        <time>2021-07-11T08:21:30.000Z</time>
      </trkpt>
      <trkpt lat="50.45503" lon="5.34487">
        <ele>250.39999389648</ele>
        <time>2021-07-11T08:21:35.000Z</time>
      </trkpt>
      <trkpt lat="50.45455" lon="5.34513">
        <ele>250</ele>
        <time>2021-07-11T08:21:41.000Z</time>
      </trkpt>
      <trkpt lat="50.45448" lon="5.34516">
        <ele>250</ele>
        <time>2021-07-11T08:21:42.000Z</time>
      </trkpt>
      <trkpt lat="50.45423" lon="5.3453">
        <ele>250</ele>
        <time>2021-07-11T08:21:46.000Z</time>
      </trkpt>
      <trkpt lat="50.45399" lon="5.34546">
        <ele>251</ele>
        <time>2021-07-11T08:21:51.000Z</time>
      </trkpt>
      <trkpt lat="50.45394" lon="5.34549">
        <ele>251.19999694824</ele>
        <time>2021-07-11T08:21:52.000Z</time>
      </trkpt>
      <trkpt lat="50.45375" lon="5.34559">
        <ele>252.60000610352</ele>
        <time>2021-07-11T08:21:56.000Z</time>
      </trkpt>
      <trkpt lat="50.45361" lon="5.34567">
        <ele>253.39999389648</ele>
        <time>2021-07-11T08:21:59.000Z</time>
      </trkpt>
      <trkpt lat="50.45353" lon="5.34572">
        <ele>254</ele>
        <time>2021-07-11T08:22:01.000Z</time>
      </trkpt>
      <trkpt lat="50.45337" lon="5.34582">
        <ele>254.80000305176</ele>
        <time>2021-07-11T08:22:05.000Z</time>
      </trkpt>
      <trkpt lat="50.45319" lon="5.34594">
        <ele>256.39999389648</ele>
        <time>2021-07-11T08:22:09.000Z</time>
      </trkpt>
      <trkpt lat="50.45284" lon="5.34616">
        <ele>257.79998779297</ele>
        <time>2021-07-11T08:22:16.000Z</time>
      </trkpt>
      <trkpt lat="50.45273" lon="5.34622">
        <ele>258</ele>
        <time>2021-07-11T08:22:18.000Z</time>
      </trkpt>
      <trkpt lat="50.45238" lon="5.34636">
        <ele>258.39999389648</ele>
        <time>2021-07-11T08:22:24.000Z</time>
      </trkpt>
      <trkpt lat="50.45231" lon="5.34638">
        <ele>258.39999389648</ele>
        <time>2021-07-11T08:22:25.000Z</time>
      </trkpt>
      <trkpt lat="50.45202" lon="5.34643">
        <ele>258.60000610352</ele>
        <time>2021-07-11T08:22:29.000Z</time>
      </trkpt>
      <trkpt lat="50.45187" lon="5.34646">
        <ele>258.39999389648</ele>
        <time>2021-07-11T08:22:31.000Z</time>
      </trkpt>
      <trkpt lat="50.45172" lon="5.34649">
        <ele>258.20001220703</ele>
        <time>2021-07-11T08:22:33.000Z</time>
      </trkpt>
      <trkpt lat="50.45129" lon="5.34659">
        <ele>256.39999389648</ele>
        <time>2021-07-11T08:22:39.000Z</time>
      </trkpt>
      <trkpt lat="50.45122" lon="5.3466">
        <ele>256.39999389648</ele>
        <time>2021-07-11T08:22:40.000Z</time>
      </trkpt>
      <trkpt lat="50.45064" lon="5.34672">
        <ele>254.60000610352</ele>
        <time>2021-07-11T08:22:48.000Z</time>
      </trkpt>
      <trkpt lat="50.45056" lon="5.34674">
        <ele>254.19999694824</ele>
        <time>2021-07-11T08:22:49.000Z</time>
      </trkpt>
      <trkpt lat="50.45048" lon="5.34675">
        <ele>254</ele>
        <time>2021-07-11T08:22:50.000Z</time>
      </trkpt>
      <trkpt lat="50.44992" lon="5.34687">
        <ele>253.39999389648</ele>
        <time>2021-07-11T08:22:57.000Z</time>
      </trkpt>
      <trkpt lat="50.44984" lon="5.34689">
        <ele>253.39999389648</ele>
        <time>2021-07-11T08:22:58.000Z</time>
      </trkpt>
      <trkpt lat="50.44952" lon="5.34694">
        <ele>252.60000610352</ele>
        <time>2021-07-11T08:23:02.000Z</time>
      </trkpt>
      <trkpt lat="50.44914" lon="5.34702">
        <ele>252.19999694824</ele>
        <time>2021-07-11T08:23:07.000Z</time>
      </trkpt>
      <trkpt lat="50.44854" lon="5.34715">
        <ele>251.80000305176</ele>
        <time>2021-07-11T08:23:15.000Z</time>
      </trkpt>
      <trkpt lat="50.44793" lon="5.34733">
        <ele>251.60000610352</ele>
        <time>2021-07-11T08:23:23.000Z</time>
      </trkpt>
      <trkpt lat="50.44786" lon="5.34736">
        <ele>251.80000305176</ele>
        <time>2021-07-11T08:23:24.000Z</time>
      </trkpt>
      <trkpt lat="50.44756" lon="5.34746">
        <ele>251.39999389648</ele>
        <time>2021-07-11T08:23:28.000Z</time>
      </trkpt>
      <trkpt lat="50.44727" lon="5.34756">
        <ele>251.39999389648</ele>
        <time>2021-07-11T08:23:32.000Z</time>
      </trkpt>
      <trkpt lat="50.4467" lon="5.34776">
        <ele>251</ele>
        <time>2021-07-11T08:23:40.000Z</time>
      </trkpt>
      <trkpt lat="50.44663" lon="5.34778">
        <ele>251</ele>
        <time>2021-07-11T08:23:41.000Z</time>
      </trkpt>
      <trkpt lat="50.4462" lon="5.34792">
        <ele>250</ele>
        <time>2021-07-11T08:23:47.000Z</time>
      </trkpt>
      <trkpt lat="50.44613" lon="5.34794">
        <ele>250</ele>
        <time>2021-07-11T08:23:48.000Z</time>
      </trkpt>
      <trkpt lat="50.4456" lon="5.34813">
        <ele>249</ele>
        <time>2021-07-11T08:23:55.000Z</time>
      </trkpt>
      <trkpt lat="50.44524" lon="5.34826">
        <ele>248.39999389648</ele>
        <time>2021-07-11T08:24:00.000Z</time>
      </trkpt>
      <trkpt lat="50.44517" lon="5.34828">
        <ele>248.19999694824</ele>
        <time>2021-07-11T08:24:01.000Z</time>
      </trkpt>
      <trkpt lat="50.4449" lon="5.34838">
        <ele>247</ele>
        <time>2021-07-11T08:24:06.000Z</time>
      </trkpt>
      <trkpt lat="50.44485" lon="5.34839">
        <ele>246.80000305176</ele>
        <time>2021-07-11T08:24:07.000Z</time>
      </trkpt>
      <trkpt lat="50.44473" lon="5.34836">
        <ele>246.19999694824</ele>
        <time>2021-07-11T08:24:09.000Z</time>
      </trkpt>
      <trkpt lat="50.44439" lon="5.3482">
        <ele>245.60000610352</ele>
        <time>2021-07-11T08:24:14.000Z</time>
      </trkpt>
      <trkpt lat="50.44433" lon="5.34815">
        <ele>245.19999694824</ele>
        <time>2021-07-11T08:24:15.000Z</time>
      </trkpt>
      <trkpt lat="50.44428" lon="5.34807">
        <ele>245</ele>
        <time>2021-07-11T08:24:16.000Z</time>
      </trkpt>
      <trkpt lat="50.44419" lon="5.3479">
        <ele>244.60000610352</ele>
        <time>2021-07-11T08:24:18.000Z</time>
      </trkpt>
      <trkpt lat="50.44402" lon="5.34765">
        <ele>244</ele>
        <time>2021-07-11T08:24:21.000Z</time>
      </trkpt>
      <trkpt lat="50.4439" lon="5.34745">
        <ele>243.60000610352</ele>
        <time>2021-07-11T08:24:23.000Z</time>
      </trkpt>
      <trkpt lat="50.44365" lon="5.3468">
        <ele>242.80000305176</ele>
        <time>2021-07-11T08:24:29.000Z</time>
      </trkpt>
      <trkpt lat="50.44353" lon="5.34648">
        <ele>242.19999694824</ele>
        <time>2021-07-11T08:24:32.000Z</time>
      </trkpt>
      <trkpt lat="50.44332" lon="5.34585">
        <ele>241.60000610352</ele>
        <time>2021-07-11T08:24:38.000Z</time>
      </trkpt>
      <trkpt lat="50.44308" lon="5.34496">
        <ele>241.19999694824</ele>
        <time>2021-07-11T08:24:46.000Z</time>
      </trkpt>
      <trkpt lat="50.44305" lon="5.34486">
        <ele>241</ele>
        <time>2021-07-11T08:24:47.000Z</time>
      </trkpt>
      <trkpt lat="50.4428" lon="5.34399">
        <ele>240.60000610352</ele>
        <time>2021-07-11T08:24:55.000Z</time>
      </trkpt>
      <trkpt lat="50.44268" lon="5.34352">
        <ele>240.19999694824</ele>
        <time>2021-07-11T08:24:59.000Z</time>
      </trkpt>
      <trkpt lat="50.44262" lon="5.34328">
        <ele>240</ele>
        <time>2021-07-11T08:25:01.000Z</time>
      </trkpt>
      <trkpt lat="50.44236" lon="5.34246">
        <ele>239.19999694824</ele>
        <time>2021-07-11T08:25:08.000Z</time>
      </trkpt>
      <trkpt lat="50.44232" lon="5.34234">
        <ele>239.19999694824</ele>
        <time>2021-07-11T08:25:09.000Z</time>
      </trkpt>
      <trkpt lat="50.44203" lon="5.34157">
        <ele>238.39999389648</ele>
        <time>2021-07-11T08:25:16.000Z</time>
      </trkpt>
      <trkpt lat="50.44199" lon="5.34146">
        <ele>238.39999389648</ele>
        <time>2021-07-11T08:25:17.000Z</time>
      </trkpt>
      <trkpt lat="50.44193" lon="5.34136">
        <ele>238.19999694824</ele>
        <time>2021-07-11T08:25:18.000Z</time>
      </trkpt>
      <trkpt lat="50.44175" lon="5.34111">
        <ele>237.80000305176</ele>
        <time>2021-07-11T08:25:21.000Z</time>
      </trkpt>
      <trkpt lat="50.44169" lon="5.34103">
        <ele>237.60000610352</ele>
        <time>2021-07-11T08:25:22.000Z</time>
      </trkpt>
      <trkpt lat="50.44136" lon="5.34066">
        <ele>237.39999389648</ele>
        <time>2021-07-11T08:25:27.000Z</time>
      </trkpt>
      <trkpt lat="50.44109" lon="5.34038">
        <ele>237</ele>
        <time>2021-07-11T08:25:31.000Z</time>
      </trkpt>
      <trkpt lat="50.44103" lon="5.34031">
        <ele>236.60000610352</ele>
        <time>2021-07-11T08:25:32.000Z</time>
      </trkpt>
      <trkpt lat="50.44095" lon="5.34027">
        <ele>236.60000610352</ele>
        <time>2021-07-11T08:25:33.000Z</time>
      </trkpt>
      <trkpt lat="50.44088" lon="5.34024">
        <ele>236.60000610352</ele>
        <time>2021-07-11T08:25:34.000Z</time>
      </trkpt>
      <trkpt lat="50.4408" lon="5.34023">
        <ele>236.19999694824</ele>
        <time>2021-07-11T08:25:35.000Z</time>
      </trkpt>
      <trkpt lat="50.44072" lon="5.34024">
        <ele>235.80000305176</ele>
        <time>2021-07-11T08:25:36.000Z</time>
      </trkpt>
      <trkpt lat="50.44064" lon="5.34026">
        <ele>235.39999389648</ele>
        <time>2021-07-11T08:25:37.000Z</time>
      </trkpt>
      <trkpt lat="50.44048" lon="5.34031">
        <ele>235.19999694824</ele>
        <time>2021-07-11T08:25:39.000Z</time>
      </trkpt>
      <trkpt lat="50.4404" lon="5.34034">
        <ele>235.19999694824</ele>
        <time>2021-07-11T08:25:40.000Z</time>
      </trkpt>
      <trkpt lat="50.44032" lon="5.34035">
        <ele>234.80000305176</ele>
        <time>2021-07-11T08:25:41.000Z</time>
      </trkpt>
      <trkpt lat="50.44023" lon="5.34036">
        <ele>234.60000610352</ele>
        <time>2021-07-11T08:25:42.000Z</time>
      </trkpt>
      <trkpt lat="50.44015" lon="5.34035">
        <ele>234.39999389648</ele>
        <time>2021-07-11T08:25:43.000Z</time>
      </trkpt>
      <trkpt lat="50.44006" lon="5.34033">
        <ele>234.19999694824</ele>
        <time>2021-07-11T08:25:44.000Z</time>
      </trkpt>
      <trkpt lat="50.4398" lon="5.34018">
        <ele>232.80000305176</ele>
        <time>2021-07-11T08:25:47.000Z</time>
      </trkpt>
      <trkpt lat="50.43971" lon="5.34012">
        <ele>232.19999694824</ele>
        <time>2021-07-11T08:25:48.000Z</time>
      </trkpt>
      <trkpt lat="50.43963" lon="5.34005">
        <ele>231.80000305176</ele>
        <time>2021-07-11T08:25:49.000Z</time>
      </trkpt>
      <trkpt lat="50.43944" lon="5.33991">
        <ele>231</ele>
        <time>2021-07-11T08:25:51.000Z</time>
      </trkpt>
      <trkpt lat="50.43926" lon="5.33978">
        <ele>230</ele>
        <time>2021-07-11T08:25:53.000Z</time>
      </trkpt>
      <trkpt lat="50.43908" lon="5.33965">
        <ele>229.39999389648</ele>
        <time>2021-07-11T08:25:55.000Z</time>
      </trkpt>
      <trkpt lat="50.43889" lon="5.33951">
        <ele>228.39999389648</ele>
        <time>2021-07-11T08:25:57.000Z</time>
      </trkpt>
      <trkpt lat="50.4387" lon="5.33937">
        <ele>227.19999694824</ele>
        <time>2021-07-11T08:25:59.000Z</time>
      </trkpt>
      <trkpt lat="50.43851" lon="5.33922">
        <ele>226</ele>
        <time>2021-07-11T08:26:01.000Z</time>
      </trkpt>
      <trkpt lat="50.43832" lon="5.33908">
        <ele>224.80000305176</ele>
        <time>2021-07-11T08:26:03.000Z</time>
      </trkpt>
      <trkpt lat="50.43787" lon="5.33875">
        <ele>221.39999389648</ele>
        <time>2021-07-11T08:26:08.000Z</time>
      </trkpt>
      <trkpt lat="50.43763" lon="5.33857">
        <ele>221</ele>
        <time>2021-07-11T08:26:11.000Z</time>
      </trkpt>
      <trkpt lat="50.43749" lon="5.33847">
        <ele>220.80000305176</ele>
        <time>2021-07-11T08:26:13.000Z</time>
      </trkpt>
      <trkpt lat="50.43737" lon="5.33838">
        <ele>220.80000305176</ele>
        <time>2021-07-11T08:26:15.000Z</time>
      </trkpt>
      <trkpt lat="50.43727" lon="5.3383">
        <ele>220.80000305176</ele>
        <time>2021-07-11T08:26:17.000Z</time>
      </trkpt>
      <trkpt lat="50.4371" lon="5.33817">
        <ele>222.39999389648</ele>
        <time>2021-07-11T08:26:21.000Z</time>
      </trkpt>
      <trkpt lat="50.43706" lon="5.33813">
        <ele>223.19999694824</ele>
        <time>2021-07-11T08:26:22.000Z</time>
      </trkpt>
      <trkpt lat="50.43694" lon="5.33801">
        <ele>224.39999389648</ele>
        <time>2021-07-11T08:26:25.000Z</time>
      </trkpt>
      <trkpt lat="50.43686" lon="5.33792">
        <ele>225.19999694824</ele>
        <time>2021-07-11T08:26:27.000Z</time>
      </trkpt>
      <trkpt lat="50.43678" lon="5.33782">
        <ele>225.80000305176</ele>
        <time>2021-07-11T08:26:29.000Z</time>
      </trkpt>
      <trkpt lat="50.43667" lon="5.33767">
        <ele>226.60000610352</ele>
        <time>2021-07-11T08:26:32.000Z</time>
      </trkpt>
      <trkpt lat="50.43661" lon="5.33757">
        <ele>227.19999694824</ele>
        <time>2021-07-11T08:26:34.000Z</time>
      </trkpt>
      <trkpt lat="50.4365" lon="5.33735">
        <ele>228.19999694824</ele>
        <time>2021-07-11T08:26:38.000Z</time>
      </trkpt>
      <trkpt lat="50.43643" lon="5.33716">
        <ele>229.39999389648</ele>
        <time>2021-07-11T08:26:41.000Z</time>
      </trkpt>
      <trkpt lat="50.43636" lon="5.33695">
        <ele>230.39999389648</ele>
        <time>2021-07-11T08:26:44.000Z</time>
      </trkpt>
      <trkpt lat="50.43634" lon="5.33687">
        <ele>230.39999389648</ele>
        <time>2021-07-11T08:26:45.000Z</time>
      </trkpt>
      <trkpt lat="50.43629" lon="5.33672">
        <ele>231</ele>
        <time>2021-07-11T08:26:47.000Z</time>
      </trkpt>
      <trkpt lat="50.43614" lon="5.33627">
        <ele>232.39999389648</ele>
        <time>2021-07-11T08:26:53.000Z</time>
      </trkpt>
      <trkpt lat="50.43606" lon="5.33604">
        <ele>233.19999694824</ele>
        <time>2021-07-11T08:26:56.000Z</time>
      </trkpt>
      <trkpt lat="50.43587" lon="5.33555">
        <ele>235</ele>
        <time>2021-07-11T08:27:03.000Z</time>
      </trkpt>
      <trkpt lat="50.43579" lon="5.33536">
        <ele>235.19999694824</ele>
        <time>2021-07-11T08:27:06.000Z</time>
      </trkpt>
      <trkpt lat="50.43547" lon="5.33463">
        <ele>236.80000305176</ele>
        <time>2021-07-11T08:27:17.000Z</time>
      </trkpt>
      <trkpt lat="50.43544" lon="5.33456">
        <ele>236.80000305176</ele>
        <time>2021-07-11T08:27:18.000Z</time>
      </trkpt>
      <trkpt lat="50.43532" lon="5.33428">
        <ele>237</ele>
        <time>2021-07-11T08:27:22.000Z</time>
      </trkpt>
      <trkpt lat="50.4352" lon="5.33399">
        <ele>237.19999694824</ele>
        <time>2021-07-11T08:27:26.000Z</time>
      </trkpt>
      <trkpt lat="50.43501" lon="5.33358">
        <ele>237.80000305176</ele>
        <time>2021-07-11T08:27:32.000Z</time>
      </trkpt>
      <trkpt lat="50.43492" lon="5.33339">
        <ele>238.19999694824</ele>
        <time>2021-07-11T08:27:35.000Z</time>
      </trkpt>
      <trkpt lat="50.43481" lon="5.33319">
        <ele>238.19999694824</ele>
        <time>2021-07-11T08:27:38.000Z</time>
      </trkpt>
      <trkpt lat="50.43459" lon="5.33283">
        <ele>239</ele>
        <time>2021-07-11T08:27:44.000Z</time>
      </trkpt>
      <trkpt lat="50.43441" lon="5.33255">
        <ele>239.80000305176</ele>
        <time>2021-07-11T08:27:49.000Z</time>
      </trkpt>
      <trkpt lat="50.4342" lon="5.33218">
        <ele>240.39999389648</ele>
        <time>2021-07-11T08:27:55.000Z</time>
      </trkpt>
      <trkpt lat="50.4341" lon="5.33199">
        <ele>240.60000610352</ele>
        <time>2021-07-11T08:27:58.000Z</time>
      </trkpt>
      <trkpt lat="50.43394" lon="5.33165">
        <ele>241.39999389648</ele>
        <time>2021-07-11T08:28:03.000Z</time>
      </trkpt>
      <trkpt lat="50.4338" lon="5.33131">
        <ele>242</ele>
        <time>2021-07-11T08:28:08.000Z</time>
      </trkpt>
      <trkpt lat="50.43372" lon="5.3311">
        <ele>242.19999694824</ele>
        <time>2021-07-11T08:28:11.000Z</time>
      </trkpt>
      <trkpt lat="50.43351" lon="5.33058">
        <ele>243.60000610352</ele>
        <time>2021-07-11T08:28:19.000Z</time>
      </trkpt>
      <trkpt lat="50.43346" lon="5.33045">
        <ele>243.39999389648</ele>
        <time>2021-07-11T08:28:21.000Z</time>
      </trkpt>
      <trkpt lat="50.43328" lon="5.32999">
        <ele>244.19999694824</ele>
        <time>2021-07-11T08:28:29.000Z</time>
      </trkpt>
      <trkpt lat="50.43314" lon="5.3296">
        <ele>244.60000610352</ele>
        <time>2021-07-11T08:28:37.000Z</time>
      </trkpt>
      <trkpt lat="50.43316" lon="5.32946">
        <ele>244.60000610352</ele>
        <time>2021-07-11T08:28:39.000Z</time>
      </trkpt>
      <trkpt lat="50.43318" lon="5.32939">
        <ele>244.80000305176</ele>
        <time>2021-07-11T08:28:40.000Z</time>
      </trkpt>
      <trkpt lat="50.43335" lon="5.32871">
        <ele>244.60000610352</ele>
        <time>2021-07-11T08:28:48.000Z</time>
      </trkpt>
      <trkpt lat="50.43337" lon="5.32863">
        <ele>244.80000305176</ele>
        <time>2021-07-11T08:28:49.000Z</time>
      </trkpt>
      <trkpt lat="50.4335" lon="5.32809">
        <ele>244</ele>
        <time>2021-07-11T08:28:55.000Z</time>
      </trkpt>
      <trkpt lat="50.43361" lon="5.32767">
        <ele>243.39999389648</ele>
        <time>2021-07-11T08:28:59.000Z</time>
      </trkpt>
      <trkpt lat="50.43371" lon="5.32723">
        <ele>243</ele>
        <time>2021-07-11T08:29:03.000Z</time>
      </trkpt>
      <trkpt lat="50.43374" lon="5.32712">
        <ele>242.60000610352</ele>
        <time>2021-07-11T08:29:04.000Z</time>
      </trkpt>
      <trkpt lat="50.43391" lon="5.32644">
        <ele>241.19999694824</ele>
        <time>2021-07-11T08:29:10.000Z</time>
      </trkpt>
      <trkpt lat="50.43402" lon="5.32598">
        <ele>240</ele>
        <time>2021-07-11T08:29:14.000Z</time>
      </trkpt>
      <trkpt lat="50.43405" lon="5.32586">
        <ele>240</ele>
        <time>2021-07-11T08:29:15.000Z</time>
      </trkpt>
      <trkpt lat="50.43422" lon="5.32515">
        <ele>238.60000610352</ele>
        <time>2021-07-11T08:29:21.000Z</time>
      </trkpt>
      <trkpt lat="50.4343" lon="5.32477">
        <ele>238</ele>
        <time>2021-07-11T08:29:24.000Z</time>
      </trkpt>
      <trkpt lat="50.43451" lon="5.32393">
        <ele>236.80000305176</ele>
        <time>2021-07-11T08:29:31.000Z</time>
      </trkpt>
      <trkpt lat="50.43463" lon="5.32343">
        <ele>236.60000610352</ele>
        <time>2021-07-11T08:29:36.000Z</time>
      </trkpt>
      <trkpt lat="50.43468" lon="5.32323">
        <ele>236.60000610352</ele>
        <time>2021-07-11T08:29:38.000Z</time>
      </trkpt>
      <trkpt lat="50.43475" lon="5.32293">
        <ele>236.80000305176</ele>
        <time>2021-07-11T08:29:41.000Z</time>
      </trkpt>
      <trkpt lat="50.43493" lon="5.32222">
        <ele>238.39999389648</ele>
        <time>2021-07-11T08:29:48.000Z</time>
      </trkpt>
      <trkpt lat="50.43498" lon="5.32202">
        <ele>238.39999389648</ele>
        <time>2021-07-11T08:29:50.000Z</time>
      </trkpt>
      <trkpt lat="50.43507" lon="5.32162">
        <ele>238.80000305176</ele>
        <time>2021-07-11T08:29:54.000Z</time>
      </trkpt>
      <trkpt lat="50.43517" lon="5.32123">
        <ele>239.60000610352</ele>
        <time>2021-07-11T08:29:58.000Z</time>
      </trkpt>
      <trkpt lat="50.43524" lon="5.32092">
        <ele>240.39999389648</ele>
        <time>2021-07-11T08:30:01.000Z</time>
      </trkpt>
      <trkpt lat="50.43545" lon="5.32004">
        <ele>242</ele>
        <time>2021-07-11T08:30:09.000Z</time>
      </trkpt>
      <trkpt lat="50.43551" lon="5.31981">
        <ele>242.19999694824</ele>
        <time>2021-07-11T08:30:11.000Z</time>
      </trkpt>
      <trkpt lat="50.43572" lon="5.31896">
        <ele>242.39999389648</ele>
        <time>2021-07-11T08:30:18.000Z</time>
      </trkpt>
      <trkpt lat="50.43578" lon="5.31871">
        <ele>242.60000610352</ele>
        <time>2021-07-11T08:30:20.000Z</time>
      </trkpt>
      <trkpt lat="50.43598" lon="5.31787">
        <ele>242.60000610352</ele>
        <time>2021-07-11T08:30:27.000Z</time>
      </trkpt>
      <trkpt lat="50.4361" lon="5.31739">
        <ele>242.60000610352</ele>
        <time>2021-07-11T08:30:31.000Z</time>
      </trkpt>
      <trkpt lat="50.43631" lon="5.31655">
        <ele>242.39999389648</ele>
        <time>2021-07-11T08:30:38.000Z</time>
      </trkpt>
      <trkpt lat="50.4364" lon="5.31616">
        <ele>242.39999389648</ele>
        <time>2021-07-11T08:30:41.000Z</time>
      </trkpt>
      <trkpt lat="50.43643" lon="5.31602">
        <ele>242.19999694824</ele>
        <time>2021-07-11T08:30:42.000Z</time>
      </trkpt>
      <trkpt lat="50.43657" lon="5.31544">
        <ele>242</ele>
        <time>2021-07-11T08:30:46.000Z</time>
      </trkpt>
      <trkpt lat="50.43661" lon="5.3153">
        <ele>241.80000305176</ele>
        <time>2021-07-11T08:30:47.000Z</time>
      </trkpt>
      <trkpt lat="50.43672" lon="5.31484">
        <ele>241.60000610352</ele>
        <time>2021-07-11T08:30:50.000Z</time>
      </trkpt>
      <trkpt lat="50.43686" lon="5.31424">
        <ele>240.60000610352</ele>
        <time>2021-07-11T08:30:54.000Z</time>
      </trkpt>
      <trkpt lat="50.4369" lon="5.31409">
        <ele>240.39999389648</ele>
        <time>2021-07-11T08:30:55.000Z</time>
      </trkpt>
      <trkpt lat="50.43697" lon="5.31379">
        <ele>239.80000305176</ele>
        <time>2021-07-11T08:30:57.000Z</time>
      </trkpt>
      <trkpt lat="50.43719" lon="5.31288">
        <ele>238.19999694824</ele>
        <time>2021-07-11T08:31:03.000Z</time>
      </trkpt>
      <trkpt lat="50.4373" lon="5.31244">
        <ele>237.39999389648</ele>
        <time>2021-07-11T08:31:06.000Z</time>
      </trkpt>
      <trkpt lat="50.43751" lon="5.31156">
        <ele>236.39999389648</ele>
        <time>2021-07-11T08:31:12.000Z</time>
      </trkpt>
      <trkpt lat="50.43754" lon="5.31141">
        <ele>236.39999389648</ele>
        <time>2021-07-11T08:31:13.000Z</time>
      </trkpt>
      <trkpt lat="50.43775" lon="5.31054">
        <ele>235.39999389648</ele>
        <time>2021-07-11T08:31:19.000Z</time>
      </trkpt>
      <trkpt lat="50.43797" lon="5.30966">
        <ele>234.80000305176</ele>
        <time>2021-07-11T08:31:25.000Z</time>
      </trkpt>
      <trkpt lat="50.4381" lon="5.3091">
        <ele>234.60000610352</ele>
        <time>2021-07-11T08:31:29.000Z</time>
      </trkpt>
      <trkpt lat="50.43824" lon="5.30854">
        <ele>234.19999694824</ele>
        <time>2021-07-11T08:31:33.000Z</time>
      </trkpt>
      <trkpt lat="50.43838" lon="5.30795">
        <ele>234</ele>
        <time>2021-07-11T08:31:37.000Z</time>
      </trkpt>
      <trkpt lat="50.4386" lon="5.30707">
        <ele>233.39999389648</ele>
        <time>2021-07-11T08:31:43.000Z</time>
      </trkpt>
      <trkpt lat="50.43863" lon="5.30692">
        <ele>233.19999694824</ele>
        <time>2021-07-11T08:31:44.000Z</time>
      </trkpt>
      <trkpt lat="50.43877" lon="5.30635">
        <ele>232.60000610352</ele>
        <time>2021-07-11T08:31:48.000Z</time>
      </trkpt>
      <trkpt lat="50.43891" lon="5.30579">
        <ele>232.39999389648</ele>
        <time>2021-07-11T08:31:52.000Z</time>
      </trkpt>
      <trkpt lat="50.43911" lon="5.30496">
        <ele>232.19999694824</ele>
        <time>2021-07-11T08:31:58.000Z</time>
      </trkpt>
      <trkpt lat="50.43928" lon="5.30424">
        <ele>232.39999389648</ele>
        <time>2021-07-11T08:32:03.000Z</time>
      </trkpt>
      <trkpt lat="50.4395" lon="5.30329">
        <ele>232.39999389648</ele>
        <time>2021-07-11T08:32:09.000Z</time>
      </trkpt>
      <trkpt lat="50.43954" lon="5.30313">
        <ele>232.60000610352</ele>
        <time>2021-07-11T08:32:10.000Z</time>
      </trkpt>
      <trkpt lat="50.43975" lon="5.30226">
        <ele>232.39999389648</ele>
        <time>2021-07-11T08:32:15.000Z</time>
      </trkpt>
      <trkpt lat="50.43983" lon="5.3019">
        <ele>232.39999389648</ele>
        <time>2021-07-11T08:32:17.000Z</time>
      </trkpt>
      <trkpt lat="50.44004" lon="5.30105">
        <ele>232.19999694824</ele>
        <time>2021-07-11T08:32:22.000Z</time>
      </trkpt>
      <trkpt lat="50.44012" lon="5.30074">
        <ele>232.39999389648</ele>
        <time>2021-07-11T08:32:24.000Z</time>
      </trkpt>
      <trkpt lat="50.44016" lon="5.3006">
        <ele>232.19999694824</ele>
        <time>2021-07-11T08:32:25.000Z</time>
      </trkpt>
      <trkpt lat="50.44029" lon="5.30021">
        <ele>232.19999694824</ele>
        <time>2021-07-11T08:32:28.000Z</time>
      </trkpt>
      <trkpt lat="50.44055" lon="5.29971">
        <ele>233</ele>
        <time>2021-07-11T08:32:33.000Z</time>
      </trkpt>
      <trkpt lat="50.44092" lon="5.29926">
        <ele>233.60000610352</ele>
        <time>2021-07-11T08:32:39.000Z</time>
      </trkpt>
      <trkpt lat="50.44129" lon="5.29894">
        <ele>234</ele>
        <time>2021-07-11T08:32:45.000Z</time>
      </trkpt>
      <trkpt lat="50.44142" lon="5.29883">
        <ele>234.19999694824</ele>
        <time>2021-07-11T08:32:47.000Z</time>
      </trkpt>
      <trkpt lat="50.44163" lon="5.29867">
        <ele>234.19999694824</ele>
        <time>2021-07-11T08:32:50.000Z</time>
      </trkpt>
      <trkpt lat="50.4417" lon="5.29861">
        <ele>234.19999694824</ele>
        <time>2021-07-11T08:32:51.000Z</time>
      </trkpt>
      <trkpt lat="50.44177" lon="5.29855">
        <ele>234.39999389648</ele>
        <time>2021-07-11T08:32:52.000Z</time>
      </trkpt>
      <trkpt lat="50.44192" lon="5.29843">
        <ele>234.39999389648</ele>
        <time>2021-07-11T08:32:54.000Z</time>
      </trkpt>
      <trkpt lat="50.44215" lon="5.29823">
        <ele>234.19999694824</ele>
        <time>2021-07-11T08:32:57.000Z</time>
      </trkpt>
      <trkpt lat="50.44231" lon="5.2981">
        <ele>234</ele>
        <time>2021-07-11T08:32:59.000Z</time>
      </trkpt>
      <trkpt lat="50.44239" lon="5.29803">
        <ele>233.80000305176</ele>
        <time>2021-07-11T08:33:00.000Z</time>
      </trkpt>
      <trkpt lat="50.44271" lon="5.29777">
        <ele>232.60000610352</ele>
        <time>2021-07-11T08:33:04.000Z</time>
      </trkpt>
      <trkpt lat="50.44299" lon="5.29753">
        <ele>230.80000305176</ele>
        <time>2021-07-11T08:33:08.000Z</time>
      </trkpt>
      <trkpt lat="50.44327" lon="5.29731">
        <ele>229.60000610352</ele>
        <time>2021-07-11T08:33:12.000Z</time>
      </trkpt>
      <trkpt lat="50.44353" lon="5.29709">
        <ele>229.60000610352</ele>
        <time>2021-07-11T08:33:16.000Z</time>
      </trkpt>
      <trkpt lat="50.44359" lon="5.29704">
        <ele>229.60000610352</ele>
        <time>2021-07-11T08:33:17.000Z</time>
      </trkpt>
      <trkpt lat="50.44409" lon="5.29662">
        <ele>230.39999389648</ele>
        <time>2021-07-11T08:33:25.000Z</time>
      </trkpt>
      <trkpt lat="50.44415" lon="5.29657">
        <ele>230.60000610352</ele>
        <time>2021-07-11T08:33:26.000Z</time>
      </trkpt>
      <trkpt lat="50.44421" lon="5.29651">
        <ele>231</ele>
        <time>2021-07-11T08:33:27.000Z</time>
      </trkpt>
      <trkpt lat="50.44468" lon="5.29612">
        <ele>232</ele>
        <time>2021-07-11T08:33:34.000Z</time>
      </trkpt>
      <trkpt lat="50.44504" lon="5.29582">
        <ele>232</ele>
        <time>2021-07-11T08:33:39.000Z</time>
      </trkpt>
      <trkpt lat="50.44548" lon="5.29545">
        <ele>232</ele>
        <time>2021-07-11T08:33:45.000Z</time>
      </trkpt>
      <trkpt lat="50.44556" lon="5.29539">
        <ele>232</ele>
        <time>2021-07-11T08:33:46.000Z</time>
      </trkpt>
      <trkpt lat="50.44578" lon="5.2952">
        <ele>231.19999694824</ele>
        <time>2021-07-11T08:33:49.000Z</time>
      </trkpt>
      <trkpt lat="50.44624" lon="5.29482">
        <ele>230.19999694824</ele>
        <time>2021-07-11T08:33:55.000Z</time>
      </trkpt>
      <trkpt lat="50.44632" lon="5.29475">
        <ele>229.80000305176</ele>
        <time>2021-07-11T08:33:56.000Z</time>
      </trkpt>
      <trkpt lat="50.44687" lon="5.2943">
        <ele>228.60000610352</ele>
        <time>2021-07-11T08:34:03.000Z</time>
      </trkpt>
      <trkpt lat="50.44718" lon="5.29404">
        <ele>227.80000305176</ele>
        <time>2021-07-11T08:34:07.000Z</time>
      </trkpt>
      <trkpt lat="50.44734" lon="5.29391">
        <ele>227.60000610352</ele>
        <time>2021-07-11T08:34:09.000Z</time>
      </trkpt>
      <trkpt lat="50.44758" lon="5.29372">
        <ele>227</ele>
        <time>2021-07-11T08:34:12.000Z</time>
      </trkpt>
      <trkpt lat="50.44783" lon="5.29355">
        <ele>226.19999694824</ele>
        <time>2021-07-11T08:34:15.000Z</time>
      </trkpt>
      <trkpt lat="50.448" lon="5.29343">
        <ele>225.80000305176</ele>
        <time>2021-07-11T08:34:17.000Z</time>
      </trkpt>
      <trkpt lat="50.44828" lon="5.29326">
        <ele>225</ele>
        <time>2021-07-11T08:34:20.000Z</time>
      </trkpt>
      <trkpt lat="50.44857" lon="5.2931">
        <ele>223.80000305176</ele>
        <time>2021-07-11T08:34:23.000Z</time>
      </trkpt>
      <trkpt lat="50.44867" lon="5.29304">
        <ele>223.19999694824</ele>
        <time>2021-07-11T08:34:24.000Z</time>
      </trkpt>
      <trkpt lat="50.44887" lon="5.29293">
        <ele>222.19999694824</ele>
        <time>2021-07-11T08:34:26.000Z</time>
      </trkpt>
      <trkpt lat="50.44907" lon="5.29281">
        <ele>221.39999389648</ele>
        <time>2021-07-11T08:34:28.000Z</time>
      </trkpt>
      <trkpt lat="50.44928" lon="5.29269">
        <ele>220.19999694824</ele>
        <time>2021-07-11T08:34:30.000Z</time>
      </trkpt>
      <trkpt lat="50.44938" lon="5.29263">
        <ele>219.80000305176</ele>
        <time>2021-07-11T08:34:31.000Z</time>
      </trkpt>
      <trkpt lat="50.44949" lon="5.29257">
        <ele>219.60000610352</ele>
        <time>2021-07-11T08:34:32.000Z</time>
      </trkpt>
      <trkpt lat="50.4497" lon="5.29244">
        <ele>218</ele>
        <time>2021-07-11T08:34:34.000Z</time>
      </trkpt>
      <trkpt lat="50.44992" lon="5.29232">
        <ele>217</ele>
        <time>2021-07-11T08:34:36.000Z</time>
      </trkpt>
      <trkpt lat="50.45014" lon="5.29219">
        <ele>215.60000610352</ele>
        <time>2021-07-11T08:34:38.000Z</time>
      </trkpt>
      <trkpt lat="50.45024" lon="5.29212">
        <ele>215</ele>
        <time>2021-07-11T08:34:39.000Z</time>
      </trkpt>
      <trkpt lat="50.45035" lon="5.29203">
        <ele>214.19999694824</ele>
        <time>2021-07-11T08:34:40.000Z</time>
      </trkpt>
      <trkpt lat="50.45054" lon="5.29181">
        <ele>213</ele>
        <time>2021-07-11T08:34:42.000Z</time>
      </trkpt>
      <trkpt lat="50.4507" lon="5.29155">
        <ele>211.80000305176</ele>
        <time>2021-07-11T08:34:44.000Z</time>
      </trkpt>
      <trkpt lat="50.45076" lon="5.2914">
        <ele>211</ele>
        <time>2021-07-11T08:34:45.000Z</time>
      </trkpt>
      <trkpt lat="50.45081" lon="5.29124">
        <ele>210.60000610352</ele>
        <time>2021-07-11T08:34:46.000Z</time>
      </trkpt>
      <trkpt lat="50.45085" lon="5.29106">
        <ele>209.80000305176</ele>
        <time>2021-07-11T08:34:47.000Z</time>
      </trkpt>
      <trkpt lat="50.45087" lon="5.29088">
        <ele>209.19999694824</ele>
        <time>2021-07-11T08:34:48.000Z</time>
      </trkpt>
      <trkpt lat="50.45089" lon="5.29069">
        <ele>208.60000610352</ele>
        <time>2021-07-11T08:34:49.000Z</time>
      </trkpt>
      <trkpt lat="50.45089" lon="5.29031">
        <ele>207.19999694824</ele>
        <time>2021-07-11T08:34:51.000Z</time>
      </trkpt>
      <trkpt lat="50.45089" lon="5.28973">
        <ele>206</ele>
        <time>2021-07-11T08:34:54.000Z</time>
      </trkpt>
      <trkpt lat="50.45089" lon="5.28954">
        <ele>205.39999389648</ele>
        <time>2021-07-11T08:34:55.000Z</time>
      </trkpt>
      <trkpt lat="50.45089" lon="5.28935">
        <ele>204.60000610352</ele>
        <time>2021-07-11T08:34:56.000Z</time>
      </trkpt>
      <trkpt lat="50.4509" lon="5.28897">
        <ele>203.19999694824</ele>
        <time>2021-07-11T08:34:58.000Z</time>
      </trkpt>
      <trkpt lat="50.45091" lon="5.28858">
        <ele>201.39999389648</ele>
        <time>2021-07-11T08:35:00.000Z</time>
      </trkpt>
      <trkpt lat="50.45091" lon="5.2882">
        <ele>200</ele>
        <time>2021-07-11T08:35:02.000Z</time>
      </trkpt>
      <trkpt lat="50.45092" lon="5.28782">
        <ele>198.80000305176</ele>
        <time>2021-07-11T08:35:04.000Z</time>
      </trkpt>
      <trkpt lat="50.45092" lon="5.28744">
        <ele>197.19999694824</ele>
        <time>2021-07-11T08:35:06.000Z</time>
      </trkpt>
      <trkpt lat="50.45093" lon="5.28708">
        <ele>196</ele>
        <time>2021-07-11T08:35:08.000Z</time>
      </trkpt>
      <trkpt lat="50.45093" lon="5.28691">
        <ele>195.19999694824</ele>
        <time>2021-07-11T08:35:09.000Z</time>
      </trkpt>
      <trkpt lat="50.45093" lon="5.28674">
        <ele>194.80000305176</ele>
        <time>2021-07-11T08:35:10.000Z</time>
      </trkpt>
      <trkpt lat="50.45092" lon="5.28643">
        <ele>193.39999389648</ele>
        <time>2021-07-11T08:35:12.000Z</time>
      </trkpt>
      <trkpt lat="50.45093" lon="5.28615">
        <ele>192.19999694824</ele>
        <time>2021-07-11T08:35:14.000Z</time>
      </trkpt>
      <trkpt lat="50.45096" lon="5.28591">
        <ele>191</ele>
        <time>2021-07-11T08:35:16.000Z</time>
      </trkpt>
      <trkpt lat="50.451" lon="5.28568">
        <ele>189.80000305176</ele>
        <time>2021-07-11T08:35:18.000Z</time>
      </trkpt>
      <trkpt lat="50.45105" lon="5.28546">
        <ele>188.60000610352</ele>
        <time>2021-07-11T08:35:20.000Z</time>
      </trkpt>
      <trkpt lat="50.45111" lon="5.28523">
        <ele>187.60000610352</ele>
        <time>2021-07-11T08:35:22.000Z</time>
      </trkpt>
      <trkpt lat="50.45114" lon="5.28513">
        <ele>187.19999694824</ele>
        <time>2021-07-11T08:35:23.000Z</time>
      </trkpt>
      <trkpt lat="50.45122" lon="5.2849">
        <ele>186.60000610352</ele>
        <time>2021-07-11T08:35:26.000Z</time>
      </trkpt>
      <trkpt lat="50.45124" lon="5.28484">
        <ele>186.39999389648</ele>
        <time>2021-07-11T08:35:27.000Z</time>
      </trkpt>
      <trkpt lat="50.45131" lon="5.28467">
        <ele>185.19999694824</ele>
        <time>2021-07-11T08:35:30.000Z</time>
      </trkpt>
      <trkpt lat="50.45136" lon="5.28458">
        <ele>184.19999694824</ele>
        <time>2021-07-11T08:35:32.000Z</time>
      </trkpt>
      <trkpt lat="50.45138" lon="5.28455">
        <ele>183.80000305176</ele>
        <time>2021-07-11T08:35:33.000Z</time>
      </trkpt>
      <trkpt lat="50.45144" lon="5.2845">
        <ele>183</ele>
        <time>2021-07-11T08:35:35.000Z</time>
      </trkpt>
      <trkpt lat="50.45148" lon="5.2845">
        <ele>182.80000305176</ele>
        <time>2021-07-11T08:35:36.000Z</time>
      </trkpt>
      <trkpt lat="50.45152" lon="5.28452">
        <ele>182.19999694824</ele>
        <time>2021-07-11T08:35:37.000Z</time>
      </trkpt>
      <trkpt lat="50.45164" lon="5.28465">
        <ele>181.39999389648</ele>
        <time>2021-07-11T08:35:40.000Z</time>
      </trkpt>
      <trkpt lat="50.45175" lon="5.28477">
        <ele>180.60000610352</ele>
        <time>2021-07-11T08:35:43.000Z</time>
      </trkpt>
      <trkpt lat="50.45184" lon="5.28479">
        <ele>180.60000610352</ele>
        <time>2021-07-11T08:35:45.000Z</time>
      </trkpt>
      <trkpt lat="50.45193" lon="5.28473">
        <ele>180.60000610352</ele>
        <time>2021-07-11T08:35:47.000Z</time>
      </trkpt>
      <trkpt lat="50.45196" lon="5.28467">
        <ele>180.39999389648</ele>
        <time>2021-07-11T08:35:48.000Z</time>
      </trkpt>
      <trkpt lat="50.452" lon="5.28459">
        <ele>180.39999389648</ele>
        <time>2021-07-11T08:35:49.000Z</time>
      </trkpt>
      <trkpt lat="50.45206" lon="5.28442">
        <ele>180.39999389648</ele>
        <time>2021-07-11T08:35:51.000Z</time>
      </trkpt>
      <trkpt lat="50.4521" lon="5.28432">
        <ele>180.39999389648</ele>
        <time>2021-07-11T08:35:52.000Z</time>
      </trkpt>
      <trkpt lat="50.45213" lon="5.28422">
        <ele>180.19999694824</ele>
        <time>2021-07-11T08:35:53.000Z</time>
      </trkpt>
      <trkpt lat="50.45217" lon="5.28397">
        <ele>180.19999694824</ele>
        <time>2021-07-11T08:35:55.000Z</time>
      </trkpt>
      <trkpt lat="50.45217" lon="5.28371">
        <ele>180.39999389648</ele>
        <time>2021-07-11T08:35:57.000Z</time>
      </trkpt>
      <trkpt lat="50.45214" lon="5.28358">
        <ele>180</ele>
        <time>2021-07-11T08:35:58.000Z</time>
      </trkpt>
      <trkpt lat="50.45211" lon="5.28345">
        <ele>180</ele>
        <time>2021-07-11T08:35:59.000Z</time>
      </trkpt>
      <trkpt lat="50.45202" lon="5.28321">
        <ele>179.39999389648</ele>
        <time>2021-07-11T08:36:01.000Z</time>
      </trkpt>
      <trkpt lat="50.45195" lon="5.2831">
        <ele>179</ele>
        <time>2021-07-11T08:36:02.000Z</time>
      </trkpt>
      <trkpt lat="50.45175" lon="5.28284">
        <ele>178.19999694824</ele>
        <time>2021-07-11T08:36:05.000Z</time>
      </trkpt>
      <trkpt lat="50.45154" lon="5.28256">
        <ele>177</ele>
        <time>2021-07-11T08:36:08.000Z</time>
      </trkpt>
      <trkpt lat="50.45148" lon="5.28245">
        <ele>176.80000305176</ele>
        <time>2021-07-11T08:36:09.000Z</time>
      </trkpt>
      <trkpt lat="50.45143" lon="5.28233">
        <ele>176.39999389648</ele>
        <time>2021-07-11T08:36:10.000Z</time>
      </trkpt>
      <trkpt lat="50.45139" lon="5.2822">
        <ele>176.19999694824</ele>
        <time>2021-07-11T08:36:11.000Z</time>
      </trkpt>
      <trkpt lat="50.45139" lon="5.28205">
        <ele>175.80000305176</ele>
        <time>2021-07-11T08:36:12.000Z</time>
      </trkpt>
      <trkpt lat="50.4514" lon="5.2819">
        <ele>175.19999694824</ele>
        <time>2021-07-11T08:36:13.000Z</time>
      </trkpt>
      <trkpt lat="50.45142" lon="5.28174">
        <ele>174.80000305176</ele>
        <time>2021-07-11T08:36:14.000Z</time>
      </trkpt>
      <trkpt lat="50.45144" lon="5.28159">
        <ele>174.39999389648</ele>
        <time>2021-07-11T08:36:15.000Z</time>
      </trkpt>
      <trkpt lat="50.45148" lon="5.28144">
        <ele>174</ele>
        <time>2021-07-11T08:36:16.000Z</time>
      </trkpt>
      <trkpt lat="50.45151" lon="5.28129">
        <ele>173.39999389648</ele>
        <time>2021-07-11T08:36:17.000Z</time>
      </trkpt>
      <trkpt lat="50.45155" lon="5.28114">
        <ele>173</ele>
        <time>2021-07-11T08:36:18.000Z</time>
      </trkpt>
      <trkpt lat="50.45162" lon="5.28085">
        <ele>171.80000305176</ele>
        <time>2021-07-11T08:36:20.000Z</time>
      </trkpt>
      <trkpt lat="50.45177" lon="5.28031">
        <ele>169.39999389648</ele>
        <time>2021-07-11T08:36:24.000Z</time>
      </trkpt>
      <trkpt lat="50.45183" lon="5.28018">
        <ele>168.80000305176</ele>
        <time>2021-07-11T08:36:25.000Z</time>
      </trkpt>
      <trkpt lat="50.45192" lon="5.27993">
        <ele>167.80000305176</ele>
        <time>2021-07-11T08:36:27.000Z</time>
      </trkpt>
      <trkpt lat="50.45214" lon="5.27946">
        <ele>165.60000610352</ele>
        <time>2021-07-11T08:36:31.000Z</time>
      </trkpt>
      <trkpt lat="50.45252" lon="5.2787">
        <ele>164</ele>
        <time>2021-07-11T08:36:38.000Z</time>
      </trkpt>
      <trkpt lat="50.45257" lon="5.27861">
        <ele>163.80000305176</ele>
        <time>2021-07-11T08:36:39.000Z</time>
      </trkpt>
      <trkpt lat="50.45263" lon="5.27855">
        <ele>163.80000305176</ele>
        <time>2021-07-11T08:36:40.000Z</time>
      </trkpt>
      <trkpt lat="50.45278" lon="5.2785">
        <ele>163.80000305176</ele>
        <time>2021-07-11T08:36:42.000Z</time>
      </trkpt>
      <trkpt lat="50.45294" lon="5.27855">
        <ele>163.60000610352</ele>
        <time>2021-07-11T08:36:44.000Z</time>
      </trkpt>
      <trkpt lat="50.45301" lon="5.27862">
        <ele>163.60000610352</ele>
        <time>2021-07-11T08:36:45.000Z</time>
      </trkpt>
      <trkpt lat="50.45308" lon="5.27871">
        <ele>163.60000610352</ele>
        <time>2021-07-11T08:36:46.000Z</time>
      </trkpt>
      <trkpt lat="50.45335" lon="5.27909">
        <ele>163.60000610352</ele>
        <time>2021-07-11T08:36:50.000Z</time>
      </trkpt>
      <trkpt lat="50.45378" lon="5.27975">
        <ele>163</ele>
        <time>2021-07-11T08:36:57.000Z</time>
      </trkpt>
      <trkpt lat="50.45384" lon="5.27984">
        <ele>163.19999694824</ele>
        <time>2021-07-11T08:36:58.000Z</time>
      </trkpt>
      <trkpt lat="50.4539" lon="5.27992">
        <ele>162.80000305176</ele>
        <time>2021-07-11T08:36:59.000Z</time>
      </trkpt>
      <trkpt lat="50.45413" lon="5.28026">
        <ele>162.60000610352</ele>
        <time>2021-07-11T08:37:03.000Z</time>
      </trkpt>
      <trkpt lat="50.45435" lon="5.2806">
        <ele>162.60000610352</ele>
        <time>2021-07-11T08:37:07.000Z</time>
      </trkpt>
      <trkpt lat="50.45471" lon="5.28126">
        <ele>162.39999389648</ele>
        <time>2021-07-11T08:37:14.000Z</time>
      </trkpt>
      <trkpt lat="50.45499" lon="5.282">
        <ele>162.19999694824</ele>
        <time>2021-07-11T08:37:21.000Z</time>
      </trkpt>
      <trkpt lat="50.45503" lon="5.2821">
        <ele>162</ele>
        <time>2021-07-11T08:37:22.000Z</time>
      </trkpt>
      <trkpt lat="50.45531" lon="5.28285">
        <ele>161.39999389648</ele>
        <time>2021-07-11T08:37:29.000Z</time>
      </trkpt>
      <trkpt lat="50.45539" lon="5.28305">
        <ele>161.39999389648</ele>
        <time>2021-07-11T08:37:31.000Z</time>
      </trkpt>
      <trkpt lat="50.45563" lon="5.28348">
        <ele>161.19999694824</ele>
        <time>2021-07-11T08:37:36.000Z</time>
      </trkpt>
      <trkpt lat="50.45569" lon="5.28356">
        <ele>161.19999694824</ele>
        <time>2021-07-11T08:37:37.000Z</time>
      </trkpt>
      <trkpt lat="50.456" lon="5.28388">
        <ele>161.19999694824</ele>
        <time>2021-07-11T08:37:42.000Z</time>
      </trkpt>
      <trkpt lat="50.45652" lon="5.28431">
        <ele>161.39999389648</ele>
        <time>2021-07-11T08:37:50.000Z</time>
      </trkpt>
      <trkpt lat="50.45659" lon="5.28436">
        <ele>161.19999694824</ele>
        <time>2021-07-11T08:37:51.000Z</time>
      </trkpt>
      <trkpt lat="50.45705" lon="5.28459">
        <ele>161.19999694824</ele>
        <time>2021-07-11T08:37:57.000Z</time>
      </trkpt>
      <trkpt lat="50.45753" lon="5.2847">
        <ele>161</ele>
        <time>2021-07-11T08:38:03.000Z</time>
      </trkpt>
      <trkpt lat="50.45809" lon="5.28478">
        <ele>160.80000305176</ele>
        <time>2021-07-11T08:38:10.000Z</time>
      </trkpt>
      <trkpt lat="50.45817" lon="5.28479">
        <ele>160.60000610352</ele>
        <time>2021-07-11T08:38:11.000Z</time>
      </trkpt>
      <trkpt lat="50.45833" lon="5.28478">
        <ele>160.39999389648</ele>
        <time>2021-07-11T08:38:13.000Z</time>
      </trkpt>
      <trkpt lat="50.45849" lon="5.28473">
        <ele>160.19999694824</ele>
        <time>2021-07-11T08:38:15.000Z</time>
      </trkpt>
      <trkpt lat="50.45886" lon="5.28449">
        <ele>160</ele>
        <time>2021-07-11T08:38:20.000Z</time>
      </trkpt>
      <trkpt lat="50.45893" lon="5.28442">
        <ele>160</ele>
        <time>2021-07-11T08:38:21.000Z</time>
      </trkpt>
      <trkpt lat="50.45934" lon="5.28404">
        <ele>160</ele>
        <time>2021-07-11T08:38:27.000Z</time>
      </trkpt>
      <trkpt lat="50.45981" lon="5.28355">
        <ele>159.19999694824</ele>
        <time>2021-07-11T08:38:34.000Z</time>
      </trkpt>
      <trkpt lat="50.45987" lon="5.28348">
        <ele>159.19999694824</ele>
        <time>2021-07-11T08:38:35.000Z</time>
      </trkpt>
      <trkpt lat="50.45994" lon="5.28341">
        <ele>159</ele>
        <time>2021-07-11T08:38:36.000Z</time>
      </trkpt>
      <trkpt lat="50.46043" lon="5.28292">
        <ele>158.39999389648</ele>
        <time>2021-07-11T08:38:43.000Z</time>
      </trkpt>
      <trkpt lat="50.4605" lon="5.28284">
        <ele>158.19999694824</ele>
        <time>2021-07-11T08:38:44.000Z</time>
      </trkpt>
      <trkpt lat="50.46083" lon="5.28243">
        <ele>157.80000305176</ele>
        <time>2021-07-11T08:38:49.000Z</time>
      </trkpt>
      <trkpt lat="50.46095" lon="5.28224">
        <ele>157.80000305176</ele>
        <time>2021-07-11T08:38:51.000Z</time>
      </trkpt>
      <trkpt lat="50.46138" lon="5.2816">
        <ele>157.19999694824</ele>
        <time>2021-07-11T08:38:58.000Z</time>
      </trkpt>
      <trkpt lat="50.46143" lon="5.28151">
        <ele>157</ele>
        <time>2021-07-11T08:38:59.000Z</time>
      </trkpt>
      <trkpt lat="50.46149" lon="5.28141">
        <ele>156.80000305176</ele>
        <time>2021-07-11T08:39:00.000Z</time>
      </trkpt>
      <trkpt lat="50.46187" lon="5.28075">
        <ele>156</ele>
        <time>2021-07-11T08:39:07.000Z</time>
      </trkpt>
      <trkpt lat="50.46191" lon="5.28065">
        <ele>155.80000305176</ele>
        <time>2021-07-11T08:39:08.000Z</time>
      </trkpt>
      <trkpt lat="50.46215" lon="5.27997">
        <ele>155.60000610352</ele>
        <time>2021-07-11T08:39:14.000Z</time>
      </trkpt>
      <trkpt lat="50.4623" lon="5.27935">
        <ele>155.39999389648</ele>
        <time>2021-07-11T08:39:19.000Z</time>
      </trkpt>
      <trkpt lat="50.46231" lon="5.27922">
        <ele>155.60000610352</ele>
        <time>2021-07-11T08:39:20.000Z</time>
      </trkpt>
      <trkpt lat="50.46232" lon="5.27832">
        <ele>155.39999389648</ele>
        <time>2021-07-11T08:39:27.000Z</time>
      </trkpt>
      <trkpt lat="50.46231" lon="5.27807">
        <ele>155.39999389648</ele>
        <time>2021-07-11T08:39:29.000Z</time>
      </trkpt>
      <trkpt lat="50.46232" lon="5.27783">
        <ele>155.19999694824</ele>
        <time>2021-07-11T08:39:31.000Z</time>
      </trkpt>
      <trkpt lat="50.46235" lon="5.27758">
        <ele>155.19999694824</ele>
        <time>2021-07-11T08:39:33.000Z</time>
      </trkpt>
      <trkpt lat="50.46247" lon="5.27724">
        <ele>154.80000305176</ele>
        <time>2021-07-11T08:39:36.000Z</time>
      </trkpt>
      <trkpt lat="50.46253" lon="5.27714">
        <ele>155</ele>
        <time>2021-07-11T08:39:37.000Z</time>
      </trkpt>
      <trkpt lat="50.46266" lon="5.27698">
        <ele>154.80000305176</ele>
        <time>2021-07-11T08:39:39.000Z</time>
      </trkpt>
      <trkpt lat="50.46273" lon="5.27691">
        <ele>154.60000610352</ele>
        <time>2021-07-11T08:39:40.000Z</time>
      </trkpt>
      <trkpt lat="50.46281" lon="5.27685">
        <ele>154.60000610352</ele>
        <time>2021-07-11T08:39:41.000Z</time>
      </trkpt>
      <trkpt lat="50.46331" lon="5.27653">
        <ele>154.19999694824</ele>
        <time>2021-07-11T08:39:47.000Z</time>
      </trkpt>
      <trkpt lat="50.46339" lon="5.27647">
        <ele>154.39999389648</ele>
        <time>2021-07-11T08:39:48.000Z</time>
      </trkpt>
      <trkpt lat="50.46391" lon="5.27603">
        <ele>154</ele>
        <time>2021-07-11T08:39:55.000Z</time>
      </trkpt>
      <trkpt lat="50.46405" lon="5.2759">
        <ele>154</ele>
        <time>2021-07-11T08:39:57.000Z</time>
      </trkpt>
      <trkpt lat="50.46454" lon="5.27543">
        <ele>153.80000305176</ele>
        <time>2021-07-11T08:40:04.000Z</time>
      </trkpt>
      <trkpt lat="50.46468" lon="5.27529">
        <ele>153.80000305176</ele>
        <time>2021-07-11T08:40:06.000Z</time>
      </trkpt>
      <trkpt lat="50.46518" lon="5.27482">
        <ele>153.80000305176</ele>
        <time>2021-07-11T08:40:13.000Z</time>
      </trkpt>
      <trkpt lat="50.46525" lon="5.27475">
        <ele>153.60000610352</ele>
        <time>2021-07-11T08:40:14.000Z</time>
      </trkpt>
      <trkpt lat="50.46571" lon="5.27418">
        <ele>153.60000610352</ele>
        <time>2021-07-11T08:40:21.000Z</time>
      </trkpt>
      <trkpt lat="50.46613" lon="5.27357">
        <ele>153.39999389648</ele>
        <time>2021-07-11T08:40:28.000Z</time>
      </trkpt>
      <trkpt lat="50.4662" lon="5.27349">
        <ele>153.39999389648</ele>
        <time>2021-07-11T08:40:29.000Z</time>
      </trkpt>
      <trkpt lat="50.46633" lon="5.27334">
        <ele>153.39999389648</ele>
        <time>2021-07-11T08:40:31.000Z</time>
      </trkpt>
      <trkpt lat="50.46648" lon="5.27322">
        <ele>153.19999694824</ele>
        <time>2021-07-11T08:40:33.000Z</time>
      </trkpt>
      <trkpt lat="50.46657" lon="5.27318">
        <ele>153.19999694824</ele>
        <time>2021-07-11T08:40:34.000Z</time>
      </trkpt>
      <trkpt lat="50.46673" lon="5.2731">
        <ele>153.19999694824</ele>
        <time>2021-07-11T08:40:36.000Z</time>
      </trkpt>
      <trkpt lat="50.4669" lon="5.27301">
        <ele>153</ele>
        <time>2021-07-11T08:40:38.000Z</time>
      </trkpt>
      <trkpt lat="50.46728" lon="5.27271">
        <ele>152.39999389648</ele>
        <time>2021-07-11T08:40:43.000Z</time>
      </trkpt>
      <trkpt lat="50.46782" lon="5.27226">
        <ele>151.60000610352</ele>
        <time>2021-07-11T08:40:50.000Z</time>
      </trkpt>
      <trkpt lat="50.46796" lon="5.27213">
        <ele>151.19999694824</ele>
        <time>2021-07-11T08:40:52.000Z</time>
      </trkpt>
      <trkpt lat="50.46844" lon="5.2716">
        <ele>151.19999694824</ele>
        <time>2021-07-11T08:40:59.000Z</time>
      </trkpt>
      <trkpt lat="50.46881" lon="5.27102">
        <ele>151.39999389648</ele>
        <time>2021-07-11T08:41:05.000Z</time>
      </trkpt>
      <trkpt lat="50.46912" lon="5.27036">
        <ele>151.60000610352</ele>
        <time>2021-07-11T08:41:11.000Z</time>
      </trkpt>
      <trkpt lat="50.46919" lon="5.27027">
        <ele>151.39999389648</ele>
        <time>2021-07-11T08:41:12.000Z</time>
      </trkpt>
      <trkpt lat="50.46932" lon="5.27008">
        <ele>151.39999389648</ele>
        <time>2021-07-11T08:41:14.000Z</time>
      </trkpt>
      <trkpt lat="50.46945" lon="5.2699">
        <ele>151.39999389648</ele>
        <time>2021-07-11T08:41:16.000Z</time>
      </trkpt>
      <trkpt lat="50.46983" lon="5.26932">
        <ele>150.60000610352</ele>
        <time>2021-07-11T08:41:22.000Z</time>
      </trkpt>
      <trkpt lat="50.47001" lon="5.26902">
        <ele>150.19999694824</ele>
        <time>2021-07-11T08:41:25.000Z</time>
      </trkpt>
      <trkpt lat="50.47019" lon="5.26872">
        <ele>149.80000305176</ele>
        <time>2021-07-11T08:41:28.000Z</time>
      </trkpt>
      <trkpt lat="50.4705" lon="5.26822">
        <ele>149</ele>
        <time>2021-07-11T08:41:33.000Z</time>
      </trkpt>
      <trkpt lat="50.47063" lon="5.26803">
        <ele>148.60000610352</ele>
        <time>2021-07-11T08:41:35.000Z</time>
      </trkpt>
      <trkpt lat="50.47095" lon="5.26754">
        <ele>147.80000305176</ele>
        <time>2021-07-11T08:41:40.000Z</time>
      </trkpt>
      <trkpt lat="50.47138" lon="5.26702">
        <ele>147</ele>
        <time>2021-07-11T08:41:46.000Z</time>
      </trkpt>
      <trkpt lat="50.47152" lon="5.26685">
        <ele>146.60000610352</ele>
        <time>2021-07-11T08:41:48.000Z</time>
      </trkpt>
      <trkpt lat="50.47185" lon="5.26659">
        <ele>146.39999389648</ele>
        <time>2021-07-11T08:41:52.000Z</time>
      </trkpt>
      <trkpt lat="50.47203" lon="5.26652">
        <ele>146.39999389648</ele>
        <time>2021-07-11T08:41:54.000Z</time>
      </trkpt>
      <trkpt lat="50.47212" lon="5.26651">
        <ele>146.19999694824</ele>
        <time>2021-07-11T08:41:55.000Z</time>
      </trkpt>
      <trkpt lat="50.47222" lon="5.2665">
        <ele>146.19999694824</ele>
        <time>2021-07-11T08:41:56.000Z</time>
      </trkpt>
      <trkpt lat="50.47277" lon="5.26653">
        <ele>146</ele>
        <time>2021-07-11T08:42:02.000Z</time>
      </trkpt>
      <trkpt lat="50.47335" lon="5.26675">
        <ele>145.19999694824</ele>
        <time>2021-07-11T08:42:09.000Z</time>
      </trkpt>
      <trkpt lat="50.4738" lon="5.26715">
        <ele>144.60000610352</ele>
        <time>2021-07-11T08:42:15.000Z</time>
      </trkpt>
      <trkpt lat="50.47387" lon="5.26722">
        <ele>144.39999389648</ele>
        <time>2021-07-11T08:42:16.000Z</time>
      </trkpt>
      <trkpt lat="50.47424" lon="5.26756">
        <ele>144.19999694824</ele>
        <time>2021-07-11T08:42:21.000Z</time>
      </trkpt>
      <trkpt lat="50.47471" lon="5.26787">
        <ele>143.60000610352</ele>
        <time>2021-07-11T08:42:27.000Z</time>
      </trkpt>
      <trkpt lat="50.47511" lon="5.26808">
        <ele>143.39999389648</ele>
        <time>2021-07-11T08:42:32.000Z</time>
      </trkpt>
      <trkpt lat="50.47534" lon="5.2682">
        <ele>143.19999694824</ele>
        <time>2021-07-11T08:42:35.000Z</time>
      </trkpt>
      <trkpt lat="50.4759" lon="5.26849">
        <ele>142.19999694824</ele>
        <time>2021-07-11T08:42:42.000Z</time>
      </trkpt>
      <trkpt lat="50.47599" lon="5.26853">
        <ele>142.19999694824</ele>
        <time>2021-07-11T08:42:43.000Z</time>
      </trkpt>
      <trkpt lat="50.47648" lon="5.26872">
        <ele>142</ele>
        <time>2021-07-11T08:42:49.000Z</time>
      </trkpt>
      <trkpt lat="50.4769" lon="5.26868">
        <ele>142</ele>
        <time>2021-07-11T08:42:54.000Z</time>
      </trkpt>
      <trkpt lat="50.47734" lon="5.26852">
        <ele>141.80000305176</ele>
        <time>2021-07-11T08:42:59.000Z</time>
      </trkpt>
      <trkpt lat="50.47752" lon="5.26846">
        <ele>141.60000610352</ele>
        <time>2021-07-11T08:43:01.000Z</time>
      </trkpt>
      <trkpt lat="50.47813" lon="5.26826">
        <ele>141.19999694824</ele>
        <time>2021-07-11T08:43:08.000Z</time>
      </trkpt>
      <trkpt lat="50.4783" lon="5.2682">
        <ele>140.80000305176</ele>
        <time>2021-07-11T08:43:10.000Z</time>
      </trkpt>
      <trkpt lat="50.47888" lon="5.26801">
        <ele>140.19999694824</ele>
        <time>2021-07-11T08:43:17.000Z</time>
      </trkpt>
      <trkpt lat="50.47921" lon="5.26791">
        <ele>140</ele>
        <time>2021-07-11T08:43:21.000Z</time>
      </trkpt>
      <trkpt lat="50.47956" lon="5.26781">
        <ele>140</ele>
        <time>2021-07-11T08:43:25.000Z</time>
      </trkpt>
      <trkpt lat="50.4799" lon="5.26772">
        <ele>139.60000610352</ele>
        <time>2021-07-11T08:43:29.000Z</time>
      </trkpt>
      <trkpt lat="50.48042" lon="5.26752">
        <ele>139.19999694824</ele>
        <time>2021-07-11T08:43:35.000Z</time>
      </trkpt>
      <trkpt lat="50.48058" lon="5.26743">
        <ele>139.19999694824</ele>
        <time>2021-07-11T08:43:37.000Z</time>
      </trkpt>
      <trkpt lat="50.48108" lon="5.26715">
        <ele>138.80000305176</ele>
        <time>2021-07-11T08:43:43.000Z</time>
      </trkpt>
      <trkpt lat="50.48148" lon="5.26687">
        <ele>138.39999389648</ele>
        <time>2021-07-11T08:43:48.000Z</time>
      </trkpt>
      <trkpt lat="50.48155" lon="5.26679">
        <ele>138.19999694824</ele>
        <time>2021-07-11T08:43:49.000Z</time>
      </trkpt>
      <trkpt lat="50.48168" lon="5.2666">
        <ele>138.19999694824</ele>
        <time>2021-07-11T08:43:51.000Z</time>
      </trkpt>
      <trkpt lat="50.48178" lon="5.26639">
        <ele>138</ele>
        <time>2021-07-11T08:43:53.000Z</time>
      </trkpt>
      <trkpt lat="50.48187" lon="5.26614">
        <ele>138</ele>
        <time>2021-07-11T08:43:55.000Z</time>
      </trkpt>
      <trkpt lat="50.48194" lon="5.26589">
        <ele>138</ele>
        <time>2021-07-11T08:43:57.000Z</time>
      </trkpt>
      <trkpt lat="50.48213" lon="5.26514">
        <ele>138</ele>
        <time>2021-07-11T08:44:03.000Z</time>
      </trkpt>
      <trkpt lat="50.4823" lon="5.26484">
        <ele>138</ele>
        <time>2021-07-11T08:44:06.000Z</time>
      </trkpt>
      <trkpt lat="50.48236" lon="5.26475">
        <ele>138</ele>
        <time>2021-07-11T08:44:07.000Z</time>
      </trkpt>
      <trkpt lat="50.48244" lon="5.26468">
        <ele>138</ele>
        <time>2021-07-11T08:44:08.000Z</time>
      </trkpt>
      <trkpt lat="50.4826" lon="5.26459">
        <ele>137.60000610352</ele>
        <time>2021-07-11T08:44:10.000Z</time>
      </trkpt>
      <trkpt lat="50.4831" lon="5.26438">
        <ele>136.80000305176</ele>
        <time>2021-07-11T08:44:16.000Z</time>
      </trkpt>
      <trkpt lat="50.48349" lon="5.26407">
        <ele>136.80000305176</ele>
        <time>2021-07-11T08:44:21.000Z</time>
      </trkpt>
      <trkpt lat="50.48364" lon="5.26392">
        <ele>136.60000610352</ele>
        <time>2021-07-11T08:44:23.000Z</time>
      </trkpt>
      <trkpt lat="50.48405" lon="5.26347">
        <ele>136.19999694824</ele>
        <time>2021-07-11T08:44:29.000Z</time>
      </trkpt>
      <trkpt lat="50.48454" lon="5.26308">
        <ele>135.60000610352</ele>
        <time>2021-07-11T08:44:36.000Z</time>
      </trkpt>
      <trkpt lat="50.48462" lon="5.26304">
        <ele>135.60000610352</ele>
        <time>2021-07-11T08:44:37.000Z</time>
      </trkpt>
      <trkpt lat="50.48504" lon="5.26265">
        <ele>135.39999389648</ele>
        <time>2021-07-11T08:44:43.000Z</time>
      </trkpt>
      <trkpt lat="50.48522" lon="5.26235">
        <ele>135.39999389648</ele>
        <time>2021-07-11T08:44:46.000Z</time>
      </trkpt>
      <trkpt lat="50.48533" lon="5.26211">
        <ele>135.39999389648</ele>
        <time>2021-07-11T08:44:48.000Z</time>
      </trkpt>
      <trkpt lat="50.48541" lon="5.26186">
        <ele>135.39999389648</ele>
        <time>2021-07-11T08:44:50.000Z</time>
      </trkpt>
      <trkpt lat="50.48551" lon="5.26145">
        <ele>135.19999694824</ele>
        <time>2021-07-11T08:44:53.000Z</time>
      </trkpt>
      <trkpt lat="50.48562" lon="5.26091">
        <ele>134.19999694824</ele>
        <time>2021-07-11T08:44:57.000Z</time>
      </trkpt>
      <trkpt lat="50.48575" lon="5.26024">
        <ele>133.39999389648</ele>
        <time>2021-07-11T08:45:02.000Z</time>
      </trkpt>
      <trkpt lat="50.48584" lon="5.26">
        <ele>132.80000305176</ele>
        <time>2021-07-11T08:45:04.000Z</time>
      </trkpt>
      <trkpt lat="50.48595" lon="5.25978">
        <ele>132.60000610352</ele>
        <time>2021-07-11T08:45:06.000Z</time>
      </trkpt>
      <trkpt lat="50.48609" lon="5.25959">
        <ele>132.19999694824</ele>
        <time>2021-07-11T08:45:08.000Z</time>
      </trkpt>
      <trkpt lat="50.48625" lon="5.25944">
        <ele>131.60000610352</ele>
        <time>2021-07-11T08:45:10.000Z</time>
      </trkpt>
      <trkpt lat="50.48633" lon="5.25938">
        <ele>131.39999389648</ele>
        <time>2021-07-11T08:45:11.000Z</time>
      </trkpt>
      <trkpt lat="50.48667" lon="5.25919">
        <ele>131.19999694824</ele>
        <time>2021-07-11T08:45:15.000Z</time>
      </trkpt>
      <trkpt lat="50.48725" lon="5.25887">
        <ele>129.60000610352</ele>
        <time>2021-07-11T08:45:22.000Z</time>
      </trkpt>
      <trkpt lat="50.48734" lon="5.25883">
        <ele>129.60000610352</ele>
        <time>2021-07-11T08:45:23.000Z</time>
      </trkpt>
      <trkpt lat="50.48742" lon="5.2588">
        <ele>129.39999389648</ele>
        <time>2021-07-11T08:45:24.000Z</time>
      </trkpt>
      <trkpt lat="50.48795" lon="5.25862">
        <ele>129.19999694824</ele>
        <time>2021-07-11T08:45:30.000Z</time>
      </trkpt>
      <trkpt lat="50.48848" lon="5.25849">
        <ele>128.39999389648</ele>
        <time>2021-07-11T08:45:36.000Z</time>
      </trkpt>
      <trkpt lat="50.48875" lon="5.25842">
        <ele>128.19999694824</ele>
        <time>2021-07-11T08:45:39.000Z</time>
      </trkpt>
      <trkpt lat="50.48937" lon="5.2583">
        <ele>127.80000305176</ele>
        <time>2021-07-11T08:45:46.000Z</time>
      </trkpt>
      <trkpt lat="50.48946" lon="5.25829">
        <ele>127.59999847412</ele>
        <time>2021-07-11T08:45:47.000Z</time>
      </trkpt>
      <trkpt lat="50.49006" lon="5.25819">
        <ele>127.40000152588</ele>
        <time>2021-07-11T08:45:54.000Z</time>
      </trkpt>
      <trkpt lat="50.49015" lon="5.25818">
        <ele>127.40000152588</ele>
        <time>2021-07-11T08:45:55.000Z</time>
      </trkpt>
      <trkpt lat="50.49074" lon="5.25809">
        <ele>127.19999694824</ele>
        <time>2021-07-11T08:46:02.000Z</time>
      </trkpt>
      <trkpt lat="50.49083" lon="5.25807">
        <ele>127.19999694824</ele>
        <time>2021-07-11T08:46:03.000Z</time>
      </trkpt>
      <trkpt lat="50.49122" lon="5.25784">
        <ele>127</ele>
        <time>2021-07-11T08:46:08.000Z</time>
      </trkpt>
      <trkpt lat="50.49145" lon="5.25763">
        <ele>126.80000305176</ele>
        <time>2021-07-11T08:46:11.000Z</time>
      </trkpt>
      <trkpt lat="50.49167" lon="5.2574">
        <ele>127</ele>
        <time>2021-07-11T08:46:14.000Z</time>
      </trkpt>
      <trkpt lat="50.49196" lon="5.25714">
        <ele>126.59999847412</ele>
        <time>2021-07-11T08:46:18.000Z</time>
      </trkpt>
      <trkpt lat="50.4921" lon="5.25698">
        <ele>126.40000152588</ele>
        <time>2021-07-11T08:46:20.000Z</time>
      </trkpt>
      <trkpt lat="50.49223" lon="5.25681">
        <ele>126</ele>
        <time>2021-07-11T08:46:22.000Z</time>
      </trkpt>
      <trkpt lat="50.49231" lon="5.25654">
        <ele>125.80000305176</ele>
        <time>2021-07-11T08:46:24.000Z</time>
      </trkpt>
      <trkpt lat="50.49235" lon="5.25625">
        <ele>125.59999847412</ele>
        <time>2021-07-11T08:46:26.000Z</time>
      </trkpt>
      <trkpt lat="50.49235" lon="5.25611">
        <ele>125.40000152588</ele>
        <time>2021-07-11T08:46:27.000Z</time>
      </trkpt>
      <trkpt lat="50.49239" lon="5.25582">
        <ele>125.19999694824</ele>
        <time>2021-07-11T08:46:29.000Z</time>
      </trkpt>
      <trkpt lat="50.49241" lon="5.25567">
        <ele>125</ele>
        <time>2021-07-11T08:46:30.000Z</time>
      </trkpt>
      <trkpt lat="50.49244" lon="5.25552">
        <ele>125</ele>
        <time>2021-07-11T08:46:31.000Z</time>
      </trkpt>
      <trkpt lat="50.49247" lon="5.25537">
        <ele>125</ele>
        <time>2021-07-11T08:46:32.000Z</time>
      </trkpt>
      <trkpt lat="50.49255" lon="5.2549">
        <ele>124.19999694824</ele>
        <time>2021-07-11T08:46:35.000Z</time>
      </trkpt>
      <trkpt lat="50.49267" lon="5.25429">
        <ele>123</ele>
        <time>2021-07-11T08:46:39.000Z</time>
      </trkpt>
      <trkpt lat="50.49271" lon="5.25398">
        <ele>122</ele>
        <time>2021-07-11T08:46:41.000Z</time>
      </trkpt>
      <trkpt lat="50.49271" lon="5.25367">
        <ele>121.19999694824</ele>
        <time>2021-07-11T08:46:43.000Z</time>
      </trkpt>
      <trkpt lat="50.49265" lon="5.2528">
        <ele>120</ele>
        <time>2021-07-11T08:46:49.000Z</time>
      </trkpt>
      <trkpt lat="50.49261" lon="5.25189">
        <ele>120</ele>
        <time>2021-07-11T08:46:56.000Z</time>
      </trkpt>
      <trkpt lat="50.49259" lon="5.25177">
        <ele>119.80000305176</ele>
        <time>2021-07-11T08:46:57.000Z</time>
      </trkpt>
      <trkpt lat="50.49256" lon="5.25165">
        <ele>120</ele>
        <time>2021-07-11T08:46:58.000Z</time>
      </trkpt>
      <trkpt lat="50.49253" lon="5.25154">
        <ele>120</ele>
        <time>2021-07-11T08:46:59.000Z</time>
      </trkpt>
      <trkpt lat="50.49249" lon="5.25144">
        <ele>120</ele>
        <time>2021-07-11T08:47:00.000Z</time>
      </trkpt>
      <trkpt lat="50.49217" lon="5.25071">
        <ele>121.19999694824</ele>
        <time>2021-07-11T08:47:07.000Z</time>
      </trkpt>
      <trkpt lat="50.49204" lon="5.25039">
        <ele>121.80000305176</ele>
        <time>2021-07-11T08:47:10.000Z</time>
      </trkpt>
      <trkpt lat="50.49173" lon="5.24966">
        <ele>122.19999694824</ele>
        <time>2021-07-11T08:47:17.000Z</time>
      </trkpt>
      <trkpt lat="50.49164" lon="5.24945">
        <ele>122.80000305176</ele>
        <time>2021-07-11T08:47:19.000Z</time>
      </trkpt>
      <trkpt lat="50.4914" lon="5.24883">
        <ele>123.80000305176</ele>
        <time>2021-07-11T08:47:25.000Z</time>
      </trkpt>
      <trkpt lat="50.49134" lon="5.24861">
        <ele>123.80000305176</ele>
        <time>2021-07-11T08:47:27.000Z</time>
      </trkpt>
      <trkpt lat="50.49133" lon="5.2485">
        <ele>123.80000305176</ele>
        <time>2021-07-11T08:47:28.000Z</time>
      </trkpt>
      <trkpt lat="50.4913" lon="5.24827">
        <ele>124</ele>
        <time>2021-07-11T08:47:30.000Z</time>
      </trkpt>
      <trkpt lat="50.4913" lon="5.24804">
        <ele>124.19999694824</ele>
        <time>2021-07-11T08:47:32.000Z</time>
      </trkpt>
      <trkpt lat="50.49131" lon="5.24765">
        <ele>124.80000305176</ele>
        <time>2021-07-11T08:47:35.000Z</time>
      </trkpt>
      <trkpt lat="50.49139" lon="5.247">
        <ele>124.80000305176</ele>
        <time>2021-07-11T08:47:40.000Z</time>
      </trkpt>
      <trkpt lat="50.49144" lon="5.24643">
        <ele>124.80000305176</ele>
        <time>2021-07-11T08:47:44.000Z</time>
      </trkpt>
      <trkpt lat="50.49146" lon="5.24615">
        <ele>124.80000305176</ele>
        <time>2021-07-11T08:47:46.000Z</time>
      </trkpt>
      <trkpt lat="50.49148" lon="5.24556">
        <ele>124.40000152588</ele>
        <time>2021-07-11T08:47:50.000Z</time>
      </trkpt>
      <trkpt lat="50.4915" lon="5.24485">
        <ele>123.40000152588</ele>
        <time>2021-07-11T08:47:55.000Z</time>
      </trkpt>
      <trkpt lat="50.49147" lon="5.24416">
        <ele>122.40000152588</ele>
        <time>2021-07-11T08:48:00.000Z</time>
      </trkpt>
      <trkpt lat="50.49145" lon="5.24402">
        <ele>122.19999694824</ele>
        <time>2021-07-11T08:48:01.000Z</time>
      </trkpt>
      <trkpt lat="50.49138" lon="5.24351">
        <ele>122</ele>
        <time>2021-07-11T08:48:05.000Z</time>
      </trkpt>
      <trkpt lat="50.49126" lon="5.24286">
        <ele>121.40000152588</ele>
        <time>2021-07-11T08:48:10.000Z</time>
      </trkpt>
      <trkpt lat="50.4912" lon="5.24261">
        <ele>121</ele>
        <time>2021-07-11T08:48:12.000Z</time>
      </trkpt>
      <trkpt lat="50.49104" lon="5.24171">
        <ele>120.40000152588</ele>
        <time>2021-07-11T08:48:19.000Z</time>
      </trkpt>
      <trkpt lat="50.49102" lon="5.24157">
        <ele>120.19999694824</ele>
        <time>2021-07-11T08:48:20.000Z</time>
      </trkpt>
      <trkpt lat="50.49094" lon="5.24071">
        <ele>119.59999847412</ele>
        <time>2021-07-11T08:48:26.000Z</time>
      </trkpt>
      <trkpt lat="50.49093" lon="5.24057">
        <ele>119.40000152588</ele>
        <time>2021-07-11T08:48:27.000Z</time>
      </trkpt>
      <trkpt lat="50.49089" lon="5.23987">
        <ele>118.80000305176</ele>
        <time>2021-07-11T08:48:32.000Z</time>
      </trkpt>
      <trkpt lat="50.49087" lon="5.2393">
        <ele>118</ele>
        <time>2021-07-11T08:48:36.000Z</time>
      </trkpt>
      <trkpt lat="50.49085" lon="5.23887">
        <ele>117.59999847412</ele>
        <time>2021-07-11T08:48:39.000Z</time>
      </trkpt>
      <trkpt lat="50.49081" lon="5.23819">
        <ele>116.80000305176</ele>
        <time>2021-07-11T08:48:44.000Z</time>
      </trkpt>
      <trkpt lat="50.4908" lon="5.23805">
        <ele>116.59999847412</ele>
        <time>2021-07-11T08:48:45.000Z</time>
      </trkpt>
      <trkpt lat="50.4908" lon="5.23722">
        <ele>115.40000152588</ele>
        <time>2021-07-11T08:48:51.000Z</time>
      </trkpt>
      <trkpt lat="50.49092" lon="5.23673">
        <ele>115</ele>
        <time>2021-07-11T08:48:55.000Z</time>
      </trkpt>
      <trkpt lat="50.49101" lon="5.23655">
        <ele>115</ele>
        <time>2021-07-11T08:48:57.000Z</time>
      </trkpt>
      <trkpt lat="50.49111" lon="5.23641">
        <ele>115</ele>
        <time>2021-07-11T08:48:59.000Z</time>
      </trkpt>
      <trkpt lat="50.49117" lon="5.23634">
        <ele>115</ele>
        <time>2021-07-11T08:49:00.000Z</time>
      </trkpt>
      <trkpt lat="50.49147" lon="5.23597">
        <ele>115.59999847412</ele>
        <time>2021-07-11T08:49:05.000Z</time>
      </trkpt>
      <trkpt lat="50.49161" lon="5.23581">
        <ele>116</ele>
        <time>2021-07-11T08:49:07.000Z</time>
      </trkpt>
      <trkpt lat="50.49176" lon="5.23563">
        <ele>115.80000305176</ele>
        <time>2021-07-11T08:49:09.000Z</time>
      </trkpt>
      <trkpt lat="50.4919" lon="5.23542">
        <ele>115.80000305176</ele>
        <time>2021-07-11T08:49:11.000Z</time>
      </trkpt>
      <trkpt lat="50.49197" lon="5.2353">
        <ele>116</ele>
        <time>2021-07-11T08:49:12.000Z</time>
      </trkpt>
      <trkpt lat="50.49213" lon="5.23506">
        <ele>115.80000305176</ele>
        <time>2021-07-11T08:49:14.000Z</time>
      </trkpt>
      <trkpt lat="50.49221" lon="5.23495">
        <ele>116</ele>
        <time>2021-07-11T08:49:15.000Z</time>
      </trkpt>
      <trkpt lat="50.49231" lon="5.23485">
        <ele>115.40000152588</ele>
        <time>2021-07-11T08:49:16.000Z</time>
      </trkpt>
      <trkpt lat="50.49241" lon="5.23476">
        <ele>114.80000305176</ele>
        <time>2021-07-11T08:49:17.000Z</time>
      </trkpt>
      <trkpt lat="50.49261" lon="5.23462">
        <ele>113.59999847412</ele>
        <time>2021-07-11T08:49:19.000Z</time>
      </trkpt>
      <trkpt lat="50.49309" lon="5.23434">
        <ele>109.59999847412</ele>
        <time>2021-07-11T08:49:24.000Z</time>
      </trkpt>
      <trkpt lat="50.49359" lon="5.23412">
        <ele>107</ele>
        <time>2021-07-11T08:49:30.000Z</time>
      </trkpt>
      <trkpt lat="50.49393" lon="5.2341">
        <ele>106.40000152588</ele>
        <time>2021-07-11T08:49:34.000Z</time>
      </trkpt>
      <trkpt lat="50.4941" lon="5.23412">
        <ele>106.19999694824</ele>
        <time>2021-07-11T08:49:36.000Z</time>
      </trkpt>
      <trkpt lat="50.49467" lon="5.23423">
        <ele>105.80000305176</ele>
        <time>2021-07-11T08:49:43.000Z</time>
      </trkpt>
      <trkpt lat="50.49475" lon="5.23424">
        <ele>105.80000305176</ele>
        <time>2021-07-11T08:49:44.000Z</time>
      </trkpt>
      <trkpt lat="50.49501" lon="5.23432">
        <ele>105.80000305176</ele>
        <time>2021-07-11T08:49:47.000Z</time>
      </trkpt>
      <trkpt lat="50.4951" lon="5.23437">
        <ele>105.40000152588</ele>
        <time>2021-07-11T08:49:48.000Z</time>
      </trkpt>
      <trkpt lat="50.49518" lon="5.23444">
        <ele>105.40000152588</ele>
        <time>2021-07-11T08:49:49.000Z</time>
      </trkpt>
      <trkpt lat="50.4955" lon="5.23483">
        <ele>105</ele>
        <time>2021-07-11T08:49:53.000Z</time>
      </trkpt>
      <trkpt lat="50.49566" lon="5.23507">
        <ele>105</ele>
        <time>2021-07-11T08:49:55.000Z</time>
      </trkpt>
      <trkpt lat="50.49604" lon="5.23562">
        <ele>104.19999694824</ele>
        <time>2021-07-11T08:50:00.000Z</time>
      </trkpt>
      <trkpt lat="50.49636" lon="5.23616">
        <ele>103.80000305176</ele>
        <time>2021-07-11T08:50:05.000Z</time>
      </trkpt>
      <trkpt lat="50.49653" lon="5.23666">
        <ele>103.59999847412</ele>
        <time>2021-07-11T08:50:09.000Z</time>
      </trkpt>
      <trkpt lat="50.49655" lon="5.2368">
        <ele>103.59999847412</ele>
        <time>2021-07-11T08:50:10.000Z</time>
      </trkpt>
      <trkpt lat="50.49661" lon="5.2374">
        <ele>103.19999694824</ele>
        <time>2021-07-11T08:50:14.000Z</time>
      </trkpt>
      <trkpt lat="50.49661" lon="5.23755">
        <ele>103</ele>
        <time>2021-07-11T08:50:15.000Z</time>
      </trkpt>
      <trkpt lat="50.49659" lon="5.23798">
        <ele>103</ele>
        <time>2021-07-11T08:50:18.000Z</time>
      </trkpt>
      <trkpt lat="50.4965" lon="5.23892">
        <ele>102.40000152588</ele>
        <time>2021-07-11T08:50:25.000Z</time>
      </trkpt>
      <trkpt lat="50.49649" lon="5.23947">
        <ele>101.80000305176</ele>
        <time>2021-07-11T08:50:29.000Z</time>
      </trkpt>
      <trkpt lat="50.49651" lon="5.23961">
        <ele>102</ele>
        <time>2021-07-11T08:50:30.000Z</time>
      </trkpt>
      <trkpt lat="50.49667" lon="5.24042">
        <ele>101.59999847412</ele>
        <time>2021-07-11T08:50:36.000Z</time>
      </trkpt>
      <trkpt lat="50.4967" lon="5.24055">
        <ele>101.80000305176</ele>
        <time>2021-07-11T08:50:37.000Z</time>
      </trkpt>
      <trkpt lat="50.49687" lon="5.24108">
        <ele>101.80000305176</ele>
        <time>2021-07-11T08:50:41.000Z</time>
      </trkpt>
      <trkpt lat="50.49707" lon="5.2414">
        <ele>101.59999847412</ele>
        <time>2021-07-11T08:50:44.000Z</time>
      </trkpt>
      <trkpt lat="50.49715" lon="5.24149">
        <ele>101.40000152588</ele>
        <time>2021-07-11T08:50:45.000Z</time>
      </trkpt>
      <trkpt lat="50.49749" lon="5.24178">
        <ele>100.19999694824</ele>
        <time>2021-07-11T08:50:49.000Z</time>
      </trkpt>
      <trkpt lat="50.49759" lon="5.24183">
        <ele>99.800003051758</ele>
        <time>2021-07-11T08:50:50.000Z</time>
      </trkpt>
      <trkpt lat="50.49789" lon="5.24188">
        <ele>98.800003051758</ele>
        <time>2021-07-11T08:50:53.000Z</time>
      </trkpt>
      <trkpt lat="50.49799" lon="5.24187">
        <ele>98.400001525879</ele>
        <time>2021-07-11T08:50:54.000Z</time>
      </trkpt>
      <trkpt lat="50.49809" lon="5.24186">
        <ele>98</ele>
        <time>2021-07-11T08:50:55.000Z</time>
      </trkpt>
      <trkpt lat="50.49828" lon="5.24174">
        <ele>97.800003051758</ele>
        <time>2021-07-11T08:50:57.000Z</time>
      </trkpt>
      <trkpt lat="50.49861" lon="5.2414">
        <ele>96.599998474121</ele>
        <time>2021-07-11T08:51:01.000Z</time>
      </trkpt>
      <trkpt lat="50.49868" lon="5.2413">
        <ele>96.599998474121</ele>
        <time>2021-07-11T08:51:02.000Z</time>
      </trkpt>
      <trkpt lat="50.49892" lon="5.24097">
        <ele>96.400001525879</ele>
        <time>2021-07-11T08:51:06.000Z</time>
      </trkpt>
      <trkpt lat="50.49935" lon="5.24046">
        <ele>97.400001525879</ele>
        <time>2021-07-11T08:51:13.000Z</time>
      </trkpt>
      <trkpt lat="50.49969" lon="5.24008">
        <ele>97.599998474121</ele>
        <time>2021-07-11T08:51:18.000Z</time>
      </trkpt>
      <trkpt lat="50.49982" lon="5.23992">
        <ele>97.599998474121</ele>
        <time>2021-07-11T08:51:20.000Z</time>
      </trkpt>
      <trkpt lat="50.50002" lon="5.23968">
        <ele>97.800003051758</ele>
        <time>2021-07-11T08:51:23.000Z</time>
      </trkpt>
      <trkpt lat="50.50029" lon="5.23936">
        <ele>97.199996948242</ele>
        <time>2021-07-11T08:51:27.000Z</time>
      </trkpt>
      <trkpt lat="50.50044" lon="5.2392">
        <ele>96.599998474121</ele>
        <time>2021-07-11T08:51:29.000Z</time>
      </trkpt>
      <trkpt lat="50.50081" lon="5.23878">
        <ele>95.599998474121</ele>
        <time>2021-07-11T08:51:34.000Z</time>
      </trkpt>
      <trkpt lat="50.50127" lon="5.23826">
        <ele>94.400001525879</ele>
        <time>2021-07-11T08:51:40.000Z</time>
      </trkpt>
      <trkpt lat="50.50134" lon="5.23817">
        <ele>94.199996948242</ele>
        <time>2021-07-11T08:51:41.000Z</time>
      </trkpt>
      <trkpt lat="50.50172" lon="5.23775">
        <ele>93.199996948242</ele>
        <time>2021-07-11T08:51:46.000Z</time>
      </trkpt>
      <trkpt lat="50.50188" lon="5.23758">
        <ele>93</ele>
        <time>2021-07-11T08:51:48.000Z</time>
      </trkpt>
      <trkpt lat="50.50223" lon="5.23729">
        <ele>92</ele>
        <time>2021-07-11T08:51:52.000Z</time>
      </trkpt>
      <trkpt lat="50.50233" lon="5.23723">
        <ele>91.599998474121</ele>
        <time>2021-07-11T08:51:53.000Z</time>
      </trkpt>
      <trkpt lat="50.50289" lon="5.23692">
        <ele>90.800003051758</ele>
        <time>2021-07-11T08:51:59.000Z</time>
      </trkpt>
      <trkpt lat="50.50298" lon="5.23686">
        <ele>90.800003051758</ele>
        <time>2021-07-11T08:52:00.000Z</time>
      </trkpt>
      <trkpt lat="50.50308" lon="5.23681">
        <ele>90.599998474121</ele>
        <time>2021-07-11T08:52:01.000Z</time>
      </trkpt>
      <trkpt lat="50.50353" lon="5.23655">
        <ele>89.599998474121</ele>
        <time>2021-07-11T08:52:06.000Z</time>
      </trkpt>
      <trkpt lat="50.50397" lon="5.2363">
        <ele>88.800003051758</ele>
        <time>2021-07-11T08:52:11.000Z</time>
      </trkpt>
      <trkpt lat="50.50431" lon="5.23609">
        <ele>88</ele>
        <time>2021-07-11T08:52:15.000Z</time>
      </trkpt>
      <trkpt lat="50.50473" lon="5.23579">
        <ele>87.199996948242</ele>
        <time>2021-07-11T08:52:20.000Z</time>
      </trkpt>
      <trkpt lat="50.5049" lon="5.23565">
        <ele>87.199996948242</ele>
        <time>2021-07-11T08:52:22.000Z</time>
      </trkpt>
      <trkpt lat="50.5054" lon="5.23524">
        <ele>86.400001525879</ele>
        <time>2021-07-11T08:52:28.000Z</time>
      </trkpt>
      <trkpt lat="50.50591" lon="5.23488">
        <ele>85.199996948242</ele>
        <time>2021-07-11T08:52:34.000Z</time>
      </trkpt>
      <trkpt lat="50.506" lon="5.23484">
        <ele>85</ele>
        <time>2021-07-11T08:52:35.000Z</time>
      </trkpt>
      <trkpt lat="50.50637" lon="5.23478">
        <ele>84.599998474121</ele>
        <time>2021-07-11T08:52:39.000Z</time>
      </trkpt>
      <trkpt lat="50.50646" lon="5.23477">
        <ele>84.400001525879</ele>
        <time>2021-07-11T08:52:40.000Z</time>
      </trkpt>
      <trkpt lat="50.50689" lon="5.23466">
        <ele>84</ele>
        <time>2021-07-11T08:52:45.000Z</time>
      </trkpt>
      <trkpt lat="50.50738" lon="5.23441">
        <ele>83.800003051758</ele>
        <time>2021-07-11T08:52:51.000Z</time>
      </trkpt>
      <trkpt lat="50.50763" lon="5.23429">
        <ele>83.800003051758</ele>
        <time>2021-07-11T08:52:54.000Z</time>
      </trkpt>
      <trkpt lat="50.50813" lon="5.23406">
        <ele>84.199996948242</ele>
        <time>2021-07-11T08:53:00.000Z</time>
      </trkpt>
      <trkpt lat="50.50821" lon="5.23405">
        <ele>84.199996948242</ele>
        <time>2021-07-11T08:53:01.000Z</time>
      </trkpt>
      <trkpt lat="50.5083" lon="5.23406">
        <ele>84</ele>
        <time>2021-07-11T08:53:02.000Z</time>
      </trkpt>
      <trkpt lat="50.50838" lon="5.23409">
        <ele>84.199996948242</ele>
        <time>2021-07-11T08:53:03.000Z</time>
      </trkpt>
      <trkpt lat="50.50846" lon="5.23414">
        <ele>84.199996948242</ele>
        <time>2021-07-11T08:53:04.000Z</time>
      </trkpt>
      <trkpt lat="50.50888" lon="5.23449">
        <ele>84.800003051758</ele>
        <time>2021-07-11T08:53:10.000Z</time>
      </trkpt>
      <trkpt lat="50.50921" lon="5.23487">
        <ele>85.599998474121</ele>
        <time>2021-07-11T08:53:15.000Z</time>
      </trkpt>
      <trkpt lat="50.50932" lon="5.2351">
        <ele>85.599998474121</ele>
        <time>2021-07-11T08:53:17.000Z</time>
      </trkpt>
      <trkpt lat="50.5094" lon="5.23536">
        <ele>85.599998474121</ele>
        <time>2021-07-11T08:53:19.000Z</time>
      </trkpt>
      <trkpt lat="50.50945" lon="5.23566">
        <ele>85.599998474121</ele>
        <time>2021-07-11T08:53:21.000Z</time>
      </trkpt>
      <trkpt lat="50.50945" lon="5.23597">
        <ele>85.199996948242</ele>
        <time>2021-07-11T08:53:23.000Z</time>
      </trkpt>
      <trkpt lat="50.50942" lon="5.23627">
        <ele>84.800003051758</ele>
        <time>2021-07-11T08:53:25.000Z</time>
      </trkpt>
      <trkpt lat="50.50938" lon="5.23658">
        <ele>84.199996948242</ele>
        <time>2021-07-11T08:53:27.000Z</time>
      </trkpt>
      <trkpt lat="50.50932" lon="5.23706">
        <ele>83</ele>
        <time>2021-07-11T08:53:30.000Z</time>
      </trkpt>
      <trkpt lat="50.50924" lon="5.23768">
        <ele>81.599998474121</ele>
        <time>2021-07-11T08:53:34.000Z</time>
      </trkpt>
      <trkpt lat="50.50922" lon="5.23783">
        <ele>81.400001525879</ele>
        <time>2021-07-11T08:53:35.000Z</time>
      </trkpt>
      <trkpt lat="50.50918" lon="5.23829">
        <ele>80.400001525879</ele>
        <time>2021-07-11T08:53:38.000Z</time>
      </trkpt>
      <trkpt lat="50.50915" lon="5.23887">
        <ele>79.400001525879</ele>
        <time>2021-07-11T08:53:42.000Z</time>
      </trkpt>
      <trkpt lat="50.50916" lon="5.23923">
        <ele>78.599998474121</ele>
        <time>2021-07-11T08:53:45.000Z</time>
      </trkpt>
      <trkpt lat="50.50919" lon="5.23933">
        <ele>78.400001525879</ele>
        <time>2021-07-11T08:53:46.000Z</time>
      </trkpt>
      <trkpt lat="50.50924" lon="5.23941">
        <ele>78.199996948242</ele>
        <time>2021-07-11T08:53:47.000Z</time>
      </trkpt>
      <trkpt lat="50.50939" lon="5.2395">
        <ele>77.800003051758</ele>
        <time>2021-07-11T08:53:49.000Z</time>
      </trkpt>
      <trkpt lat="50.50955" lon="5.23951">
        <ele>77.800003051758</ele>
        <time>2021-07-11T08:53:51.000Z</time>
      </trkpt>
      <trkpt lat="50.50964" lon="5.2395">
        <ele>77.800003051758</ele>
        <time>2021-07-11T08:53:52.000Z</time>
      </trkpt>
      <trkpt lat="50.51015" lon="5.23937">
        <ele>77.400001525879</ele>
        <time>2021-07-11T08:53:58.000Z</time>
      </trkpt>
      <trkpt lat="50.51059" lon="5.23927">
        <ele>76.599998474121</ele>
        <time>2021-07-11T08:54:03.000Z</time>
      </trkpt>
      <trkpt lat="50.51087" lon="5.23928">
        <ele>76.400001525879</ele>
        <time>2021-07-11T08:54:06.000Z</time>
      </trkpt>
      <trkpt lat="50.51105" lon="5.23931">
        <ele>76.199996948242</ele>
        <time>2021-07-11T08:54:08.000Z</time>
      </trkpt>
      <trkpt lat="50.51159" lon="5.23942">
        <ele>75.800003051758</ele>
        <time>2021-07-11T08:54:14.000Z</time>
      </trkpt>
      <trkpt lat="50.51177" lon="5.23942">
        <ele>75.800003051758</ele>
        <time>2021-07-11T08:54:16.000Z</time>
      </trkpt>
      <trkpt lat="50.51195" lon="5.2394">
        <ele>75.400001525879</ele>
        <time>2021-07-11T08:54:18.000Z</time>
      </trkpt>
      <trkpt lat="50.51235" lon="5.23934">
        <ele>75</ele>
        <time>2021-07-11T08:54:23.000Z</time>
      </trkpt>
      <trkpt lat="50.51272" lon="5.23924">
        <ele>74.599998474121</ele>
        <time>2021-07-11T08:54:29.000Z</time>
      </trkpt>
      <trkpt lat="50.51289" lon="5.23918">
        <ele>74.400001525879</ele>
        <time>2021-07-11T08:54:33.000Z</time>
      </trkpt>
      <trkpt lat="50.51304" lon="5.23914">
        <ele>74.199996948242</ele>
        <time>2021-07-11T08:54:39.000Z</time>
      </trkpt>
      <trkpt lat="50.51326" lon="5.2391">
        <ele>74</ele>
        <time>2021-07-11T08:54:44.000Z</time>
      </trkpt>
      <trkpt lat="50.51361" lon="5.239">
        <ele>73.599998474121</ele>
        <time>2021-07-11T08:54:49.000Z</time>
      </trkpt>
      <trkpt lat="50.51394" lon="5.23887">
        <ele>73.199996948242</ele>
        <time>2021-07-11T08:54:54.000Z</time>
      </trkpt>
      <trkpt lat="50.51405" lon="5.23883">
        <ele>73</ele>
        <time>2021-07-11T08:54:56.000Z</time>
      </trkpt>
      <trkpt lat="50.51452" lon="5.2388">
        <ele>72.400001525879</ele>
        <time>2021-07-11T08:55:03.000Z</time>
      </trkpt>
      <trkpt lat="50.51496" lon="5.23885">
        <ele>72</ele>
        <time>2021-07-11T08:55:09.000Z</time>
      </trkpt>
      <trkpt lat="50.51518" lon="5.23888">
        <ele>71.800003051758</ele>
        <time>2021-07-11T08:55:12.000Z</time>
      </trkpt>
      <trkpt lat="50.5154" lon="5.23895">
        <ele>71.599998474121</ele>
        <time>2021-07-11T08:55:15.000Z</time>
      </trkpt>
      <trkpt lat="50.51554" lon="5.23905">
        <ele>71.599998474121</ele>
        <time>2021-07-11T08:55:17.000Z</time>
      </trkpt>
      <trkpt lat="50.51596" lon="5.23941">
        <ele>71</ele>
        <time>2021-07-11T08:55:23.000Z</time>
      </trkpt>
      <trkpt lat="50.51602" lon="5.23947">
        <ele>71</ele>
        <time>2021-07-11T08:55:24.000Z</time>
      </trkpt>
      <trkpt lat="50.5162" lon="5.23967">
        <ele>70.800003051758</ele>
        <time>2021-07-11T08:55:27.000Z</time>
      </trkpt>
      <trkpt lat="50.51631" lon="5.23984">
        <ele>70.599998474121</ele>
        <time>2021-07-11T08:55:29.000Z</time>
      </trkpt>
      <trkpt lat="50.51649" lon="5.24017">
        <ele>70.199996948242</ele>
        <time>2021-07-11T08:55:33.000Z</time>
      </trkpt>
      <trkpt lat="50.51656" lon="5.24033">
        <ele>70.199996948242</ele>
        <time>2021-07-11T08:55:35.000Z</time>
      </trkpt>
      <trkpt lat="50.51668" lon="5.24038">
        <ele>69.800003051758</ele>
        <time>2021-07-11T08:55:37.000Z</time>
      </trkpt>
      <trkpt lat="50.5168" lon="5.2403">
        <ele>69.800003051758</ele>
        <time>2021-07-11T08:55:39.000Z</time>
      </trkpt>
      <trkpt lat="50.51687" lon="5.2403">
        <ele>69.599998474121</ele>
        <time>2021-07-11T08:55:40.000Z</time>
      </trkpt>
      <trkpt lat="50.51693" lon="5.24031">
        <ele>69.599998474121</ele>
        <time>2021-07-11T08:55:41.000Z</time>
      </trkpt>
      <trkpt lat="50.517" lon="5.24032">
        <ele>69.599998474121</ele>
        <time>2021-07-11T08:55:42.000Z</time>
      </trkpt>
      <trkpt lat="50.51713" lon="5.24033">
        <ele>69.599998474121</ele>
        <time>2021-07-11T08:55:44.000Z</time>
      </trkpt>
      <trkpt lat="50.51754" lon="5.24022">
        <ele>69.199996948242</ele>
        <time>2021-07-11T08:55:50.000Z</time>
      </trkpt>
      <trkpt lat="50.518" lon="5.23997">
        <ele>68.800003051758</ele>
        <time>2021-07-11T08:55:57.000Z</time>
      </trkpt>
      <trkpt lat="50.51809" lon="5.23991">
        <ele>72</ele>
      </trkpt>
      <trkpt lat="50.51827" lon="5.2407">
        <ele>72.5</ele>
        <time>2021-07-11T08:55:59.000Z</time>
        <extensions>
          <visugpx:TrkExtension xmlns:visugpx="https://www.visugpx.com/editgpx/">
            <visugpx:etape>Le Littéraire à Huy.</visugpx:etape>
            </visugpx:TrkExtension>
        </extensions>
      </trkpt>
      <trkpt lat="50.51814" lon="5.23988">
        <ele>72</ele>
      </trkpt>
      <trkpt lat="50.51856" lon="5.23968">
        <ele>68.400001525879</ele>
        <time>2021-07-11T08:56:06.000Z</time>
      </trkpt>
      <trkpt lat="50.51881" lon="5.23959">
        <ele>68.199996948242</ele>
        <time>2021-07-11T08:56:10.000Z</time>
      </trkpt>
      <trkpt lat="50.51892" lon="5.23959">
        <ele>68</ele>
        <time>2021-07-11T08:56:12.000Z</time>
      </trkpt>
      <trkpt lat="50.51903" lon="5.23956">
        <ele>68.199996948242</ele>
        <time>2021-07-11T08:56:14.000Z</time>
      </trkpt>
      <trkpt lat="50.51913" lon="5.23951">
        <ele>68</ele>
        <time>2021-07-11T08:56:16.000Z</time>
      </trkpt>
      <trkpt lat="50.51924" lon="5.23948">
        <ele>68</ele>
        <time>2021-07-11T08:56:19.000Z</time>
      </trkpt>
      <trkpt lat="50.51929" lon="5.23943">
        <ele>69</ele>
        <time>2021-07-11T09:32:18.000Z</time>
      </trkpt>
      <trkpt lat="50.5193" lon="5.23941">
        <ele>69</ele>
        <time>2021-07-11T09:32:19.000Z</time>
      </trkpt>
      <trkpt lat="50.51939" lon="5.23926">
        <ele>69</ele>
        <time>2021-07-11T09:32:25.000Z</time>
      </trkpt>
      <trkpt lat="50.51956" lon="5.23895">
        <ele>69.199996948242</ele>
        <time>2021-07-11T09:32:34.000Z</time>
      </trkpt>
      <trkpt lat="50.51965" lon="5.23869">
        <ele>70.199996948242</ele>
        <time>2021-07-11T09:32:41.000Z</time>
      </trkpt>
      <trkpt lat="50.51966" lon="5.23865">
        <ele>70.400001525879</ele>
        <time>2021-07-11T09:32:42.000Z</time>
      </trkpt>
      <trkpt lat="50.51972" lon="5.23851">
        <ele>70.400001525879</ele>
        <time>2021-07-11T09:32:46.000Z</time>
      </trkpt>
      <trkpt lat="50.51973" lon="5.23845">
        <ele>70.400001525879</ele>
        <time>2021-07-11T09:32:47.000Z</time>
      </trkpt>
      <trkpt lat="50.51974" lon="5.23833">
        <ele>70.599998474121</ele>
        <time>2021-07-11T09:32:49.000Z</time>
      </trkpt>
      <trkpt lat="50.51976" lon="5.23827">
        <ele>70.599998474121</ele>
        <time>2021-07-11T09:32:50.000Z</time>
      </trkpt>
      <trkpt lat="50.51985" lon="5.23796">
        <ele>71.400001525879</ele>
        <time>2021-07-11T09:32:55.000Z</time>
      </trkpt>
      <trkpt lat="50.51997" lon="5.23769">
        <ele>72.199996948242</ele>
        <time>2021-07-11T09:32:59.000Z</time>
      </trkpt>
      <trkpt lat="50.52009" lon="5.23743">
        <ele>72.800003051758</ele>
        <time>2021-07-11T09:33:03.000Z</time>
      </trkpt>
      <trkpt lat="50.52026" lon="5.23703">
        <ele>73.800003051758</ele>
        <time>2021-07-11T09:33:08.000Z</time>
      </trkpt>
      <trkpt lat="50.5203" lon="5.23694">
        <ele>73.800003051758</ele>
        <time>2021-07-11T09:33:09.000Z</time>
      </trkpt>
      <trkpt lat="50.52042" lon="5.23667">
        <ele>74</ele>
        <time>2021-07-11T09:33:12.000Z</time>
      </trkpt>
      <trkpt lat="50.52046" lon="5.23657">
        <ele>73.800003051758</ele>
        <time>2021-07-11T09:33:13.000Z</time>
      </trkpt>
      <trkpt lat="50.52057" lon="5.2363">
        <ele>74</ele>
        <time>2021-07-11T09:33:16.000Z</time>
      </trkpt>
      <trkpt lat="50.52082" lon="5.23574">
        <ele>72.400001525879</ele>
        <time>2021-07-11T09:33:23.000Z</time>
      </trkpt>
      <trkpt lat="50.52099" lon="5.23531">
        <ele>72</ele>
        <time>2021-07-11T09:33:29.000Z</time>
      </trkpt>
      <trkpt lat="50.52105" lon="5.23521">
        <ele>72</ele>
        <time>2021-07-11T09:33:32.000Z</time>
      </trkpt>
      <trkpt lat="50.52106" lon="5.2352">
        <ele>72</ele>
        <time>2021-07-11T09:33:34.000Z</time>
      </trkpt>
      <trkpt lat="50.52109" lon="5.23514">
        <ele>72.800003051758</ele>
        <time>2021-07-11T09:33:51.000Z</time>
      </trkpt>
      <trkpt lat="50.5211" lon="5.23511">
        <ele>72.800003051758</ele>
        <time>2021-07-11T09:33:52.000Z</time>
      </trkpt>
      <trkpt lat="50.52116" lon="5.23498">
        <ele>72.599998474121</ele>
        <time>2021-07-11T09:33:55.000Z</time>
      </trkpt>
      <trkpt lat="50.52123" lon="5.23482">
        <ele>72.599998474121</ele>
        <time>2021-07-11T09:33:58.000Z</time>
      </trkpt>
      <trkpt lat="50.52128" lon="5.23471">
        <ele>72.599998474121</ele>
        <time>2021-07-11T09:34:00.000Z</time>
      </trkpt>
      <trkpt lat="50.52134" lon="5.2346">
        <ele>72.599998474121</ele>
        <time>2021-07-11T09:34:02.000Z</time>
      </trkpt>
      <trkpt lat="50.52138" lon="5.23457">
        <ele>72.599998474121</ele>
        <time>2021-07-11T09:34:03.000Z</time>
      </trkpt>
      <trkpt lat="50.52152" lon="5.23443">
        <ele>72.800003051758</ele>
        <time>2021-07-11T09:34:07.000Z</time>
      </trkpt>
      <trkpt lat="50.52162" lon="5.23434">
        <ele>73.199996948242</ele>
        <time>2021-07-11T09:34:10.000Z</time>
      </trkpt>
      <trkpt lat="50.52168" lon="5.23428">
        <ele>73.599998474121</ele>
        <time>2021-07-11T09:34:12.000Z</time>
      </trkpt>
      <trkpt lat="50.52181" lon="5.23416">
        <ele>74.400001525879</ele>
        <time>2021-07-11T09:34:16.000Z</time>
      </trkpt>
      <trkpt lat="50.52184" lon="5.23413">
        <ele>74.800003051758</ele>
        <time>2021-07-11T09:34:17.000Z</time>
      </trkpt>
      <trkpt lat="50.52194" lon="5.23404">
        <ele>75.199996948242</ele>
        <time>2021-07-11T09:34:20.000Z</time>
      </trkpt>
      <trkpt lat="50.52211" lon="5.2339">
        <ele>76.599998474121</ele>
        <time>2021-07-11T09:34:25.000Z</time>
      </trkpt>
      <trkpt lat="50.5223" lon="5.23374">
        <ele>78.199996948242</ele>
        <time>2021-07-11T09:34:31.000Z</time>
      </trkpt>
      <trkpt lat="50.52236" lon="5.2337">
        <ele>78.599998474121</ele>
        <time>2021-07-11T09:34:33.000Z</time>
      </trkpt>
      <trkpt lat="50.52249" lon="5.23361">
        <ele>79.400001525879</ele>
        <time>2021-07-11T09:34:37.000Z</time>
      </trkpt>
      <trkpt lat="50.52256" lon="5.23356">
        <ele>79.800003051758</ele>
        <time>2021-07-11T09:34:39.000Z</time>
      </trkpt>
      <trkpt lat="50.5227" lon="5.23341">
        <ele>80.599998474121</ele>
        <time>2021-07-11T09:34:44.000Z</time>
      </trkpt>
      <trkpt lat="50.52276" lon="5.23336">
        <ele>80.800003051758</ele>
        <time>2021-07-11T09:34:46.000Z</time>
      </trkpt>
      <trkpt lat="50.52294" lon="5.23325">
        <ele>82</ele>
        <time>2021-07-11T09:34:52.000Z</time>
      </trkpt>
      <trkpt lat="50.52303" lon="5.23317">
        <ele>82.599998474121</ele>
        <time>2021-07-11T09:34:55.000Z</time>
      </trkpt>
      <trkpt lat="50.52321" lon="5.23304">
        <ele>83.199996948242</ele>
        <time>2021-07-11T09:35:00.000Z</time>
      </trkpt>
      <trkpt lat="50.52335" lon="5.23292">
        <ele>83.599998474121</ele>
        <time>2021-07-11T09:35:04.000Z</time>
      </trkpt>
      <trkpt lat="50.52353" lon="5.23278">
        <ele>84.199996948242</ele>
        <time>2021-07-11T09:35:09.000Z</time>
      </trkpt>
      <trkpt lat="50.52356" lon="5.23275">
        <ele>84.400001525879</ele>
        <time>2021-07-11T09:35:10.000Z</time>
      </trkpt>
      <trkpt lat="50.52378" lon="5.23253">
        <ele>85</ele>
        <time>2021-07-11T09:35:16.000Z</time>
      </trkpt>
      <trkpt lat="50.52397" lon="5.23233">
        <ele>86.599998474121</ele>
        <time>2021-07-11T09:35:22.000Z</time>
      </trkpt>
      <trkpt lat="50.52416" lon="5.23213">
        <ele>87.800003051758</ele>
        <time>2021-07-11T09:35:28.000Z</time>
      </trkpt>
      <trkpt lat="50.52422" lon="5.23206">
        <ele>88</ele>
        <time>2021-07-11T09:35:30.000Z</time>
      </trkpt>
      <trkpt lat="50.52431" lon="5.23193">
        <ele>88.599998474121</ele>
        <time>2021-07-11T09:35:33.000Z</time>
      </trkpt>
      <trkpt lat="50.52434" lon="5.23188">
        <ele>88.800003051758</ele>
        <time>2021-07-11T09:35:34.000Z</time>
      </trkpt>
      <trkpt lat="50.52438" lon="5.23179">
        <ele>89.199996948242</ele>
        <time>2021-07-11T09:35:36.000Z</time>
      </trkpt>
      <trkpt lat="50.5245" lon="5.23153">
        <ele>90.199996948242</ele>
        <time>2021-07-11T09:35:42.000Z</time>
      </trkpt>
      <trkpt lat="50.52455" lon="5.23146">
        <ele>90.599998474121</ele>
        <time>2021-07-11T09:35:44.000Z</time>
      </trkpt>
      <trkpt lat="50.52463" lon="5.23134">
        <ele>91.199996948242</ele>
        <time>2021-07-11T09:35:47.000Z</time>
      </trkpt>
      <trkpt lat="50.52476" lon="5.23115">
        <ele>91.800003051758</ele>
        <time>2021-07-11T09:35:52.000Z</time>
      </trkpt>
      <trkpt lat="50.5249" lon="5.23101">
        <ele>93.199996948242</ele>
        <time>2021-07-11T09:35:57.000Z</time>
      </trkpt>
      <trkpt lat="50.52496" lon="5.23095">
        <ele>93.199996948242</ele>
        <time>2021-07-11T09:35:59.000Z</time>
      </trkpt>
      <trkpt lat="50.52504" lon="5.23085">
        <ele>93.599998474121</ele>
        <time>2021-07-11T09:36:02.000Z</time>
      </trkpt>
      <trkpt lat="50.52525" lon="5.23053">
        <ele>94.599998474121</ele>
        <time>2021-07-11T09:36:10.000Z</time>
      </trkpt>
      <trkpt lat="50.52528" lon="5.23049">
        <ele>94.599998474121</ele>
        <time>2021-07-11T09:36:11.000Z</time>
      </trkpt>
      <trkpt lat="50.52542" lon="5.23036">
        <ele>94.599998474121</ele>
        <time>2021-07-11T09:36:14.000Z</time>
      </trkpt>
      <trkpt lat="50.52572" lon="5.23003">
        <ele>94.199996948242</ele>
        <time>2021-07-11T09:36:20.000Z</time>
      </trkpt>
      <trkpt lat="50.526" lon="5.22976">
        <ele>93.400001525879</ele>
        <time>2021-07-11T09:36:27.000Z</time>
      </trkpt>
      <trkpt lat="50.52607" lon="5.22969">
        <ele>93.599998474121</ele>
        <time>2021-07-11T09:36:29.000Z</time>
      </trkpt>
      <trkpt lat="50.52621" lon="5.2296">
        <ele>93.599998474121</ele>
        <time>2021-07-11T09:36:33.000Z</time>
      </trkpt>
      <trkpt lat="50.52625" lon="5.22958">
        <ele>93.599998474121</ele>
        <time>2021-07-11T09:36:34.000Z</time>
      </trkpt>
      <trkpt lat="50.52645" lon="5.2295">
        <ele>94.800003051758</ele>
        <time>2021-07-11T09:36:40.000Z</time>
      </trkpt>
      <trkpt lat="50.52659" lon="5.22944">
        <ele>96</ele>
        <time>2021-07-11T09:36:45.000Z</time>
      </trkpt>
      <trkpt lat="50.52664" lon="5.22942">
        <ele>96.400001525879</ele>
        <time>2021-07-11T09:36:47.000Z</time>
      </trkpt>
      <trkpt lat="50.52669" lon="5.22942">
        <ele>96.800003051758</ele>
        <time>2021-07-11T09:36:49.000Z</time>
      </trkpt>
      <trkpt lat="50.52679" lon="5.22941">
        <ele>97.800003051758</ele>
        <time>2021-07-11T09:36:55.000Z</time>
      </trkpt>
      <trkpt lat="50.52684" lon="5.22939">
        <ele>98</ele>
        <time>2021-07-11T09:36:57.000Z</time>
      </trkpt>
      <trkpt lat="50.52694" lon="5.22936">
        <ele>98.199996948242</ele>
        <time>2021-07-11T09:37:00.000Z</time>
      </trkpt>
      <trkpt lat="50.52712" lon="5.22935">
        <ele>98.800003051758</ele>
        <time>2021-07-11T09:37:05.000Z</time>
      </trkpt>
      <trkpt lat="50.5272" lon="5.22934">
        <ele>99.199996948242</ele>
        <time>2021-07-11T09:37:07.000Z</time>
      </trkpt>
      <trkpt lat="50.52724" lon="5.22935">
        <ele>99.400001525879</ele>
        <time>2021-07-11T09:37:08.000Z</time>
      </trkpt>
      <trkpt lat="50.52729" lon="5.22937">
        <ele>99.599998474121</ele>
        <time>2021-07-11T09:37:09.000Z</time>
      </trkpt>
      <trkpt lat="50.52738" lon="5.22941">
        <ele>100</ele>
        <time>2021-07-11T09:37:11.000Z</time>
      </trkpt>
      <trkpt lat="50.52749" lon="5.22947">
        <ele>100.40000152588</ele>
        <time>2021-07-11T09:37:14.000Z</time>
      </trkpt>
      <trkpt lat="50.52756" lon="5.22953">
        <ele>100.59999847412</ele>
        <time>2021-07-11T09:37:16.000Z</time>
      </trkpt>
      <trkpt lat="50.52765" lon="5.22965">
        <ele>101.59999847412</ele>
        <time>2021-07-11T09:37:19.000Z</time>
      </trkpt>
      <trkpt lat="50.52773" lon="5.22979">
        <ele>102.40000152588</ele>
        <time>2021-07-11T09:37:22.000Z</time>
      </trkpt>
      <trkpt lat="50.52777" lon="5.22988">
        <ele>102.80000305176</ele>
        <time>2021-07-11T09:37:24.000Z</time>
      </trkpt>
      <trkpt lat="50.52784" lon="5.23008">
        <ele>103.59999847412</ele>
        <time>2021-07-11T09:37:28.000Z</time>
      </trkpt>
      <trkpt lat="50.52788" lon="5.23018">
        <ele>104</ele>
        <time>2021-07-11T09:37:30.000Z</time>
      </trkpt>
      <trkpt lat="50.52791" lon="5.23029">
        <ele>104.40000152588</ele>
        <time>2021-07-11T09:37:32.000Z</time>
      </trkpt>
      <trkpt lat="50.52799" lon="5.2305">
        <ele>105.40000152588</ele>
        <time>2021-07-11T09:37:36.000Z</time>
      </trkpt>
      <trkpt lat="50.52803" lon="5.23062">
        <ele>105.80000305176</ele>
        <time>2021-07-11T09:37:38.000Z</time>
      </trkpt>
      <trkpt lat="50.52809" lon="5.23078">
        <ele>106.80000305176</ele>
        <time>2021-07-11T09:37:41.000Z</time>
      </trkpt>
      <trkpt lat="50.52811" lon="5.23084">
        <ele>106.80000305176</ele>
        <time>2021-07-11T09:37:42.000Z</time>
      </trkpt>
      <trkpt lat="50.52816" lon="5.23101">
        <ele>107.80000305176</ele>
        <time>2021-07-11T09:37:45.000Z</time>
      </trkpt>
      <trkpt lat="50.52818" lon="5.23107">
        <ele>108</ele>
        <time>2021-07-11T09:37:46.000Z</time>
      </trkpt>
      <trkpt lat="50.52819" lon="5.23113">
        <ele>108</ele>
        <time>2021-07-11T09:37:47.000Z</time>
      </trkpt>
      <trkpt lat="50.52826" lon="5.23137">
        <ele>109</ele>
        <time>2021-07-11T09:37:51.000Z</time>
      </trkpt>
      <trkpt lat="50.52828" lon="5.23143">
        <ele>109.40000152588</ele>
        <time>2021-07-11T09:37:52.000Z</time>
      </trkpt>
      <trkpt lat="50.52832" lon="5.23156">
        <ele>109.59999847412</ele>
        <time>2021-07-11T09:37:54.000Z</time>
      </trkpt>
      <trkpt lat="50.52837" lon="5.23168">
        <ele>110.19999694824</ele>
        <time>2021-07-11T09:37:56.000Z</time>
      </trkpt>
      <trkpt lat="50.5284" lon="5.23174">
        <ele>110.40000152588</ele>
        <time>2021-07-11T09:37:57.000Z</time>
      </trkpt>
      <trkpt lat="50.52851" lon="5.232">
        <ele>111.40000152588</ele>
        <time>2021-07-11T09:38:02.000Z</time>
      </trkpt>
      <trkpt lat="50.52863" lon="5.23227">
        <ele>112.59999847412</ele>
        <time>2021-07-11T09:38:07.000Z</time>
      </trkpt>
      <trkpt lat="50.52866" lon="5.23232">
        <ele>113</ele>
        <time>2021-07-11T09:38:08.000Z</time>
      </trkpt>
      <trkpt lat="50.5288" lon="5.23261">
        <ele>114</ele>
        <time>2021-07-11T09:38:14.000Z</time>
      </trkpt>
      <trkpt lat="50.52892" lon="5.2329">
        <ele>115.19999694824</ele>
        <time>2021-07-11T09:38:20.000Z</time>
      </trkpt>
      <trkpt lat="50.52902" lon="5.23314">
        <ele>116.19999694824</ele>
        <time>2021-07-11T09:38:25.000Z</time>
      </trkpt>
      <trkpt lat="50.5291" lon="5.23331">
        <ele>117</ele>
        <time>2021-07-11T09:38:28.000Z</time>
      </trkpt>
      <trkpt lat="50.52915" lon="5.23343">
        <ele>117.40000152588</ele>
        <time>2021-07-11T09:38:30.000Z</time>
      </trkpt>
      <trkpt lat="50.5293" lon="5.23378">
        <ele>118.80000305176</ele>
        <time>2021-07-11T09:38:36.000Z</time>
      </trkpt>
      <trkpt lat="50.52933" lon="5.23384">
        <ele>118.80000305176</ele>
        <time>2021-07-11T09:38:37.000Z</time>
      </trkpt>
      <trkpt lat="50.52949" lon="5.23417">
        <ele>120</ele>
        <time>2021-07-11T09:38:43.000Z</time>
      </trkpt>
      <trkpt lat="50.52951" lon="5.23423">
        <ele>120.19999694824</ele>
        <time>2021-07-11T09:38:44.000Z</time>
      </trkpt>
      <trkpt lat="50.52968" lon="5.2346">
        <ele>121</ele>
        <time>2021-07-11T09:38:50.000Z</time>
      </trkpt>
      <trkpt lat="50.52972" lon="5.23466">
        <ele>121.19999694824</ele>
        <time>2021-07-11T09:38:51.000Z</time>
      </trkpt>
      <trkpt lat="50.52988" lon="5.23503">
        <ele>122.40000152588</ele>
        <time>2021-07-11T09:38:57.000Z</time>
      </trkpt>
      <trkpt lat="50.52992" lon="5.23509">
        <ele>122.40000152588</ele>
        <time>2021-07-11T09:38:58.000Z</time>
      </trkpt>
      <trkpt lat="50.52997" lon="5.2352">
        <ele>122.59999847412</ele>
        <time>2021-07-11T09:39:00.000Z</time>
      </trkpt>
      <trkpt lat="50.53005" lon="5.23538">
        <ele>123</ele>
        <time>2021-07-11T09:39:03.000Z</time>
      </trkpt>
      <trkpt lat="50.53021" lon="5.23574">
        <ele>124</ele>
        <time>2021-07-11T09:39:09.000Z</time>
      </trkpt>
      <trkpt lat="50.53023" lon="5.2358">
        <ele>124.19999694824</ele>
        <time>2021-07-11T09:39:10.000Z</time>
      </trkpt>
      <trkpt lat="50.53043" lon="5.23626">
        <ele>125.80000305176</ele>
        <time>2021-07-11T09:39:17.000Z</time>
      </trkpt>
      <trkpt lat="50.53061" lon="5.23674">
        <ele>126.59999847412</ele>
        <time>2021-07-11T09:39:24.000Z</time>
      </trkpt>
      <trkpt lat="50.53064" lon="5.2368">
        <ele>126.80000305176</ele>
        <time>2021-07-11T09:39:25.000Z</time>
      </trkpt>
      <trkpt lat="50.53089" lon="5.23733">
        <ele>128</ele>
        <time>2021-07-11T09:39:33.000Z</time>
      </trkpt>
      <trkpt lat="50.53111" lon="5.23787">
        <ele>129.19999694824</ele>
        <time>2021-07-11T09:39:41.000Z</time>
      </trkpt>
      <trkpt lat="50.53131" lon="5.23829">
        <ele>129.80000305176</ele>
        <time>2021-07-11T09:39:47.000Z</time>
      </trkpt>
      <trkpt lat="50.53137" lon="5.23842">
        <ele>130.19999694824</ele>
        <time>2021-07-11T09:39:49.000Z</time>
      </trkpt>
      <trkpt lat="50.53151" lon="5.23874">
        <ele>131.19999694824</ele>
        <time>2021-07-11T09:39:54.000Z</time>
      </trkpt>
      <trkpt lat="50.53163" lon="5.23899">
        <ele>131.60000610352</ele>
        <time>2021-07-11T09:39:58.000Z</time>
      </trkpt>
      <trkpt lat="50.53166" lon="5.23906">
        <ele>131.80000305176</ele>
        <time>2021-07-11T09:39:59.000Z</time>
      </trkpt>
      <trkpt lat="50.53188" lon="5.23952">
        <ele>133.19999694824</ele>
        <time>2021-07-11T09:40:06.000Z</time>
      </trkpt>
      <trkpt lat="50.53191" lon="5.23958">
        <ele>133.39999389648</ele>
        <time>2021-07-11T09:40:07.000Z</time>
      </trkpt>
      <trkpt lat="50.53211" lon="5.23982">
        <ele>134.19999694824</ele>
        <time>2021-07-11T09:40:12.000Z</time>
      </trkpt>
      <trkpt lat="50.53216" lon="5.23984">
        <ele>134.60000610352</ele>
        <time>2021-07-11T09:40:13.000Z</time>
      </trkpt>
      <trkpt lat="50.53221" lon="5.23985">
        <ele>134.60000610352</ele>
        <time>2021-07-11T09:40:14.000Z</time>
      </trkpt>
      <trkpt lat="50.53241" lon="5.23984">
        <ele>135.60000610352</ele>
        <time>2021-07-11T09:40:18.000Z</time>
      </trkpt>
      <trkpt lat="50.53256" lon="5.23979">
        <ele>136.19999694824</ele>
        <time>2021-07-11T09:40:21.000Z</time>
      </trkpt>
      <trkpt lat="50.53276" lon="5.23969">
        <ele>136.60000610352</ele>
        <time>2021-07-11T09:40:25.000Z</time>
      </trkpt>
      <trkpt lat="50.53281" lon="5.23968">
        <ele>136.60000610352</ele>
        <time>2021-07-11T09:40:26.000Z</time>
      </trkpt>
      <trkpt lat="50.53291" lon="5.23966">
        <ele>137</ele>
        <time>2021-07-11T09:40:28.000Z</time>
      </trkpt>
      <trkpt lat="50.533" lon="5.23967">
        <ele>137.19999694824</ele>
        <time>2021-07-11T09:40:30.000Z</time>
      </trkpt>
      <trkpt lat="50.53311" lon="5.23969">
        <ele>137.60000610352</ele>
        <time>2021-07-11T09:40:32.000Z</time>
      </trkpt>
      <trkpt lat="50.5332" lon="5.23974">
        <ele>137.60000610352</ele>
        <time>2021-07-11T09:40:34.000Z</time>
      </trkpt>
      <trkpt lat="50.53325" lon="5.23978">
        <ele>137.80000305176</ele>
        <time>2021-07-11T09:40:35.000Z</time>
      </trkpt>
      <trkpt lat="50.53338" lon="5.23991">
        <ele>138.60000610352</ele>
        <time>2021-07-11T09:40:38.000Z</time>
      </trkpt>
      <trkpt lat="50.53346" lon="5.24002">
        <ele>138.60000610352</ele>
        <time>2021-07-11T09:40:40.000Z</time>
      </trkpt>
      <trkpt lat="50.53369" lon="5.24046">
        <ele>140</ele>
        <time>2021-07-11T09:40:47.000Z</time>
      </trkpt>
      <trkpt lat="50.53373" lon="5.24052">
        <ele>140.19999694824</ele>
        <time>2021-07-11T09:40:48.000Z</time>
      </trkpt>
      <trkpt lat="50.53406" lon="5.24114">
        <ele>141.60000610352</ele>
        <time>2021-07-11T09:40:57.000Z</time>
      </trkpt>
      <trkpt lat="50.53421" lon="5.24143">
        <ele>142</ele>
        <time>2021-07-11T09:41:01.000Z</time>
      </trkpt>
      <trkpt lat="50.53439" lon="5.24181">
        <ele>142.39999389648</ele>
        <time>2021-07-11T09:41:06.000Z</time>
      </trkpt>
      <trkpt lat="50.53461" lon="5.24229">
        <ele>143</ele>
        <time>2021-07-11T09:41:12.000Z</time>
      </trkpt>
      <trkpt lat="50.53471" lon="5.24255">
        <ele>143</ele>
        <time>2021-07-11T09:41:15.000Z</time>
      </trkpt>
      <trkpt lat="50.53488" lon="5.24298">
        <ele>143.39999389648</ele>
        <time>2021-07-11T09:41:20.000Z</time>
      </trkpt>
      <trkpt lat="50.53516" lon="5.24377">
        <ele>144</ele>
        <time>2021-07-11T09:41:29.000Z</time>
      </trkpt>
      <trkpt lat="50.53522" lon="5.24394">
        <ele>144.19999694824</ele>
        <time>2021-07-11T09:41:31.000Z</time>
      </trkpt>
      <trkpt lat="50.53546" lon="5.24456">
        <ele>144.60000610352</ele>
        <time>2021-07-11T09:41:38.000Z</time>
      </trkpt>
      <trkpt lat="50.53575" lon="5.24534">
        <ele>144.60000610352</ele>
        <time>2021-07-11T09:41:46.000Z</time>
      </trkpt>
      <trkpt lat="50.53583" lon="5.24555">
        <ele>144.60000610352</ele>
        <time>2021-07-11T09:41:48.000Z</time>
      </trkpt>
      <trkpt lat="50.53591" lon="5.24576">
        <ele>144.60000610352</ele>
        <time>2021-07-11T09:41:50.000Z</time>
      </trkpt>
      <trkpt lat="50.53617" lon="5.24643">
        <ele>144</ele>
        <time>2021-07-11T09:41:56.000Z</time>
      </trkpt>
      <trkpt lat="50.53629" lon="5.24678">
        <ele>143.39999389648</ele>
        <time>2021-07-11T09:41:59.000Z</time>
      </trkpt>
      <trkpt lat="50.53656" lon="5.24747">
        <ele>142.80000305176</ele>
        <time>2021-07-11T09:42:05.000Z</time>
      </trkpt>
      <trkpt lat="50.53679" lon="5.24811">
        <ele>142</ele>
        <time>2021-07-11T09:42:11.000Z</time>
      </trkpt>
      <trkpt lat="50.53702" lon="5.24871">
        <ele>141.80000305176</ele>
        <time>2021-07-11T09:42:17.000Z</time>
      </trkpt>
      <trkpt lat="50.53717" lon="5.24911">
        <ele>142</ele>
        <time>2021-07-11T09:42:21.000Z</time>
      </trkpt>
      <trkpt lat="50.53731" lon="5.24949">
        <ele>142.80000305176</ele>
        <time>2021-07-11T09:42:25.000Z</time>
      </trkpt>
      <trkpt lat="50.53748" lon="5.24993">
        <ele>143.80000305176</ele>
        <time>2021-07-11T09:42:30.000Z</time>
      </trkpt>
      <trkpt lat="50.53751" lon="5.25002">
        <ele>143.80000305176</ele>
        <time>2021-07-11T09:42:31.000Z</time>
      </trkpt>
      <trkpt lat="50.53775" lon="5.25064">
        <ele>145</ele>
        <time>2021-07-11T09:42:38.000Z</time>
      </trkpt>
      <trkpt lat="50.53778" lon="5.25073">
        <ele>145</ele>
        <time>2021-07-11T09:42:39.000Z</time>
      </trkpt>
      <trkpt lat="50.53797" lon="5.25119">
        <ele>145.80000305176</ele>
        <time>2021-07-11T09:42:44.000Z</time>
      </trkpt>
      <trkpt lat="50.53801" lon="5.25127">
        <ele>146</ele>
        <time>2021-07-11T09:42:45.000Z</time>
      </trkpt>
      <trkpt lat="50.53806" lon="5.25134">
        <ele>146.39999389648</ele>
        <time>2021-07-11T09:42:46.000Z</time>
      </trkpt>
      <trkpt lat="50.53848" lon="5.25191">
        <ele>147.60000610352</ele>
        <time>2021-07-11T09:42:54.000Z</time>
      </trkpt>
      <trkpt lat="50.53853" lon="5.25197">
        <ele>147.60000610352</ele>
        <time>2021-07-11T09:42:55.000Z</time>
      </trkpt>
      <trkpt lat="50.53864" lon="5.25211">
        <ele>148</ele>
        <time>2021-07-11T09:42:57.000Z</time>
      </trkpt>
      <trkpt lat="50.53897" lon="5.25255">
        <ele>148.60000610352</ele>
        <time>2021-07-11T09:43:03.000Z</time>
      </trkpt>
      <trkpt lat="50.53918" lon="5.25284">
        <ele>149.19999694824</ele>
        <time>2021-07-11T09:43:07.000Z</time>
      </trkpt>
      <trkpt lat="50.53941" lon="5.25313">
        <ele>149.39999389648</ele>
        <time>2021-07-11T09:43:11.000Z</time>
      </trkpt>
      <trkpt lat="50.53958" lon="5.25333">
        <ele>149.60000610352</ele>
        <time>2021-07-11T09:43:14.000Z</time>
      </trkpt>
      <trkpt lat="50.53995" lon="5.25374">
        <ele>150.19999694824</ele>
        <time>2021-07-11T09:43:21.000Z</time>
      </trkpt>
      <trkpt lat="50.54" lon="5.2538">
        <ele>150</ele>
        <time>2021-07-11T09:43:22.000Z</time>
      </trkpt>
      <trkpt lat="50.54026" lon="5.25408">
        <ele>150.39999389648</ele>
        <time>2021-07-11T09:43:27.000Z</time>
      </trkpt>
      <trkpt lat="50.54035" lon="5.25418">
        <ele>150.80000305176</ele>
        <time>2021-07-11T09:43:29.000Z</time>
      </trkpt>
      <trkpt lat="50.5404" lon="5.25424">
        <ele>150.80000305176</ele>
        <time>2021-07-11T09:43:30.000Z</time>
      </trkpt>
      <trkpt lat="50.54063" lon="5.2545">
        <ele>152.60000610352</ele>
        <time>2021-07-11T09:43:35.000Z</time>
      </trkpt>
      <trkpt lat="50.54078" lon="5.25466">
        <ele>153.60000610352</ele>
        <time>2021-07-11T09:43:38.000Z</time>
      </trkpt>
      <trkpt lat="50.54092" lon="5.2548">
        <ele>154.60000610352</ele>
        <time>2021-07-11T09:43:41.000Z</time>
      </trkpt>
      <trkpt lat="50.54096" lon="5.25484">
        <ele>154.80000305176</ele>
        <time>2021-07-11T09:43:42.000Z</time>
      </trkpt>
      <trkpt lat="50.54108" lon="5.25497">
        <ele>156</ele>
        <time>2021-07-11T09:43:45.000Z</time>
      </trkpt>
      <trkpt lat="50.54129" lon="5.25519">
        <ele>157.39999389648</ele>
        <time>2021-07-11T09:43:50.000Z</time>
      </trkpt>
      <trkpt lat="50.54138" lon="5.2553">
        <ele>158</ele>
        <time>2021-07-11T09:43:52.000Z</time>
      </trkpt>
      <trkpt lat="50.54142" lon="5.25535">
        <ele>158.39999389648</ele>
        <time>2021-07-11T09:43:53.000Z</time>
      </trkpt>
      <trkpt lat="50.54151" lon="5.25545">
        <ele>159</ele>
        <time>2021-07-11T09:43:55.000Z</time>
      </trkpt>
      <trkpt lat="50.54174" lon="5.25571">
        <ele>160.19999694824</ele>
        <time>2021-07-11T09:44:00.000Z</time>
      </trkpt>
      <trkpt lat="50.54188" lon="5.25587">
        <ele>161.60000610352</ele>
        <time>2021-07-11T09:44:03.000Z</time>
      </trkpt>
      <trkpt lat="50.54234" lon="5.25637">
        <ele>162.39999389648</ele>
        <time>2021-07-11T09:44:12.000Z</time>
      </trkpt>
      <trkpt lat="50.54239" lon="5.25642">
        <ele>162.39999389648</ele>
        <time>2021-07-11T09:44:13.000Z</time>
      </trkpt>
      <trkpt lat="50.54275" lon="5.25682">
        <ele>163</ele>
        <time>2021-07-11T09:44:20.000Z</time>
      </trkpt>
      <trkpt lat="50.5431" lon="5.25723">
        <ele>163.39999389648</ele>
        <time>2021-07-11T09:44:27.000Z</time>
      </trkpt>
      <trkpt lat="50.54351" lon="5.25768">
        <ele>163.60000610352</ele>
        <time>2021-07-11T09:44:35.000Z</time>
      </trkpt>
      <trkpt lat="50.5436" lon="5.25779">
        <ele>163.80000305176</ele>
        <time>2021-07-11T09:44:37.000Z</time>
      </trkpt>
      <trkpt lat="50.5438" lon="5.25801">
        <ele>164</ele>
        <time>2021-07-11T09:44:41.000Z</time>
      </trkpt>
      <trkpt lat="50.54413" lon="5.25838">
        <ele>165.39999389648</ele>
        <time>2021-07-11T09:44:48.000Z</time>
      </trkpt>
      <trkpt lat="50.54423" lon="5.25848">
        <ele>165.80000305176</ele>
        <time>2021-07-11T09:44:50.000Z</time>
      </trkpt>
      <trkpt lat="50.54457" lon="5.25886">
        <ele>166.60000610352</ele>
        <time>2021-07-11T09:44:57.000Z</time>
      </trkpt>
      <trkpt lat="50.54477" lon="5.25908">
        <ele>167.39999389648</ele>
        <time>2021-07-11T09:45:01.000Z</time>
      </trkpt>
      <trkpt lat="50.54511" lon="5.25947">
        <ele>168.39999389648</ele>
        <time>2021-07-11T09:45:08.000Z</time>
      </trkpt>
      <trkpt lat="50.54532" lon="5.25969">
        <ele>168.80000305176</ele>
        <time>2021-07-11T09:45:12.000Z</time>
      </trkpt>
      <trkpt lat="50.54558" lon="5.25998">
        <ele>169.19999694824</ele>
        <time>2021-07-11T09:45:17.000Z</time>
      </trkpt>
      <trkpt lat="50.54589" lon="5.26032">
        <ele>170</ele>
        <time>2021-07-11T09:45:23.000Z</time>
      </trkpt>
      <trkpt lat="50.54609" lon="5.26054">
        <ele>170.39999389648</ele>
        <time>2021-07-11T09:45:27.000Z</time>
      </trkpt>
      <trkpt lat="50.54634" lon="5.26081">
        <ele>171</ele>
        <time>2021-07-11T09:45:32.000Z</time>
      </trkpt>
      <trkpt lat="50.54649" lon="5.26098">
        <ele>171.19999694824</ele>
        <time>2021-07-11T09:45:35.000Z</time>
      </trkpt>
      <trkpt lat="50.54694" lon="5.26147">
        <ele>172.80000305176</ele>
        <time>2021-07-11T09:45:44.000Z</time>
      </trkpt>
      <trkpt lat="50.54708" lon="5.26163">
        <ele>173</ele>
        <time>2021-07-11T09:45:47.000Z</time>
      </trkpt>
      <trkpt lat="50.54738" lon="5.26196">
        <ele>173.80000305176</ele>
        <time>2021-07-11T09:45:53.000Z</time>
      </trkpt>
      <trkpt lat="50.54752" lon="5.26214">
        <ele>174.19999694824</ele>
        <time>2021-07-11T09:45:56.000Z</time>
      </trkpt>
      <trkpt lat="50.54782" lon="5.26247">
        <ele>175.19999694824</ele>
        <time>2021-07-11T09:46:02.000Z</time>
      </trkpt>
      <trkpt lat="50.54808" lon="5.26274">
        <ele>175.60000610352</ele>
        <time>2021-07-11T09:46:07.000Z</time>
      </trkpt>
      <trkpt lat="50.54822" lon="5.26291">
        <ele>176</ele>
        <time>2021-07-11T09:46:10.000Z</time>
      </trkpt>
      <trkpt lat="50.54854" lon="5.26321">
        <ele>176.80000305176</ele>
        <time>2021-07-11T09:46:16.000Z</time>
      </trkpt>
      <trkpt lat="50.54888" lon="5.26337">
        <ele>177.60000610352</ele>
        <time>2021-07-11T09:46:22.000Z</time>
      </trkpt>
      <trkpt lat="50.54917" lon="5.26343">
        <ele>177.80000305176</ele>
        <time>2021-07-11T09:46:27.000Z</time>
      </trkpt>
      <trkpt lat="50.54935" lon="5.26345">
        <ele>178</ele>
        <time>2021-07-11T09:46:30.000Z</time>
      </trkpt>
      <trkpt lat="50.54971" lon="5.2635">
        <ele>178.39999389648</ele>
        <time>2021-07-11T09:46:36.000Z</time>
      </trkpt>
      <trkpt lat="50.55025" lon="5.26358">
        <ele>179.80000305176</ele>
        <time>2021-07-11T09:46:45.000Z</time>
      </trkpt>
      <trkpt lat="50.5505" lon="5.26362">
        <ele>180.39999389648</ele>
        <time>2021-07-11T09:46:49.000Z</time>
      </trkpt>
      <trkpt lat="50.55094" lon="5.26368">
        <ele>180.80000305176</ele>
        <time>2021-07-11T09:46:56.000Z</time>
      </trkpt>
      <trkpt lat="50.55151" lon="5.26376">
        <ele>182</ele>
        <time>2021-07-11T09:47:05.000Z</time>
      </trkpt>
      <trkpt lat="50.55158" lon="5.26377">
        <ele>181.80000305176</ele>
        <time>2021-07-11T09:47:06.000Z</time>
      </trkpt>
      <trkpt lat="50.55205" lon="5.26392">
        <ele>181.80000305176</ele>
        <time>2021-07-11T09:47:13.000Z</time>
      </trkpt>
      <trkpt lat="50.55258" lon="5.26423">
        <ele>181.19999694824</ele>
        <time>2021-07-11T09:47:21.000Z</time>
      </trkpt>
      <trkpt lat="50.55264" lon="5.26428">
        <ele>181.39999389648</ele>
        <time>2021-07-11T09:47:22.000Z</time>
      </trkpt>
      <trkpt lat="50.55317" lon="5.26461">
        <ele>181</ele>
        <time>2021-07-11T09:47:30.000Z</time>
      </trkpt>
      <trkpt lat="50.55336" lon="5.26472">
        <ele>181</ele>
        <time>2021-07-11T09:47:33.000Z</time>
      </trkpt>
      <trkpt lat="50.55343" lon="5.26475">
        <ele>180.80000305176</ele>
        <time>2021-07-11T09:47:34.000Z</time>
      </trkpt>
      <trkpt lat="50.55355" lon="5.2648">
        <ele>180.80000305176</ele>
        <time>2021-07-11T09:47:36.000Z</time>
      </trkpt>
      <trkpt lat="50.55381" lon="5.26489">
        <ele>180.80000305176</ele>
        <time>2021-07-11T09:47:40.000Z</time>
      </trkpt>
      <trkpt lat="50.55439" lon="5.26508">
        <ele>181.39999389648</ele>
        <time>2021-07-11T09:47:49.000Z</time>
      </trkpt>
      <trkpt lat="50.55459" lon="5.26514">
        <ele>181.39999389648</ele>
        <time>2021-07-11T09:47:52.000Z</time>
      </trkpt>
      <trkpt lat="50.55485" lon="5.26523">
        <ele>181.60000610352</ele>
        <time>2021-07-11T09:47:56.000Z</time>
      </trkpt>
      <trkpt lat="50.5553" lon="5.26538">
        <ele>181.80000305176</ele>
        <time>2021-07-11T09:48:03.000Z</time>
      </trkpt>
      <trkpt lat="50.55555" lon="5.26546">
        <ele>182.39999389648</ele>
        <time>2021-07-11T09:48:07.000Z</time>
      </trkpt>
      <trkpt lat="50.55579" lon="5.26555">
        <ele>182.60000610352</ele>
        <time>2021-07-11T09:48:11.000Z</time>
      </trkpt>
      <trkpt lat="50.55591" lon="5.26559">
        <ele>183</ele>
        <time>2021-07-11T09:48:13.000Z</time>
      </trkpt>
      <trkpt lat="50.55615" lon="5.26566">
        <ele>183.60000610352</ele>
        <time>2021-07-11T09:48:17.000Z</time>
      </trkpt>
      <trkpt lat="50.55645" lon="5.26576">
        <ele>184.39999389648</ele>
        <time>2021-07-11T09:48:22.000Z</time>
      </trkpt>
      <trkpt lat="50.55662" lon="5.26582">
        <ele>185.39999389648</ele>
        <time>2021-07-11T09:48:25.000Z</time>
      </trkpt>
      <trkpt lat="50.55698" lon="5.2659">
        <ele>186.39999389648</ele>
        <time>2021-07-11T09:48:31.000Z</time>
      </trkpt>
      <trkpt lat="50.55753" lon="5.26589">
        <ele>188.19999694824</ele>
        <time>2021-07-11T09:48:40.000Z</time>
      </trkpt>
      <trkpt lat="50.55796" lon="5.26594">
        <ele>188.60000610352</ele>
        <time>2021-07-11T09:48:47.000Z</time>
      </trkpt>
      <trkpt lat="50.55808" lon="5.26597">
        <ele>188.80000305176</ele>
        <time>2021-07-11T09:48:49.000Z</time>
      </trkpt>
      <trkpt lat="50.55845" lon="5.26608">
        <ele>189.39999389648</ele>
        <time>2021-07-11T09:48:55.000Z</time>
      </trkpt>
      <trkpt lat="50.55862" lon="5.26613">
        <ele>189.80000305176</ele>
        <time>2021-07-11T09:48:58.000Z</time>
      </trkpt>
      <trkpt lat="50.55891" lon="5.26625">
        <ele>190.39999389648</ele>
        <time>2021-07-11T09:49:03.000Z</time>
      </trkpt>
      <trkpt lat="50.55919" lon="5.2664">
        <ele>191.19999694824</ele>
        <time>2021-07-11T09:49:08.000Z</time>
      </trkpt>
      <trkpt lat="50.55941" lon="5.26651">
        <ele>192</ele>
        <time>2021-07-11T09:49:12.000Z</time>
      </trkpt>
      <trkpt lat="50.55947" lon="5.26654">
        <ele>192.19999694824</ele>
        <time>2021-07-11T09:49:13.000Z</time>
      </trkpt>
      <trkpt lat="50.55975" lon="5.26671">
        <ele>192.60000610352</ele>
        <time>2021-07-11T09:49:18.000Z</time>
      </trkpt>
      <trkpt lat="50.55981" lon="5.26674">
        <ele>192.60000610352</ele>
        <time>2021-07-11T09:49:19.000Z</time>
      </trkpt>
      <trkpt lat="50.55992" lon="5.2668">
        <ele>193</ele>
        <time>2021-07-11T09:49:21.000Z</time>
      </trkpt>
      <trkpt lat="50.55997" lon="5.26683">
        <ele>193.19999694824</ele>
        <time>2021-07-11T09:49:22.000Z</time>
      </trkpt>
      <trkpt lat="50.56015" lon="5.26692">
        <ele>193.60000610352</ele>
        <time>2021-07-11T09:49:25.000Z</time>
      </trkpt>
      <trkpt lat="50.56032" lon="5.26702">
        <ele>194.39999389648</ele>
        <time>2021-07-11T09:49:28.000Z</time>
      </trkpt>
      <trkpt lat="50.5605" lon="5.26711">
        <ele>194.39999389648</ele>
        <time>2021-07-11T09:49:31.000Z</time>
      </trkpt>
      <trkpt lat="50.56056" lon="5.26714">
        <ele>194.60000610352</ele>
        <time>2021-07-11T09:49:32.000Z</time>
      </trkpt>
      <trkpt lat="50.56092" lon="5.26725">
        <ele>195.19999694824</ele>
        <time>2021-07-11T09:49:38.000Z</time>
      </trkpt>
      <trkpt lat="50.56136" lon="5.26726">
        <ele>195.39999389648</ele>
        <time>2021-07-11T09:49:45.000Z</time>
      </trkpt>
      <trkpt lat="50.56142" lon="5.26726">
        <ele>195.60000610352</ele>
        <time>2021-07-11T09:49:46.000Z</time>
      </trkpt>
      <trkpt lat="50.56155" lon="5.26726">
        <ele>195.80000305176</ele>
        <time>2021-07-11T09:49:48.000Z</time>
      </trkpt>
      <trkpt lat="50.56161" lon="5.26725">
        <ele>196</ele>
        <time>2021-07-11T09:49:49.000Z</time>
      </trkpt>
      <trkpt lat="50.56217" lon="5.26728">
        <ele>196.60000610352</ele>
        <time>2021-07-11T09:49:58.000Z</time>
      </trkpt>
      <trkpt lat="50.56267" lon="5.26742">
        <ele>196.60000610352</ele>
        <time>2021-07-11T09:50:06.000Z</time>
      </trkpt>
      <trkpt lat="50.56315" lon="5.26758">
        <ele>196.39999389648</ele>
        <time>2021-07-11T09:50:13.000Z</time>
      </trkpt>
      <trkpt lat="50.56353" lon="5.2677">
        <ele>195.39999389648</ele>
        <time>2021-07-11T09:50:18.000Z</time>
      </trkpt>
      <trkpt lat="50.56369" lon="5.26779">
        <ele>195.19999694824</ele>
        <time>2021-07-11T09:50:20.000Z</time>
      </trkpt>
      <trkpt lat="50.56384" lon="5.26789">
        <ele>194.80000305176</ele>
        <time>2021-07-11T09:50:22.000Z</time>
      </trkpt>
      <trkpt lat="50.56416" lon="5.2681">
        <ele>193.80000305176</ele>
        <time>2021-07-11T09:50:26.000Z</time>
      </trkpt>
      <trkpt lat="50.56441" lon="5.26827">
        <ele>192.80000305176</ele>
        <time>2021-07-11T09:50:29.000Z</time>
      </trkpt>
      <trkpt lat="50.56465" lon="5.26844">
        <ele>192</ele>
        <time>2021-07-11T09:50:32.000Z</time>
      </trkpt>
      <trkpt lat="50.56495" lon="5.26871">
        <ele>190.80000305176</ele>
        <time>2021-07-11T09:50:36.000Z</time>
      </trkpt>
      <trkpt lat="50.56524" lon="5.26897">
        <ele>190</ele>
        <time>2021-07-11T09:50:40.000Z</time>
      </trkpt>
      <trkpt lat="50.5653" lon="5.26905">
        <ele>189.60000610352</ele>
        <time>2021-07-11T09:50:41.000Z</time>
      </trkpt>
      <trkpt lat="50.56536" lon="5.26913">
        <ele>189.60000610352</ele>
        <time>2021-07-11T09:50:42.000Z</time>
      </trkpt>
      <trkpt lat="50.56566" lon="5.26957">
        <ele>189.19999694824</ele>
        <time>2021-07-11T09:50:47.000Z</time>
      </trkpt>
      <trkpt lat="50.56596" lon="5.27004">
        <ele>188.60000610352</ele>
        <time>2021-07-11T09:50:52.000Z</time>
      </trkpt>
      <trkpt lat="50.56609" lon="5.2702">
        <ele>188.60000610352</ele>
        <time>2021-07-11T09:50:54.000Z</time>
      </trkpt>
      <trkpt lat="50.56616" lon="5.27026">
        <ele>188.39999389648</ele>
        <time>2021-07-11T09:50:55.000Z</time>
      </trkpt>
      <trkpt lat="50.56624" lon="5.27031">
        <ele>188.39999389648</ele>
        <time>2021-07-11T09:50:56.000Z</time>
      </trkpt>
      <trkpt lat="50.56648" lon="5.2704">
        <ele>187.80000305176</ele>
        <time>2021-07-11T09:50:59.000Z</time>
      </trkpt>
      <trkpt lat="50.56672" lon="5.27048">
        <ele>187.39999389648</ele>
        <time>2021-07-11T09:51:02.000Z</time>
      </trkpt>
      <trkpt lat="50.5671" lon="5.27061">
        <ele>186.39999389648</ele>
        <time>2021-07-11T09:51:07.000Z</time>
      </trkpt>
      <trkpt lat="50.56724" lon="5.27064">
        <ele>186.19999694824</ele>
        <time>2021-07-11T09:51:09.000Z</time>
      </trkpt>
      <trkpt lat="50.56732" lon="5.27065">
        <ele>186</ele>
        <time>2021-07-11T09:51:10.000Z</time>
      </trkpt>
      <trkpt lat="50.56745" lon="5.27061">
        <ele>186.19999694824</ele>
        <time>2021-07-11T09:51:12.000Z</time>
      </trkpt>
      <trkpt lat="50.56757" lon="5.27051">
        <ele>186</ele>
        <time>2021-07-11T09:51:14.000Z</time>
      </trkpt>
      <trkpt lat="50.56768" lon="5.27037">
        <ele>186.19999694824</ele>
        <time>2021-07-11T09:51:16.000Z</time>
      </trkpt>
      <trkpt lat="50.56791" lon="5.26997">
        <ele>187</ele>
        <time>2021-07-11T09:51:21.000Z</time>
      </trkpt>
      <trkpt lat="50.56804" lon="5.26971">
        <ele>187.39999389648</ele>
        <time>2021-07-11T09:51:24.000Z</time>
      </trkpt>
      <trkpt lat="50.56832" lon="5.26924">
        <ele>188.19999694824</ele>
        <time>2021-07-11T09:51:30.000Z</time>
      </trkpt>
      <trkpt lat="50.56852" lon="5.26889">
        <ele>188.19999694824</ele>
        <time>2021-07-11T09:51:34.000Z</time>
      </trkpt>
      <trkpt lat="50.56883" lon="5.26836">
        <ele>188.39999389648</ele>
        <time>2021-07-11T09:51:40.000Z</time>
      </trkpt>
      <trkpt lat="50.56888" lon="5.26826">
        <ele>188</ele>
        <time>2021-07-11T09:51:41.000Z</time>
      </trkpt>
      <trkpt lat="50.56913" lon="5.26783">
        <ele>187.39999389648</ele>
        <time>2021-07-11T09:51:46.000Z</time>
      </trkpt>
      <trkpt lat="50.56923" lon="5.26768">
        <ele>187.19999694824</ele>
        <time>2021-07-11T09:51:48.000Z</time>
      </trkpt>
      <trkpt lat="50.56957" lon="5.26716">
        <ele>187.39999389648</ele>
        <time>2021-07-11T09:51:55.000Z</time>
      </trkpt>
      <trkpt lat="50.56987" lon="5.26657">
        <ele>188.19999694824</ele>
        <time>2021-07-11T09:52:02.000Z</time>
      </trkpt>
      <trkpt lat="50.57" lon="5.26631">
        <ele>188.39999389648</ele>
        <time>2021-07-11T09:52:05.000Z</time>
      </trkpt>
      <trkpt lat="50.57009" lon="5.26615">
        <ele>188.60000610352</ele>
        <time>2021-07-11T09:52:07.000Z</time>
      </trkpt>
      <trkpt lat="50.57038" lon="5.26584">
        <ele>189</ele>
        <time>2021-07-11T09:52:12.000Z</time>
      </trkpt>
      <trkpt lat="50.57085" lon="5.2654">
        <ele>189.19999694824</ele>
        <time>2021-07-11T09:52:20.000Z</time>
      </trkpt>
      <trkpt lat="50.57097" lon="5.26529">
        <ele>189.19999694824</ele>
        <time>2021-07-11T09:52:22.000Z</time>
      </trkpt>
      <trkpt lat="50.57144" lon="5.26488">
        <ele>189.39999389648</ele>
        <time>2021-07-11T09:52:30.000Z</time>
      </trkpt>
      <trkpt lat="50.57156" lon="5.26478">
        <ele>189.39999389648</ele>
        <time>2021-07-11T09:52:32.000Z</time>
      </trkpt>
      <trkpt lat="50.57207" lon="5.2643">
        <ele>189.60000610352</ele>
        <time>2021-07-11T09:52:41.000Z</time>
      </trkpt>
      <trkpt lat="50.57213" lon="5.26425">
        <ele>189.39999389648</ele>
        <time>2021-07-11T09:52:42.000Z</time>
      </trkpt>
      <trkpt lat="50.57254" lon="5.26389">
        <ele>189.80000305176</ele>
        <time>2021-07-11T09:52:49.000Z</time>
      </trkpt>
      <trkpt lat="50.5726" lon="5.26384">
        <ele>189.80000305176</ele>
        <time>2021-07-11T09:52:50.000Z</time>
      </trkpt>
      <trkpt lat="50.57284" lon="5.26362">
        <ele>190</ele>
        <time>2021-07-11T09:52:54.000Z</time>
      </trkpt>
      <trkpt lat="50.5732" lon="5.26331">
        <ele>190</ele>
        <time>2021-07-11T09:53:00.000Z</time>
      </trkpt>
      <trkpt lat="50.57345" lon="5.26308">
        <ele>189.80000305176</ele>
        <time>2021-07-11T09:53:04.000Z</time>
      </trkpt>
      <trkpt lat="50.57371" lon="5.26286">
        <ele>189.60000610352</ele>
        <time>2021-07-11T09:53:08.000Z</time>
      </trkpt>
      <trkpt lat="50.5739" lon="5.26268">
        <ele>189</ele>
        <time>2021-07-11T09:53:11.000Z</time>
      </trkpt>
      <trkpt lat="50.57438" lon="5.26222">
        <ele>188</ele>
        <time>2021-07-11T09:53:19.000Z</time>
      </trkpt>
      <trkpt lat="50.57466" lon="5.26194">
        <ele>188</ele>
        <time>2021-07-11T09:53:24.000Z</time>
      </trkpt>
      <trkpt lat="50.57498" lon="5.26162">
        <ele>188.39999389648</ele>
        <time>2021-07-11T09:53:30.000Z</time>
      </trkpt>
      <trkpt lat="50.57519" lon="5.26141">
        <ele>188.80000305176</ele>
        <time>2021-07-11T09:53:34.000Z</time>
      </trkpt>
      <trkpt lat="50.57555" lon="5.26106">
        <ele>189.60000610352</ele>
        <time>2021-07-11T09:53:41.000Z</time>
      </trkpt>
      <trkpt lat="50.57587" lon="5.26076">
        <ele>190.80000305176</ele>
        <time>2021-07-11T09:53:47.000Z</time>
      </trkpt>
      <trkpt lat="50.57608" lon="5.26056">
        <ele>191.39999389648</ele>
        <time>2021-07-11T09:53:51.000Z</time>
      </trkpt>
      <trkpt lat="50.57614" lon="5.26052">
        <ele>191.80000305176</ele>
        <time>2021-07-11T09:53:52.000Z</time>
      </trkpt>
      <trkpt lat="50.57626" lon="5.26051">
        <ele>191.80000305176</ele>
        <time>2021-07-11T09:53:54.000Z</time>
      </trkpt>
      <trkpt lat="50.57638" lon="5.26059">
        <ele>192</ele>
        <time>2021-07-11T09:53:56.000Z</time>
      </trkpt>
      <trkpt lat="50.57643" lon="5.26066">
        <ele>192</ele>
        <time>2021-07-11T09:53:57.000Z</time>
      </trkpt>
      <trkpt lat="50.57648" lon="5.26074">
        <ele>192.19999694824</ele>
        <time>2021-07-11T09:53:58.000Z</time>
      </trkpt>
      <trkpt lat="50.5766" lon="5.26098">
        <ele>192</ele>
        <time>2021-07-11T09:54:01.000Z</time>
      </trkpt>
      <trkpt lat="50.57664" lon="5.26107">
        <ele>192.19999694824</ele>
        <time>2021-07-11T09:54:02.000Z</time>
      </trkpt>
      <trkpt lat="50.577" lon="5.26181">
        <ele>192.80000305176</ele>
        <time>2021-07-11T09:54:11.000Z</time>
      </trkpt>
      <trkpt lat="50.57704" lon="5.2619">
        <ele>192.80000305176</ele>
        <time>2021-07-11T09:54:12.000Z</time>
      </trkpt>
      <trkpt lat="50.57738" lon="5.26259">
        <ele>193</ele>
        <time>2021-07-11T09:54:20.000Z</time>
      </trkpt>
      <trkpt lat="50.57751" lon="5.26284">
        <ele>193</ele>
        <time>2021-07-11T09:54:23.000Z</time>
      </trkpt>
      <trkpt lat="50.57784" lon="5.26355">
        <ele>192.80000305176</ele>
        <time>2021-07-11T09:54:31.000Z</time>
      </trkpt>
      <trkpt lat="50.57792" lon="5.26373">
        <ele>192.80000305176</ele>
        <time>2021-07-11T09:54:33.000Z</time>
      </trkpt>
      <trkpt lat="50.57819" lon="5.26447">
        <ele>192.80000305176</ele>
        <time>2021-07-11T09:54:41.000Z</time>
      </trkpt>
      <trkpt lat="50.57826" lon="5.26466">
        <ele>192.80000305176</ele>
        <time>2021-07-11T09:54:43.000Z</time>
      </trkpt>
      <trkpt lat="50.57851" lon="5.26543">
        <ele>192.80000305176</ele>
        <time>2021-07-11T09:54:51.000Z</time>
      </trkpt>
      <trkpt lat="50.57858" lon="5.26563">
        <ele>193</ele>
        <time>2021-07-11T09:54:53.000Z</time>
      </trkpt>
      <trkpt lat="50.57885" lon="5.26643">
        <ele>192.80000305176</ele>
        <time>2021-07-11T09:55:01.000Z</time>
      </trkpt>
      <trkpt lat="50.57897" lon="5.26672">
        <ele>192.60000610352</ele>
        <time>2021-07-11T09:55:04.000Z</time>
      </trkpt>
      <trkpt lat="50.57928" lon="5.26748">
        <ele>192.60000610352</ele>
        <time>2021-07-11T09:55:12.000Z</time>
      </trkpt>
      <trkpt lat="50.57935" lon="5.26766">
        <ele>192.60000610352</ele>
        <time>2021-07-11T09:55:14.000Z</time>
      </trkpt>
      <trkpt lat="50.57966" lon="5.26841">
        <ele>192.39999389648</ele>
        <time>2021-07-11T09:55:22.000Z</time>
      </trkpt>
      <trkpt lat="50.5797" lon="5.26851">
        <ele>192.39999389648</ele>
        <time>2021-07-11T09:55:23.000Z</time>
      </trkpt>
      <trkpt lat="50.58005" lon="5.26922">
        <ele>192.19999694824</ele>
        <time>2021-07-11T09:55:31.000Z</time>
      </trkpt>
      <trkpt lat="50.58009" lon="5.2693">
        <ele>192</ele>
        <time>2021-07-11T09:55:32.000Z</time>
      </trkpt>
      <trkpt lat="50.58047" lon="5.26994">
        <ele>192</ele>
        <time>2021-07-11T09:55:40.000Z</time>
      </trkpt>
      <trkpt lat="50.58051" lon="5.27002">
        <ele>191.80000305176</ele>
        <time>2021-07-11T09:55:41.000Z</time>
      </trkpt>
      <trkpt lat="50.58069" lon="5.27036">
        <ele>191.39999389648</ele>
        <time>2021-07-11T09:55:46.000Z</time>
      </trkpt>
      <trkpt lat="50.58074" lon="5.27054">
        <ele>191.19999694824</ele>
        <time>2021-07-11T09:55:50.000Z</time>
      </trkpt>
      <trkpt lat="50.58077" lon="5.2706">
        <ele>191.19999694824</ele>
        <time>2021-07-11T09:55:51.000Z</time>
      </trkpt>
      <trkpt lat="50.58084" lon="5.2707">
        <ele>191.19999694824</ele>
        <time>2021-07-11T09:55:53.000Z</time>
      </trkpt>
      <trkpt lat="50.58088" lon="5.27074">
        <ele>191.19999694824</ele>
        <time>2021-07-11T09:55:54.000Z</time>
      </trkpt>
      <trkpt lat="50.58093" lon="5.27078">
        <ele>191.19999694824</ele>
        <time>2021-07-11T09:55:55.000Z</time>
      </trkpt>
      <trkpt lat="50.58102" lon="5.2709">
        <ele>191.19999694824</ele>
        <time>2021-07-11T09:55:57.000Z</time>
      </trkpt>
      <trkpt lat="50.58106" lon="5.27098">
        <ele>191.19999694824</ele>
        <time>2021-07-11T09:55:58.000Z</time>
      </trkpt>
      <trkpt lat="50.58126" lon="5.27153">
        <ele>190.80000305176</ele>
        <time>2021-07-11T09:56:04.000Z</time>
      </trkpt>
      <trkpt lat="50.58133" lon="5.27174">
        <ele>190.60000610352</ele>
        <time>2021-07-11T09:56:06.000Z</time>
      </trkpt>
      <trkpt lat="50.58153" lon="5.2725">
        <ele>190</ele>
        <time>2021-07-11T09:56:13.000Z</time>
      </trkpt>
      <trkpt lat="50.58169" lon="5.27309">
        <ele>189.39999389648</ele>
        <time>2021-07-11T09:56:18.000Z</time>
      </trkpt>
      <trkpt lat="50.58184" lon="5.27369">
        <ele>188.80000305176</ele>
        <time>2021-07-11T09:56:23.000Z</time>
      </trkpt>
      <trkpt lat="50.58204" lon="5.27442">
        <ele>187.60000610352</ele>
        <time>2021-07-11T09:56:29.000Z</time>
      </trkpt>
      <trkpt lat="50.58222" lon="5.27503">
        <ele>186.19999694824</ele>
        <time>2021-07-11T09:56:34.000Z</time>
      </trkpt>
      <trkpt lat="50.58251" lon="5.27584">
        <ele>185</ele>
        <time>2021-07-11T09:56:41.000Z</time>
      </trkpt>
      <trkpt lat="50.58255" lon="5.27595">
        <ele>185</ele>
        <time>2021-07-11T09:56:42.000Z</time>
      </trkpt>
      <trkpt lat="50.58281" lon="5.27672">
        <ele>183.60000610352</ele>
        <time>2021-07-11T09:56:49.000Z</time>
      </trkpt>
      <trkpt lat="50.58284" lon="5.27684">
        <ele>183.60000610352</ele>
        <time>2021-07-11T09:56:50.000Z</time>
      </trkpt>
      <trkpt lat="50.58288" lon="5.27721">
        <ele>183.39999389648</ele>
        <time>2021-07-11T09:56:53.000Z</time>
      </trkpt>
      <trkpt lat="50.5829" lon="5.27747">
        <ele>183.19999694824</ele>
        <time>2021-07-11T09:56:55.000Z</time>
      </trkpt>
      <trkpt lat="50.58293" lon="5.27802">
        <ele>183</ele>
        <time>2021-07-11T09:56:59.000Z</time>
      </trkpt>
      <trkpt lat="50.58294" lon="5.27815">
        <ele>182.80000305176</ele>
        <time>2021-07-11T09:57:00.000Z</time>
      </trkpt>
      <trkpt lat="50.58302" lon="5.27867">
        <ele>182</ele>
        <time>2021-07-11T09:57:04.000Z</time>
      </trkpt>
      <trkpt lat="50.58305" lon="5.2788">
        <ele>181.60000610352</ele>
        <time>2021-07-11T09:57:05.000Z</time>
      </trkpt>
      <trkpt lat="50.58316" lon="5.27918">
        <ele>180.60000610352</ele>
        <time>2021-07-11T09:57:08.000Z</time>
      </trkpt>
      <trkpt lat="50.58321" lon="5.2793">
        <ele>180.60000610352</ele>
        <time>2021-07-11T09:57:09.000Z</time>
      </trkpt>
      <trkpt lat="50.58326" lon="5.27941">
        <ele>180.60000610352</ele>
        <time>2021-07-11T09:57:10.000Z</time>
      </trkpt>
      <trkpt lat="50.58355" lon="5.27995">
        <ele>179</ele>
        <time>2021-07-11T09:57:15.000Z</time>
      </trkpt>
      <trkpt lat="50.58367" lon="5.28017">
        <ele>178.39999389648</ele>
        <time>2021-07-11T09:57:17.000Z</time>
      </trkpt>
      <trkpt lat="50.58379" lon="5.28041">
        <ele>177.80000305176</ele>
        <time>2021-07-11T09:57:19.000Z</time>
      </trkpt>
      <trkpt lat="50.58396" lon="5.28078">
        <ele>177.60000610352</ele>
        <time>2021-07-11T09:57:22.000Z</time>
      </trkpt>
      <trkpt lat="50.58402" lon="5.28091">
        <ele>177.39999389648</ele>
        <time>2021-07-11T09:57:23.000Z</time>
      </trkpt>
      <trkpt lat="50.58408" lon="5.28105">
        <ele>177</ele>
        <time>2021-07-11T09:57:24.000Z</time>
      </trkpt>
      <trkpt lat="50.58414" lon="5.28119">
        <ele>176.80000305176</ele>
        <time>2021-07-11T09:57:25.000Z</time>
      </trkpt>
      <trkpt lat="50.58426" lon="5.28147">
        <ele>176.39999389648</ele>
        <time>2021-07-11T09:57:27.000Z</time>
      </trkpt>
      <trkpt lat="50.58444" lon="5.28189">
        <ele>174.60000610352</ele>
        <time>2021-07-11T09:57:30.000Z</time>
      </trkpt>
      <trkpt lat="50.58449" lon="5.28203">
        <ele>174</ele>
        <time>2021-07-11T09:57:31.000Z</time>
      </trkpt>
      <trkpt lat="50.58455" lon="5.28217">
        <ele>173.19999694824</ele>
        <time>2021-07-11T09:57:32.000Z</time>
      </trkpt>
      <trkpt lat="50.58473" lon="5.28257">
        <ele>171</ele>
        <time>2021-07-11T09:57:35.000Z</time>
      </trkpt>
      <trkpt lat="50.58486" lon="5.2828">
        <ele>170</ele>
        <time>2021-07-11T09:57:37.000Z</time>
      </trkpt>
      <trkpt lat="50.58493" lon="5.28289">
        <ele>169.80000305176</ele>
        <time>2021-07-11T09:57:38.000Z</time>
      </trkpt>
      <trkpt lat="50.58527" lon="5.2833">
        <ele>168.39999389648</ele>
        <time>2021-07-11T09:57:43.000Z</time>
      </trkpt>
      <trkpt lat="50.58533" lon="5.28339">
        <ele>168.39999389648</ele>
        <time>2021-07-11T09:57:44.000Z</time>
      </trkpt>
      <trkpt lat="50.58538" lon="5.28348">
        <ele>168.19999694824</ele>
        <time>2021-07-11T09:57:45.000Z</time>
      </trkpt>
      <trkpt lat="50.58552" lon="5.28378">
        <ele>168.19999694824</ele>
        <time>2021-07-11T09:57:48.000Z</time>
      </trkpt>
      <trkpt lat="50.58584" lon="5.28444">
        <ele>168.80000305176</ele>
        <time>2021-07-11T09:57:55.000Z</time>
      </trkpt>
      <trkpt lat="50.58589" lon="5.28453">
        <ele>168.80000305176</ele>
        <time>2021-07-11T09:57:56.000Z</time>
      </trkpt>
      <trkpt lat="50.58603" lon="5.28471">
        <ele>169.39999389648</ele>
        <time>2021-07-11T09:57:59.000Z</time>
      </trkpt>
      <trkpt lat="50.58609" lon="5.28479">
        <ele>169.60000610352</ele>
        <time>2021-07-11T09:58:02.000Z</time>
      </trkpt>
      <trkpt lat="50.58609" lon="5.2848">
        <ele>169.80000305176</ele>
        <time>2021-07-11T09:58:04.000Z</time>
      </trkpt>
      <trkpt lat="50.58614" lon="5.28485">
        <ele>170.60000610352</ele>
        <time>2021-07-11T09:58:15.000Z</time>
      </trkpt>
      <trkpt lat="50.58616" lon="5.28488">
        <ele>170.80000305176</ele>
        <time>2021-07-11T09:58:16.000Z</time>
      </trkpt>
      <trkpt lat="50.58632" lon="5.28508">
        <ele>170.80000305176</ele>
        <time>2021-07-11T09:58:21.000Z</time>
      </trkpt>
      <trkpt lat="50.58635" lon="5.28512">
        <ele>171</ele>
        <time>2021-07-11T09:58:22.000Z</time>
      </trkpt>
      <trkpt lat="50.58643" lon="5.28521">
        <ele>171</ele>
        <time>2021-07-11T09:58:24.000Z</time>
      </trkpt>
      <trkpt lat="50.58661" lon="5.28538">
        <ele>171</ele>
        <time>2021-07-11T09:58:28.000Z</time>
      </trkpt>
      <trkpt lat="50.5867" lon="5.28547">
        <ele>171</ele>
        <time>2021-07-11T09:58:30.000Z</time>
      </trkpt>
      <trkpt lat="50.58699" lon="5.28574">
        <ele>171.60000610352</ele>
        <time>2021-07-11T09:58:36.000Z</time>
      </trkpt>
      <trkpt lat="50.58704" lon="5.28579">
        <ele>171.80000305176</ele>
        <time>2021-07-11T09:58:37.000Z</time>
      </trkpt>
      <trkpt lat="50.58708" lon="5.28584">
        <ele>172</ele>
        <time>2021-07-11T09:58:38.000Z</time>
      </trkpt>
      <trkpt lat="50.58722" lon="5.28604">
        <ele>172.39999389648</ele>
        <time>2021-07-11T09:58:41.000Z</time>
      </trkpt>
      <trkpt lat="50.58744" lon="5.28639">
        <ele>173.19999694824</ele>
        <time>2021-07-11T09:58:46.000Z</time>
      </trkpt>
      <trkpt lat="50.58763" lon="5.28669">
        <ele>173.39999389648</ele>
        <time>2021-07-11T09:58:50.000Z</time>
      </trkpt>
      <trkpt lat="50.588" lon="5.28736">
        <ele>174.39999389648</ele>
        <time>2021-07-11T09:58:58.000Z</time>
      </trkpt>
      <trkpt lat="50.58824" lon="5.28791">
        <ele>174.60000610352</ele>
        <time>2021-07-11T09:59:04.000Z</time>
      </trkpt>
      <trkpt lat="50.58854" lon="5.28866">
        <ele>174.80000305176</ele>
        <time>2021-07-11T09:59:12.000Z</time>
      </trkpt>
      <trkpt lat="50.58858" lon="5.28875">
        <ele>174.80000305176</ele>
        <time>2021-07-11T09:59:13.000Z</time>
      </trkpt>
      <trkpt lat="50.58888" lon="5.28952">
        <ele>175.19999694824</ele>
        <time>2021-07-11T09:59:21.000Z</time>
      </trkpt>
      <trkpt lat="50.58892" lon="5.28961">
        <ele>175</ele>
        <time>2021-07-11T09:59:22.000Z</time>
      </trkpt>
      <trkpt lat="50.58919" lon="5.29026">
        <ele>175.39999389648</ele>
        <time>2021-07-11T09:59:29.000Z</time>
      </trkpt>
      <trkpt lat="50.58929" lon="5.29052">
        <ele>175.39999389648</ele>
        <time>2021-07-11T09:59:32.000Z</time>
      </trkpt>
      <trkpt lat="50.5893" lon="5.29071">
        <ele>175.39999389648</ele>
        <time>2021-07-11T09:59:34.000Z</time>
      </trkpt>
      <trkpt lat="50.58927" lon="5.29079">
        <ele>175.39999389648</ele>
        <time>2021-07-11T09:59:35.000Z</time>
      </trkpt>
      <trkpt lat="50.58918" lon="5.29095">
        <ele>175.60000610352</ele>
        <time>2021-07-11T09:59:37.000Z</time>
      </trkpt>
      <trkpt lat="50.5889" lon="5.29138">
        <ele>176.19999694824</ele>
        <time>2021-07-11T09:59:43.000Z</time>
      </trkpt>
      <trkpt lat="50.58867" lon="5.29176">
        <ele>176.80000305176</ele>
        <time>2021-07-11T09:59:48.000Z</time>
      </trkpt>
      <trkpt lat="50.58848" lon="5.29206">
        <ele>177.19999694824</ele>
        <time>2021-07-11T09:59:52.000Z</time>
      </trkpt>
      <trkpt lat="50.58825" lon="5.29244">
        <ele>177.60000610352</ele>
        <time>2021-07-11T09:59:57.000Z</time>
      </trkpt>
      <trkpt lat="50.58792" lon="5.29294">
        <ele>178.80000305176</ele>
        <time>2021-07-11T10:00:04.000Z</time>
      </trkpt>
      <trkpt lat="50.58783" lon="5.29306">
        <ele>179</ele>
        <time>2021-07-11T10:00:06.000Z</time>
      </trkpt>
      <trkpt lat="50.58753" lon="5.2934">
        <ele>179.39999389648</ele>
        <time>2021-07-11T10:00:12.000Z</time>
      </trkpt>
      <trkpt lat="50.58748" lon="5.29346">
        <ele>179.60000610352</ele>
        <time>2021-07-11T10:00:13.000Z</time>
      </trkpt>
      <trkpt lat="50.58738" lon="5.29358">
        <ele>180.19999694824</ele>
        <time>2021-07-11T10:00:15.000Z</time>
      </trkpt>
      <trkpt lat="50.58708" lon="5.29391">
        <ele>181.60000610352</ele>
        <time>2021-07-11T10:00:21.000Z</time>
      </trkpt>
      <trkpt lat="50.58703" lon="5.29397">
        <ele>181.80000305176</ele>
        <time>2021-07-11T10:00:22.000Z</time>
      </trkpt>
      <trkpt lat="50.58664" lon="5.29445">
        <ele>184</ele>
        <time>2021-07-11T10:00:30.000Z</time>
      </trkpt>
      <trkpt lat="50.58655" lon="5.29458">
        <ele>184.19999694824</ele>
        <time>2021-07-11T10:00:32.000Z</time>
      </trkpt>
      <trkpt lat="50.58648" lon="5.29475">
        <ele>184.60000610352</ele>
        <time>2021-07-11T10:00:34.000Z</time>
      </trkpt>
      <trkpt lat="50.58646" lon="5.29485">
        <ele>184.60000610352</ele>
        <time>2021-07-11T10:00:35.000Z</time>
      </trkpt>
      <trkpt lat="50.58645" lon="5.29496">
        <ele>184.80000305176</ele>
        <time>2021-07-11T10:00:36.000Z</time>
      </trkpt>
      <trkpt lat="50.58646" lon="5.29528">
        <ele>184.80000305176</ele>
        <time>2021-07-11T10:00:39.000Z</time>
      </trkpt>
      <trkpt lat="50.58656" lon="5.29611">
        <ele>185.39999389648</ele>
        <time>2021-07-11T10:00:47.000Z</time>
      </trkpt>
      <trkpt lat="50.58658" lon="5.29632">
        <ele>185.60000610352</ele>
        <time>2021-07-11T10:00:49.000Z</time>
      </trkpt>
      <trkpt lat="50.58666" lon="5.29695">
        <ele>186</ele>
        <time>2021-07-11T10:00:55.000Z</time>
      </trkpt>
      <trkpt lat="50.58675" lon="5.29784">
        <ele>186.19999694824</ele>
        <time>2021-07-11T10:01:03.000Z</time>
      </trkpt>
      <trkpt lat="50.58675" lon="5.29795">
        <ele>186.19999694824</ele>
        <time>2021-07-11T10:01:04.000Z</time>
      </trkpt>
      <trkpt lat="50.58677" lon="5.29889">
        <ele>186</ele>
        <time>2021-07-11T10:01:12.000Z</time>
      </trkpt>
      <trkpt lat="50.58678" lon="5.29913">
        <ele>186</ele>
        <time>2021-07-11T10:01:14.000Z</time>
      </trkpt>
      <trkpt lat="50.58678" lon="5.29925">
        <ele>185.80000305176</ele>
        <time>2021-07-11T10:01:15.000Z</time>
      </trkpt>
      <trkpt lat="50.58678" lon="5.30022">
        <ele>185</ele>
        <time>2021-07-11T10:01:23.000Z</time>
      </trkpt>
      <trkpt lat="50.58677" lon="5.30059">
        <ele>184.60000610352</ele>
        <time>2021-07-11T10:01:26.000Z</time>
      </trkpt>
      <trkpt lat="50.58677" lon="5.30145">
        <ele>184</ele>
        <time>2021-07-11T10:01:33.000Z</time>
      </trkpt>
      <trkpt lat="50.58689" lon="5.30223">
        <ele>182.80000305176</ele>
        <time>2021-07-11T10:01:40.000Z</time>
      </trkpt>
      <trkpt lat="50.58704" lon="5.30309">
        <ele>183</ele>
        <time>2021-07-11T10:01:48.000Z</time>
      </trkpt>
      <trkpt lat="50.5871" lon="5.30341">
        <ele>183.19999694824</ele>
        <time>2021-07-11T10:01:51.000Z</time>
      </trkpt>
      <trkpt lat="50.58718" lon="5.30382">
        <ele>183.19999694824</ele>
        <time>2021-07-11T10:01:55.000Z</time>
      </trkpt>
      <trkpt lat="50.58729" lon="5.30432">
        <ele>183.39999389648</ele>
        <time>2021-07-11T10:02:00.000Z</time>
      </trkpt>
      <trkpt lat="50.58741" lon="5.30483">
        <ele>184</ele>
        <time>2021-07-11T10:02:05.000Z</time>
      </trkpt>
      <trkpt lat="50.58758" lon="5.30554">
        <ele>184.60000610352</ele>
        <time>2021-07-11T10:02:12.000Z</time>
      </trkpt>
      <trkpt lat="50.58768" lon="5.30594">
        <ele>184.80000305176</ele>
        <time>2021-07-11T10:02:16.000Z</time>
      </trkpt>
      <trkpt lat="50.58787" lon="5.30655">
        <ele>185.60000610352</ele>
        <time>2021-07-11T10:02:23.000Z</time>
      </trkpt>
      <trkpt lat="50.58802" lon="5.30692">
        <ele>186</ele>
        <time>2021-07-11T10:02:28.000Z</time>
      </trkpt>
      <trkpt lat="50.58813" lon="5.30721">
        <ele>186.19999694824</ele>
        <time>2021-07-11T10:02:32.000Z</time>
      </trkpt>
      <trkpt lat="50.58845" lon="5.30791">
        <ele>186.60000610352</ele>
        <time>2021-07-11T10:02:42.000Z</time>
      </trkpt>
      <trkpt lat="50.58875" lon="5.30854">
        <ele>187.19999694824</ele>
        <time>2021-07-11T10:02:51.000Z</time>
      </trkpt>
      <trkpt lat="50.58878" lon="5.30861">
        <ele>187.19999694824</ele>
        <time>2021-07-11T10:02:52.000Z</time>
      </trkpt>
      <trkpt lat="50.58881" lon="5.30869">
        <ele>187.19999694824</ele>
        <time>2021-07-11T10:02:53.000Z</time>
      </trkpt>
      <trkpt lat="50.58889" lon="5.30899">
        <ele>187.19999694824</ele>
        <time>2021-07-11T10:02:57.000Z</time>
      </trkpt>
      <trkpt lat="50.58896" lon="5.30912">
        <ele>187.39999389648</ele>
        <time>2021-07-11T10:02:59.000Z</time>
      </trkpt>
      <trkpt lat="50.5891" lon="5.30926">
        <ele>188</ele>
        <time>2021-07-11T10:03:02.000Z</time>
      </trkpt>
      <trkpt lat="50.58923" lon="5.30942">
        <ele>188.19999694824</ele>
        <time>2021-07-11T10:03:05.000Z</time>
      </trkpt>
      <trkpt lat="50.58932" lon="5.30951">
        <ele>188.60000610352</ele>
        <time>2021-07-11T10:03:07.000Z</time>
      </trkpt>
      <trkpt lat="50.58963" lon="5.30979">
        <ele>189.39999389648</ele>
        <time>2021-07-11T10:03:13.000Z</time>
      </trkpt>
      <trkpt lat="50.59012" lon="5.31022">
        <ele>190.39999389648</ele>
        <time>2021-07-11T10:03:22.000Z</time>
      </trkpt>
      <trkpt lat="50.59063" lon="5.31069">
        <ele>190.39999389648</ele>
        <time>2021-07-11T10:03:31.000Z</time>
      </trkpt>
      <trkpt lat="50.59075" lon="5.31079">
        <ele>190.39999389648</ele>
        <time>2021-07-11T10:03:33.000Z</time>
      </trkpt>
      <trkpt lat="50.59102" lon="5.31105">
        <ele>190.19999694824</ele>
        <time>2021-07-11T10:03:38.000Z</time>
      </trkpt>
      <trkpt lat="50.59109" lon="5.3112">
        <ele>190.19999694824</ele>
        <time>2021-07-11T10:03:40.000Z</time>
      </trkpt>
      <trkpt lat="50.59113" lon="5.31126">
        <ele>190.19999694824</ele>
        <time>2021-07-11T10:03:41.000Z</time>
      </trkpt>
      <trkpt lat="50.59124" lon="5.31131">
        <ele>190</ele>
        <time>2021-07-11T10:03:43.000Z</time>
      </trkpt>
      <trkpt lat="50.59157" lon="5.31133">
        <ele>189.60000610352</ele>
        <time>2021-07-11T10:03:48.000Z</time>
      </trkpt>
      <trkpt lat="50.59213" lon="5.31149">
        <ele>188.19999694824</ele>
        <time>2021-07-11T10:03:56.000Z</time>
      </trkpt>
      <trkpt lat="50.5922" lon="5.31151">
        <ele>188</ele>
        <time>2021-07-11T10:03:57.000Z</time>
      </trkpt>
      <trkpt lat="50.59279" lon="5.31169">
        <ele>187.60000610352</ele>
        <time>2021-07-11T10:04:05.000Z</time>
      </trkpt>
      <trkpt lat="50.59286" lon="5.31172">
        <ele>187.60000610352</ele>
        <time>2021-07-11T10:04:06.000Z</time>
      </trkpt>
      <trkpt lat="50.59293" lon="5.31174">
        <ele>187.60000610352</ele>
        <time>2021-07-11T10:04:07.000Z</time>
      </trkpt>
      <trkpt lat="50.59326" lon="5.31186">
        <ele>187.39999389648</ele>
        <time>2021-07-11T10:04:12.000Z</time>
      </trkpt>
      <trkpt lat="50.59332" lon="5.31189">
        <ele>187.39999389648</ele>
        <time>2021-07-11T10:04:13.000Z</time>
      </trkpt>
      <trkpt lat="50.59363" lon="5.31201">
        <ele>187.39999389648</ele>
        <time>2021-07-11T10:04:18.000Z</time>
      </trkpt>
      <trkpt lat="50.59382" lon="5.31209">
        <ele>187.60000610352</ele>
        <time>2021-07-11T10:04:21.000Z</time>
      </trkpt>
      <trkpt lat="50.59405" lon="5.3122">
        <ele>188.39999389648</ele>
        <time>2021-07-11T10:04:25.000Z</time>
      </trkpt>
      <trkpt lat="50.59424" lon="5.31229">
        <ele>188.60000610352</ele>
        <time>2021-07-11T10:04:28.000Z</time>
      </trkpt>
      <trkpt lat="50.59469" lon="5.31249">
        <ele>190</ele>
        <time>2021-07-11T10:04:35.000Z</time>
      </trkpt>
      <trkpt lat="50.59489" lon="5.31257">
        <ele>190</ele>
        <time>2021-07-11T10:04:38.000Z</time>
      </trkpt>
      <trkpt lat="50.59503" lon="5.31263">
        <ele>190</ele>
        <time>2021-07-11T10:04:40.000Z</time>
      </trkpt>
      <trkpt lat="50.5951" lon="5.31267">
        <ele>190</ele>
        <time>2021-07-11T10:04:41.000Z</time>
      </trkpt>
      <trkpt lat="50.59533" lon="5.31277">
        <ele>190</ele>
        <time>2021-07-11T10:04:44.000Z</time>
      </trkpt>
      <trkpt lat="50.59549" lon="5.31284">
        <ele>189.80000305176</ele>
        <time>2021-07-11T10:04:46.000Z</time>
      </trkpt>
      <trkpt lat="50.59557" lon="5.31287">
        <ele>189.60000610352</ele>
        <time>2021-07-11T10:04:47.000Z</time>
      </trkpt>
      <trkpt lat="50.59575" lon="5.31294">
        <ele>189</ele>
        <time>2021-07-11T10:04:49.000Z</time>
      </trkpt>
      <trkpt lat="50.59592" lon="5.31303">
        <ele>188.19999694824</ele>
        <time>2021-07-11T10:04:51.000Z</time>
      </trkpt>
      <trkpt lat="50.59602" lon="5.31308">
        <ele>188</ele>
        <time>2021-07-11T10:04:52.000Z</time>
      </trkpt>
      <trkpt lat="50.59611" lon="5.31314">
        <ele>187.60000610352</ele>
        <time>2021-07-11T10:04:53.000Z</time>
      </trkpt>
      <trkpt lat="50.59637" lon="5.31339">
        <ele>186.19999694824</ele>
        <time>2021-07-11T10:04:56.000Z</time>
      </trkpt>
      <trkpt lat="50.59645" lon="5.31349">
        <ele>185.80000305176</ele>
        <time>2021-07-11T10:04:57.000Z</time>
      </trkpt>
      <trkpt lat="50.59653" lon="5.31361">
        <ele>185.19999694824</ele>
        <time>2021-07-11T10:04:58.000Z</time>
      </trkpt>
      <trkpt lat="50.59666" lon="5.31386">
        <ele>184</ele>
        <time>2021-07-11T10:05:00.000Z</time>
      </trkpt>
      <trkpt lat="50.59701" lon="5.31458">
        <ele>181.39999389648</ele>
        <time>2021-07-11T10:05:06.000Z</time>
      </trkpt>
      <trkpt lat="50.59707" lon="5.31468">
        <ele>180.60000610352</ele>
        <time>2021-07-11T10:05:07.000Z</time>
      </trkpt>
      <trkpt lat="50.59719" lon="5.31485">
        <ele>179.80000305176</ele>
        <time>2021-07-11T10:05:09.000Z</time>
      </trkpt>
      <trkpt lat="50.59726" lon="5.31491">
        <ele>179.60000610352</ele>
        <time>2021-07-11T10:05:10.000Z</time>
      </trkpt>
      <trkpt lat="50.59752" lon="5.31514">
        <ele>179.39999389648</ele>
        <time>2021-07-11T10:05:14.000Z</time>
      </trkpt>
      <trkpt lat="50.59765" lon="5.31523">
        <ele>179.39999389648</ele>
        <time>2021-07-11T10:05:16.000Z</time>
      </trkpt>
      <trkpt lat="50.59783" lon="5.31534">
        <ele>179.39999389648</ele>
        <time>2021-07-11T10:05:19.000Z</time>
      </trkpt>
      <trkpt lat="50.59829" lon="5.31561">
        <ele>181.60000610352</ele>
        <time>2021-07-11T10:05:26.000Z</time>
      </trkpt>
      <trkpt lat="50.59849" lon="5.31573">
        <ele>181.80000305176</ele>
        <time>2021-07-11T10:05:29.000Z</time>
      </trkpt>
      <trkpt lat="50.59883" lon="5.31595">
        <ele>181.60000610352</ele>
        <time>2021-07-11T10:05:34.000Z</time>
      </trkpt>
      <trkpt lat="50.59896" lon="5.31607">
        <ele>181.39999389648</ele>
        <time>2021-07-11T10:05:36.000Z</time>
      </trkpt>
      <trkpt lat="50.59903" lon="5.31616">
        <ele>181.39999389648</ele>
        <time>2021-07-11T10:05:37.000Z</time>
      </trkpt>
      <trkpt lat="50.59908" lon="5.31625">
        <ele>181.39999389648</ele>
        <time>2021-07-11T10:05:38.000Z</time>
      </trkpt>
      <trkpt lat="50.59919" lon="5.31646">
        <ele>181.19999694824</ele>
        <time>2021-07-11T10:05:40.000Z</time>
      </trkpt>
      <trkpt lat="50.5994" lon="5.31688">
        <ele>180</ele>
        <time>2021-07-11T10:05:44.000Z</time>
      </trkpt>
      <trkpt lat="50.59945" lon="5.31699">
        <ele>179.80000305176</ele>
        <time>2021-07-11T10:05:45.000Z</time>
      </trkpt>
      <trkpt lat="50.59978" lon="5.31765">
        <ele>177.19999694824</ele>
        <time>2021-07-11T10:05:51.000Z</time>
      </trkpt>
      <trkpt lat="50.60001" lon="5.31806">
        <ele>176</ele>
        <time>2021-07-11T10:05:55.000Z</time>
      </trkpt>
      <trkpt lat="50.60007" lon="5.31816">
        <ele>176</ele>
        <time>2021-07-11T10:05:56.000Z</time>
      </trkpt>
      <trkpt lat="50.60029" lon="5.31856">
        <ele>175.19999694824</ele>
        <time>2021-07-11T10:06:00.000Z</time>
      </trkpt>
      <trkpt lat="50.60043" lon="5.31882">
        <ele>174.39999389648</ele>
        <time>2021-07-11T10:06:03.000Z</time>
      </trkpt>
      <trkpt lat="50.60061" lon="5.31911">
        <ele>173</ele>
        <time>2021-07-11T10:06:07.000Z</time>
      </trkpt>
      <trkpt lat="50.60072" lon="5.31928">
        <ele>172.60000610352</ele>
        <time>2021-07-11T10:06:11.000Z</time>
      </trkpt>
      <trkpt lat="50.60087" lon="5.31946">
        <ele>172.39999389648</ele>
        <time>2021-07-11T10:06:16.000Z</time>
      </trkpt>
      <trkpt lat="50.60115" lon="5.31971">
        <ele>172.39999389648</ele>
        <time>2021-07-11T10:06:23.000Z</time>
      </trkpt>
      <trkpt lat="50.60159" lon="5.32009">
        <ele>172.60000610352</ele>
        <time>2021-07-11T10:06:32.000Z</time>
      </trkpt>
      <trkpt lat="50.60202" lon="5.32054">
        <ele>172.39999389648</ele>
        <time>2021-07-11T10:06:40.000Z</time>
      </trkpt>
      <trkpt lat="50.60237" lon="5.32101">
        <ele>172.80000305176</ele>
        <time>2021-07-11T10:06:47.000Z</time>
      </trkpt>
      <trkpt lat="50.60251" lon="5.32124">
        <ele>172.80000305176</ele>
        <time>2021-07-11T10:06:50.000Z</time>
      </trkpt>
      <trkpt lat="50.60265" lon="5.32148">
        <ele>173</ele>
        <time>2021-07-11T10:06:53.000Z</time>
      </trkpt>
      <trkpt lat="50.60295" lon="5.32193">
        <ele>173.19999694824</ele>
        <time>2021-07-11T10:06:59.000Z</time>
      </trkpt>
      <trkpt lat="50.60333" lon="5.32255">
        <ele>173.19999694824</ele>
        <time>2021-07-11T10:07:07.000Z</time>
      </trkpt>
      <trkpt lat="50.60342" lon="5.32272">
        <ele>173.19999694824</ele>
        <time>2021-07-11T10:07:09.000Z</time>
      </trkpt>
      <trkpt lat="50.60361" lon="5.32304">
        <ele>173.60000610352</ele>
        <time>2021-07-11T10:07:13.000Z</time>
      </trkpt>
      <trkpt lat="50.60392" lon="5.32359">
        <ele>173.80000305176</ele>
        <time>2021-07-11T10:07:20.000Z</time>
      </trkpt>
      <trkpt lat="50.60423" lon="5.32407">
        <ele>174.80000305176</ele>
        <time>2021-07-11T10:07:27.000Z</time>
      </trkpt>
      <trkpt lat="50.60427" lon="5.32413">
        <ele>174.80000305176</ele>
        <time>2021-07-11T10:07:28.000Z</time>
      </trkpt>
      <trkpt lat="50.60441" lon="5.3243">
        <ele>174.80000305176</ele>
        <time>2021-07-11T10:07:31.000Z</time>
      </trkpt>
      <trkpt lat="50.60448" lon="5.32441">
        <ele>174.80000305176</ele>
        <time>2021-07-11T10:07:33.000Z</time>
      </trkpt>
      <trkpt lat="50.60452" lon="5.32446">
        <ele>175</ele>
        <time>2021-07-11T10:07:34.000Z</time>
      </trkpt>
      <trkpt lat="50.60461" lon="5.32451">
        <ele>175</ele>
        <time>2021-07-11T10:07:36.000Z</time>
      </trkpt>
      <trkpt lat="50.60467" lon="5.32451">
        <ele>175</ele>
        <time>2021-07-11T10:07:38.000Z</time>
      </trkpt>
      <trkpt lat="50.6047" lon="5.32448">
        <ele>175</ele>
        <time>2021-07-11T10:07:39.000Z</time>
      </trkpt>
      <trkpt lat="50.60479" lon="5.32437">
        <ele>175.39999389648</ele>
        <time>2021-07-11T10:07:42.000Z</time>
      </trkpt>
      <trkpt lat="50.60483" lon="5.32436">
        <ele>175.60000610352</ele>
        <time>2021-07-11T10:07:43.000Z</time>
      </trkpt>
      <trkpt lat="50.60514" lon="5.32426">
        <ele>176</ele>
        <time>2021-07-11T10:07:49.000Z</time>
      </trkpt>
      <trkpt lat="50.60561" lon="5.32414">
        <ele>176.80000305176</ele>
        <time>2021-07-11T10:07:57.000Z</time>
      </trkpt>
      <trkpt lat="50.60616" lon="5.32397">
        <ele>177</ele>
        <time>2021-07-11T10:08:06.000Z</time>
      </trkpt>
      <trkpt lat="50.60623" lon="5.32393">
        <ele>177.19999694824</ele>
        <time>2021-07-11T10:08:07.000Z</time>
      </trkpt>
      <trkpt lat="50.60643" lon="5.32381">
        <ele>177.19999694824</ele>
        <time>2021-07-11T10:08:10.000Z</time>
      </trkpt>
      <trkpt lat="50.60657" lon="5.32374">
        <ele>177</ele>
        <time>2021-07-11T10:08:12.000Z</time>
      </trkpt>
      <trkpt lat="50.60699" lon="5.32359">
        <ele>176.39999389648</ele>
        <time>2021-07-11T10:08:18.000Z</time>
      </trkpt>
      <trkpt lat="50.60732" lon="5.32345">
        <ele>175.60000610352</ele>
        <time>2021-07-11T10:08:23.000Z</time>
      </trkpt>
      <trkpt lat="50.60751" lon="5.32338">
        <ele>175.19999694824</ele>
        <time>2021-07-11T10:08:26.000Z</time>
      </trkpt>
      <trkpt lat="50.60797" lon="5.32327">
        <ele>175</ele>
        <time>2021-07-11T10:08:33.000Z</time>
      </trkpt>
      <trkpt lat="50.60819" lon="5.32326">
        <ele>174.80000305176</ele>
        <time>2021-07-11T10:08:36.000Z</time>
      </trkpt>
      <trkpt lat="50.6084" lon="5.32326">
        <ele>174.19999694824</ele>
        <time>2021-07-11T10:08:39.000Z</time>
      </trkpt>
      <trkpt lat="50.60876" lon="5.32326">
        <ele>173.19999694824</ele>
        <time>2021-07-11T10:08:44.000Z</time>
      </trkpt>
      <trkpt lat="50.60883" lon="5.32328">
        <ele>172.60000610352</ele>
        <time>2021-07-11T10:08:45.000Z</time>
      </trkpt>
      <trkpt lat="50.6091" lon="5.32336">
        <ele>172</ele>
        <time>2021-07-11T10:08:49.000Z</time>
      </trkpt>
      <trkpt lat="50.60927" lon="5.32344">
        <ele>171.80000305176</ele>
        <time>2021-07-11T10:08:53.000Z</time>
      </trkpt>
      <trkpt lat="50.60935" lon="5.32349">
        <ele>171.19999694824</ele>
        <time>2021-07-11T10:08:56.000Z</time>
      </trkpt>
      <trkpt lat="50.60942" lon="5.3235">
        <ele>170.80000305176</ele>
        <time>2021-07-11T10:08:59.000Z</time>
      </trkpt>
      <trkpt lat="50.60946" lon="5.3234">
        <ele>170.39999389648</ele>
        <time>2021-07-11T10:09:01.000Z</time>
      </trkpt>
      <trkpt lat="50.60948" lon="5.32332">
        <ele>170.39999389648</ele>
        <time>2021-07-11T10:09:02.000Z</time>
      </trkpt>
      <trkpt lat="50.60951" lon="5.32325">
        <ele>170.39999389648</ele>
        <time>2021-07-11T10:09:03.000Z</time>
      </trkpt>
      <trkpt lat="50.60961" lon="5.32318">
        <ele>170.39999389648</ele>
        <time>2021-07-11T10:09:05.000Z</time>
      </trkpt>
      <trkpt lat="50.60978" lon="5.32319">
        <ele>170.19999694824</ele>
        <time>2021-07-11T10:09:08.000Z</time>
      </trkpt>
      <trkpt lat="50.60989" lon="5.32319">
        <ele>170.19999694824</ele>
        <time>2021-07-11T10:09:10.000Z</time>
      </trkpt>
      <trkpt lat="50.61005" lon="5.3232">
        <ele>170</ele>
        <time>2021-07-11T10:09:13.000Z</time>
      </trkpt>
      <trkpt lat="50.61021" lon="5.3232">
        <ele>170.19999694824</ele>
        <time>2021-07-11T10:09:16.000Z</time>
      </trkpt>
      <trkpt lat="50.61064" lon="5.32323">
        <ele>171.19999694824</ele>
        <time>2021-07-11T10:09:23.000Z</time>
      </trkpt>
      <trkpt lat="50.61121" lon="5.3233">
        <ele>171.60000610352</ele>
        <time>2021-07-11T10:09:31.000Z</time>
      </trkpt>
      <trkpt lat="50.61128" lon="5.32332">
        <ele>171.60000610352</ele>
        <time>2021-07-11T10:09:32.000Z</time>
      </trkpt>
      <trkpt lat="50.61149" lon="5.32337">
        <ele>171.39999389648</ele>
        <time>2021-07-11T10:09:35.000Z</time>
      </trkpt>
      <trkpt lat="50.61205" lon="5.32352">
        <ele>170.60000610352</ele>
        <time>2021-07-11T10:09:43.000Z</time>
      </trkpt>
      <trkpt lat="50.6126" lon="5.32372">
        <ele>169.80000305176</ele>
        <time>2021-07-11T10:09:51.000Z</time>
      </trkpt>
      <trkpt lat="50.61273" lon="5.32377">
        <ele>169.39999389648</ele>
        <time>2021-07-11T10:09:53.000Z</time>
      </trkpt>
      <trkpt lat="50.61287" lon="5.32382">
        <ele>169.39999389648</ele>
        <time>2021-07-11T10:09:55.000Z</time>
      </trkpt>
      <trkpt lat="50.61337" lon="5.32401">
        <ele>169</ele>
        <time>2021-07-11T10:10:02.000Z</time>
      </trkpt>
      <trkpt lat="50.61392" lon="5.32424">
        <ele>168.39999389648</ele>
        <time>2021-07-11T10:10:10.000Z</time>
      </trkpt>
      <trkpt lat="50.61406" lon="5.32429">
        <ele>168</ele>
        <time>2021-07-11T10:10:12.000Z</time>
      </trkpt>
      <trkpt lat="50.61459" lon="5.32442">
        <ele>168</ele>
        <time>2021-07-11T10:10:20.000Z</time>
      </trkpt>
      <trkpt lat="50.61466" lon="5.32443">
        <ele>168</ele>
        <time>2021-07-11T10:10:21.000Z</time>
      </trkpt>
      <trkpt lat="50.61514" lon="5.32455">
        <ele>168</ele>
        <time>2021-07-11T10:10:28.000Z</time>
      </trkpt>
      <trkpt lat="50.61521" lon="5.32456">
        <ele>168</ele>
        <time>2021-07-11T10:10:29.000Z</time>
      </trkpt>
      <trkpt lat="50.61563" lon="5.32466">
        <ele>167.60000610352</ele>
        <time>2021-07-11T10:10:35.000Z</time>
      </trkpt>
      <trkpt lat="50.61584" lon="5.32474">
        <ele>167.39999389648</ele>
        <time>2021-07-11T10:10:38.000Z</time>
      </trkpt>
      <trkpt lat="50.61608" lon="5.32498">
        <ele>167.19999694824</ele>
        <time>2021-07-11T10:10:42.000Z</time>
      </trkpt>
      <trkpt lat="50.61647" lon="5.32548">
        <ele>166.19999694824</ele>
        <time>2021-07-11T10:10:49.000Z</time>
      </trkpt>
      <trkpt lat="50.61652" lon="5.32555">
        <ele>166</ele>
        <time>2021-07-11T10:10:50.000Z</time>
      </trkpt>
      <trkpt lat="50.61684" lon="5.32609">
        <ele>165.60000610352</ele>
        <time>2021-07-11T10:10:57.000Z</time>
      </trkpt>
      <trkpt lat="50.61696" lon="5.32619">
        <ele>165.80000305176</ele>
        <time>2021-07-11T10:10:59.000Z</time>
      </trkpt>
      <trkpt lat="50.61709" lon="5.32628">
        <ele>165.80000305176</ele>
        <time>2021-07-11T10:11:01.000Z</time>
      </trkpt>
      <trkpt lat="50.61762" lon="5.32649">
        <ele>165.60000610352</ele>
        <time>2021-07-11T10:11:09.000Z</time>
      </trkpt>
      <trkpt lat="50.6182" lon="5.32672">
        <ele>165.19999694824</ele>
        <time>2021-07-11T10:11:18.000Z</time>
      </trkpt>
      <trkpt lat="50.61876" lon="5.32693">
        <ele>165</ele>
        <time>2021-07-11T10:11:26.000Z</time>
      </trkpt>
      <trkpt lat="50.61883" lon="5.32696">
        <ele>165</ele>
        <time>2021-07-11T10:11:27.000Z</time>
      </trkpt>
      <trkpt lat="50.61942" lon="5.32716">
        <ele>164.60000610352</ele>
        <time>2021-07-11T10:11:35.000Z</time>
      </trkpt>
      <trkpt lat="50.61957" lon="5.32721">
        <ele>164.19999694824</ele>
        <time>2021-07-11T10:11:37.000Z</time>
      </trkpt>
      <trkpt lat="50.61992" lon="5.32731">
        <ele>163.60000610352</ele>
        <time>2021-07-11T10:11:42.000Z</time>
      </trkpt>
      <trkpt lat="50.6201" lon="5.32736">
        <ele>163.19999694824</ele>
        <time>2021-07-11T10:11:45.000Z</time>
      </trkpt>
      <trkpt lat="50.62029" lon="5.3274">
        <ele>162.39999389648</ele>
        <time>2021-07-11T10:11:48.000Z</time>
      </trkpt>
      <trkpt lat="50.62068" lon="5.3275">
        <ele>161.39999389648</ele>
        <time>2021-07-11T10:11:54.000Z</time>
      </trkpt>
      <trkpt lat="50.621" lon="5.32758">
        <ele>160.39999389648</ele>
        <time>2021-07-11T10:11:59.000Z</time>
      </trkpt>
      <trkpt lat="50.62123" lon="5.32763">
        <ele>159.60000610352</ele>
        <time>2021-07-11T10:12:03.000Z</time>
      </trkpt>
      <trkpt lat="50.62149" lon="5.3277">
        <ele>158.39999389648</ele>
        <time>2021-07-11T10:12:08.000Z</time>
      </trkpt>
      <trkpt lat="50.62158" lon="5.32772">
        <ele>158.19999694824</ele>
        <time>2021-07-11T10:12:10.000Z</time>
      </trkpt>
      <trkpt lat="50.62179" lon="5.32775">
        <ele>157.80000305176</ele>
        <time>2021-07-11T10:12:14.000Z</time>
      </trkpt>
      <trkpt lat="50.62185" lon="5.32773">
        <ele>157.80000305176</ele>
        <time>2021-07-11T10:12:15.000Z</time>
      </trkpt>
      <trkpt lat="50.62215" lon="5.32758">
        <ele>157</ele>
        <time>2021-07-11T10:12:20.000Z</time>
      </trkpt>
      <trkpt lat="50.62269" lon="5.32728">
        <ele>155.80000305176</ele>
        <time>2021-07-11T10:12:28.000Z</time>
      </trkpt>
      <trkpt lat="50.62283" lon="5.3272">
        <ele>155.60000610352</ele>
        <time>2021-07-11T10:12:30.000Z</time>
      </trkpt>
      <trkpt lat="50.62305" lon="5.32707">
        <ele>155.39999389648</ele>
        <time>2021-07-11T10:12:33.000Z</time>
      </trkpt>
      <trkpt lat="50.62337" lon="5.3269">
        <ele>155</ele>
        <time>2021-07-11T10:12:37.000Z</time>
      </trkpt>
      <trkpt lat="50.62354" lon="5.32681">
        <ele>154.19999694824</ele>
        <time>2021-07-11T10:12:39.000Z</time>
      </trkpt>
      <trkpt lat="50.6239" lon="5.32658">
        <ele>152.80000305176</ele>
        <time>2021-07-11T10:12:43.000Z</time>
      </trkpt>
      <trkpt lat="50.62421" lon="5.32623">
        <ele>151.39999389648</ele>
        <time>2021-07-11T10:12:47.000Z</time>
      </trkpt>
      <trkpt lat="50.62457" lon="5.32574">
        <ele>149.39999389648</ele>
        <time>2021-07-11T10:12:53.000Z</time>
      </trkpt>
      <trkpt lat="50.62473" lon="5.3255">
        <ele>149.19999694824</ele>
        <time>2021-07-11T10:12:56.000Z</time>
      </trkpt>
      <trkpt lat="50.62489" lon="5.32531">
        <ele>149.39999389648</ele>
        <time>2021-07-11T10:12:59.000Z</time>
      </trkpt>
      <trkpt lat="50.62509" lon="5.32504">
        <ele>150.19999694824</ele>
        <time>2021-07-11T10:13:04.000Z</time>
      </trkpt>
      <trkpt lat="50.62512" lon="5.32499">
        <ele>150.60000610352</ele>
        <time>2021-07-11T10:13:05.000Z</time>
      </trkpt>
      <trkpt lat="50.62519" lon="5.3249">
        <ele>151.19999694824</ele>
        <time>2021-07-11T10:13:07.000Z</time>
      </trkpt>
      <trkpt lat="50.62532" lon="5.3248">
        <ele>152.60000610352</ele>
        <time>2021-07-11T10:13:11.000Z</time>
      </trkpt>
      <trkpt lat="50.62545" lon="5.32487">
        <ele>153.60000610352</ele>
        <time>2021-07-11T10:13:15.000Z</time>
      </trkpt>
      <trkpt lat="50.62549" lon="5.325">
        <ele>154.39999389648</ele>
        <time>2021-07-11T10:13:17.000Z</time>
      </trkpt>
      <trkpt lat="50.62555" lon="5.32517">
        <ele>154.39999389648</ele>
        <time>2021-07-11T10:13:19.000Z</time>
      </trkpt>
      <trkpt lat="50.62567" lon="5.32554">
        <ele>154.60000610352</ele>
        <time>2021-07-11T10:13:23.000Z</time>
      </trkpt>
      <trkpt lat="50.62575" lon="5.32574">
        <ele>154.60000610352</ele>
        <time>2021-07-11T10:13:25.000Z</time>
      </trkpt>
      <trkpt lat="50.62583" lon="5.32595">
        <ele>154.39999389648</ele>
        <time>2021-07-11T10:13:27.000Z</time>
      </trkpt>
      <trkpt lat="50.62596" lon="5.32629">
        <ele>154</ele>
        <time>2021-07-11T10:13:30.000Z</time>
      </trkpt>
      <trkpt lat="50.626" lon="5.3264">
        <ele>154</ele>
        <time>2021-07-11T10:13:31.000Z</time>
      </trkpt>
      <trkpt lat="50.62612" lon="5.32674">
        <ele>153</ele>
        <time>2021-07-11T10:13:34.000Z</time>
      </trkpt>
      <trkpt lat="50.6262" lon="5.32696">
        <ele>152.39999389648</ele>
        <time>2021-07-11T10:13:36.000Z</time>
      </trkpt>
      <trkpt lat="50.62624" lon="5.32708">
        <ele>152</ele>
        <time>2021-07-11T10:13:37.000Z</time>
      </trkpt>
      <trkpt lat="50.62629" lon="5.32721">
        <ele>151.60000610352</ele>
        <time>2021-07-11T10:13:38.000Z</time>
      </trkpt>
      <trkpt lat="50.62642" lon="5.32758">
        <ele>150.60000610352</ele>
        <time>2021-07-11T10:13:41.000Z</time>
      </trkpt>
      <trkpt lat="50.62655" lon="5.32795">
        <ele>150</ele>
        <time>2021-07-11T10:13:44.000Z</time>
      </trkpt>
      <trkpt lat="50.62664" lon="5.32818">
        <ele>149</ele>
        <time>2021-07-11T10:13:46.000Z</time>
      </trkpt>
      <trkpt lat="50.62675" lon="5.3285">
        <ele>148.19999694824</ele>
        <time>2021-07-11T10:13:49.000Z</time>
      </trkpt>
      <trkpt lat="50.62679" lon="5.3286">
        <ele>148.39999389648</ele>
        <time>2021-07-11T10:13:50.000Z</time>
      </trkpt>
      <trkpt lat="50.62688" lon="5.32887">
        <ele>148.19999694824</ele>
        <time>2021-07-11T10:13:53.000Z</time>
      </trkpt>
      <trkpt lat="50.62694" lon="5.32903">
        <ele>148.19999694824</ele>
        <time>2021-07-11T10:13:55.000Z</time>
      </trkpt>
      <trkpt lat="50.62702" lon="5.32925">
        <ele>148.60000610352</ele>
        <time>2021-07-11T10:13:58.000Z</time>
      </trkpt>
      <trkpt lat="50.62714" lon="5.32962">
        <ele>150.39999389648</ele>
        <time>2021-07-11T10:14:03.000Z</time>
      </trkpt>
      <trkpt lat="50.62717" lon="5.3297">
        <ele>150.60000610352</ele>
        <time>2021-07-11T10:14:04.000Z</time>
      </trkpt>
      <trkpt lat="50.62731" lon="5.33008">
        <ele>151.80000305176</ele>
        <time>2021-07-11T10:14:09.000Z</time>
      </trkpt>
      <trkpt lat="50.62735" lon="5.33014">
        <ele>152</ele>
        <time>2021-07-11T10:14:10.000Z</time>
      </trkpt>
      <trkpt lat="50.62743" lon="5.33026">
        <ele>152.60000610352</ele>
        <time>2021-07-11T10:14:12.000Z</time>
      </trkpt>
      <trkpt lat="50.62748" lon="5.33031">
        <ele>152.80000305176</ele>
        <time>2021-07-11T10:14:13.000Z</time>
      </trkpt>
      <trkpt lat="50.62759" lon="5.33037">
        <ele>153.19999694824</ele>
        <time>2021-07-11T10:14:15.000Z</time>
      </trkpt>
      <trkpt lat="50.62765" lon="5.33039">
        <ele>153.19999694824</ele>
        <time>2021-07-11T10:14:16.000Z</time>
      </trkpt>
      <trkpt lat="50.6277" lon="5.33039">
        <ele>153.39999389648</ele>
        <time>2021-07-11T10:14:17.000Z</time>
      </trkpt>
      <trkpt lat="50.62794" lon="5.33036">
        <ele>154</ele>
        <time>2021-07-11T10:14:21.000Z</time>
      </trkpt>
      <trkpt lat="50.62849" lon="5.3302">
        <ele>153.80000305176</ele>
        <time>2021-07-11T10:14:30.000Z</time>
      </trkpt>
      <trkpt lat="50.62861" lon="5.33016">
        <ele>153.80000305176</ele>
        <time>2021-07-11T10:14:32.000Z</time>
      </trkpt>
      <trkpt lat="50.62896" lon="5.33003">
        <ele>153.39999389648</ele>
        <time>2021-07-11T10:14:38.000Z</time>
      </trkpt>
      <trkpt lat="50.62949" lon="5.32969">
        <ele>152.80000305176</ele>
        <time>2021-07-11T10:14:48.000Z</time>
      </trkpt>
      <trkpt lat="50.6298" lon="5.32933">
        <ele>152.39999389648</ele>
        <time>2021-07-11T10:14:55.000Z</time>
      </trkpt>
      <trkpt lat="50.62991" lon="5.32923">
        <ele>151.80000305176</ele>
        <time>2021-07-11T10:14:59.000Z</time>
      </trkpt>
      <trkpt lat="50.63002" lon="5.32933">
        <ele>151.60000610352</ele>
        <time>2021-07-11T10:15:03.000Z</time>
      </trkpt>
      <trkpt lat="50.63023" lon="5.32973">
        <ele>151.39999389648</ele>
        <time>2021-07-11T10:15:11.000Z</time>
      </trkpt>
      <trkpt lat="50.63031" lon="5.32998">
        <ele>151.39999389648</ele>
        <time>2021-07-11T10:15:15.000Z</time>
      </trkpt>
      <trkpt lat="50.63033" lon="5.33012">
        <ele>151.80000305176</ele>
        <time>2021-07-11T10:15:17.000Z</time>
      </trkpt>
      <trkpt lat="50.63035" lon="5.33034">
        <ele>152.60000610352</ele>
        <time>2021-07-11T10:15:20.000Z</time>
      </trkpt>
      <trkpt lat="50.63037" lon="5.33074">
        <ele>154</ele>
        <time>2021-07-11T10:15:25.000Z</time>
      </trkpt>
      <trkpt lat="50.63042" lon="5.33127">
        <ele>155.60000610352</ele>
        <time>2021-07-11T10:15:31.000Z</time>
      </trkpt>
      <trkpt lat="50.63043" lon="5.33137">
        <ele>155.80000305176</ele>
        <time>2021-07-11T10:15:32.000Z</time>
      </trkpt>
      <trkpt lat="50.63048" lon="5.33173">
        <ele>156.60000610352</ele>
        <time>2021-07-11T10:15:36.000Z</time>
      </trkpt>
      <trkpt lat="50.63051" lon="5.33198">
        <ele>157.19999694824</ele>
        <time>2021-07-11T10:15:39.000Z</time>
      </trkpt>
      <trkpt lat="50.63055" lon="5.3323">
        <ele>158.19999694824</ele>
        <time>2021-07-11T10:15:43.000Z</time>
      </trkpt>
      <trkpt lat="50.63058" lon="5.33256">
        <ele>159.19999694824</ele>
        <time>2021-07-11T10:15:46.000Z</time>
      </trkpt>
      <trkpt lat="50.63059" lon="5.33265">
        <ele>159.39999389648</ele>
        <time>2021-07-11T10:15:47.000Z</time>
      </trkpt>
      <trkpt lat="50.63066" lon="5.33309">
        <ele>161.19999694824</ele>
        <time>2021-07-11T10:15:52.000Z</time>
      </trkpt>
      <trkpt lat="50.63071" lon="5.33334">
        <ele>161.80000305176</ele>
        <time>2021-07-11T10:15:55.000Z</time>
      </trkpt>
      <trkpt lat="50.63084" lon="5.33392">
        <ele>164</ele>
        <time>2021-07-11T10:16:02.000Z</time>
      </trkpt>
      <trkpt lat="50.63089" lon="5.33418">
        <ele>165</ele>
        <time>2021-07-11T10:16:05.000Z</time>
      </trkpt>
      <trkpt lat="50.63092" lon="5.33435">
        <ele>165.39999389648</ele>
        <time>2021-07-11T10:16:07.000Z</time>
      </trkpt>
      <trkpt lat="50.63101" lon="5.33458">
        <ele>165.80000305176</ele>
        <time>2021-07-11T10:16:10.000Z</time>
      </trkpt>
      <trkpt lat="50.63109" lon="5.33473">
        <ele>166.19999694824</ele>
        <time>2021-07-11T10:16:12.000Z</time>
      </trkpt>
      <trkpt lat="50.63122" lon="5.33492">
        <ele>166.80000305176</ele>
        <time>2021-07-11T10:16:15.000Z</time>
      </trkpt>
      <trkpt lat="50.63132" lon="5.33502">
        <ele>167</ele>
        <time>2021-07-11T10:16:17.000Z</time>
      </trkpt>
      <trkpt lat="50.63138" lon="5.33507">
        <ele>167.39999389648</ele>
        <time>2021-07-11T10:16:18.000Z</time>
      </trkpt>
      <trkpt lat="50.63155" lon="5.33518">
        <ele>167.80000305176</ele>
        <time>2021-07-11T10:16:21.000Z</time>
      </trkpt>
      <trkpt lat="50.63199" lon="5.33531">
        <ele>169.39999389648</ele>
        <time>2021-07-11T10:16:28.000Z</time>
      </trkpt>
      <trkpt lat="50.63248" lon="5.33546">
        <ele>170.19999694824</ele>
        <time>2021-07-11T10:16:36.000Z</time>
      </trkpt>
      <trkpt lat="50.63305" lon="5.33561">
        <ele>170.19999694824</ele>
        <time>2021-07-11T10:16:45.000Z</time>
      </trkpt>
      <trkpt lat="50.63318" lon="5.33564">
        <ele>170.19999694824</ele>
        <time>2021-07-11T10:16:47.000Z</time>
      </trkpt>
      <trkpt lat="50.63339" lon="5.33568">
        <ele>170</ele>
        <time>2021-07-11T10:16:50.000Z</time>
      </trkpt>
      <trkpt lat="50.63393" lon="5.3358">
        <ele>169.39999389648</ele>
        <time>2021-07-11T10:16:58.000Z</time>
      </trkpt>
      <trkpt lat="50.63448" lon="5.33592">
        <ele>169</ele>
        <time>2021-07-11T10:17:06.000Z</time>
      </trkpt>
      <trkpt lat="50.63461" lon="5.33595">
        <ele>168.80000305176</ele>
        <time>2021-07-11T10:17:08.000Z</time>
      </trkpt>
      <trkpt lat="50.63474" lon="5.33599">
        <ele>168.60000610352</ele>
        <time>2021-07-11T10:17:10.000Z</time>
      </trkpt>
      <trkpt lat="50.63489" lon="5.33603">
        <ele>168.80000305176</ele>
        <time>2021-07-11T10:17:13.000Z</time>
      </trkpt>
      <trkpt lat="50.63495" lon="5.33611">
        <ele>168.60000610352</ele>
        <time>2021-07-11T10:17:15.000Z</time>
      </trkpt>
      <trkpt lat="50.63496" lon="5.33617">
        <ele>168.60000610352</ele>
        <time>2021-07-11T10:17:16.000Z</time>
      </trkpt>
      <trkpt lat="50.63496" lon="5.33624">
        <ele>168.60000610352</ele>
        <time>2021-07-11T10:17:17.000Z</time>
      </trkpt>
      <trkpt lat="50.63494" lon="5.3364">
        <ele>168.39999389648</ele>
        <time>2021-07-11T10:17:19.000Z</time>
      </trkpt>
      <trkpt lat="50.63489" lon="5.33693">
        <ele>168.19999694824</ele>
        <time>2021-07-11T10:17:25.000Z</time>
      </trkpt>
      <trkpt lat="50.63487" lon="5.3377">
        <ele>168.80000305176</ele>
        <time>2021-07-11T10:17:33.000Z</time>
      </trkpt>
      <trkpt lat="50.63484" lon="5.33852">
        <ele>169.60000610352</ele>
        <time>2021-07-11T10:17:41.000Z</time>
      </trkpt>
      <trkpt lat="50.63484" lon="5.33863">
        <ele>169.60000610352</ele>
        <time>2021-07-11T10:17:42.000Z</time>
      </trkpt>
      <trkpt lat="50.63483" lon="5.3394">
        <ele>170</ele>
        <time>2021-07-11T10:17:49.000Z</time>
      </trkpt>
      <trkpt lat="50.63483" lon="5.33962">
        <ele>170</ele>
        <time>2021-07-11T10:17:51.000Z</time>
      </trkpt>
      <trkpt lat="50.63482" lon="5.3405">
        <ele>171.19999694824</ele>
        <time>2021-07-11T10:17:59.000Z</time>
      </trkpt>
      <trkpt lat="50.63481" lon="5.34061">
        <ele>171.19999694824</ele>
        <time>2021-07-11T10:18:00.000Z</time>
      </trkpt>
      <trkpt lat="50.63481" lon="5.34072">
        <ele>171.39999389648</ele>
        <time>2021-07-11T10:18:01.000Z</time>
      </trkpt>
      <trkpt lat="50.63476" lon="5.3416">
        <ele>172.19999694824</ele>
        <time>2021-07-11T10:18:09.000Z</time>
      </trkpt>
      <trkpt lat="50.63463" lon="5.34238">
        <ele>172.80000305176</ele>
        <time>2021-07-11T10:18:16.000Z</time>
      </trkpt>
      <trkpt lat="50.63461" lon="5.3425">
        <ele>172.60000610352</ele>
        <time>2021-07-11T10:18:17.000Z</time>
      </trkpt>
      <trkpt lat="50.63446" lon="5.34333">
        <ele>172.19999694824</ele>
        <time>2021-07-11T10:18:24.000Z</time>
      </trkpt>
      <trkpt lat="50.63442" lon="5.34358">
        <ele>171.80000305176</ele>
        <time>2021-07-11T10:18:26.000Z</time>
      </trkpt>
      <trkpt lat="50.6344" lon="5.34371">
        <ele>172</ele>
        <time>2021-07-11T10:18:27.000Z</time>
      </trkpt>
      <trkpt lat="50.63424" lon="5.34458">
        <ele>171.39999389648</ele>
        <time>2021-07-11T10:18:34.000Z</time>
      </trkpt>
      <trkpt lat="50.63411" lon="5.34531">
        <ele>170.60000610352</ele>
        <time>2021-07-11T10:18:40.000Z</time>
      </trkpt>
      <trkpt lat="50.63395" lon="5.3462">
        <ele>170.80000305176</ele>
        <time>2021-07-11T10:18:48.000Z</time>
      </trkpt>
      <trkpt lat="50.63393" lon="5.34631">
        <ele>171</ele>
        <time>2021-07-11T10:18:49.000Z</time>
      </trkpt>
      <trkpt lat="50.63389" lon="5.34652">
        <ele>171</ele>
        <time>2021-07-11T10:18:51.000Z</time>
      </trkpt>
      <trkpt lat="50.63376" lon="5.34726">
        <ele>171.19999694824</ele>
        <time>2021-07-11T10:18:58.000Z</time>
      </trkpt>
      <trkpt lat="50.63372" lon="5.34747">
        <ele>171.39999389648</ele>
        <time>2021-07-11T10:19:00.000Z</time>
      </trkpt>
      <trkpt lat="50.63361" lon="5.34807">
        <ele>172.80000305176</ele>
        <time>2021-07-11T10:19:06.000Z</time>
      </trkpt>
      <trkpt lat="50.63351" lon="5.34877">
        <ele>173.19999694824</ele>
        <time>2021-07-11T10:19:13.000Z</time>
      </trkpt>
      <trkpt lat="50.63344" lon="5.34967">
        <ele>173.80000305176</ele>
        <time>2021-07-11T10:19:21.000Z</time>
      </trkpt>
      <trkpt lat="50.63343" lon="5.34979">
        <ele>173.60000610352</ele>
        <time>2021-07-11T10:19:22.000Z</time>
      </trkpt>
      <trkpt lat="50.63339" lon="5.3504">
        <ele>173.60000610352</ele>
        <time>2021-07-11T10:19:27.000Z</time>
      </trkpt>
      <trkpt lat="50.63336" lon="5.3509">
        <ele>173</ele>
        <time>2021-07-11T10:19:31.000Z</time>
      </trkpt>
      <trkpt lat="50.6333" lon="5.3518">
        <ele>171.80000305176</ele>
        <time>2021-07-11T10:19:38.000Z</time>
      </trkpt>
      <trkpt lat="50.63328" lon="5.35233">
        <ele>170.80000305176</ele>
        <time>2021-07-11T10:19:42.000Z</time>
      </trkpt>
      <trkpt lat="50.63327" lon="5.35326">
        <ele>170</ele>
        <time>2021-07-11T10:19:49.000Z</time>
      </trkpt>
      <trkpt lat="50.63326" lon="5.35364">
        <ele>169.39999389648</ele>
        <time>2021-07-11T10:19:52.000Z</time>
      </trkpt>
      <trkpt lat="50.63323" lon="5.35448">
        <ele>168.60000610352</ele>
        <time>2021-07-11T10:19:59.000Z</time>
      </trkpt>
      <trkpt lat="50.63322" lon="5.3547">
        <ele>168.60000610352</ele>
        <time>2021-07-11T10:20:01.000Z</time>
      </trkpt>
      <trkpt lat="50.63314" lon="5.35563">
        <ele>169</ele>
        <time>2021-07-11T10:20:09.000Z</time>
      </trkpt>
      <trkpt lat="50.63311" lon="5.35586">
        <ele>169.19999694824</ele>
        <time>2021-07-11T10:20:11.000Z</time>
      </trkpt>
      <trkpt lat="50.63302" lon="5.35674">
        <ele>169.80000305176</ele>
        <time>2021-07-11T10:20:19.000Z</time>
      </trkpt>
      <trkpt lat="50.63299" lon="5.35708">
        <ele>170.60000610352</ele>
        <time>2021-07-11T10:20:22.000Z</time>
      </trkpt>
      <trkpt lat="50.6329" lon="5.35786">
        <ele>171</ele>
        <time>2021-07-11T10:20:29.000Z</time>
      </trkpt>
      <trkpt lat="50.63284" lon="5.3584">
        <ele>171.80000305176</ele>
        <time>2021-07-11T10:20:34.000Z</time>
      </trkpt>
      <trkpt lat="50.63276" lon="5.35927">
        <ele>172.80000305176</ele>
        <time>2021-07-11T10:20:42.000Z</time>
      </trkpt>
      <trkpt lat="50.6327" lon="5.35981">
        <ele>173.39999389648</ele>
        <time>2021-07-11T10:20:47.000Z</time>
      </trkpt>
      <trkpt lat="50.63264" lon="5.36056">
        <ele>174</ele>
        <time>2021-07-11T10:20:54.000Z</time>
      </trkpt>
      <trkpt lat="50.63266" lon="5.36098">
        <ele>174.60000610352</ele>
        <time>2021-07-11T10:20:58.000Z</time>
      </trkpt>
      <trkpt lat="50.63269" lon="5.3612">
        <ele>174.80000305176</ele>
        <time>2021-07-11T10:21:00.000Z</time>
      </trkpt>
      <trkpt lat="50.63279" lon="5.36204">
        <ele>175.60000610352</ele>
        <time>2021-07-11T10:21:08.000Z</time>
      </trkpt>
      <trkpt lat="50.6328" lon="5.36214">
        <ele>175.60000610352</ele>
        <time>2021-07-11T10:21:09.000Z</time>
      </trkpt>
      <trkpt lat="50.6329" lon="5.3629">
        <ele>176.19999694824</ele>
        <time>2021-07-11T10:21:17.000Z</time>
      </trkpt>
      <trkpt lat="50.63293" lon="5.36324">
        <ele>176.39999389648</ele>
        <time>2021-07-11T10:21:22.000Z</time>
      </trkpt>
      <trkpt lat="50.63293" lon="5.36333">
        <ele>176.39999389648</ele>
        <time>2021-07-11T10:21:26.000Z</time>
      </trkpt>
      <trkpt lat="50.63293" lon="5.36343">
        <ele>176.39999389648</ele>
        <time>2021-07-11T10:21:34.000Z</time>
      </trkpt>
      <trkpt lat="50.63294" lon="5.36348">
        <ele>176.60000610352</ele>
        <time>2021-07-11T10:21:35.000Z</time>
      </trkpt>
      <trkpt lat="50.63295" lon="5.36354">
        <ele>176.60000610352</ele>
        <time>2021-07-11T10:21:36.000Z</time>
      </trkpt>
      <trkpt lat="50.63296" lon="5.36374">
        <ele>176.39999389648</ele>
        <time>2021-07-11T10:21:39.000Z</time>
      </trkpt>
      <trkpt lat="50.63296" lon="5.36433">
        <ele>176.60000610352</ele>
        <time>2021-07-11T10:21:46.000Z</time>
      </trkpt>
      <trkpt lat="50.63296" lon="5.36516">
        <ele>176.60000610352</ele>
        <time>2021-07-11T10:21:55.000Z</time>
      </trkpt>
      <trkpt lat="50.63295" lon="5.366">
        <ele>176</ele>
        <time>2021-07-11T10:22:03.000Z</time>
      </trkpt>
      <trkpt lat="50.63295" lon="5.36622">
        <ele>175.80000305176</ele>
        <time>2021-07-11T10:22:05.000Z</time>
      </trkpt>
      <trkpt lat="50.63295" lon="5.36715">
        <ele>175.19999694824</ele>
        <time>2021-07-11T10:22:13.000Z</time>
      </trkpt>
      <trkpt lat="50.63295" lon="5.36727">
        <ele>175</ele>
        <time>2021-07-11T10:22:14.000Z</time>
      </trkpt>
      <trkpt lat="50.63298" lon="5.3682">
        <ele>174.19999694824</ele>
        <time>2021-07-11T10:22:22.000Z</time>
      </trkpt>
      <trkpt lat="50.633" lon="5.36843">
        <ele>174.19999694824</ele>
        <time>2021-07-11T10:22:24.000Z</time>
      </trkpt>
      <trkpt lat="50.63307" lon="5.36935">
        <ele>174.19999694824</ele>
        <time>2021-07-11T10:22:32.000Z</time>
      </trkpt>
      <trkpt lat="50.63311" lon="5.36979">
        <ele>174.39999389648</ele>
        <time>2021-07-11T10:22:36.000Z</time>
      </trkpt>
      <trkpt lat="50.63317" lon="5.37066">
        <ele>174.80000305176</ele>
        <time>2021-07-11T10:22:44.000Z</time>
      </trkpt>
      <trkpt lat="50.63321" lon="5.37108">
        <ele>175</ele>
        <time>2021-07-11T10:22:48.000Z</time>
      </trkpt>
      <trkpt lat="50.63327" lon="5.37186">
        <ele>175</ele>
        <time>2021-07-11T10:22:55.000Z</time>
      </trkpt>
      <trkpt lat="50.63328" lon="5.37198">
        <ele>175</ele>
        <time>2021-07-11T10:22:56.000Z</time>
      </trkpt>
      <trkpt lat="50.63335" lon="5.37282">
        <ele>174.19999694824</ele>
        <time>2021-07-11T10:23:03.000Z</time>
      </trkpt>
      <trkpt lat="50.63342" lon="5.37367">
        <ele>173</ele>
        <time>2021-07-11T10:23:10.000Z</time>
      </trkpt>
      <trkpt lat="50.63343" lon="5.37391">
        <ele>173</ele>
        <time>2021-07-11T10:23:12.000Z</time>
      </trkpt>
      <trkpt lat="50.6335" lon="5.37476">
        <ele>172.39999389648</ele>
        <time>2021-07-11T10:23:19.000Z</time>
      </trkpt>
      <trkpt lat="50.63352" lon="5.37499">
        <ele>172.39999389648</ele>
        <time>2021-07-11T10:23:21.000Z</time>
      </trkpt>
      <trkpt lat="50.63353" lon="5.37511">
        <ele>172.39999389648</ele>
        <time>2021-07-11T10:23:22.000Z</time>
      </trkpt>
      <trkpt lat="50.6336" lon="5.37602">
        <ele>171.80000305176</ele>
        <time>2021-07-11T10:23:30.000Z</time>
      </trkpt>
      <trkpt lat="50.63361" lon="5.37625">
        <ele>171.60000610352</ele>
        <time>2021-07-11T10:23:32.000Z</time>
      </trkpt>
      <trkpt lat="50.63365" lon="5.37673">
        <ele>171.19999694824</ele>
        <time>2021-07-11T10:23:36.000Z</time>
      </trkpt>
      <trkpt lat="50.63368" lon="5.3771">
        <ele>171</ele>
        <time>2021-07-11T10:23:39.000Z</time>
      </trkpt>
      <trkpt lat="50.6337" lon="5.37735">
        <ele>170.80000305176</ele>
        <time>2021-07-11T10:23:41.000Z</time>
      </trkpt>
      <trkpt lat="50.63372" lon="5.3776">
        <ele>170.80000305176</ele>
        <time>2021-07-11T10:23:43.000Z</time>
      </trkpt>
      <trkpt lat="50.63375" lon="5.37798">
        <ele>170</ele>
        <time>2021-07-11T10:23:46.000Z</time>
      </trkpt>
      <trkpt lat="50.6338" lon="5.3785">
        <ele>168.60000610352</ele>
        <time>2021-07-11T10:23:50.000Z</time>
      </trkpt>
      <trkpt lat="50.6338" lon="5.37863">
        <ele>168.39999389648</ele>
        <time>2021-07-11T10:23:51.000Z</time>
      </trkpt>
      <trkpt lat="50.63388" lon="5.37954">
        <ele>167</ele>
        <time>2021-07-11T10:23:58.000Z</time>
      </trkpt>
      <trkpt lat="50.63389" lon="5.37967">
        <ele>166.60000610352</ele>
        <time>2021-07-11T10:23:59.000Z</time>
      </trkpt>
      <trkpt lat="50.63389" lon="5.3798">
        <ele>166.39999389648</ele>
        <time>2021-07-11T10:24:00.000Z</time>
      </trkpt>
      <trkpt lat="50.63396" lon="5.3807">
        <ele>165.80000305176</ele>
        <time>2021-07-11T10:24:07.000Z</time>
      </trkpt>
      <trkpt lat="50.63399" lon="5.38095">
        <ele>165.60000610352</ele>
        <time>2021-07-11T10:24:09.000Z</time>
      </trkpt>
      <trkpt lat="50.63401" lon="5.38122">
        <ele>165.60000610352</ele>
        <time>2021-07-11T10:24:11.000Z</time>
      </trkpt>
      <trkpt lat="50.63402" lon="5.38135">
        <ele>165.39999389648</ele>
        <time>2021-07-11T10:24:12.000Z</time>
      </trkpt>
      <trkpt lat="50.63407" lon="5.38206">
        <ele>164.60000610352</ele>
        <time>2021-07-11T10:24:17.000Z</time>
      </trkpt>
      <trkpt lat="50.63409" lon="5.38234">
        <ele>164.19999694824</ele>
        <time>2021-07-11T10:24:19.000Z</time>
      </trkpt>
      <trkpt lat="50.63418" lon="5.38331">
        <ele>162.60000610352</ele>
        <time>2021-07-11T10:24:26.000Z</time>
      </trkpt>
      <trkpt lat="50.6342" lon="5.38371">
        <ele>162</ele>
        <time>2021-07-11T10:24:29.000Z</time>
      </trkpt>
      <trkpt lat="50.63427" lon="5.38457">
        <ele>161.60000610352</ele>
        <time>2021-07-11T10:24:36.000Z</time>
      </trkpt>
      <trkpt lat="50.63429" lon="5.38482">
        <ele>161.19999694824</ele>
        <time>2021-07-11T10:24:38.000Z</time>
      </trkpt>
      <trkpt lat="50.63436" lon="5.3857">
        <ele>161.19999694824</ele>
        <time>2021-07-11T10:24:45.000Z</time>
      </trkpt>
      <trkpt lat="50.63437" lon="5.38595">
        <ele>161.19999694824</ele>
        <time>2021-07-11T10:24:47.000Z</time>
      </trkpt>
      <trkpt lat="50.63444" lon="5.38684">
        <ele>160.60000610352</ele>
        <time>2021-07-11T10:24:54.000Z</time>
      </trkpt>
      <trkpt lat="50.63449" lon="5.38735">
        <ele>160.39999389648</ele>
        <time>2021-07-11T10:24:58.000Z</time>
      </trkpt>
      <trkpt lat="50.63456" lon="5.38824">
        <ele>160</ele>
        <time>2021-07-11T10:25:05.000Z</time>
      </trkpt>
      <trkpt lat="50.63459" lon="5.38863">
        <ele>160.19999694824</ele>
        <time>2021-07-11T10:25:08.000Z</time>
      </trkpt>
      <trkpt lat="50.63466" lon="5.38953">
        <ele>159.80000305176</ele>
        <time>2021-07-11T10:25:15.000Z</time>
      </trkpt>
      <trkpt lat="50.63469" lon="5.38991">
        <ele>159.80000305176</ele>
        <time>2021-07-11T10:25:18.000Z</time>
      </trkpt>
      <trkpt lat="50.63474" lon="5.39064">
        <ele>160</ele>
        <time>2021-07-11T10:25:24.000Z</time>
      </trkpt>
      <trkpt lat="50.63479" lon="5.39123">
        <ele>160.60000610352</ele>
        <time>2021-07-11T10:25:29.000Z</time>
      </trkpt>
      <trkpt lat="50.6348" lon="5.39135">
        <ele>160.60000610352</ele>
        <time>2021-07-11T10:25:30.000Z</time>
      </trkpt>
      <trkpt lat="50.63488" lon="5.39228">
        <ele>161.60000610352</ele>
        <time>2021-07-11T10:25:38.000Z</time>
      </trkpt>
      <trkpt lat="50.6349" lon="5.39251">
        <ele>161.80000305176</ele>
        <time>2021-07-11T10:25:40.000Z</time>
      </trkpt>
      <trkpt lat="50.63497" lon="5.39346">
        <ele>161.80000305176</ele>
        <time>2021-07-11T10:25:48.000Z</time>
      </trkpt>
      <trkpt lat="50.63499" lon="5.39369">
        <ele>161.80000305176</ele>
        <time>2021-07-11T10:25:50.000Z</time>
      </trkpt>
      <trkpt lat="50.63503" lon="5.39427">
        <ele>161.80000305176</ele>
        <time>2021-07-11T10:25:55.000Z</time>
      </trkpt>
      <trkpt lat="50.63507" lon="5.39471">
        <ele>161.60000610352</ele>
        <time>2021-07-11T10:25:59.000Z</time>
      </trkpt>
      <trkpt lat="50.63515" lon="5.3956">
        <ele>161.19999694824</ele>
        <time>2021-07-11T10:26:07.000Z</time>
      </trkpt>
      <trkpt lat="50.63517" lon="5.39591">
        <ele>161.19999694824</ele>
        <time>2021-07-11T10:26:10.000Z</time>
      </trkpt>
      <trkpt lat="50.63513" lon="5.3961">
        <ele>161</ele>
        <time>2021-07-11T10:26:12.000Z</time>
      </trkpt>
      <trkpt lat="50.63504" lon="5.39637">
        <ele>160.80000305176</ele>
        <time>2021-07-11T10:26:15.000Z</time>
      </trkpt>
      <trkpt lat="50.63501" lon="5.39645">
        <ele>160.80000305176</ele>
        <time>2021-07-11T10:26:16.000Z</time>
      </trkpt>
      <trkpt lat="50.63491" lon="5.3966">
        <ele>160.80000305176</ele>
        <time>2021-07-11T10:26:18.000Z</time>
      </trkpt>
      <trkpt lat="50.63485" lon="5.39667">
        <ele>160.80000305176</ele>
        <time>2021-07-11T10:26:19.000Z</time>
      </trkpt>
      <trkpt lat="50.63451" lon="5.39712">
        <ele>160.19999694824</ele>
        <time>2021-07-11T10:26:25.000Z</time>
      </trkpt>
      <trkpt lat="50.63426" lon="5.39743">
        <ele>159.80000305176</ele>
        <time>2021-07-11T10:26:29.000Z</time>
      </trkpt>
      <trkpt lat="50.63395" lon="5.39782">
        <ele>159.39999389648</ele>
        <time>2021-07-11T10:26:34.000Z</time>
      </trkpt>
      <trkpt lat="50.63352" lon="5.39838">
        <ele>158.80000305176</ele>
        <time>2021-07-11T10:26:41.000Z</time>
      </trkpt>
      <trkpt lat="50.63346" lon="5.39846">
        <ele>158.80000305176</ele>
        <time>2021-07-11T10:26:42.000Z</time>
      </trkpt>
      <trkpt lat="50.63327" lon="5.3987">
        <ele>158.39999389648</ele>
        <time>2021-07-11T10:26:45.000Z</time>
      </trkpt>
      <trkpt lat="50.63289" lon="5.3992">
        <ele>157.80000305176</ele>
        <time>2021-07-11T10:26:51.000Z</time>
      </trkpt>
      <trkpt lat="50.63276" lon="5.39937">
        <ele>157.60000610352</ele>
        <time>2021-07-11T10:26:53.000Z</time>
      </trkpt>
      <trkpt lat="50.63229" lon="5.39996">
        <ele>157.19999694824</ele>
        <time>2021-07-11T10:27:00.000Z</time>
      </trkpt>
      <trkpt lat="50.63222" lon="5.40004">
        <ele>157</ele>
        <time>2021-07-11T10:27:01.000Z</time>
      </trkpt>
      <trkpt lat="50.63178" lon="5.4006">
        <ele>156</ele>
        <time>2021-07-11T10:27:08.000Z</time>
      </trkpt>
      <trkpt lat="50.63134" lon="5.40117">
        <ele>155.19999694824</ele>
        <time>2021-07-11T10:27:15.000Z</time>
      </trkpt>
      <trkpt lat="50.63121" lon="5.40133">
        <ele>155</ele>
        <time>2021-07-11T10:27:17.000Z</time>
      </trkpt>
      <trkpt lat="50.63103" lon="5.40157">
        <ele>154.80000305176</ele>
        <time>2021-07-11T10:27:20.000Z</time>
      </trkpt>
      <trkpt lat="50.63073" lon="5.40195">
        <ele>154.39999389648</ele>
        <time>2021-07-11T10:27:25.000Z</time>
      </trkpt>
      <trkpt lat="50.63049" lon="5.40226">
        <ele>154.19999694824</ele>
        <time>2021-07-11T10:27:29.000Z</time>
      </trkpt>
      <trkpt lat="50.63037" lon="5.40242">
        <ele>154</ele>
        <time>2021-07-11T10:27:31.000Z</time>
      </trkpt>
      <trkpt lat="50.63001" lon="5.40289">
        <ele>153.19999694824</ele>
        <time>2021-07-11T10:27:37.000Z</time>
      </trkpt>
      <trkpt lat="50.62977" lon="5.4032">
        <ele>152.80000305176</ele>
        <time>2021-07-11T10:27:41.000Z</time>
      </trkpt>
      <trkpt lat="50.62972" lon="5.40328">
        <ele>152.80000305176</ele>
        <time>2021-07-11T10:27:42.000Z</time>
      </trkpt>
      <trkpt lat="50.62933" lon="5.40381">
        <ele>152.60000610352</ele>
        <time>2021-07-11T10:27:49.000Z</time>
      </trkpt>
      <trkpt lat="50.62898" lon="5.40428">
        <ele>152</ele>
        <time>2021-07-11T10:27:55.000Z</time>
      </trkpt>
      <trkpt lat="50.62892" lon="5.40436">
        <ele>152</ele>
        <time>2021-07-11T10:27:56.000Z</time>
      </trkpt>
      <trkpt lat="50.62849" lon="5.40488">
        <ele>151.39999389648</ele>
        <time>2021-07-11T10:28:03.000Z</time>
      </trkpt>
      <trkpt lat="50.62843" lon="5.40495">
        <ele>151.39999389648</ele>
        <time>2021-07-11T10:28:04.000Z</time>
      </trkpt>
      <trkpt lat="50.62818" lon="5.40527">
        <ele>151.39999389648</ele>
        <time>2021-07-11T10:28:09.000Z</time>
      </trkpt>
      <trkpt lat="50.628" lon="5.4055">
        <ele>151.60000610352</ele>
        <time>2021-07-11T10:28:13.000Z</time>
      </trkpt>
      <trkpt lat="50.62788" lon="5.40565">
        <ele>152.19999694824</ele>
        <time>2021-07-11T10:28:16.000Z</time>
      </trkpt>
      <trkpt lat="50.62772" lon="5.40585">
        <ele>153</ele>
        <time>2021-07-11T10:28:20.000Z</time>
      </trkpt>
      <trkpt lat="50.62767" lon="5.4059">
        <ele>158.5</ele>
      </trkpt>
      <trkpt lat="50.6278" lon="5.40625">
        <ele>158.1</ele>
        <extensions>
          <visugpx:TrkExtension xmlns:visugpx="https://www.visugpx.com/editgpx/">
            <visugpx:node>1</visugpx:node>
            </visugpx:TrkExtension>
        </extensions>
      </trkpt>
      <trkpt lat="50.62311" lon="5.4118">
        <ele>176.8</ele>
      </trkpt>
      <trkpt lat="50.62216" lon="5.41094">
        <ele>178.2</ele>
      </trkpt>
      <trkpt lat="50.62047" lon="5.41128">
        <ele>181.6</ele>
      </trkpt>
      <trkpt lat="50.61917" lon="5.41227">
        <ele>183</ele>
      </trkpt>
      <trkpt lat="50.62015" lon="5.41544">
        <ele>186</ele>
      </trkpt>
      <trkpt lat="50.61933" lon="5.41665">
        <ele>187</ele>
      </trkpt>
      <trkpt lat="50.61892" lon="5.41875">
        <ele>188.1</ele>
      </trkpt>
      <trkpt lat="50.61903" lon="5.42175">
        <ele>187.8</ele>
      </trkpt>
      <trkpt lat="50.61907" lon="5.42273">
        <ele>189.9</ele>
      </trkpt>
      <trkpt lat="50.61823" lon="5.42454">
        <ele>193.2</ele>
      </trkpt>
      <trkpt lat="50.6181" lon="5.42504">
        <ele>192.3</ele>
      </trkpt>
      <trkpt lat="50.61813" lon="5.42596">
        <ele>190.3</ele>
        <time>2021-07-11T10:32:53.000Z</time>
      </trkpt>
      <trkpt lat="50.6182" lon="5.42626">
        <ele>189.3</ele>
        <time>2021-07-11T10:32:54.000Z</time>
      </trkpt>
      <trkpt lat="50.6182" lon="5.42639">
        <ele>188.5</ele>
        <time>2021-07-11T10:32:56.000Z</time>
      </trkpt>
      <trkpt lat="50.61814" lon="5.42684">
        <ele>186.39999389648</ele>
        <time>2021-07-11T10:32:59.000Z</time>
      </trkpt>
      <trkpt lat="50.61812" lon="5.42699">
        <ele>186</ele>
        <time>2021-07-11T10:33:00.000Z</time>
      </trkpt>
      <trkpt lat="50.61804" lon="5.42745">
        <ele>185</ele>
        <time>2021-07-11T10:33:03.000Z</time>
      </trkpt>
      <trkpt lat="50.61801" lon="5.4276">
        <ele>184.80000305176</ele>
        <time>2021-07-11T10:33:04.000Z</time>
      </trkpt>
      <trkpt lat="50.61797" lon="5.42774">
        <ele>184.19999694824</ele>
        <time>2021-07-11T10:33:05.000Z</time>
      </trkpt>
      <trkpt lat="50.61787" lon="5.42799">
        <ele>183</ele>
        <time>2021-07-11T10:33:07.000Z</time>
      </trkpt>
      <trkpt lat="50.6177" lon="5.42846">
        <ele>182.39999389648</ele>
        <time>2021-07-11T10:33:11.000Z</time>
      </trkpt>
      <trkpt lat="50.61767" lon="5.42858">
        <ele>182.19999694824</ele>
        <time>2021-07-11T10:33:12.000Z</time>
      </trkpt>
      <trkpt lat="50.61767" lon="5.42871">
        <ele>182.39999389648</ele>
        <time>2021-07-11T10:33:13.000Z</time>
      </trkpt>
      <trkpt lat="50.6177" lon="5.42884">
        <ele>182.39999389648</ele>
        <time>2021-07-11T10:33:14.000Z</time>
      </trkpt>
      <trkpt lat="50.61773" lon="5.42896">
        <ele>182.19999694824</ele>
        <time>2021-07-11T10:33:15.000Z</time>
      </trkpt>
      <trkpt lat="50.61782" lon="5.42915">
        <ele>182.19999694824</ele>
        <time>2021-07-11T10:33:17.000Z</time>
      </trkpt>
      <trkpt lat="50.61803" lon="5.42936">
        <ele>183</ele>
        <time>2021-07-11T10:33:20.000Z</time>
      </trkpt>
      <trkpt lat="50.61811" lon="5.42943">
        <ele>183.39999389648</ele>
        <time>2021-07-11T10:33:21.000Z</time>
      </trkpt>
      <trkpt lat="50.61848" lon="5.4298">
        <ele>185</ele>
        <time>2021-07-11T10:33:26.000Z</time>
      </trkpt>
      <trkpt lat="50.61854" lon="5.42988">
        <ele>185.39999389648</ele>
        <time>2021-07-11T10:33:27.000Z</time>
      </trkpt>
      <trkpt lat="50.61889" lon="5.43034">
        <ele>186.39999389648</ele>
        <time>2021-07-11T10:33:32.000Z</time>
      </trkpt>
      <trkpt lat="50.61903" lon="5.43053">
        <ele>186.60000610352</ele>
        <time>2021-07-11T10:33:34.000Z</time>
      </trkpt>
      <trkpt lat="50.61949" lon="5.43117">
        <ele>186.80000305176</ele>
        <time>2021-07-11T10:33:41.000Z</time>
      </trkpt>
      <trkpt lat="50.61969" lon="5.43143">
        <ele>187.19999694824</ele>
        <time>2021-07-11T10:33:44.000Z</time>
      </trkpt>
      <trkpt lat="50.61983" lon="5.43157">
        <ele>187.19999694824</ele>
        <time>2021-07-11T10:33:46.000Z</time>
      </trkpt>
      <trkpt lat="50.6199" lon="5.43163">
        <ele>187.19999694824</ele>
        <time>2021-07-11T10:33:47.000Z</time>
      </trkpt>
      <trkpt lat="50.62014" lon="5.43177">
        <ele>187.19999694824</ele>
        <time>2021-07-11T10:33:50.000Z</time>
      </trkpt>
      <trkpt lat="50.6204" lon="5.43193">
        <ele>187.19999694824</ele>
        <time>2021-07-11T10:33:53.000Z</time>
      </trkpt>
      <trkpt lat="50.62048" lon="5.432">
        <ele>187.19999694824</ele>
        <time>2021-07-11T10:33:54.000Z</time>
      </trkpt>
      <trkpt lat="50.6207" lon="5.43224">
        <ele>187.19999694824</ele>
        <time>2021-07-11T10:33:57.000Z</time>
      </trkpt>
      <trkpt lat="50.62111" lon="5.43269">
        <ele>187.80000305176</ele>
        <time>2021-07-11T10:34:03.000Z</time>
      </trkpt>
      <trkpt lat="50.62117" lon="5.43275">
        <ele>188</ele>
        <time>2021-07-11T10:34:04.000Z</time>
      </trkpt>
      <trkpt lat="50.6215" lon="5.43313">
        <ele>188</ele>
        <time>2021-07-11T10:34:09.000Z</time>
      </trkpt>
      <trkpt lat="50.62161" lon="5.43336">
        <ele>188.39999389648</ele>
        <time>2021-07-11T10:34:11.000Z</time>
      </trkpt>
      <trkpt lat="50.6217" lon="5.43361">
        <ele>188.39999389648</ele>
        <time>2021-07-11T10:34:13.000Z</time>
      </trkpt>
      <trkpt lat="50.62185" lon="5.43399">
        <ele>188.39999389648</ele>
        <time>2021-07-11T10:34:16.000Z</time>
      </trkpt>
      <trkpt lat="50.62207" lon="5.43462">
        <ele>188.39999389648</ele>
        <time>2021-07-11T10:34:21.000Z</time>
      </trkpt>
      <trkpt lat="50.62209" lon="5.43475">
        <ele>188.19999694824</ele>
        <time>2021-07-11T10:34:22.000Z</time>
      </trkpt>
      <trkpt lat="50.62213" lon="5.43501">
        <ele>187.60000610352</ele>
        <time>2021-07-11T10:34:24.000Z</time>
      </trkpt>
      <trkpt lat="50.62218" lon="5.43513">
        <ele>187.19999694824</ele>
        <time>2021-07-11T10:34:25.000Z</time>
      </trkpt>
      <trkpt lat="50.62224" lon="5.43522">
        <ele>186.60000610352</ele>
        <time>2021-07-11T10:34:26.000Z</time>
      </trkpt>
      <trkpt lat="50.62237" lon="5.43541">
        <ele>186.39999389648</ele>
        <time>2021-07-11T10:34:28.000Z</time>
      </trkpt>
      <trkpt lat="50.62258" lon="5.4359">
        <ele>186</ele>
        <time>2021-07-11T10:34:32.000Z</time>
      </trkpt>
      <trkpt lat="50.62263" lon="5.43604">
        <ele>185.80000305176</ele>
        <time>2021-07-11T10:34:33.000Z</time>
      </trkpt>
      <trkpt lat="50.62275" lon="5.43632">
        <ele>185.80000305176</ele>
        <time>2021-07-11T10:34:35.000Z</time>
      </trkpt>
      <trkpt lat="50.62293" lon="5.43678">
        <ele>185.60000610352</ele>
        <time>2021-07-11T10:34:38.000Z</time>
      </trkpt>
      <trkpt lat="50.62299" lon="5.43694">
        <ele>185</ele>
        <time>2021-07-11T10:34:39.000Z</time>
      </trkpt>
      <trkpt lat="50.62316" lon="5.4374">
        <ele>183.80000305176</ele>
        <time>2021-07-11T10:34:42.000Z</time>
      </trkpt>
      <trkpt lat="50.62333" lon="5.4379">
        <ele>182.60000610352</ele>
        <time>2021-07-11T10:34:45.000Z</time>
      </trkpt>
      <trkpt lat="50.62337" lon="5.43806">
        <ele>182.19999694824</ele>
        <time>2021-07-11T10:34:46.000Z</time>
      </trkpt>
      <trkpt lat="50.62351" lon="5.43871">
        <ele>180.60000610352</ele>
        <time>2021-07-11T10:34:50.000Z</time>
      </trkpt>
      <trkpt lat="50.6237" lon="5.43964">
        <ele>180</ele>
        <time>2021-07-11T10:34:56.000Z</time>
      </trkpt>
      <trkpt lat="50.62372" lon="5.4398">
        <ele>180</ele>
        <time>2021-07-11T10:34:57.000Z</time>
      </trkpt>
      <trkpt lat="50.62373" lon="5.43996">
        <ele>180.19999694824</ele>
        <time>2021-07-11T10:34:58.000Z</time>
      </trkpt>
      <trkpt lat="50.62368" lon="5.44026">
        <ele>180</ele>
        <time>2021-07-11T10:35:00.000Z</time>
      </trkpt>
      <trkpt lat="50.62349" lon="5.44066">
        <ele>180.39999389648</ele>
        <time>2021-07-11T10:35:03.000Z</time>
      </trkpt>
      <trkpt lat="50.62315" lon="5.4413">
        <ele>181.19999694824</ele>
        <time>2021-07-11T10:35:08.000Z</time>
      </trkpt>
      <trkpt lat="50.6231" lon="5.44144">
        <ele>181</ele>
        <time>2021-07-11T10:35:09.000Z</time>
      </trkpt>
      <trkpt lat="50.62306" lon="5.44159">
        <ele>181.19999694824</ele>
        <time>2021-07-11T10:35:10.000Z</time>
      </trkpt>
      <trkpt lat="50.62305" lon="5.44191">
        <ele>181.39999389648</ele>
        <time>2021-07-11T10:35:12.000Z</time>
      </trkpt>
      <trkpt lat="50.62312" lon="5.44237">
        <ele>181.60000610352</ele>
        <time>2021-07-11T10:35:15.000Z</time>
      </trkpt>
      <trkpt lat="50.62327" lon="5.443">
        <ele>182</ele>
        <time>2021-07-11T10:35:19.000Z</time>
      </trkpt>
      <trkpt lat="50.62336" lon="5.44348">
        <ele>183</ele>
        <time>2021-07-11T10:35:22.000Z</time>
      </trkpt>
      <trkpt lat="50.62344" lon="5.44397">
        <ele>183.39999389648</ele>
        <time>2021-07-11T10:35:25.000Z</time>
      </trkpt>
      <trkpt lat="50.6235" lon="5.44463">
        <ele>183.80000305176</ele>
        <time>2021-07-11T10:35:29.000Z</time>
      </trkpt>
      <trkpt lat="50.62353" lon="5.44563">
        <ele>185.19999694824</ele>
        <time>2021-07-11T10:35:35.000Z</time>
      </trkpt>
      <trkpt lat="50.62353" lon="5.4458">
        <ele>185.60000610352</ele>
        <time>2021-07-11T10:35:36.000Z</time>
      </trkpt>
      <trkpt lat="50.62352" lon="5.44597">
        <ele>185.60000610352</ele>
        <time>2021-07-11T10:35:37.000Z</time>
      </trkpt>
      <trkpt lat="50.62346" lon="5.4468">
        <ele>186.39999389648</ele>
        <time>2021-07-11T10:35:42.000Z</time>
      </trkpt>
      <trkpt lat="50.62342" lon="5.44711">
        <ele>186.60000610352</ele>
        <time>2021-07-11T10:35:44.000Z</time>
      </trkpt>
      <trkpt lat="50.62331" lon="5.44749">
        <ele>191</ele>
      </trkpt>
      <trkpt lat="50.62326" lon="5.44822">
        <ele>190.8</ele>
        <time>2021-07-11T10:35:49.000Z</time>
      </trkpt>
      <trkpt lat="50.62326" lon="5.44853">
        <ele>190.2</ele>
        <time>2021-07-11T10:35:50.000Z</time>
        <extensions>
          <visugpx:TrkExtension xmlns:visugpx="https://www.visugpx.com/editgpx/">
            <visugpx:node>19</visugpx:node>
            </visugpx:TrkExtension>
        </extensions>
      </trkpt>
    </trkseg>
  </trk>
</gpx>